<?xml version='1.0' encoding='UTF-8'?><gpx version="1.1" creator="JPX - https://github.com/jenetics/jpx" xmlns="http://www.topografix.com/GPX/1/1"><trk><trkseg><trkpt lat="44.2143256" lon="11.6180779"><ele>216.0</ele><time>2026-04-18T13:06:48.071Z</time></trkpt><trkpt lat="44.214405" lon="11.618075"><ele>216.0</ele><time>2026-04-18T13:08:38.07Z</time></trkpt><trkpt lat="44.2144817" lon="11.6181567"><ele>216.0</ele><time>2026-04-18T13:09:45.07Z</time></trkpt><trkpt lat="44.2145733" lon="11.6181633"><ele>216.0</ele><time>2026-04-18T13:09:47.07Z</time></trkpt><trkpt lat="44.2146583" lon="11.618165"><ele>216.0</ele><time>2026-04-18T13:09:49.069Z</time></trkpt><trkpt lat="44.2147517" lon="11.6181567"><ele>216.0</ele><time>2026-04-18T13:09:51.07Z</time></trkpt><trkpt lat="44.21486" lon="11.61813"><ele>215.4</ele><time>2026-04-18T13:09:53.07Z</time></trkpt><trkpt lat="44.2149517" lon="11.6180667"><ele>214.8</ele><time>2026-04-18T13:09:55.069Z</time></trkpt><trkpt lat="44.21501" lon="11.617995"><ele>214.20000000000002</ele><time>2026-04-18T13:09:58.07Z</time></trkpt><trkpt lat="44.21504" lon="11.6178983"><ele>213.60000000000002</ele><time>2026-04-18T13:10:04.068Z</time></trkpt><trkpt lat="44.21493" lon="11.6178233"><ele>213.0</ele><time>2026-04-18T13:10:08.069Z</time></trkpt><trkpt lat="44.214835" lon="11.617825"><ele>216.0</ele><time>2026-04-18T13:10:09.068Z</time></trkpt><trkpt lat="44.21471" lon="11.6178183"><ele>219.0</ele><time>2026-04-18T13:10:10.068Z</time></trkpt><trkpt lat="44.2145667" lon="11.617815"><ele>222.0</ele><time>2026-04-18T13:10:11.069Z</time></trkpt><trkpt lat="44.21445" lon="11.6178083"><ele>225.0</ele><time>2026-04-18T13:10:12.069Z</time></trkpt><trkpt lat="44.214345" lon="11.6178033"><ele>225.0</ele><time>2026-04-18T13:10:13.068Z</time></trkpt><trkpt lat="44.2142433" lon="11.6178017"><ele>225.0</ele><time>2026-04-18T13:10:14.069Z</time></trkpt><trkpt lat="44.21415" lon="11.6178083"><ele>225.0</ele><time>2026-04-18T13:10:15.068Z</time></trkpt><trkpt lat="44.2140617" lon="11.61782"><ele>225.0</ele><time>2026-04-18T13:10:16.068Z</time></trkpt><trkpt lat="44.21397" lon="11.6178217"><ele>225.0</ele><time>2026-04-18T13:10:17.069Z</time></trkpt><trkpt lat="44.2138733" lon="11.6178217"><ele>224.8</ele><time>2026-04-18T13:10:18.069Z</time></trkpt><trkpt lat="44.21377" lon="11.6178117"><ele>224.6</ele><time>2026-04-18T13:10:19.069Z</time></trkpt><trkpt lat="44.2136667" lon="11.6177967"><ele>224.39999999999998</ele><time>2026-04-18T13:10:20.069Z</time></trkpt><trkpt lat="44.2135617" lon="11.617765"><ele>224.2</ele><time>2026-04-18T13:10:21.068Z</time></trkpt><trkpt lat="44.213445" lon="11.6177283"><ele>224.0</ele><time>2026-04-18T13:10:22.069Z</time></trkpt><trkpt lat="44.2133033" lon="11.6176733"><ele>223.0</ele><time>2026-04-18T13:10:23.068Z</time></trkpt><trkpt lat="44.2131533" lon="11.61761"><ele>222.0</ele><time>2026-04-18T13:10:24.069Z</time></trkpt><trkpt lat="44.213005" lon="11.6175483"><ele>221.0</ele><time>2026-04-18T13:10:25.068Z</time></trkpt><trkpt lat="44.21286" lon="11.6174833"><ele>221.0</ele><time>2026-04-18T13:10:26.069Z</time></trkpt><trkpt lat="44.2127217" lon="11.61743"><ele>221.0</ele><time>2026-04-18T13:10:27.069Z</time></trkpt><trkpt lat="44.212605" lon="11.617395"><ele>221.0</ele><time>2026-04-18T13:10:28.069Z</time></trkpt><trkpt lat="44.21251" lon="11.617365"><ele>221.0</ele><time>2026-04-18T13:10:29.069Z</time></trkpt><trkpt lat="44.2124233" lon="11.617335"><ele>221.00000000000003</ele><time>2026-04-18T13:10:30.069Z</time></trkpt><trkpt lat="44.2123517" lon="11.6173133"><ele>221.0</ele><time>2026-04-18T13:10:31.069Z</time></trkpt><trkpt lat="44.2122717" lon="11.617285"><ele>221.0</ele><time>2026-04-18T13:10:33.069Z</time></trkpt><trkpt lat="44.212205" lon="11.617265"><ele>221.0</ele><time>2026-04-18T13:10:35.069Z</time></trkpt><trkpt lat="44.2121317" lon="11.617235"><ele>221.00000000000003</ele><time>2026-04-18T13:10:37.069Z</time></trkpt><trkpt lat="44.2120517" lon="11.61721"><ele>221.0</ele><time>2026-04-18T13:10:39.069Z</time></trkpt><trkpt lat="44.2119467" lon="11.6171617"><ele>222.16666666666669</ele><time>2026-04-18T13:10:41.069Z</time></trkpt><trkpt lat="44.21188" lon="11.6171417"><ele>223.33333333333334</ele><time>2026-04-18T13:10:42.069Z</time></trkpt><trkpt lat="44.2118183" lon="11.6171017"><ele>224.5</ele><time>2026-04-18T13:10:43.069Z</time></trkpt><trkpt lat="44.2117617" lon="11.6170483"><ele>225.66666666666669</ele><time>2026-04-18T13:10:44.069Z</time></trkpt><trkpt lat="44.21169" lon="11.6169233"><ele>226.83333333333334</ele><time>2026-04-18T13:10:46.069Z</time></trkpt><trkpt lat="44.211685" lon="11.6167933"><ele>228.0</ele><time>2026-04-18T13:10:48.069Z</time></trkpt><trkpt lat="44.2117017" lon="11.6166917"><ele>228.0</ele><time>2026-04-18T13:10:49.068Z</time></trkpt><trkpt lat="44.2117317" lon="11.6165683"><ele>228.0</ele><time>2026-04-18T13:10:50.069Z</time></trkpt><trkpt lat="44.21178" lon="11.616405"><ele>228.0</ele><time>2026-04-18T13:10:51.069Z</time></trkpt><trkpt lat="44.211815" lon="11.6162633"><ele>228.0</ele><time>2026-04-18T13:10:52.068Z</time></trkpt><trkpt lat="44.2118467" lon="11.6161217"><ele>228.0</ele><time>2026-04-18T13:10:53.069Z</time></trkpt><trkpt lat="44.2118617" lon="11.6159733"><ele>229.60000000000002</ele><time>2026-04-18T13:10:54.069Z</time></trkpt><trkpt lat="44.2118817" lon="11.6158183"><ele>231.20000000000002</ele><time>2026-04-18T13:10:55.068Z</time></trkpt><trkpt lat="44.2119117" lon="11.6156583"><ele>232.8</ele><time>2026-04-18T13:10:56.069Z</time></trkpt><trkpt lat="44.2119283" lon="11.6155217"><ele>234.4</ele><time>2026-04-18T13:10:57.069Z</time></trkpt><trkpt lat="44.2119267" lon="11.6154017"><ele>236.0</ele><time>2026-04-18T13:10:58.068Z</time></trkpt><trkpt lat="44.2118967" lon="11.6153033"><ele>237.25</ele><time>2026-04-18T13:10:59.069Z</time></trkpt><trkpt lat="44.2118533" lon="11.6152183"><ele>238.5</ele><time>2026-04-18T13:11:00.068Z</time></trkpt><trkpt lat="44.211795" lon="11.6151433"><ele>239.75</ele><time>2026-04-18T13:11:01.069Z</time></trkpt><trkpt lat="44.211605" lon="11.6150833"><ele>241.0</ele><time>2026-04-18T13:11:02.069Z</time></trkpt><trkpt lat="44.2114233" lon="11.6149983"><ele>241.0</ele><time>2026-04-18T13:11:03.069Z</time></trkpt><trkpt lat="44.2112567" lon="11.6149133"><ele>241.0</ele><time>2026-04-18T13:11:04.069Z</time></trkpt><trkpt lat="44.2111167" lon="11.61482"><ele>241.0</ele><time>2026-04-18T13:11:05.069Z</time></trkpt><trkpt lat="44.2110083" lon="11.6147633"><ele>241.0</ele><time>2026-04-18T13:11:06.068Z</time></trkpt><trkpt lat="44.2108933" lon="11.614695"><ele>241.0</ele><time>2026-04-18T13:11:07.069Z</time></trkpt><trkpt lat="44.210785" lon="11.614605"><ele>241.0</ele><time>2026-04-18T13:11:08.069Z</time></trkpt><trkpt lat="44.2106467" lon="11.6144833"><ele>241.0</ele><time>2026-04-18T13:11:09.069Z</time></trkpt><trkpt lat="44.2105117" lon="11.6143633"><ele>245.33333333333331</ele><time>2026-04-18T13:11:10.069Z</time></trkpt><trkpt lat="44.210365" lon="11.614265"><ele>249.66666666666669</ele><time>2026-04-18T13:11:11.068Z</time></trkpt><trkpt lat="44.2102283" lon="11.6141833"><ele>254.0</ele><time>2026-04-18T13:11:12.069Z</time></trkpt><trkpt lat="44.2100883" lon="11.614105"><ele>254.0</ele><time>2026-04-18T13:11:13.069Z</time></trkpt><trkpt lat="44.2099367" lon="11.61403"><ele>254.0</ele><time>2026-04-18T13:11:14.069Z</time></trkpt><trkpt lat="44.2098067" lon="11.6139183"><ele>254.0</ele><time>2026-04-18T13:11:15.069Z</time></trkpt><trkpt lat="44.2096767" lon="11.6138083"><ele>252.25</ele><time>2026-04-18T13:11:16.069Z</time></trkpt><trkpt lat="44.20954" lon="11.6137167"><ele>250.5</ele><time>2026-04-18T13:11:17.068Z</time></trkpt><trkpt lat="44.2094167" lon="11.6136667"><ele>248.75</ele><time>2026-04-18T13:11:18.068Z</time></trkpt><trkpt lat="44.209285" lon="11.6136483"><ele>247.0</ele><time>2026-04-18T13:11:19.069Z</time></trkpt><trkpt lat="44.209145" lon="11.6136433"><ele>244.39999999999998</ele><time>2026-04-18T13:11:20.069Z</time></trkpt><trkpt lat="44.209015" lon="11.613655"><ele>241.79999999999998</ele><time>2026-04-18T13:11:21.069Z</time></trkpt><trkpt lat="44.2088967" lon="11.61367"><ele>239.2</ele><time>2026-04-18T13:11:22.069Z</time></trkpt><trkpt lat="44.2087933" lon="11.6136867"><ele>236.6</ele><time>2026-04-18T13:11:23.068Z</time></trkpt><trkpt lat="44.2087" lon="11.613685"><ele>234.0</ele><time>2026-04-18T13:11:24.069Z</time></trkpt><trkpt lat="44.20862" lon="11.6136767"><ele>234.0</ele><time>2026-04-18T13:11:25.069Z</time></trkpt><trkpt lat="44.2085417" lon="11.6136583"><ele>234.0</ele><time>2026-04-18T13:11:26.069Z</time></trkpt><trkpt lat="44.2084583" lon="11.6136217"><ele>234.0</ele><time>2026-04-18T13:11:27.068Z</time></trkpt><trkpt lat="44.2083833" lon="11.6135733"><ele>234.0</ele><time>2026-04-18T13:11:28.069Z</time></trkpt><trkpt lat="44.2083217" lon="11.6135267"><ele>234.0</ele><time>2026-04-18T13:11:29.068Z</time></trkpt><trkpt lat="44.20827" lon="11.6134633"><ele>234.0</ele><time>2026-04-18T13:11:30.069Z</time></trkpt><trkpt lat="44.208225" lon="11.61332"><ele>236.0</ele><time>2026-04-18T13:11:32.069Z</time></trkpt><trkpt lat="44.2083" lon="11.6131867"><ele>237.99999999999997</ele><time>2026-04-18T13:11:33.069Z</time></trkpt><trkpt lat="44.2083033" lon="11.6130833"><ele>239.99999999999997</ele><time>2026-04-18T13:11:34.068Z</time></trkpt><trkpt lat="44.2083033" lon="11.6129667"><ele>242.0</ele><time>2026-04-18T13:11:35.069Z</time></trkpt><trkpt lat="44.20831" lon="11.6128283"><ele>244.0</ele><time>2026-04-18T13:11:36.069Z</time></trkpt><trkpt lat="44.208375" lon="11.6126583"><ele>244.0</ele><time>2026-04-18T13:11:37.069Z</time></trkpt><trkpt lat="44.2084" lon="11.6125283"><ele>243.99999999999997</ele><time>2026-04-18T13:11:38.068Z</time></trkpt><trkpt lat="44.2084333" lon="11.61241"><ele>243.99999999999997</ele><time>2026-04-18T13:11:39.069Z</time></trkpt><trkpt lat="44.208485" lon="11.6122967"><ele>244.0</ele><time>2026-04-18T13:11:40.069Z</time></trkpt><trkpt lat="44.2085567" lon="11.61221"><ele>244.0</ele><time>2026-04-18T13:11:41.069Z</time></trkpt><trkpt lat="44.2086283" lon="11.6121167"><ele>244.0</ele><time>2026-04-18T13:11:42.069Z</time></trkpt><trkpt lat="44.2087033" lon="11.6120117"><ele>243.99999999999997</ele><time>2026-04-18T13:11:43.068Z</time></trkpt><trkpt lat="44.2087767" lon="11.6119217"><ele>243.99999999999997</ele><time>2026-04-18T13:11:44.069Z</time></trkpt><trkpt lat="44.2088533" lon="11.611805"><ele>244.0</ele><time>2026-04-18T13:11:45.068Z</time></trkpt><trkpt lat="44.2088633" lon="11.6116917"><ele>244.0</ele><time>2026-04-18T13:11:46.069Z</time></trkpt><trkpt lat="44.2088817" lon="11.6116017"><ele>244.33333333333331</ele><time>2026-04-18T13:11:47.069Z</time></trkpt><trkpt lat="44.2088767" lon="11.611485"><ele>244.66666666666666</ele><time>2026-04-18T13:11:48.069Z</time></trkpt><trkpt lat="44.2088483" lon="11.611385"><ele>245.0</ele><time>2026-04-18T13:11:49.069Z</time></trkpt><trkpt lat="44.2088067" lon="11.611305"><ele>245.33333333333331</ele><time>2026-04-18T13:11:50.069Z</time></trkpt><trkpt lat="44.2087433" lon="11.6112533"><ele>245.66666666666666</ele><time>2026-04-18T13:11:51.069Z</time></trkpt><trkpt lat="44.20863" lon="11.6113717"><ele>246.0</ele><time>2026-04-18T13:11:52.069Z</time></trkpt><trkpt lat="44.2085583" lon="11.6114417"><ele>246.0</ele><time>2026-04-18T13:11:53.069Z</time></trkpt><trkpt lat="44.208485" lon="11.6115467"><ele>246.00000000000003</ele><time>2026-04-18T13:11:54.069Z</time></trkpt><trkpt lat="44.2084067" lon="11.6116067"><ele>246.00000000000003</ele><time>2026-04-18T13:11:55.069Z</time></trkpt><trkpt lat="44.2083283" lon="11.611625"><ele>246.0</ele><time>2026-04-18T13:11:56.069Z</time></trkpt><trkpt lat="44.208245" lon="11.6116133"><ele>246.0</ele><time>2026-04-18T13:11:57.069Z</time></trkpt><trkpt lat="44.208135" lon="11.6116133"><ele>244.8</ele><time>2026-04-18T13:11:58.069Z</time></trkpt><trkpt lat="44.2080417" lon="11.6116067"><ele>243.60000000000002</ele><time>2026-04-18T13:11:59.068Z</time></trkpt><trkpt lat="44.2079333" lon="11.611595"><ele>242.4</ele><time>2026-04-18T13:12:00.069Z</time></trkpt><trkpt lat="44.2078383" lon="11.6116033"><ele>241.2</ele><time>2026-04-18T13:12:01.069Z</time></trkpt><trkpt lat="44.2077433" lon="11.611585"><ele>240.0</ele><time>2026-04-18T13:12:02.069Z</time></trkpt><trkpt lat="44.207645" lon="11.6115367"><ele>240.0</ele><time>2026-04-18T13:12:03.068Z</time></trkpt><trkpt lat="44.2075517" lon="11.61148"><ele>240.0</ele><time>2026-04-18T13:12:04.069Z</time></trkpt><trkpt lat="44.2074667" lon="11.6114317"><ele>240.0</ele><time>2026-04-18T13:12:05.069Z</time></trkpt><trkpt lat="44.207395" lon="11.61142"><ele>240.0</ele><time>2026-04-18T13:12:06.069Z</time></trkpt><trkpt lat="44.2073333" lon="11.6113967"><ele>240.0</ele><time>2026-04-18T13:12:07.069Z</time></trkpt><trkpt lat="44.2072583" lon="11.6112817"><ele>240.0</ele><time>2026-04-18T13:12:09.068Z</time></trkpt><trkpt lat="44.207325" lon="11.611215"><ele>242.2</ele><time>2026-04-18T13:12:10.069Z</time></trkpt><trkpt lat="44.2073817" lon="11.6111533"><ele>244.4</ele><time>2026-04-18T13:12:11.069Z</time></trkpt><trkpt lat="44.2075033" lon="11.6110883"><ele>246.60000000000002</ele><time>2026-04-18T13:12:12.069Z</time></trkpt><trkpt lat="44.2076217" lon="11.6110233"><ele>248.8</ele><time>2026-04-18T13:12:13.069Z</time></trkpt><trkpt lat="44.2077167" lon="11.6109467"><ele>251.0</ele><time>2026-04-18T13:12:14.068Z</time></trkpt><trkpt lat="44.2078183" lon="11.6108783"><ele>251.0</ele><time>2026-04-18T13:12:15.069Z</time></trkpt><trkpt lat="44.2079" lon="11.610795"><ele>251.00000000000003</ele><time>2026-04-18T13:12:16.069Z</time></trkpt><trkpt lat="44.2079683" lon="11.61072"><ele>251.00000000000003</ele><time>2026-04-18T13:12:17.069Z</time></trkpt><trkpt lat="44.2080433" lon="11.6106317"><ele>251.0</ele><time>2026-04-18T13:12:18.068Z</time></trkpt><trkpt lat="44.2081217" lon="11.6105383"><ele>251.0</ele><time>2026-04-18T13:12:19.069Z</time></trkpt><trkpt lat="44.20819" lon="11.6104633"><ele>252.99999999999997</ele><time>2026-04-18T13:12:20.069Z</time></trkpt><trkpt lat="44.208255" lon="11.6104083"><ele>255.0</ele><time>2026-04-18T13:12:21.069Z</time></trkpt><trkpt lat="44.20832" lon="11.6103733"><ele>257.0</ele><time>2026-04-18T13:12:22.069Z</time></trkpt><trkpt lat="44.2083917" lon="11.61036"><ele>259.0</ele><time>2026-04-18T13:12:23.069Z</time></trkpt><trkpt lat="44.2084667" lon="11.6103717"><ele>261.0</ele><time>2026-04-18T13:12:24.068Z</time></trkpt><trkpt lat="44.2085433" lon="11.61038"><ele>262.99999999999994</ele><time>2026-04-18T13:12:25.069Z</time></trkpt><trkpt lat="44.208615" lon="11.6103833"><ele>265.0</ele><time>2026-04-18T13:12:26.068Z</time></trkpt><trkpt lat="44.2087033" lon="11.610375"><ele>265.0</ele><time>2026-04-18T13:12:27.069Z</time></trkpt><trkpt lat="44.20878" lon="11.6103433"><ele>265.0</ele><time>2026-04-18T13:12:28.069Z</time></trkpt><trkpt lat="44.2088267" lon="11.610265"><ele>265.0</ele><time>2026-04-18T13:12:29.069Z</time></trkpt><trkpt lat="44.2088533" lon="11.610155"><ele>265.0</ele><time>2026-04-18T13:12:30.069Z</time></trkpt><trkpt lat="44.2088817" lon="11.6100283"><ele>265.0</ele><time>2026-04-18T13:12:31.069Z</time></trkpt><trkpt lat="44.2089067" lon="11.6099233"><ele>265.0</ele><time>2026-04-18T13:12:32.069Z</time></trkpt><trkpt lat="44.20894" lon="11.609835"><ele>266.66666666666663</ele><time>2026-04-18T13:12:33.069Z</time></trkpt><trkpt lat="44.20899" lon="11.6097567"><ele>268.3333333333333</ele><time>2026-04-18T13:12:34.068Z</time></trkpt><trkpt lat="44.2090567" lon="11.6096917"><ele>270.0</ele><time>2026-04-18T13:12:35.069Z</time></trkpt><trkpt lat="44.2091333" lon="11.6096417"><ele>271.6666666666667</ele><time>2026-04-18T13:12:36.069Z</time></trkpt><trkpt lat="44.2092117" lon="11.6095933"><ele>273.33333333333337</ele><time>2026-04-18T13:12:37.068Z</time></trkpt><trkpt lat="44.209285" lon="11.60954"><ele>275.0</ele><time>2026-04-18T13:12:38.069Z</time></trkpt><trkpt lat="44.2093483" lon="11.6095033"><ele>279.4</ele><time>2026-04-18T13:12:39.068Z</time></trkpt><trkpt lat="44.2094033" lon="11.6094067"><ele>283.8</ele><time>2026-04-18T13:12:41.069Z</time></trkpt><trkpt lat="44.2093133" lon="11.6093567"><ele>288.2</ele><time>2026-04-18T13:12:43.069Z</time></trkpt><trkpt lat="44.209195" lon="11.6093667"><ele>292.6</ele><time>2026-04-18T13:12:45.069Z</time></trkpt><trkpt lat="44.2090933" lon="11.6093817"><ele>297.0</ele><time>2026-04-18T13:12:46.068Z</time></trkpt><trkpt lat="44.20898" lon="11.6093817"><ele>299.0</ele><time>2026-04-18T13:12:47.069Z</time></trkpt><trkpt lat="44.2088583" lon="11.609375"><ele>301.0</ele><time>2026-04-18T13:12:48.069Z</time></trkpt><trkpt lat="44.2087417" lon="11.6093567"><ele>303.0</ele><time>2026-04-18T13:12:49.069Z</time></trkpt><trkpt lat="44.208625" lon="11.6093183"><ele>305.0</ele><time>2026-04-18T13:12:50.068Z</time></trkpt><trkpt lat="44.2085183" lon="11.609275"><ele>305.0</ele><time>2026-04-18T13:12:51.068Z</time></trkpt><trkpt lat="44.2084067" lon="11.609245"><ele>305.0</ele><time>2026-04-18T13:12:52.069Z</time></trkpt><trkpt lat="44.208295" lon="11.60923"><ele>305.0</ele><time>2026-04-18T13:12:53.068Z</time></trkpt><trkpt lat="44.2081933" lon="11.6092417"><ele>305.0</ele><time>2026-04-18T13:12:54.069Z</time></trkpt><trkpt lat="44.208105" lon="11.60927"><ele>305.0</ele><time>2026-04-18T13:12:55.069Z</time></trkpt><trkpt lat="44.2080117" lon="11.609305"><ele>304.4</ele><time>2026-04-18T13:12:56.069Z</time></trkpt><trkpt lat="44.2079067" lon="11.6093567"><ele>303.8</ele><time>2026-04-18T13:12:57.069Z</time></trkpt><trkpt lat="44.2078017" lon="11.60941"><ele>303.2</ele><time>2026-04-18T13:12:58.069Z</time></trkpt><trkpt lat="44.2076967" lon="11.609445"><ele>302.6</ele><time>2026-04-18T13:12:59.069Z</time></trkpt><trkpt lat="44.2076067" lon="11.6094783"><ele>302.0</ele><time>2026-04-18T13:13:00.068Z</time></trkpt><trkpt lat="44.20752" lon="11.609505"><ele>297.5</ele><time>2026-04-18T13:13:01.069Z</time></trkpt><trkpt lat="44.2074367" lon="11.6095167"><ele>293.0</ele><time>2026-04-18T13:13:02.068Z</time></trkpt><trkpt lat="44.2073517" lon="11.6095117"><ele>288.5</ele><time>2026-04-18T13:13:03.069Z</time></trkpt><trkpt lat="44.2072817" lon="11.6094683"><ele>284.0</ele><time>2026-04-18T13:13:04.069Z</time></trkpt><trkpt lat="44.2072367" lon="11.6093667"><ele>279.5</ele><time>2026-04-18T13:13:05.068Z</time></trkpt><trkpt lat="44.20717" lon="11.6092717"><ele>275.0</ele><time>2026-04-18T13:13:06.068Z</time></trkpt><trkpt lat="44.2071267" lon="11.6090833"><ele>278.6666666666667</ele><time>2026-04-18T13:13:07.068Z</time></trkpt><trkpt lat="44.20712" lon="11.6087817"><ele>282.3333333333333</ele><time>2026-04-18T13:13:08.068Z</time></trkpt><trkpt lat="44.2070617" lon="11.6085833"><ele>286.0</ele><time>2026-04-18T13:13:09.068Z</time></trkpt><trkpt lat="44.2070167" lon="11.6083967"><ele>286.0</ele><time>2026-04-18T13:13:10.068Z</time></trkpt><trkpt lat="44.2069683" lon="11.6082567"><ele>286.0</ele><time>2026-04-18T13:13:11.068Z</time></trkpt><trkpt lat="44.20693" lon="11.6081417"><ele>286.0</ele><time>2026-04-18T13:13:12.068Z</time></trkpt><trkpt lat="44.2068983" lon="11.608015"><ele>286.0</ele><time>2026-04-18T13:13:13.068Z</time></trkpt><trkpt lat="44.2069717" lon="11.6079517"><ele>286.0</ele><time>2026-04-18T13:13:15.068Z</time></trkpt><trkpt lat="44.207065" lon="11.6080133"><ele>286.0</ele><time>2026-04-18T13:13:18.068Z</time></trkpt><trkpt lat="44.2071033" lon="11.6081067"><ele>286.0</ele><time>2026-04-18T13:13:19.068Z</time></trkpt><trkpt lat="44.2072283" lon="11.6083333"><ele>286.0</ele><time>2026-04-18T13:13:20.068Z</time></trkpt><trkpt lat="44.20732" lon="11.6085117"><ele>286.0</ele><time>2026-04-18T13:13:21.068Z</time></trkpt><trkpt lat="44.207375" lon="11.608645"><ele>288.66666666666663</ele><time>2026-04-18T13:13:22.068Z</time></trkpt><trkpt lat="44.20743" lon="11.608745"><ele>291.3333333333333</ele><time>2026-04-18T13:13:23.068Z</time></trkpt><trkpt lat="44.2074933" lon="11.60884"><ele>294.0</ele><time>2026-04-18T13:13:24.068Z</time></trkpt><trkpt lat="44.2075633" lon="11.6089133"><ele>296.6666666666667</ele><time>2026-04-18T13:13:25.068Z</time></trkpt><trkpt lat="44.20763" lon="11.608975"><ele>299.33333333333337</ele><time>2026-04-18T13:13:26.068Z</time></trkpt><trkpt lat="44.2077167" lon="11.6089667"><ele>302.0</ele><time>2026-04-18T13:13:27.068Z</time></trkpt><trkpt lat="44.2078" lon="11.6089617"><ele>302.0</ele><time>2026-04-18T13:13:28.068Z</time></trkpt><trkpt lat="44.2078917" lon="11.6089467"><ele>302.0</ele><time>2026-04-18T13:13:29.068Z</time></trkpt><trkpt lat="44.208" lon="11.6089217"><ele>302.0</ele><time>2026-04-18T13:13:30.068Z</time></trkpt><trkpt lat="44.208115" lon="11.6088733"><ele>302.0</ele><time>2026-04-18T13:13:31.067Z</time></trkpt><trkpt lat="44.208225" lon="11.60879"><ele>302.0</ele><time>2026-04-18T13:13:32.067Z</time></trkpt><trkpt lat="44.2083133" lon="11.60873"><ele>307.0</ele><time>2026-04-18T13:13:33.068Z</time></trkpt><trkpt lat="44.2083883" lon="11.6086483"><ele>312.0</ele><time>2026-04-18T13:13:34.068Z</time></trkpt><trkpt lat="44.2084417" lon="11.60858"><ele>317.0</ele><time>2026-04-18T13:13:35.068Z</time></trkpt><trkpt lat="44.2085067" lon="11.6085033"><ele>322.0</ele><time>2026-04-18T13:13:36.068Z</time></trkpt><trkpt lat="44.2085817" lon="11.6084317"><ele>327.0</ele><time>2026-04-18T13:13:37.068Z</time></trkpt><trkpt lat="44.208655" lon="11.6083633"><ele>332.0</ele><time>2026-04-18T13:13:38.067Z</time></trkpt><trkpt lat="44.208725" lon="11.6082917"><ele>332.0</ele><time>2026-04-18T13:13:39.068Z</time></trkpt><trkpt lat="44.2088083" lon="11.608205"><ele>332.0</ele><time>2026-04-18T13:13:40.068Z</time></trkpt><trkpt lat="44.2089017" lon="11.608105"><ele>332.0</ele><time>2026-04-18T13:13:41.068Z</time></trkpt><trkpt lat="44.2089883" lon="11.6080017"><ele>332.0</ele><time>2026-04-18T13:13:42.068Z</time></trkpt><trkpt lat="44.2090683" lon="11.6079083"><ele>332.0</ele><time>2026-04-18T13:13:43.068Z</time></trkpt><trkpt lat="44.20914" lon="11.6078283"><ele>333.0</ele><time>2026-04-18T13:13:44.068Z</time></trkpt><trkpt lat="44.2092067" lon="11.6077617"><ele>334.0</ele><time>2026-04-18T13:13:45.068Z</time></trkpt><trkpt lat="44.20928" lon="11.6077183"><ele>335.0</ele><time>2026-04-18T13:13:46.068Z</time></trkpt><trkpt lat="44.20936" lon="11.6076533"><ele>336.0</ele><time>2026-04-18T13:13:47.068Z</time></trkpt><trkpt lat="44.2094317" lon="11.607615"><ele>337.0</ele><time>2026-04-18T13:13:48.068Z</time></trkpt><trkpt lat="44.20951" lon="11.6075583"><ele>338.0</ele><time>2026-04-18T13:13:49.067Z</time></trkpt><trkpt lat="44.2095583" lon="11.6074983"><ele>338.0</ele><time>2026-04-18T13:13:50.067Z</time></trkpt><trkpt lat="44.209605" lon="11.6074233"><ele>338.0</ele><time>2026-04-18T13:13:51.068Z</time></trkpt><trkpt lat="44.2096417" lon="11.6073333"><ele>338.0</ele><time>2026-04-18T13:13:52.068Z</time></trkpt><trkpt lat="44.20968" lon="11.6072133"><ele>338.0</ele><time>2026-04-18T13:13:53.068Z</time></trkpt><trkpt lat="44.209725" lon="11.6070783"><ele>338.0</ele><time>2026-04-18T13:13:54.068Z</time></trkpt><trkpt lat="44.209785" lon="11.6069517"><ele>338.2</ele><time>2026-04-18T13:13:55.068Z</time></trkpt><trkpt lat="44.209845" lon="11.60684"><ele>338.4</ele><time>2026-04-18T13:13:56.068Z</time></trkpt><trkpt lat="44.2098917" lon="11.60675"><ele>338.59999999999997</ele><time>2026-04-18T13:13:57.068Z</time></trkpt><trkpt lat="44.2099483" lon="11.6066867"><ele>338.79999999999995</ele><time>2026-04-18T13:13:58.068Z</time></trkpt><trkpt lat="44.210025" lon="11.606525"><ele>339.0</ele><time>2026-04-18T13:14:00.068Z</time></trkpt><trkpt lat="44.210035" lon="11.606435"><ele>339.0</ele><time>2026-04-18T13:14:01.068Z</time></trkpt><trkpt lat="44.21001" lon="11.606335"><ele>339.0</ele><time>2026-04-18T13:14:02.068Z</time></trkpt><trkpt lat="44.2099367" lon="11.6062267"><ele>339.0</ele><time>2026-04-18T13:14:03.068Z</time></trkpt><trkpt lat="44.20987" lon="11.6061467"><ele>339.0</ele><time>2026-04-18T13:14:04.067Z</time></trkpt><trkpt lat="44.2098017" lon="11.6060817"><ele>339.0</ele><time>2026-04-18T13:14:05.068Z</time></trkpt><trkpt lat="44.209715" lon="11.6060333"><ele>339.0</ele><time>2026-04-18T13:14:06.068Z</time></trkpt><trkpt lat="44.2096283" lon="11.6060117"><ele>343.0</ele><time>2026-04-18T13:14:07.068Z</time></trkpt><trkpt lat="44.2095333" lon="11.6060217"><ele>347.0</ele><time>2026-04-18T13:14:08.068Z</time></trkpt><trkpt lat="44.209445" lon="11.6060533"><ele>351.0</ele><time>2026-04-18T13:14:09.068Z</time></trkpt><trkpt lat="44.209385" lon="11.6060867"><ele>355.0</ele><time>2026-04-18T13:14:10.068Z</time></trkpt><trkpt lat="44.2092817" lon="11.6060833"><ele>359.0</ele><time>2026-04-18T13:14:12.067Z</time></trkpt><trkpt lat="44.209195" lon="11.6059767"><ele>359.0</ele><time>2026-04-18T13:14:14.068Z</time></trkpt><trkpt lat="44.209205" lon="11.6058667"><ele>359.0</ele><time>2026-04-18T13:14:15.068Z</time></trkpt><trkpt lat="44.2092317" lon="11.60576"><ele>359.0</ele><time>2026-04-18T13:14:16.068Z</time></trkpt><trkpt lat="44.2092683" lon="11.6056383"><ele>359.0</ele><time>2026-04-18T13:14:17.068Z</time></trkpt><trkpt lat="44.2092967" lon="11.6055117"><ele>359.0</ele><time>2026-04-18T13:14:18.067Z</time></trkpt><trkpt lat="44.2093183" lon="11.6053933"><ele>359.0</ele><time>2026-04-18T13:14:19.068Z</time></trkpt><trkpt lat="44.20934" lon="11.6052633"><ele>360.1666666666667</ele><time>2026-04-18T13:14:20.068Z</time></trkpt><trkpt lat="44.20935" lon="11.6051367"><ele>361.33333333333337</ele><time>2026-04-18T13:14:21.067Z</time></trkpt><trkpt lat="44.2093467" lon="11.60501"><ele>362.5</ele><time>2026-04-18T13:14:22.068Z</time></trkpt><trkpt lat="44.20934" lon="11.6048867"><ele>363.6666666666667</ele><time>2026-04-18T13:14:23.068Z</time></trkpt><trkpt lat="44.2093467" lon="11.6047683"><ele>364.8333333333333</ele><time>2026-04-18T13:14:24.068Z</time></trkpt><trkpt lat="44.2093683" lon="11.6046467"><ele>366.0</ele><time>2026-04-18T13:14:25.068Z</time></trkpt><trkpt lat="44.2094" lon="11.60451"><ele>367.0</ele><time>2026-04-18T13:14:26.068Z</time></trkpt><trkpt lat="44.2094367" lon="11.6043533"><ele>368.0</ele><time>2026-04-18T13:14:27.068Z</time></trkpt><trkpt lat="44.2094783" lon="11.6042067"><ele>369.0</ele><time>2026-04-18T13:14:28.067Z</time></trkpt><trkpt lat="44.2095233" lon="11.604055"><ele>370.0</ele><time>2026-04-18T13:14:29.068Z</time></trkpt><trkpt lat="44.2095733" lon="11.6039217"><ele>370.0</ele><time>2026-04-18T13:14:30.068Z</time></trkpt><trkpt lat="44.2096267" lon="11.6037933"><ele>370.0</ele><time>2026-04-18T13:14:31.068Z</time></trkpt><trkpt lat="44.209675" lon="11.6036683"><ele>370.0</ele><time>2026-04-18T13:14:32.068Z</time></trkpt><trkpt lat="44.2097167" lon="11.6035417"><ele>370.0</ele><time>2026-04-18T13:14:33.068Z</time></trkpt><trkpt lat="44.2097583" lon="11.6034183"><ele>370.0</ele><time>2026-04-18T13:14:34.068Z</time></trkpt><trkpt lat="44.2098033" lon="11.6032883"><ele>369.16666666666663</ele><time>2026-04-18T13:14:35.068Z</time></trkpt><trkpt lat="44.209855" lon="11.6031683"><ele>368.3333333333333</ele><time>2026-04-18T13:14:36.068Z</time></trkpt><trkpt lat="44.209905" lon="11.6030617"><ele>367.5</ele><time>2026-04-18T13:14:37.068Z</time></trkpt><trkpt lat="44.2099667" lon="11.60297"><ele>366.6666666666667</ele><time>2026-04-18T13:14:38.068Z</time></trkpt><trkpt lat="44.2100267" lon="11.6028983"><ele>365.83333333333337</ele><time>2026-04-18T13:14:39.068Z</time></trkpt><trkpt lat="44.2100867" lon="11.6028483"><ele>365.0</ele><time>2026-04-18T13:14:40.068Z</time></trkpt><trkpt lat="44.2101583" lon="11.6028517"><ele>365.0</ele><time>2026-04-18T13:14:41.068Z</time></trkpt><trkpt lat="44.2102533" lon="11.6028717"><ele>365.0</ele><time>2026-04-18T13:14:42.068Z</time></trkpt><trkpt lat="44.210355" lon="11.6028967"><ele>365.0</ele><time>2026-04-18T13:14:43.067Z</time></trkpt><trkpt lat="44.2104467" lon="11.6028917"><ele>365.0</ele><time>2026-04-18T13:14:44.068Z</time></trkpt><trkpt lat="44.2105267" lon="11.6028633"><ele>365.0</ele><time>2026-04-18T13:14:45.068Z</time></trkpt><trkpt lat="44.21058" lon="11.6027983"><ele>365.0</ele><time>2026-04-18T13:14:46.068Z</time></trkpt><trkpt lat="44.2106233" lon="11.6026833"><ele>366.75</ele><time>2026-04-18T13:14:47.068Z</time></trkpt><trkpt lat="44.21067" lon="11.6025667"><ele>368.5</ele><time>2026-04-18T13:14:48.068Z</time></trkpt><trkpt lat="44.21071" lon="11.60244"><ele>370.25</ele><time>2026-04-18T13:14:49.068Z</time></trkpt><trkpt lat="44.210725" lon="11.60229"><ele>372.0</ele><time>2026-04-18T13:14:50.068Z</time></trkpt><trkpt lat="44.2106917" lon="11.6020667"><ele>374.75</ele><time>2026-04-18T13:14:51.068Z</time></trkpt><trkpt lat="44.21068" lon="11.6018833"><ele>377.5</ele><time>2026-04-18T13:14:52.068Z</time></trkpt><trkpt lat="44.2106583" lon="11.6017017"><ele>380.25</ele><time>2026-04-18T13:14:53.068Z</time></trkpt><trkpt lat="44.2106383" lon="11.6015217"><ele>383.0</ele><time>2026-04-18T13:14:54.068Z</time></trkpt><trkpt lat="44.21062" lon="11.6013567"><ele>385.79999999999995</ele><time>2026-04-18T13:14:55.068Z</time></trkpt><trkpt lat="44.2106133" lon="11.6012067"><ele>388.6</ele><time>2026-04-18T13:14:56.068Z</time></trkpt><trkpt lat="44.21061" lon="11.6010717"><ele>391.4</ele><time>2026-04-18T13:14:57.067Z</time></trkpt><trkpt lat="44.2106383" lon="11.600945"><ele>394.20000000000005</ele><time>2026-04-18T13:14:58.068Z</time></trkpt><trkpt lat="44.2106817" lon="11.600835"><ele>397.0</ele><time>2026-04-18T13:14:59.068Z</time></trkpt><trkpt lat="44.2107317" lon="11.6007433"><ele>397.0</ele><time>2026-04-18T13:15:00.068Z</time></trkpt><trkpt lat="44.21079" lon="11.600665"><ele>397.0</ele><time>2026-04-18T13:15:01.068Z</time></trkpt><trkpt lat="44.2108667" lon="11.6006217"><ele>397.0</ele><time>2026-04-18T13:15:02.068Z</time></trkpt><trkpt lat="44.2110683" lon="11.6007083"><ele>397.0</ele><time>2026-04-18T13:15:03.068Z</time></trkpt><trkpt lat="44.2112233" lon="11.600745"><ele>397.0</ele><time>2026-04-18T13:15:04.068Z</time></trkpt><trkpt lat="44.211365" lon="11.6007783"><ele>397.0</ele><time>2026-04-18T13:15:05.067Z</time></trkpt><trkpt lat="44.2114833" lon="11.6007967"><ele>397.0</ele><time>2026-04-18T13:15:06.068Z</time></trkpt><trkpt lat="44.21159" lon="11.6008283"><ele>397.0</ele><time>2026-04-18T13:15:07.068Z</time></trkpt><trkpt lat="44.2116983" lon="11.6008717"><ele>397.8</ele><time>2026-04-18T13:15:08.067Z</time></trkpt><trkpt lat="44.2118183" lon="11.60094"><ele>398.6</ele><time>2026-04-18T13:15:09.068Z</time></trkpt><trkpt lat="44.2119167" lon="11.6009883"><ele>399.40000000000003</ele><time>2026-04-18T13:15:10.067Z</time></trkpt><trkpt lat="44.212" lon="11.601025"><ele>400.20000000000005</ele><time>2026-04-18T13:15:11.067Z</time></trkpt><trkpt lat="44.2120733" lon="11.601025"><ele>401.0</ele><time>2026-04-18T13:15:12.068Z</time></trkpt><trkpt lat="44.2121567" lon="11.601"><ele>401.0</ele><time>2026-04-18T13:15:13.068Z</time></trkpt><trkpt lat="44.212235" lon="11.6009267"><ele>401.0</ele><time>2026-04-18T13:15:14.068Z</time></trkpt><trkpt lat="44.21233" lon="11.6008267"><ele>401.0</ele><time>2026-04-18T13:15:15.068Z</time></trkpt><trkpt lat="44.2124383" lon="11.6007617"><ele>401.0</ele><time>2026-04-18T13:15:16.068Z</time></trkpt><trkpt lat="44.2125467" lon="11.6007133"><ele>401.0</ele><time>2026-04-18T13:15:17.068Z</time></trkpt><trkpt lat="44.2126583" lon="11.6006767"><ele>401.75</ele><time>2026-04-18T13:15:18.068Z</time></trkpt><trkpt lat="44.2127867" lon="11.6006417"><ele>402.5</ele><time>2026-04-18T13:15:19.068Z</time></trkpt><trkpt lat="44.2129017" lon="11.6006117"><ele>403.25</ele><time>2026-04-18T13:15:20.068Z</time></trkpt><trkpt lat="44.2130033" lon="11.6005883"><ele>404.0</ele><time>2026-04-18T13:15:21.068Z</time></trkpt><trkpt lat="44.2131017" lon="11.6005517"><ele>404.79999999999995</ele><time>2026-04-18T13:15:22.068Z</time></trkpt><trkpt lat="44.2131983" lon="11.6005217"><ele>405.59999999999997</ele><time>2026-04-18T13:15:23.068Z</time></trkpt><trkpt lat="44.21329" lon="11.600475"><ele>406.4</ele><time>2026-04-18T13:15:24.068Z</time></trkpt><trkpt lat="44.2133667" lon="11.6003817"><ele>407.2</ele><time>2026-04-18T13:15:25.068Z</time></trkpt><trkpt lat="44.2134317" lon="11.6002583"><ele>408.0</ele><time>2026-04-18T13:15:26.068Z</time></trkpt><trkpt lat="44.2134967" lon="11.6001267"><ele>408.0</ele><time>2026-04-18T13:15:27.068Z</time></trkpt><trkpt lat="44.213505" lon="11.5999483"><ele>408.0</ele><time>2026-04-18T13:15:28.068Z</time></trkpt><trkpt lat="44.2135467" lon="11.5997783"><ele>408.0</ele><time>2026-04-18T13:15:29.067Z</time></trkpt><trkpt lat="44.2135867" lon="11.5996217"><ele>408.0</ele><time>2026-04-18T13:15:30.068Z</time></trkpt><trkpt lat="44.213645" lon="11.5995167"><ele>408.4</ele><time>2026-04-18T13:15:31.068Z</time></trkpt><trkpt lat="44.2137283" lon="11.5994367"><ele>408.79999999999995</ele><time>2026-04-18T13:15:32.068Z</time></trkpt><trkpt lat="44.2138267" lon="11.5993633"><ele>409.2</ele><time>2026-04-18T13:15:33.068Z</time></trkpt><trkpt lat="44.21394" lon="11.599325"><ele>409.6</ele><time>2026-04-18T13:15:34.068Z</time></trkpt><trkpt lat="44.2140317" lon="11.5993033"><ele>410.0</ele><time>2026-04-18T13:15:35.068Z</time></trkpt><trkpt lat="44.2141117" lon="11.5992833"><ele>409.99999999999994</ele><time>2026-04-18T13:15:36.068Z</time></trkpt><trkpt lat="44.2141933" lon="11.5992617"><ele>410.0</ele><time>2026-04-18T13:15:37.068Z</time></trkpt><trkpt lat="44.2142633" lon="11.5992517"><ele>410.0</ele><time>2026-04-18T13:15:38.067Z</time></trkpt><trkpt lat="44.2143333" lon="11.599225"><ele>410.0</ele><time>2026-04-18T13:15:39.067Z</time></trkpt><trkpt lat="44.2144067" lon="11.5992067"><ele>409.99999999999994</ele><time>2026-04-18T13:15:40.068Z</time></trkpt><trkpt lat="44.2145" lon="11.5991667"><ele>410.0</ele><time>2026-04-18T13:15:42.068Z</time></trkpt><trkpt lat="44.214545" lon="11.5990567"><ele>409.99999999999994</ele><time>2026-04-18T13:15:45.068Z</time></trkpt><trkpt lat="44.2145467" lon="11.5989083"><ele>410.0</ele><time>2026-04-18T13:15:47.068Z</time></trkpt><trkpt lat="44.21453" lon="11.5988017"><ele>410.0</ele><time>2026-04-18T13:15:48.068Z</time></trkpt><trkpt lat="44.2145383" lon="11.5986967"><ele>410.0</ele><time>2026-04-18T13:15:49.067Z</time></trkpt><trkpt lat="44.2145517" lon="11.5985917"><ele>409.99999999999994</ele><time>2026-04-18T13:15:50.068Z</time></trkpt><trkpt lat="44.2145567" lon="11.5984667"><ele>410.0</ele><time>2026-04-18T13:15:51.068Z</time></trkpt><trkpt lat="44.2145683" lon="11.59835"><ele>410.4</ele><time>2026-04-18T13:15:52.068Z</time></trkpt><trkpt lat="44.214615" lon="11.5982633"><ele>410.8</ele><time>2026-04-18T13:15:53.068Z</time></trkpt><trkpt lat="44.2146767" lon="11.5981517"><ele>411.20000000000005</ele><time>2026-04-18T13:15:54.068Z</time></trkpt><trkpt lat="44.214745" lon="11.5980133"><ele>411.6</ele><time>2026-04-18T13:15:55.068Z</time></trkpt><trkpt lat="44.2147933" lon="11.597885"><ele>412.0</ele><time>2026-04-18T13:15:56.068Z</time></trkpt><trkpt lat="44.2148433" lon="11.5977333"><ele>412.0</ele><time>2026-04-18T13:15:57.068Z</time></trkpt><trkpt lat="44.214885" lon="11.5975817"><ele>412.0</ele><time>2026-04-18T13:15:58.068Z</time></trkpt><trkpt lat="44.214935" lon="11.59744"><ele>412.0</ele><time>2026-04-18T13:15:59.067Z</time></trkpt><trkpt lat="44.214985" lon="11.5973033"><ele>412.0</ele><time>2026-04-18T13:16:00.068Z</time></trkpt><trkpt lat="44.21504" lon="11.59716"><ele>412.0</ele><time>2026-04-18T13:16:01.068Z</time></trkpt><trkpt lat="44.2151" lon="11.5970033"><ele>412.0</ele><time>2026-04-18T13:16:02.068Z</time></trkpt><trkpt lat="44.2151533" lon="11.5968083"><ele>412.0</ele><time>2026-04-18T13:16:03.068Z</time></trkpt><trkpt lat="44.2152167" lon="11.5966367"><ele>412.0</ele><time>2026-04-18T13:16:04.068Z</time></trkpt><trkpt lat="44.215275" lon="11.5964617"><ele>414.25</ele><time>2026-04-18T13:16:05.067Z</time></trkpt><trkpt lat="44.215325" lon="11.5962933"><ele>416.5</ele><time>2026-04-18T13:16:06.066Z</time></trkpt><trkpt lat="44.2153583" lon="11.5961367"><ele>418.75</ele><time>2026-04-18T13:16:07.067Z</time></trkpt><trkpt lat="44.2153933" lon="11.595985"><ele>421.0</ele><time>2026-04-18T13:16:08.067Z</time></trkpt><trkpt lat="44.21544" lon="11.59582"><ele>423.5</ele><time>2026-04-18T13:16:09.067Z</time></trkpt><trkpt lat="44.2154783" lon="11.5956433"><ele>426.0</ele><time>2026-04-18T13:16:10.066Z</time></trkpt><trkpt lat="44.21551" lon="11.5954667"><ele>428.5</ele><time>2026-04-18T13:16:11.066Z</time></trkpt><trkpt lat="44.2155333" lon="11.5952683"><ele>431.0</ele><time>2026-04-18T13:16:12.067Z</time></trkpt><trkpt lat="44.2155483" lon="11.5950817"><ele>432.0</ele><time>2026-04-18T13:16:13.067Z</time></trkpt><trkpt lat="44.2155517" lon="11.594915"><ele>433.0</ele><time>2026-04-18T13:16:14.067Z</time></trkpt><trkpt lat="44.21556" lon="11.5947617"><ele>434.0</ele><time>2026-04-18T13:16:15.067Z</time></trkpt><trkpt lat="44.21557" lon="11.5946217"><ele>435.0</ele><time>2026-04-18T13:16:16.067Z</time></trkpt><trkpt lat="44.2155883" lon="11.5945017"><ele>436.0</ele><time>2026-04-18T13:16:17.067Z</time></trkpt><trkpt lat="44.215615" lon="11.5944"><ele>434.50000000000006</ele><time>2026-04-18T13:16:18.067Z</time></trkpt><trkpt lat="44.2156567" lon="11.5943083"><ele>433.0</ele><time>2026-04-18T13:16:19.067Z</time></trkpt><trkpt lat="44.21571" lon="11.594245"><ele>431.5</ele><time>2026-04-18T13:16:20.066Z</time></trkpt><trkpt lat="44.215785" lon="11.5941917"><ele>430.0</ele><time>2026-04-18T13:16:21.067Z</time></trkpt><trkpt lat="44.2158683" lon="11.5941317"><ele>428.50000000000006</ele><time>2026-04-18T13:16:22.067Z</time></trkpt><trkpt lat="44.2159583" lon="11.5940617"><ele>427.0</ele><time>2026-04-18T13:16:23.067Z</time></trkpt><trkpt lat="44.2160083" lon="11.5939633"><ele>427.0</ele><time>2026-04-18T13:16:24.067Z</time></trkpt><trkpt lat="44.2160433" lon="11.5938483"><ele>427.00000000000006</ele><time>2026-04-18T13:16:25.067Z</time></trkpt><trkpt lat="44.21607" lon="11.5936967"><ele>427.00000000000006</ele><time>2026-04-18T13:16:26.067Z</time></trkpt><trkpt lat="44.21611" lon="11.5935567"><ele>427.0</ele><time>2026-04-18T13:16:27.067Z</time></trkpt><trkpt lat="44.2161583" lon="11.59342"><ele>427.0</ele><time>2026-04-18T13:16:28.067Z</time></trkpt><trkpt lat="44.2162117" lon="11.5933"><ele>430.0</ele><time>2026-04-18T13:16:29.067Z</time></trkpt><trkpt lat="44.216265" lon="11.5931817"><ele>433.00000000000006</ele><time>2026-04-18T13:16:30.066Z</time></trkpt><trkpt lat="44.2163267" lon="11.593075"><ele>436.00000000000006</ele><time>2026-04-18T13:16:31.067Z</time></trkpt><trkpt lat="44.2163867" lon="11.5929617"><ele>439.0</ele><time>2026-04-18T13:16:32.067Z</time></trkpt><trkpt lat="44.2164367" lon="11.5928733"><ele>442.0</ele><time>2026-04-18T13:16:33.067Z</time></trkpt><trkpt lat="44.216475" lon="11.5927883"><ele>442.00000000000006</ele><time>2026-04-18T13:16:34.066Z</time></trkpt><trkpt lat="44.2165067" lon="11.5926983"><ele>442.0</ele><time>2026-04-18T13:16:35.067Z</time></trkpt><trkpt lat="44.2165333" lon="11.5925933"><ele>442.0</ele><time>2026-04-18T13:16:36.066Z</time></trkpt><trkpt lat="44.2165533" lon="11.5924783"><ele>442.0</ele><time>2026-04-18T13:16:37.066Z</time></trkpt><trkpt lat="44.216575" lon="11.5923583"><ele>442.00000000000006</ele><time>2026-04-18T13:16:38.066Z</time></trkpt><trkpt lat="44.2165767" lon="11.5922533"><ele>442.0</ele><time>2026-04-18T13:16:39.067Z</time></trkpt><trkpt lat="44.2165583" lon="11.5921217"><ele>444.83333333333337</ele><time>2026-04-18T13:16:41.067Z</time></trkpt><trkpt lat="44.2164833" lon="11.5920283"><ele>447.6666666666667</ele><time>2026-04-18T13:16:43.067Z</time></trkpt><trkpt lat="44.2164183" lon="11.5920417"><ele>450.5</ele><time>2026-04-18T13:16:44.067Z</time></trkpt><trkpt lat="44.216335" lon="11.5921633"><ele>453.33333333333337</ele><time>2026-04-18T13:16:46.067Z</time></trkpt><trkpt lat="44.2163083" lon="11.592255"><ele>456.1666666666667</ele><time>2026-04-18T13:16:47.067Z</time></trkpt><trkpt lat="44.2162917" lon="11.59236"><ele>459.0</ele><time>2026-04-18T13:16:48.066Z</time></trkpt><trkpt lat="44.216265" lon="11.592455"><ele>459.0</ele><time>2026-04-18T13:16:49.066Z</time></trkpt><trkpt lat="44.2162217" lon="11.5925433"><ele>459.0</ele><time>2026-04-18T13:16:50.067Z</time></trkpt><trkpt lat="44.2161567" lon="11.5926217"><ele>459.0</ele><time>2026-04-18T13:16:51.067Z</time></trkpt><trkpt lat="44.2160817" lon="11.5926867"><ele>459.0</ele><time>2026-04-18T13:16:52.067Z</time></trkpt><trkpt lat="44.2159933" lon="11.59273"><ele>459.0</ele><time>2026-04-18T13:16:53.066Z</time></trkpt><trkpt lat="44.2159217" lon="11.5927717"><ele>459.0</ele><time>2026-04-18T13:16:54.066Z</time></trkpt><trkpt lat="44.2158117" lon="11.592805"><ele>459.0</ele><time>2026-04-18T13:16:56.066Z</time></trkpt><trkpt lat="44.2157517" lon="11.5927167"><ele>459.0</ele><time>2026-04-18T13:16:59.067Z</time></trkpt><trkpt lat="44.2157883" lon="11.59261"><ele>459.0</ele><time>2026-04-18T13:17:01.066Z</time></trkpt><trkpt lat="44.2158183" lon="11.5925317"><ele>459.0</ele><time>2026-04-18T13:17:02.067Z</time></trkpt><trkpt lat="44.215845" lon="11.5923417"><ele>459.0</ele><time>2026-04-18T13:17:04.067Z</time></trkpt><trkpt lat="44.2158417" lon="11.5922417"><ele>459.0</ele><time>2026-04-18T13:17:05.066Z</time></trkpt><trkpt lat="44.21583" lon="11.5921333"><ele>459.0</ele><time>2026-04-18T13:17:06.067Z</time></trkpt><trkpt lat="44.21581" lon="11.5920283"><ele>459.0</ele><time>2026-04-18T13:17:07.067Z</time></trkpt><trkpt lat="44.2157917" lon="11.5919283"><ele>459.0</ele><time>2026-04-18T13:17:08.067Z</time></trkpt><trkpt lat="44.2157883" lon="11.591825"><ele>459.0</ele><time>2026-04-18T13:17:09.067Z</time></trkpt><trkpt lat="44.2157833" lon="11.5917133"><ele>459.0</ele><time>2026-04-18T13:17:10.067Z</time></trkpt><trkpt lat="44.215775" lon="11.5915983"><ele>459.0</ele><time>2026-04-18T13:17:11.067Z</time></trkpt><trkpt lat="44.2157733" lon="11.59148"><ele>460.3333333333333</ele><time>2026-04-18T13:17:12.067Z</time></trkpt><trkpt lat="44.21575" lon="11.5913583"><ele>461.66666666666663</ele><time>2026-04-18T13:17:13.067Z</time></trkpt><trkpt lat="44.2157333" lon="11.591255"><ele>463.0</ele><time>2026-04-18T13:17:14.067Z</time></trkpt><trkpt lat="44.2157183" lon="11.5911533"><ele>464.3333333333333</ele><time>2026-04-18T13:17:15.067Z</time></trkpt><trkpt lat="44.2156817" lon="11.59107"><ele>465.66666666666663</ele><time>2026-04-18T13:17:16.067Z</time></trkpt><trkpt lat="44.2156283" lon="11.5909617"><ele>467.0</ele><time>2026-04-18T13:17:17.067Z</time></trkpt><trkpt lat="44.215565" lon="11.5908717"><ele>470.8333333333333</ele><time>2026-04-18T13:17:18.067Z</time></trkpt><trkpt lat="44.2155033" lon="11.590785"><ele>474.66666666666663</ele><time>2026-04-18T13:17:19.067Z</time></trkpt><trkpt lat="44.21546" lon="11.5906867"><ele>478.5</ele><time>2026-04-18T13:17:20.067Z</time></trkpt><trkpt lat="44.2154433" lon="11.590595"><ele>482.33333333333337</ele><time>2026-04-18T13:17:21.067Z</time></trkpt><trkpt lat="44.2154233" lon="11.59049"><ele>486.1666666666667</ele><time>2026-04-18T13:17:22.067Z</time></trkpt><trkpt lat="44.215415" lon="11.5903917"><ele>490.0</ele><time>2026-04-18T13:17:23.067Z</time></trkpt><trkpt lat="44.2154383" lon="11.59025"><ele>491.6</ele><time>2026-04-18T13:17:25.066Z</time></trkpt><trkpt lat="44.2155067" lon="11.5901533"><ele>493.2</ele><time>2026-04-18T13:17:27.067Z</time></trkpt><trkpt lat="44.215525" lon="11.590035"><ele>494.79999999999995</ele><time>2026-04-18T13:17:29.067Z</time></trkpt><trkpt lat="44.21549" lon="11.58996"><ele>496.4</ele><time>2026-04-18T13:17:31.066Z</time></trkpt><trkpt lat="44.2154017" lon="11.5900467"><ele>498.0</ele><time>2026-04-18T13:17:33.066Z</time></trkpt><trkpt lat="44.2153433" lon="11.5902067"><ele>498.0</ele><time>2026-04-18T13:17:35.067Z</time></trkpt><trkpt lat="44.2153117" lon="11.5903167"><ele>498.0</ele><time>2026-04-18T13:17:36.067Z</time></trkpt><trkpt lat="44.21529" lon="11.5904183"><ele>498.0</ele><time>2026-04-18T13:17:37.067Z</time></trkpt><trkpt lat="44.2152683" lon="11.5905067"><ele>498.0</ele><time>2026-04-18T13:17:38.067Z</time></trkpt><trkpt lat="44.2152033" lon="11.5906017"><ele>498.0</ele><time>2026-04-18T13:17:40.067Z</time></trkpt><trkpt lat="44.2151217" lon="11.5906167"><ele>498.0</ele><time>2026-04-18T13:17:42.067Z</time></trkpt><trkpt lat="44.2150633" lon="11.5904783"><ele>498.0</ele><time>2026-04-18T13:17:44.067Z</time></trkpt><trkpt lat="44.2150567" lon="11.5903767"><ele>498.0</ele><time>2026-04-18T13:17:45.067Z</time></trkpt><trkpt lat="44.21506" lon="11.5902567"><ele>498.0</ele><time>2026-04-18T13:17:46.066Z</time></trkpt><trkpt lat="44.21508" lon="11.5901233"><ele>498.0</ele><time>2026-04-18T13:17:47.067Z</time></trkpt><trkpt lat="44.2150883" lon="11.5899917"><ele>498.0</ele><time>2026-04-18T13:17:48.067Z</time></trkpt><trkpt lat="44.2150917" lon="11.5898783"><ele>498.0</ele><time>2026-04-18T13:17:49.067Z</time></trkpt><trkpt lat="44.2151" lon="11.5897683"><ele>498.0</ele><time>2026-04-18T13:17:50.067Z</time></trkpt><trkpt lat="44.21513" lon="11.5896667"><ele>498.0</ele><time>2026-04-18T13:17:51.067Z</time></trkpt><trkpt lat="44.215175" lon="11.5895783"><ele>498.0</ele><time>2026-04-18T13:17:52.067Z</time></trkpt><trkpt lat="44.2152117" lon="11.5894917"><ele>498.0</ele><time>2026-04-18T13:17:53.067Z</time></trkpt><trkpt lat="44.2152483" lon="11.58941"><ele>498.0</ele><time>2026-04-18T13:17:54.067Z</time></trkpt><trkpt lat="44.2152967" lon="11.5892733"><ele>498.0</ele><time>2026-04-18T13:17:56.067Z</time></trkpt><trkpt lat="44.215315" lon="11.5891833"><ele>500.0</ele><time>2026-04-18T13:17:57.067Z</time></trkpt><trkpt lat="44.215305" lon="11.589025"><ele>501.99999999999994</ele><time>2026-04-18T13:17:59.067Z</time></trkpt><trkpt lat="44.21522" lon="11.5889833"><ele>503.99999999999994</ele><time>2026-04-18T13:18:01.066Z</time></trkpt><trkpt lat="44.21512" lon="11.589075"><ele>506.0</ele><time>2026-04-18T13:18:03.067Z</time></trkpt><trkpt lat="44.2150633" lon="11.5891667"><ele>508.0</ele><time>2026-04-18T13:18:04.067Z</time></trkpt><trkpt lat="44.2149933" lon="11.5892767"><ele>508.0</ele><time>2026-04-18T13:18:05.067Z</time></trkpt><trkpt lat="44.21492" lon="11.5894017"><ele>507.99999999999994</ele><time>2026-04-18T13:18:06.067Z</time></trkpt><trkpt lat="44.2148667" lon="11.5895267"><ele>507.99999999999994</ele><time>2026-04-18T13:18:07.067Z</time></trkpt><trkpt lat="44.214825" lon="11.5896517"><ele>508.0</ele><time>2026-04-18T13:18:08.067Z</time></trkpt><trkpt lat="44.2147917" lon="11.5897367"><ele>508.0</ele><time>2026-04-18T13:18:09.067Z</time></trkpt><trkpt lat="44.2147433" lon="11.5898417"><ele>510.2</ele><time>2026-04-18T13:18:11.066Z</time></trkpt><trkpt lat="44.2146733" lon="11.5898917"><ele>512.4</ele><time>2026-04-18T13:18:14.067Z</time></trkpt><trkpt lat="44.2146317" lon="11.5897867"><ele>514.5999999999999</ele><time>2026-04-18T13:18:17.067Z</time></trkpt><trkpt lat="44.2146267" lon="11.5896283"><ele>516.8</ele><time>2026-04-18T13:18:19.066Z</time></trkpt><trkpt lat="44.214625" lon="11.5895333"><ele>519.0</ele><time>2026-04-18T13:18:20.067Z</time></trkpt><trkpt lat="44.2146333" lon="11.5893633"><ele>519.0</ele><time>2026-04-18T13:18:22.067Z</time></trkpt><trkpt lat="44.2146383" lon="11.5892083"><ele>519.0</ele><time>2026-04-18T13:18:24.067Z</time></trkpt><trkpt lat="44.214575" lon="11.5891983"><ele>519.0</ele><time>2026-04-18T13:18:27.067Z</time></trkpt><trkpt lat="44.2145117" lon="11.58935"><ele>519.0</ele><time>2026-04-18T13:18:29.067Z</time></trkpt><trkpt lat="44.21447" lon="11.5894317"><ele>519.0</ele><time>2026-04-18T13:18:30.067Z</time></trkpt><trkpt lat="44.2144233" lon="11.5895267"><ele>519.0</ele><time>2026-04-18T13:18:31.067Z</time></trkpt><trkpt lat="44.2143667" lon="11.5896283"><ele>519.0</ele><time>2026-04-18T13:18:32.067Z</time></trkpt><trkpt lat="44.2143167" lon="11.5897233"><ele>519.0</ele><time>2026-04-18T13:18:33.067Z</time></trkpt><trkpt lat="44.2142633" lon="11.5897967"><ele>519.0</ele><time>2026-04-18T13:18:34.067Z</time></trkpt><trkpt lat="44.2141933" lon="11.5898633"><ele>519.0</ele><time>2026-04-18T13:18:35.067Z</time></trkpt><trkpt lat="44.214115" lon="11.5899133"><ele>519.0</ele><time>2026-04-18T13:18:36.067Z</time></trkpt><trkpt lat="44.2140283" lon="11.5899467"><ele>522.0</ele><time>2026-04-18T13:18:37.067Z</time></trkpt><trkpt lat="44.2139567" lon="11.58997"><ele>525.0</ele><time>2026-04-18T13:18:38.067Z</time></trkpt><trkpt lat="44.21385" lon="11.589985"><ele>528.0</ele><time>2026-04-18T13:18:40.067Z</time></trkpt><trkpt lat="44.2138117" lon="11.5899133"><ele>531.0</ele><time>2026-04-18T13:18:42.067Z</time></trkpt><trkpt lat="44.2138333" lon="11.5897983"><ele>534.0</ele><time>2026-04-18T13:18:44.067Z</time></trkpt><trkpt lat="44.2139017" lon="11.589725"><ele>537.0</ele><time>2026-04-18T13:18:45.067Z</time></trkpt><trkpt lat="44.21396" lon="11.5896433"><ele>535.4</ele><time>2026-04-18T13:18:46.067Z</time></trkpt><trkpt lat="44.214" lon="11.589555"><ele>533.8000000000001</ele><time>2026-04-18T13:18:47.067Z</time></trkpt><trkpt lat="44.21403" lon="11.5894483"><ele>532.2</ele><time>2026-04-18T13:18:48.067Z</time></trkpt><trkpt lat="44.2140517" lon="11.589315"><ele>530.6</ele><time>2026-04-18T13:18:49.067Z</time></trkpt><trkpt lat="44.21406" lon="11.5891683"><ele>529.0</ele><time>2026-04-18T13:18:50.067Z</time></trkpt><trkpt lat="44.2140617" lon="11.5890267"><ele>529.0</ele><time>2026-04-18T13:18:51.067Z</time></trkpt><trkpt lat="44.2140567" lon="11.588905"><ele>529.0</ele><time>2026-04-18T13:18:52.067Z</time></trkpt><trkpt lat="44.2140333" lon="11.5888"><ele>529.0</ele><time>2026-04-18T13:18:53.067Z</time></trkpt><trkpt lat="44.21401" lon="11.5887017"><ele>529.0</ele><time>2026-04-18T13:18:54.067Z</time></trkpt><trkpt lat="44.213995" lon="11.5886067"><ele>529.0</ele><time>2026-04-18T13:18:55.067Z</time></trkpt><trkpt lat="44.2139883" lon="11.5885133"><ele>529.0</ele><time>2026-04-18T13:18:56.067Z</time></trkpt><trkpt lat="44.2139933" lon="11.5884217"><ele>529.0</ele><time>2026-04-18T13:18:57.066Z</time></trkpt><trkpt lat="44.2140067" lon="11.5883317"><ele>530.2857142857143</ele><time>2026-04-18T13:18:58.067Z</time></trkpt><trkpt lat="44.2140267" lon="11.5882367"><ele>531.5714285714286</ele><time>2026-04-18T13:18:59.067Z</time></trkpt><trkpt lat="44.2140567" lon="11.5881517"><ele>532.8571428571429</ele><time>2026-04-18T13:19:00.066Z</time></trkpt><trkpt lat="44.214095" lon="11.5880717"><ele>534.1428571428571</ele><time>2026-04-18T13:19:01.067Z</time></trkpt><trkpt lat="44.214135" lon="11.5879883"><ele>535.4285714285714</ele><time>2026-04-18T13:19:02.067Z</time></trkpt><trkpt lat="44.2141717" lon="11.5879017"><ele>536.7142857142858</ele><time>2026-04-18T13:19:03.066Z</time></trkpt><trkpt lat="44.2142" lon="11.5878"><ele>538.0</ele><time>2026-04-18T13:19:04.066Z</time></trkpt><trkpt lat="44.21422" lon="11.5877033"><ele>540.1666666666667</ele><time>2026-04-18T13:19:05.066Z</time></trkpt><trkpt lat="44.214225" lon="11.5875983"><ele>542.3333333333334</ele><time>2026-04-18T13:19:06.066Z</time></trkpt><trkpt lat="44.2142333" lon="11.5874867"><ele>544.5</ele><time>2026-04-18T13:19:07.066Z</time></trkpt><trkpt lat="44.2142483" lon="11.5873633"><ele>546.6666666666666</ele><time>2026-04-18T13:19:08.066Z</time></trkpt><trkpt lat="44.2142583" lon="11.58723"><ele>548.8333333333333</ele><time>2026-04-18T13:19:09.066Z</time></trkpt><trkpt lat="44.2142667" lon="11.5870867"><ele>551.0</ele><time>2026-04-18T13:19:10.066Z</time></trkpt><trkpt lat="44.214275" lon="11.5869417"><ele>552.0</ele><time>2026-04-18T13:19:11.066Z</time></trkpt><trkpt lat="44.2142917" lon="11.5868"><ele>553.0</ele><time>2026-04-18T13:19:12.066Z</time></trkpt><trkpt lat="44.214305" lon="11.5866667"><ele>554.0</ele><time>2026-04-18T13:19:13.065Z</time></trkpt><trkpt lat="44.214315" lon="11.5865417"><ele>555.0</ele><time>2026-04-18T13:19:14.066Z</time></trkpt><trkpt lat="44.2143233" lon="11.5864283"><ele>556.0</ele><time>2026-04-18T13:19:15.066Z</time></trkpt><trkpt lat="44.2143367" lon="11.5863267"><ele>557.0</ele><time>2026-04-18T13:19:16.066Z</time></trkpt><trkpt lat="44.2143483" lon="11.5862233"><ele>557.0</ele><time>2026-04-18T13:19:17.066Z</time></trkpt><trkpt lat="44.2143567" lon="11.5861333"><ele>557.0</ele><time>2026-04-18T13:19:18.066Z</time></trkpt><trkpt lat="44.2143467" lon="11.5859883"><ele>557.0</ele><time>2026-04-18T13:19:20.066Z</time></trkpt><trkpt lat="44.2142683" lon="11.5859367"><ele>557.0</ele><time>2026-04-18T13:19:23.065Z</time></trkpt><trkpt lat="44.21417" lon="11.586115"><ele>557.0</ele><time>2026-04-18T13:19:25.066Z</time></trkpt><trkpt lat="44.214125" lon="11.58622"><ele>557.0</ele><time>2026-04-18T13:19:26.066Z</time></trkpt><trkpt lat="44.214075" lon="11.58633"><ele>557.0</ele><time>2026-04-18T13:19:27.065Z</time></trkpt><trkpt lat="44.214035" lon="11.58645"><ele>557.0</ele><time>2026-04-18T13:19:28.066Z</time></trkpt><trkpt lat="44.214" lon="11.5865517"><ele>557.0</ele><time>2026-04-18T13:19:29.065Z</time></trkpt><trkpt lat="44.2139583" lon="11.5866833"><ele>557.0</ele><time>2026-04-18T13:19:31.066Z</time></trkpt><trkpt lat="44.2138833" lon="11.5866483"><ele>562.6</ele><time>2026-04-18T13:19:34.066Z</time></trkpt><trkpt lat="44.213885" lon="11.5865067"><ele>568.2</ele><time>2026-04-18T13:19:36.066Z</time></trkpt><trkpt lat="44.21389" lon="11.5864183"><ele>573.8</ele><time>2026-04-18T13:19:37.066Z</time></trkpt><trkpt lat="44.2139017" lon="11.586285"><ele>579.4</ele><time>2026-04-18T13:19:38.066Z</time></trkpt><trkpt lat="44.213925" lon="11.586115"><ele>585.0</ele><time>2026-04-18T13:19:39.066Z</time></trkpt><trkpt lat="44.2139433" lon="11.5859567"><ele>584.8</ele><time>2026-04-18T13:19:40.066Z</time></trkpt><trkpt lat="44.21396" lon="11.5858233"><ele>584.6</ele><time>2026-04-18T13:19:41.065Z</time></trkpt><trkpt lat="44.213975" lon="11.5856867"><ele>584.4</ele><time>2026-04-18T13:19:42.066Z</time></trkpt><trkpt lat="44.2139917" lon="11.5855783"><ele>584.2</ele><time>2026-04-18T13:19:43.066Z</time></trkpt><trkpt lat="44.214" lon="11.5853967"><ele>584.0</ele><time>2026-04-18T13:19:45.066Z</time></trkpt><trkpt lat="44.2139717" lon="11.585305"><ele>584.0</ele><time>2026-04-18T13:19:46.066Z</time></trkpt><trkpt lat="44.2139617" lon="11.5852117"><ele>584.0</ele><time>2026-04-18T13:19:47.066Z</time></trkpt><trkpt lat="44.2139533" lon="11.5851133"><ele>584.0</ele><time>2026-04-18T13:19:48.065Z</time></trkpt><trkpt lat="44.2139633" lon="11.5850233"><ele>584.0</ele><time>2026-04-18T13:19:49.066Z</time></trkpt><trkpt lat="44.2139783" lon="11.5849317"><ele>584.0</ele><time>2026-04-18T13:19:50.066Z</time></trkpt><trkpt lat="44.2139867" lon="11.5848417"><ele>584.0</ele><time>2026-04-18T13:19:51.066Z</time></trkpt><trkpt lat="44.2140033" lon="11.5846733"><ele>583.8333333333333</ele><time>2026-04-18T13:19:53.066Z</time></trkpt><trkpt lat="44.21402" lon="11.5845783"><ele>583.6666666666666</ele><time>2026-04-18T13:19:54.066Z</time></trkpt><trkpt lat="44.214055" lon="11.5844883"><ele>583.5</ele><time>2026-04-18T13:19:55.066Z</time></trkpt><trkpt lat="44.2141267" lon="11.5843817"><ele>583.3333333333334</ele><time>2026-04-18T13:19:56.066Z</time></trkpt><trkpt lat="44.2142" lon="11.5842883"><ele>583.1666666666667</ele><time>2026-04-18T13:19:57.065Z</time></trkpt><trkpt lat="44.2142683" lon="11.5842017"><ele>583.0</ele><time>2026-04-18T13:19:58.066Z</time></trkpt><trkpt lat="44.214325" lon="11.5841217"><ele>585.3333333333334</ele><time>2026-04-18T13:19:59.066Z</time></trkpt><trkpt lat="44.2143683" lon="11.5840367"><ele>587.6666666666667</ele><time>2026-04-18T13:20:00.066Z</time></trkpt><trkpt lat="44.214405" lon="11.5839367"><ele>590.0</ele><time>2026-04-18T13:20:01.066Z</time></trkpt><trkpt lat="44.214435" lon="11.5838267"><ele>592.3333333333334</ele><time>2026-04-18T13:20:02.066Z</time></trkpt><trkpt lat="44.2144667" lon="11.5836983"><ele>594.6666666666666</ele><time>2026-04-18T13:20:03.066Z</time></trkpt><trkpt lat="44.214485" lon="11.5835633"><ele>597.0</ele><time>2026-04-18T13:20:04.066Z</time></trkpt><trkpt lat="44.2144983" lon="11.5833767"><ele>598.6</ele><time>2026-04-18T13:20:05.066Z</time></trkpt><trkpt lat="44.2145167" lon="11.5832133"><ele>600.2</ele><time>2026-04-18T13:20:06.066Z</time></trkpt><trkpt lat="44.2145433" lon="11.5830583"><ele>601.8</ele><time>2026-04-18T13:20:07.065Z</time></trkpt><trkpt lat="44.2145717" lon="11.5829267"><ele>603.4</ele><time>2026-04-18T13:20:08.065Z</time></trkpt><trkpt lat="44.214615" lon="11.5827783"><ele>605.0</ele><time>2026-04-18T13:20:09.066Z</time></trkpt><trkpt lat="44.21467" lon="11.5826367"><ele>605.25</ele><time>2026-04-18T13:20:10.066Z</time></trkpt><trkpt lat="44.2147433" lon="11.582475"><ele>605.5</ele><time>2026-04-18T13:20:11.066Z</time></trkpt><trkpt lat="44.2147933" lon="11.58232"><ele>605.75</ele><time>2026-04-18T13:20:12.066Z</time></trkpt><trkpt lat="44.2148533" lon="11.5821733"><ele>606.0</ele><time>2026-04-18T13:20:13.066Z</time></trkpt><trkpt lat="44.21491" lon="11.5820267"><ele>607.0</ele><time>2026-04-18T13:20:14.066Z</time></trkpt><trkpt lat="44.2149733" lon="11.5818883"><ele>608.0</ele><time>2026-04-18T13:20:15.066Z</time></trkpt><trkpt lat="44.215035" lon="11.5817617"><ele>609.0</ele><time>2026-04-18T13:20:16.066Z</time></trkpt><trkpt lat="44.215085" lon="11.5816417"><ele>610.0</ele><time>2026-04-18T13:20:17.066Z</time></trkpt><trkpt lat="44.2151283" lon="11.5814683"><ele>610.0</ele><time>2026-04-18T13:20:18.065Z</time></trkpt><trkpt lat="44.215135" lon="11.581335"><ele>610.0</ele><time>2026-04-18T13:20:19.066Z</time></trkpt><trkpt lat="44.2151633" lon="11.5811767"><ele>610.0</ele><time>2026-04-18T13:20:21.066Z</time></trkpt><trkpt lat="44.2152033" lon="11.5810833"><ele>610.0</ele><time>2026-04-18T13:20:22.066Z</time></trkpt><trkpt lat="44.2152567" lon="11.581015"><ele>610.0</ele><time>2026-04-18T13:20:23.066Z</time></trkpt><trkpt lat="44.215285" lon="11.580935"><ele>610.0</ele><time>2026-04-18T13:20:24.066Z</time></trkpt><trkpt lat="44.215355" lon="11.5807933"><ele>609.4</ele><time>2026-04-18T13:20:26.066Z</time></trkpt><trkpt lat="44.2153733" lon="11.5806783"><ele>608.8</ele><time>2026-04-18T13:20:28.066Z</time></trkpt><trkpt lat="44.2153233" lon="11.580585"><ele>608.2</ele><time>2026-04-18T13:20:31.066Z</time></trkpt><trkpt lat="44.2152" lon="11.5805233"><ele>607.6</ele><time>2026-04-18T13:20:33.066Z</time></trkpt><trkpt lat="44.2151217" lon="11.580485"><ele>607.0</ele><time>2026-04-18T13:20:34.066Z</time></trkpt><trkpt lat="44.2150467" lon="11.5804233"><ele>609.5</ele><time>2026-04-18T13:20:35.065Z</time></trkpt><trkpt lat="44.2149983" lon="11.58034"><ele>612.0</ele><time>2026-04-18T13:20:36.066Z</time></trkpt><trkpt lat="44.214925" lon="11.580225"><ele>614.5</ele><time>2026-04-18T13:20:37.065Z</time></trkpt><trkpt lat="44.214885" lon="11.58012"><ele>617.0</ele><time>2026-04-18T13:20:38.066Z</time></trkpt><trkpt lat="44.2148467" lon="11.5800117"><ele>619.5</ele><time>2026-04-18T13:20:39.066Z</time></trkpt><trkpt lat="44.2148283" lon="11.5799083"><ele>622.0</ele><time>2026-04-18T13:20:40.066Z</time></trkpt><trkpt lat="44.214795" lon="11.5797517"><ele>624.4</ele><time>2026-04-18T13:20:41.066Z</time></trkpt><trkpt lat="44.2147933" lon="11.579625"><ele>626.8000000000001</ele><time>2026-04-18T13:20:42.066Z</time></trkpt><trkpt lat="44.214795" lon="11.57951"><ele>629.2</ele><time>2026-04-18T13:20:43.066Z</time></trkpt><trkpt lat="44.2148383" lon="11.5793633"><ele>631.6</ele><time>2026-04-18T13:20:45.066Z</time></trkpt><trkpt lat="44.2148767" lon="11.5792217"><ele>634.0</ele><time>2026-04-18T13:20:47.066Z</time></trkpt><trkpt lat="44.2148983" lon="11.5791283"><ele>634.0</ele><time>2026-04-18T13:20:48.065Z</time></trkpt><trkpt lat="44.2149083" lon="11.579015"><ele>634.0</ele><time>2026-04-18T13:20:49.066Z</time></trkpt><trkpt lat="44.2149133" lon="11.578925"><ele>634.0</ele><time>2026-04-18T13:20:50.066Z</time></trkpt><trkpt lat="44.2149283" lon="11.5788333"><ele>634.0</ele><time>2026-04-18T13:20:51.065Z</time></trkpt><trkpt lat="44.2149533" lon="11.5787233"><ele>634.0</ele><time>2026-04-18T13:20:52.065Z</time></trkpt><trkpt lat="44.2149717" lon="11.5786217"><ele>634.0</ele><time>2026-04-18T13:20:53.066Z</time></trkpt><trkpt lat="44.2149783" lon="11.5785283"><ele>634.0</ele><time>2026-04-18T13:20:54.065Z</time></trkpt><trkpt lat="44.21496" lon="11.5783733"><ele>634.1666666666667</ele><time>2026-04-18T13:20:56.066Z</time></trkpt><trkpt lat="44.214925" lon="11.5782183"><ele>634.3333333333334</ele><time>2026-04-18T13:20:58.065Z</time></trkpt><trkpt lat="44.2149117" lon="11.57813"><ele>634.5</ele><time>2026-04-18T13:20:59.066Z</time></trkpt><trkpt lat="44.21492" lon="11.577965"><ele>634.6666666666666</ele><time>2026-04-18T13:21:01.066Z</time></trkpt><trkpt lat="44.214935" lon="11.5778733"><ele>634.8333333333333</ele><time>2026-04-18T13:21:02.065Z</time></trkpt><trkpt lat="44.2149317" lon="11.5777817"><ele>635.0</ele><time>2026-04-18T13:21:03.066Z</time></trkpt><trkpt lat="44.2149017" lon="11.5776667"><ele>634.9999999999999</ele><time>2026-04-18T13:21:04.065Z</time></trkpt><trkpt lat="44.21487" lon="11.577555"><ele>635.0</ele><time>2026-04-18T13:21:05.066Z</time></trkpt><trkpt lat="44.2148267" lon="11.57746"><ele>635.0</ele><time>2026-04-18T13:21:06.066Z</time></trkpt><trkpt lat="44.2147983" lon="11.5773633"><ele>635.0</ele><time>2026-04-18T13:21:07.066Z</time></trkpt><trkpt lat="44.2147733" lon="11.5772633"><ele>635.0</ele><time>2026-04-18T13:21:08.065Z</time></trkpt><trkpt lat="44.21475" lon="11.5771783"><ele>634.9999999999999</ele><time>2026-04-18T13:21:09.066Z</time></trkpt><trkpt lat="44.214715" lon="11.5771033"><ele>635.0</ele><time>2026-04-18T13:21:10.066Z</time></trkpt><trkpt lat="44.214665" lon="11.5769817"><ele>634.0</ele><time>2026-04-18T13:21:12.066Z</time></trkpt><trkpt lat="44.2145683" lon="11.57684"><ele>633.0</ele><time>2026-04-18T13:21:14.066Z</time></trkpt><trkpt lat="44.2144883" lon="11.5767583"><ele>632.0</ele><time>2026-04-18T13:21:15.066Z</time></trkpt><trkpt lat="44.2143917" lon="11.5766767"><ele>631.0</ele><time>2026-04-18T13:21:16.066Z</time></trkpt><trkpt lat="44.214285" lon="11.5765933"><ele>631.0</ele><time>2026-04-18T13:21:17.066Z</time></trkpt><trkpt lat="44.2141967" lon="11.5765133"><ele>631.0</ele><time>2026-04-18T13:21:18.066Z</time></trkpt><trkpt lat="44.2141083" lon="11.5764367"><ele>631.0</ele><time>2026-04-18T13:21:19.066Z</time></trkpt><trkpt lat="44.2140467" lon="11.5763483"><ele>631.0</ele><time>2026-04-18T13:21:20.066Z</time></trkpt><trkpt lat="44.2139983" lon="11.5762583"><ele>631.0</ele><time>2026-04-18T13:21:21.066Z</time></trkpt><trkpt lat="44.2139617" lon="11.5761783"><ele>631.0</ele><time>2026-04-18T13:21:22.066Z</time></trkpt><trkpt lat="44.21393" lon="11.5760983"><ele>632.6</ele><time>2026-04-18T13:21:23.066Z</time></trkpt><trkpt lat="44.2138967" lon="11.5760183"><ele>634.2</ele><time>2026-04-18T13:21:24.066Z</time></trkpt><trkpt lat="44.2138633" lon="11.5758583"><ele>635.8</ele><time>2026-04-18T13:21:26.066Z</time></trkpt><trkpt lat="44.2138267" lon="11.575715"><ele>637.4</ele><time>2026-04-18T13:21:28.066Z</time></trkpt><trkpt lat="44.2137983" lon="11.57558"><ele>639.0</ele><time>2026-04-18T13:21:30.066Z</time></trkpt><trkpt lat="44.2137567" lon="11.5754133"><ele>638.2</ele><time>2026-04-18T13:21:32.066Z</time></trkpt><trkpt lat="44.2137183" lon="11.575315"><ele>637.4</ele><time>2026-04-18T13:21:33.066Z</time></trkpt><trkpt lat="44.2136617" lon="11.5752117"><ele>636.6</ele><time>2026-04-18T13:21:34.066Z</time></trkpt><trkpt lat="44.21359" lon="11.57509"><ele>635.8</ele><time>2026-04-18T13:21:35.066Z</time></trkpt><trkpt lat="44.2135133" lon="11.5749567"><ele>635.0</ele><time>2026-04-18T13:21:36.066Z</time></trkpt><trkpt lat="44.2134417" lon="11.5748217"><ele>635.0</ele><time>2026-04-18T13:21:37.066Z</time></trkpt><trkpt lat="44.2133733" lon="11.5747033"><ele>635.0</ele><time>2026-04-18T13:21:38.066Z</time></trkpt><trkpt lat="44.2132683" lon="11.5745783"><ele>635.0</ele><time>2026-04-18T13:21:39.065Z</time></trkpt><trkpt lat="44.2131633" lon="11.5744567"><ele>635.0</ele><time>2026-04-18T13:21:40.066Z</time></trkpt><trkpt lat="44.2130683" lon="11.5743483"><ele>631.4</ele><time>2026-04-18T13:21:41.065Z</time></trkpt><trkpt lat="44.2129517" lon="11.5742733"><ele>627.8</ele><time>2026-04-18T13:21:42.066Z</time></trkpt><trkpt lat="44.212865" lon="11.5741967"><ele>624.2</ele><time>2026-04-18T13:21:43.066Z</time></trkpt><trkpt lat="44.2127833" lon="11.5741067"><ele>620.6</ele><time>2026-04-18T13:21:44.066Z</time></trkpt><trkpt lat="44.2127067" lon="11.5740133"><ele>617.0</ele><time>2026-04-18T13:21:45.065Z</time></trkpt><trkpt lat="44.2126233" lon="11.573905"><ele>617.0</ele><time>2026-04-18T13:21:46.066Z</time></trkpt><trkpt lat="44.212545" lon="11.5738167"><ele>617.0</ele><time>2026-04-18T13:21:47.066Z</time></trkpt><trkpt lat="44.2124683" lon="11.5737417"><ele>617.0</ele><time>2026-04-18T13:21:48.066Z</time></trkpt><trkpt lat="44.2123833" lon="11.5736617"><ele>617.0</ele><time>2026-04-18T13:21:49.066Z</time></trkpt><trkpt lat="44.2123033" lon="11.5735917"><ele>617.0</ele><time>2026-04-18T13:21:50.066Z</time></trkpt><trkpt lat="44.212235" lon="11.573515"><ele>613.3333333333333</ele><time>2026-04-18T13:21:51.066Z</time></trkpt><trkpt lat="44.2121783" lon="11.573425"><ele>609.6666666666666</ele><time>2026-04-18T13:21:52.066Z</time></trkpt><trkpt lat="44.2121367" lon="11.5733267"><ele>606.0</ele><time>2026-04-18T13:21:53.066Z</time></trkpt><trkpt lat="44.212095" lon="11.573225"><ele>602.3333333333334</ele><time>2026-04-18T13:21:54.065Z</time></trkpt><trkpt lat="44.2120633" lon="11.5731317"><ele>598.6666666666667</ele><time>2026-04-18T13:21:55.066Z</time></trkpt><trkpt lat="44.2120333" lon="11.5730483"><ele>595.0</ele><time>2026-04-18T13:21:56.065Z</time></trkpt><trkpt lat="44.2119917" lon="11.5729133"><ele>596.0</ele><time>2026-04-18T13:21:58.066Z</time></trkpt><trkpt lat="44.212005" lon="11.5727533"><ele>597.0</ele><time>2026-04-18T13:22:00.065Z</time></trkpt><trkpt lat="44.2120233" lon="11.5726133"><ele>598.0</ele><time>2026-04-18T13:22:02.065Z</time></trkpt><trkpt lat="44.2120817" lon="11.5725033"><ele>599.0</ele><time>2026-04-18T13:22:04.065Z</time></trkpt><trkpt lat="44.2121567" lon="11.57236"><ele>600.0</ele><time>2026-04-18T13:22:06.064Z</time></trkpt><trkpt lat="44.2122" lon="11.5722667"><ele>600.0</ele><time>2026-04-18T13:22:07.065Z</time></trkpt><trkpt lat="44.2122383" lon="11.5721667"><ele>600.0</ele><time>2026-04-18T13:22:08.065Z</time></trkpt><trkpt lat="44.2122467" lon="11.5720517"><ele>600.0</ele><time>2026-04-18T13:22:09.064Z</time></trkpt><trkpt lat="44.2122667" lon="11.57194"><ele>600.0</ele><time>2026-04-18T13:22:10.065Z</time></trkpt><trkpt lat="44.2123267" lon="11.571845"><ele>600.0</ele><time>2026-04-18T13:22:11.065Z</time></trkpt><trkpt lat="44.2123683" lon="11.5717333"><ele>600.0</ele><time>2026-04-18T13:22:12.064Z</time></trkpt><trkpt lat="44.2124" lon="11.5716233"><ele>600.5714285714286</ele><time>2026-04-18T13:22:13.065Z</time></trkpt><trkpt lat="44.212445" lon="11.5715333"><ele>601.1428571428571</ele><time>2026-04-18T13:22:14.064Z</time></trkpt><trkpt lat="44.21247" lon="11.5714467"><ele>601.7142857142858</ele><time>2026-04-18T13:22:15.065Z</time></trkpt><trkpt lat="44.212475" lon="11.571355"><ele>602.2857142857142</ele><time>2026-04-18T13:22:16.065Z</time></trkpt><trkpt lat="44.2124783" lon="11.5712633"><ele>602.8571428571429</ele><time>2026-04-18T13:22:17.065Z</time></trkpt><trkpt lat="44.21246" lon="11.5711733"><ele>603.4285714285714</ele><time>2026-04-18T13:22:18.065Z</time></trkpt><trkpt lat="44.2124417" lon="11.5710817"><ele>604.0</ele><time>2026-04-18T13:22:19.064Z</time></trkpt><trkpt lat="44.212405" lon="11.57099"><ele>604.0</ele><time>2026-04-18T13:22:20.065Z</time></trkpt><trkpt lat="44.212355" lon="11.570895"><ele>604.0</ele><time>2026-04-18T13:22:21.065Z</time></trkpt><trkpt lat="44.2122867" lon="11.5707967"><ele>604.0</ele><time>2026-04-18T13:22:22.065Z</time></trkpt><trkpt lat="44.21221" lon="11.5706933"><ele>604.0</ele><time>2026-04-18T13:22:23.065Z</time></trkpt><trkpt lat="44.212125" lon="11.57058"><ele>604.0</ele><time>2026-04-18T13:22:24.065Z</time></trkpt><trkpt lat="44.2120317" lon="11.5704617"><ele>603.6</ele><time>2026-04-18T13:22:25.065Z</time></trkpt><trkpt lat="44.21194" lon="11.5703633"><ele>603.2</ele><time>2026-04-18T13:22:26.065Z</time></trkpt><trkpt lat="44.2118483" lon="11.57027"><ele>602.8000000000001</ele><time>2026-04-18T13:22:27.065Z</time></trkpt><trkpt lat="44.2117733" lon="11.5701833"><ele>602.4</ele><time>2026-04-18T13:22:28.065Z</time></trkpt><trkpt lat="44.2117283" lon="11.5700817"><ele>602.0</ele><time>2026-04-18T13:22:29.065Z</time></trkpt><trkpt lat="44.2117017" lon="11.5699867"><ele>602.0</ele><time>2026-04-18T13:22:30.065Z</time></trkpt><trkpt lat="44.2117067" lon="11.5698967"><ele>602.0</ele><time>2026-04-18T13:22:31.064Z</time></trkpt><trkpt lat="44.211705" lon="11.5697983"><ele>602.0</ele><time>2026-04-18T13:22:32.065Z</time></trkpt><trkpt lat="44.2117367" lon="11.569685"><ele>602.0</ele><time>2026-04-18T13:22:33.065Z</time></trkpt><trkpt lat="44.211775" lon="11.5695683"><ele>602.0</ele><time>2026-04-18T13:22:34.065Z</time></trkpt><trkpt lat="44.211845" lon="11.5694483"><ele>602.0</ele><time>2026-04-18T13:22:35.065Z</time></trkpt><trkpt lat="44.2118867" lon="11.569325"><ele>602.4</ele><time>2026-04-18T13:22:36.065Z</time></trkpt><trkpt lat="44.2119017" lon="11.569205"><ele>602.8000000000001</ele><time>2026-04-18T13:22:37.065Z</time></trkpt><trkpt lat="44.211915" lon="11.5690733"><ele>603.2</ele><time>2026-04-18T13:22:38.065Z</time></trkpt><trkpt lat="44.211895" lon="11.56893"><ele>603.6</ele><time>2026-04-18T13:22:39.064Z</time></trkpt><trkpt lat="44.2118683" lon="11.5688033"><ele>604.0</ele><time>2026-04-18T13:22:40.065Z</time></trkpt><trkpt lat="44.2118433" lon="11.5686967"><ele>605.5</ele><time>2026-04-18T13:22:41.065Z</time></trkpt><trkpt lat="44.211835" lon="11.5685917"><ele>607.0</ele><time>2026-04-18T13:22:42.065Z</time></trkpt><trkpt lat="44.211825" lon="11.5684833"><ele>608.5</ele><time>2026-04-18T13:22:43.065Z</time></trkpt><trkpt lat="44.2118033" lon="11.5683967"><ele>610.0</ele><time>2026-04-18T13:22:44.065Z</time></trkpt><trkpt lat="44.2117617" lon="11.5683017"><ele>611.5</ele><time>2026-04-18T13:22:45.065Z</time></trkpt><trkpt lat="44.2117267" lon="11.5682067"><ele>613.0</ele><time>2026-04-18T13:22:46.065Z</time></trkpt><trkpt lat="44.2116933" lon="11.5680983"><ele>613.0</ele><time>2026-04-18T13:22:47.065Z</time></trkpt><trkpt lat="44.2116733" lon="11.56799"><ele>613.0</ele><time>2026-04-18T13:22:48.065Z</time></trkpt><trkpt lat="44.21166" lon="11.5678883"><ele>613.0</ele><time>2026-04-18T13:22:49.065Z</time></trkpt><trkpt lat="44.211655" lon="11.5677917"><ele>613.0</ele><time>2026-04-18T13:22:50.065Z</time></trkpt><trkpt lat="44.2116567" lon="11.56769"><ele>613.0</ele><time>2026-04-18T13:22:51.065Z</time></trkpt><trkpt lat="44.2116583" lon="11.5675917"><ele>613.0</ele><time>2026-04-18T13:22:52.064Z</time></trkpt><trkpt lat="44.211655" lon="11.5674933"><ele>613.0</ele><time>2026-04-18T13:22:53.064Z</time></trkpt><trkpt lat="44.21164" lon="11.5673883"><ele>613.0</ele><time>2026-04-18T13:22:54.065Z</time></trkpt><trkpt lat="44.2116" lon="11.5672667"><ele>613.0</ele><time>2026-04-18T13:22:55.065Z</time></trkpt><trkpt lat="44.21157" lon="11.5671717"><ele>613.0</ele><time>2026-04-18T13:22:56.065Z</time></trkpt><trkpt lat="44.211565" lon="11.567075"><ele>613.0</ele><time>2026-04-18T13:22:57.064Z</time></trkpt><trkpt lat="44.2115733" lon="11.5669667"><ele>613.0</ele><time>2026-04-18T13:22:58.065Z</time></trkpt><trkpt lat="44.2115817" lon="11.5668417"><ele>613.0</ele><time>2026-04-18T13:22:59.065Z</time></trkpt><trkpt lat="44.2116017" lon="11.566715"><ele>613.0</ele><time>2026-04-18T13:23:00.065Z</time></trkpt><trkpt lat="44.211625" lon="11.5666033"><ele>613.0</ele><time>2026-04-18T13:23:01.065Z</time></trkpt><trkpt lat="44.211635" lon="11.5664967"><ele>613.0</ele><time>2026-04-18T13:23:02.065Z</time></trkpt><trkpt lat="44.2116217" lon="11.5663833"><ele>613.0</ele><time>2026-04-18T13:23:03.065Z</time></trkpt><trkpt lat="44.2115767" lon="11.5662767"><ele>613.0</ele><time>2026-04-18T13:23:04.065Z</time></trkpt><trkpt lat="44.2115283" lon="11.56618"><ele>613.0</ele><time>2026-04-18T13:23:05.064Z</time></trkpt><trkpt lat="44.2114833" lon="11.5660883"><ele>611.1666666666667</ele><time>2026-04-18T13:23:06.065Z</time></trkpt><trkpt lat="44.2114417" lon="11.5660133"><ele>609.3333333333334</ele><time>2026-04-18T13:23:07.065Z</time></trkpt><trkpt lat="44.2113833" lon="11.5659417"><ele>607.5</ele><time>2026-04-18T13:23:08.065Z</time></trkpt><trkpt lat="44.21132" lon="11.565865"><ele>605.6666666666666</ele><time>2026-04-18T13:23:09.064Z</time></trkpt><trkpt lat="44.211255" lon="11.565785"><ele>603.8333333333333</ele><time>2026-04-18T13:23:10.065Z</time></trkpt><trkpt lat="44.21119" lon="11.5656883"><ele>602.0</ele><time>2026-04-18T13:23:11.065Z</time></trkpt><trkpt lat="44.2111167" lon="11.5655733"><ele>602.0</ele><time>2026-04-18T13:23:12.065Z</time></trkpt><trkpt lat="44.211045" lon="11.56544"><ele>602.0</ele><time>2026-04-18T13:23:13.065Z</time></trkpt><trkpt lat="44.2109667" lon="11.5652983"><ele>602.0</ele><time>2026-04-18T13:23:14.065Z</time></trkpt><trkpt lat="44.21089" lon="11.5651617"><ele>602.0</ele><time>2026-04-18T13:23:15.065Z</time></trkpt><trkpt lat="44.2108117" lon="11.565025"><ele>601.25</ele><time>2026-04-18T13:23:16.065Z</time></trkpt><trkpt lat="44.2107383" lon="11.5648967"><ele>600.5</ele><time>2026-04-18T13:23:17.065Z</time></trkpt><trkpt lat="44.2106317" lon="11.56475"><ele>599.75</ele><time>2026-04-18T13:23:18.065Z</time></trkpt><trkpt lat="44.210535" lon="11.5646033"><ele>599.0</ele><time>2026-04-18T13:23:19.065Z</time></trkpt><trkpt lat="44.2104533" lon="11.564475"><ele>602.3333333333333</ele><time>2026-04-18T13:23:20.065Z</time></trkpt><trkpt lat="44.210405" lon="11.56438"><ele>605.6666666666666</ele><time>2026-04-18T13:23:21.064Z</time></trkpt><trkpt lat="44.2103633" lon="11.5642783"><ele>609.0</ele><time>2026-04-18T13:23:22.065Z</time></trkpt><trkpt lat="44.2103167" lon="11.5641683"><ele>612.3333333333334</ele><time>2026-04-18T13:23:23.065Z</time></trkpt><trkpt lat="44.210275" lon="11.5640783"><ele>615.6666666666667</ele><time>2026-04-18T13:23:24.065Z</time></trkpt><trkpt lat="44.2102183" lon="11.563965"><ele>619.0</ele><time>2026-04-18T13:23:26.064Z</time></trkpt><trkpt lat="44.210105" lon="11.5639083"><ele>619.0</ele><time>2026-04-18T13:23:28.064Z</time></trkpt><trkpt lat="44.2100267" lon="11.5638383"><ele>619.0</ele><time>2026-04-18T13:23:29.065Z</time></trkpt><trkpt lat="44.2099583" lon="11.5637533"><ele>619.0</ele><time>2026-04-18T13:23:30.064Z</time></trkpt><trkpt lat="44.2098983" lon="11.5636533"><ele>619.0</ele><time>2026-04-18T13:23:31.065Z</time></trkpt><trkpt lat="44.2098433" lon="11.563555"><ele>619.0</ele><time>2026-04-18T13:23:32.065Z</time></trkpt><trkpt lat="44.2097883" lon="11.5634583"><ele>618.6666666666667</ele><time>2026-04-18T13:23:33.065Z</time></trkpt><trkpt lat="44.20973" lon="11.5633783"><ele>618.3333333333334</ele><time>2026-04-18T13:23:34.065Z</time></trkpt><trkpt lat="44.209665" lon="11.5633017"><ele>618.0</ele><time>2026-04-18T13:23:35.065Z</time></trkpt><trkpt lat="44.20959" lon="11.5632383"><ele>617.6666666666666</ele><time>2026-04-18T13:23:36.065Z</time></trkpt><trkpt lat="44.209515" lon="11.5631967"><ele>617.3333333333333</ele><time>2026-04-18T13:23:37.064Z</time></trkpt><trkpt lat="44.20944" lon="11.5631483"><ele>617.0</ele><time>2026-04-18T13:23:38.065Z</time></trkpt><trkpt lat="44.2093717" lon="11.563085"><ele>617.0</ele><time>2026-04-18T13:23:39.065Z</time></trkpt><trkpt lat="44.20931" lon="11.56302"><ele>617.0</ele><time>2026-04-18T13:23:40.065Z</time></trkpt><trkpt lat="44.209265" lon="11.5629433"><ele>617.0</ele><time>2026-04-18T13:23:41.065Z</time></trkpt><trkpt lat="44.209235" lon="11.5627817"><ele>617.0</ele><time>2026-04-18T13:23:43.065Z</time></trkpt><trkpt lat="44.20927" lon="11.5626967"><ele>617.0</ele><time>2026-04-18T13:23:44.065Z</time></trkpt><trkpt lat="44.209285" lon="11.562595"><ele>617.0</ele><time>2026-04-18T13:23:45.065Z</time></trkpt><trkpt lat="44.2092933" lon="11.5624917"><ele>618.0</ele><time>2026-04-18T13:23:46.065Z</time></trkpt><trkpt lat="44.2093067" lon="11.5623533"><ele>619.0</ele><time>2026-04-18T13:23:47.065Z</time></trkpt><trkpt lat="44.2092967" lon="11.5622483"><ele>620.0</ele><time>2026-04-18T13:23:48.065Z</time></trkpt><trkpt lat="44.2092967" lon="11.56216"><ele>621.0</ele><time>2026-04-18T13:23:49.065Z</time></trkpt><trkpt lat="44.2092633" lon="11.56204"><ele>622.0</ele><time>2026-04-18T13:23:50.065Z</time></trkpt><trkpt lat="44.209205" lon="11.5619217"><ele>623.0</ele><time>2026-04-18T13:23:51.065Z</time></trkpt><trkpt lat="44.2091417" lon="11.561815"><ele>626.1999999999999</ele><time>2026-04-18T13:23:52.065Z</time></trkpt><trkpt lat="44.209095" lon="11.5617283"><ele>629.4</ele><time>2026-04-18T13:23:53.065Z</time></trkpt><trkpt lat="44.20904" lon="11.5616367"><ele>632.5999999999999</ele><time>2026-04-18T13:23:54.065Z</time></trkpt><trkpt lat="44.208965" lon="11.561555"><ele>635.8</ele><time>2026-04-18T13:23:55.065Z</time></trkpt><trkpt lat="44.2088783" lon="11.5614883"><ele>639.0</ele><time>2026-04-18T13:23:56.065Z</time></trkpt><trkpt lat="44.2087917" lon="11.56142"><ele>635.6</ele><time>2026-04-18T13:23:57.065Z</time></trkpt><trkpt lat="44.2086983" lon="11.5613433"><ele>632.2</ele><time>2026-04-18T13:23:58.065Z</time></trkpt><trkpt lat="44.2086467" lon="11.5612433"><ele>628.8000000000001</ele><time>2026-04-18T13:23:59.065Z</time></trkpt><trkpt lat="44.208595" lon="11.5611467"><ele>625.4</ele><time>2026-04-18T13:24:00.065Z</time></trkpt><trkpt lat="44.20854" lon="11.5610533"><ele>622.0</ele><time>2026-04-18T13:24:01.065Z</time></trkpt><trkpt lat="44.2084733" lon="11.5609683"><ele>622.0</ele><time>2026-04-18T13:24:02.065Z</time></trkpt><trkpt lat="44.2084233" lon="11.5608783"><ele>622.0</ele><time>2026-04-18T13:24:03.065Z</time></trkpt><trkpt lat="44.2083483" lon="11.560785"><ele>622.0</ele><time>2026-04-18T13:24:04.064Z</time></trkpt><trkpt lat="44.2082767" lon="11.5606883"><ele>622.0</ele><time>2026-04-18T13:24:05.065Z</time></trkpt><trkpt lat="44.208175" lon="11.5606067"><ele>622.0</ele><time>2026-04-18T13:24:06.064Z</time></trkpt><trkpt lat="44.208075" lon="11.560525"><ele>620.8000000000001</ele><time>2026-04-18T13:24:07.065Z</time></trkpt><trkpt lat="44.2079867" lon="11.5604583"><ele>619.6</ele><time>2026-04-18T13:24:08.065Z</time></trkpt><trkpt lat="44.207895" lon="11.560385"><ele>618.4000000000001</ele><time>2026-04-18T13:24:09.065Z</time></trkpt><trkpt lat="44.2078167" lon="11.56029"><ele>617.2</ele><time>2026-04-18T13:24:10.065Z</time></trkpt><trkpt lat="44.2077367" lon="11.5601783"><ele>616.0</ele><time>2026-04-18T13:24:11.065Z</time></trkpt><trkpt lat="44.2076517" lon="11.5600583"><ele>616.0</ele><time>2026-04-18T13:24:12.065Z</time></trkpt><trkpt lat="44.207575" lon="11.5599433"><ele>616.0</ele><time>2026-04-18T13:24:13.064Z</time></trkpt><trkpt lat="44.207495" lon="11.5598333"><ele>616.0</ele><time>2026-04-18T13:24:14.065Z</time></trkpt><trkpt lat="44.20742" lon="11.5597267"><ele>616.0</ele><time>2026-04-18T13:24:15.065Z</time></trkpt><trkpt lat="44.2073383" lon="11.559605"><ele>617.0</ele><time>2026-04-18T13:24:16.065Z</time></trkpt><trkpt lat="44.2072417" lon="11.55949"><ele>618.0</ele><time>2026-04-18T13:24:17.065Z</time></trkpt><trkpt lat="44.207165" lon="11.5593817"><ele>619.0</ele><time>2026-04-18T13:24:18.065Z</time></trkpt><trkpt lat="44.2071" lon="11.55927"><ele>620.0</ele><time>2026-04-18T13:24:19.065Z</time></trkpt><trkpt lat="44.2070367" lon="11.5591483"><ele>621.0</ele><time>2026-04-18T13:24:20.064Z</time></trkpt><trkpt lat="44.2069833" lon="11.5590117"><ele>621.0</ele><time>2026-04-18T13:24:21.065Z</time></trkpt><trkpt lat="44.206955" lon="11.5588733"><ele>621.0</ele><time>2026-04-18T13:24:22.065Z</time></trkpt><trkpt lat="44.2069217" lon="11.55874"><ele>621.0</ele><time>2026-04-18T13:24:23.065Z</time></trkpt><trkpt lat="44.206895" lon="11.558615"><ele>621.0</ele><time>2026-04-18T13:24:24.065Z</time></trkpt><trkpt lat="44.2068717" lon="11.5584933"><ele>621.0</ele><time>2026-04-18T13:24:25.065Z</time></trkpt><trkpt lat="44.2068283" lon="11.5583867"><ele>619.4</ele><time>2026-04-18T13:24:26.065Z</time></trkpt><trkpt lat="44.2068033" lon="11.5582617"><ele>617.8</ele><time>2026-04-18T13:24:27.065Z</time></trkpt><trkpt lat="44.2067883" lon="11.5581433"><ele>616.1999999999999</ele><time>2026-04-18T13:24:28.065Z</time></trkpt><trkpt lat="44.2067917" lon="11.5580217"><ele>614.6</ele><time>2026-04-18T13:24:29.065Z</time></trkpt><trkpt lat="44.206795" lon="11.5578917"><ele>613.0</ele><time>2026-04-18T13:24:30.065Z</time></trkpt><trkpt lat="44.2068117" lon="11.5577567"><ele>610.4</ele><time>2026-04-18T13:24:31.065Z</time></trkpt><trkpt lat="44.2068517" lon="11.5576117"><ele>607.8</ele><time>2026-04-18T13:24:32.065Z</time></trkpt><trkpt lat="44.2069" lon="11.5574717"><ele>605.2</ele><time>2026-04-18T13:24:33.065Z</time></trkpt><trkpt lat="44.2069317" lon="11.5573317"><ele>602.6</ele><time>2026-04-18T13:24:34.065Z</time></trkpt><trkpt lat="44.2069667" lon="11.5572183"><ele>600.0</ele><time>2026-04-18T13:24:35.065Z</time></trkpt><trkpt lat="44.207005" lon="11.5570967"><ele>598.8</ele><time>2026-04-18T13:24:36.065Z</time></trkpt><trkpt lat="44.207055" lon="11.5569817"><ele>597.6</ele><time>2026-04-18T13:24:37.065Z</time></trkpt><trkpt lat="44.2070967" lon="11.5568567"><ele>596.4</ele><time>2026-04-18T13:24:38.065Z</time></trkpt><trkpt lat="44.2071267" lon="11.5567167"><ele>595.2</ele><time>2026-04-18T13:24:39.065Z</time></trkpt><trkpt lat="44.2071383" lon="11.55658"><ele>594.0</ele><time>2026-04-18T13:24:40.065Z</time></trkpt><trkpt lat="44.2071417" lon="11.5564467"><ele>594.0</ele><time>2026-04-18T13:24:41.064Z</time></trkpt><trkpt lat="44.2071467" lon="11.556325"><ele>594.0</ele><time>2026-04-18T13:24:42.065Z</time></trkpt><trkpt lat="44.20717" lon="11.5562183"><ele>594.0</ele><time>2026-04-18T13:24:43.065Z</time></trkpt><trkpt lat="44.2071983" lon="11.5561017"><ele>594.0</ele><time>2026-04-18T13:24:44.065Z</time></trkpt><trkpt lat="44.2072367" lon="11.5559867"><ele>594.0</ele><time>2026-04-18T13:24:45.065Z</time></trkpt><trkpt lat="44.207295" lon="11.5558633"><ele>592.2</ele><time>2026-04-18T13:24:46.065Z</time></trkpt><trkpt lat="44.207335" lon="11.55573"><ele>590.4</ele><time>2026-04-18T13:24:47.065Z</time></trkpt><trkpt lat="44.2073633" lon="11.5555967"><ele>588.6</ele><time>2026-04-18T13:24:48.065Z</time></trkpt><trkpt lat="44.2073783" lon="11.555465"><ele>586.8</ele><time>2026-04-18T13:24:49.064Z</time></trkpt><trkpt lat="44.2073467" lon="11.5553267"><ele>585.0</ele><time>2026-04-18T13:24:50.065Z</time></trkpt><trkpt lat="44.2073183" lon="11.5551783"><ele>585.0</ele><time>2026-04-18T13:24:51.064Z</time></trkpt><trkpt lat="44.2073" lon="11.5550367"><ele>585.0</ele><time>2026-04-18T13:24:52.064Z</time></trkpt><trkpt lat="44.207295" lon="11.5548967"><ele>585.0</ele><time>2026-04-18T13:24:53.065Z</time></trkpt><trkpt lat="44.2073" lon="11.5547567"><ele>585.0</ele><time>2026-04-18T13:24:54.065Z</time></trkpt><trkpt lat="44.2073067" lon="11.55462"><ele>585.0</ele><time>2026-04-18T13:24:55.065Z</time></trkpt><trkpt lat="44.207305" lon="11.5544917"><ele>587.6666666666666</ele><time>2026-04-18T13:24:56.065Z</time></trkpt><trkpt lat="44.2072967" lon="11.55438"><ele>590.3333333333334</ele><time>2026-04-18T13:24:57.064Z</time></trkpt><trkpt lat="44.2072833" lon="11.5542817"><ele>593.0</ele><time>2026-04-18T13:24:58.064Z</time></trkpt><trkpt lat="44.2072433" lon="11.5541883"><ele>595.6666666666667</ele><time>2026-04-18T13:24:59.064Z</time></trkpt><trkpt lat="44.2072083" lon="11.554085"><ele>598.3333333333334</ele><time>2026-04-18T13:25:00.063Z</time></trkpt><trkpt lat="44.2071833" lon="11.55397"><ele>601.0</ele><time>2026-04-18T13:25:01.064Z</time></trkpt><trkpt lat="44.2071683" lon="11.5538467"><ele>601.0</ele><time>2026-04-18T13:25:02.064Z</time></trkpt><trkpt lat="44.2071583" lon="11.553725"><ele>601.0</ele><time>2026-04-18T13:25:03.064Z</time></trkpt><trkpt lat="44.207145" lon="11.5535983"><ele>601.0</ele><time>2026-04-18T13:25:04.064Z</time></trkpt><trkpt lat="44.2071117" lon="11.553475"><ele>601.0</ele><time>2026-04-18T13:25:05.064Z</time></trkpt><trkpt lat="44.2070783" lon="11.55336"><ele>601.0</ele><time>2026-04-18T13:25:06.064Z</time></trkpt><trkpt lat="44.207035" lon="11.5532617"><ele>601.0</ele><time>2026-04-18T13:25:07.064Z</time></trkpt><trkpt lat="44.2069883" lon="11.55318"><ele>602.2</ele><time>2026-04-18T13:25:08.064Z</time></trkpt><trkpt lat="44.2069633" lon="11.5530983"><ele>603.4000000000001</ele><time>2026-04-18T13:25:09.064Z</time></trkpt><trkpt lat="44.206955" lon="11.5529383"><ele>604.6</ele><time>2026-04-18T13:25:11.064Z</time></trkpt><trkpt lat="44.2069833" lon="11.552775"><ele>605.8000000000001</ele><time>2026-04-18T13:25:13.064Z</time></trkpt><trkpt lat="44.2070117" lon="11.55268"><ele>607.0</ele><time>2026-04-18T13:25:14.064Z</time></trkpt><trkpt lat="44.2070417" lon="11.5525617"><ele>607.0</ele><time>2026-04-18T13:25:15.064Z</time></trkpt><trkpt lat="44.2070817" lon="11.5524267"><ele>607.0</ele><time>2026-04-18T13:25:16.064Z</time></trkpt><trkpt lat="44.2071417" lon="11.5522883"><ele>607.0</ele><time>2026-04-18T13:25:17.063Z</time></trkpt><trkpt lat="44.2071917" lon="11.5521567"><ele>607.0</ele><time>2026-04-18T13:25:18.063Z</time></trkpt><trkpt lat="44.2072417" lon="11.552035"><ele>607.0</ele><time>2026-04-18T13:25:19.064Z</time></trkpt><trkpt lat="44.2073" lon="11.5519267"><ele>610.3333333333334</ele><time>2026-04-18T13:25:20.064Z</time></trkpt><trkpt lat="44.20734" lon="11.5518267"><ele>613.6666666666667</ele><time>2026-04-18T13:25:21.064Z</time></trkpt><trkpt lat="44.2073867" lon="11.5517317"><ele>617.0</ele><time>2026-04-18T13:25:22.064Z</time></trkpt><trkpt lat="44.2074367" lon="11.5516483"><ele>620.3333333333334</ele><time>2026-04-18T13:25:23.064Z</time></trkpt><trkpt lat="44.2074883" lon="11.5515733"><ele>623.6666666666666</ele><time>2026-04-18T13:25:24.064Z</time></trkpt><trkpt lat="44.2075467" lon="11.551505"><ele>627.0</ele><time>2026-04-18T13:25:25.064Z</time></trkpt><trkpt lat="44.2076167" lon="11.5514517"><ele>627.0</ele><time>2026-04-18T13:25:26.064Z</time></trkpt><trkpt lat="44.2076983" lon="11.5513983"><ele>627.0</ele><time>2026-04-18T13:25:27.064Z</time></trkpt><trkpt lat="44.2077717" lon="11.5513433"><ele>627.0</ele><time>2026-04-18T13:25:28.064Z</time></trkpt><trkpt lat="44.2078483" lon="11.551265"><ele>627.0</ele><time>2026-04-18T13:25:29.064Z</time></trkpt><trkpt lat="44.2079217" lon="11.55119"><ele>627.0</ele><time>2026-04-18T13:25:30.064Z</time></trkpt><trkpt lat="44.207995" lon="11.551105"><ele>626.8000000000001</ele><time>2026-04-18T13:25:31.064Z</time></trkpt><trkpt lat="44.2080567" lon="11.55102"><ele>626.6</ele><time>2026-04-18T13:25:32.064Z</time></trkpt><trkpt lat="44.2081117" lon="11.5509217"><ele>626.4000000000001</ele><time>2026-04-18T13:25:33.064Z</time></trkpt><trkpt lat="44.2081633" lon="11.55083"><ele>626.2</ele><time>2026-04-18T13:25:34.064Z</time></trkpt><trkpt lat="44.2082433" lon="11.5506633"><ele>626.0</ele><time>2026-04-18T13:25:36.063Z</time></trkpt><trkpt lat="44.2082817" lon="11.5505867"><ele>626.0</ele><time>2026-04-18T13:25:37.064Z</time></trkpt><trkpt lat="44.20827" lon="11.5504217"><ele>626.0</ele><time>2026-04-18T13:25:39.064Z</time></trkpt><trkpt lat="44.2082083" lon="11.5503267"><ele>626.0</ele><time>2026-04-18T13:25:40.063Z</time></trkpt><trkpt lat="44.2081433" lon="11.55023"><ele>626.0</ele><time>2026-04-18T13:25:41.064Z</time></trkpt><trkpt lat="44.2080867" lon="11.5501317"><ele>626.0</ele><time>2026-04-18T13:25:42.063Z</time></trkpt><trkpt lat="44.20804" lon="11.5500283"><ele>630.8333333333333</ele><time>2026-04-18T13:25:43.063Z</time></trkpt><trkpt lat="44.2080117" lon="11.549935"><ele>635.6666666666666</ele><time>2026-04-18T13:25:44.064Z</time></trkpt><trkpt lat="44.2079767" lon="11.549855"><ele>640.5</ele><time>2026-04-18T13:25:45.063Z</time></trkpt><trkpt lat="44.20794" lon="11.5497683"><ele>645.3333333333334</ele><time>2026-04-18T13:25:47.064Z</time></trkpt><trkpt lat="44.2079283" lon="11.5496717"><ele>650.1666666666667</ele><time>2026-04-18T13:25:51.064Z</time></trkpt><trkpt lat="44.2079617" lon="11.54976"><ele>655.0</ele><time>2026-04-18T13:26:20.064Z</time></trkpt><trkpt lat="44.208015" lon="11.54991"><ele>655.0</ele><time>2026-04-18T13:26:22.064Z</time></trkpt><trkpt lat="44.208065" lon="11.55001"><ele>655.0</ele><time>2026-04-18T13:26:23.063Z</time></trkpt><trkpt lat="44.208115" lon="11.5501067"><ele>655.0</ele><time>2026-04-18T13:26:24.064Z</time></trkpt><trkpt lat="44.2081583" lon="11.55019"><ele>655.0</ele><time>2026-04-18T13:26:25.064Z</time></trkpt><trkpt lat="44.208225" lon="11.5502733"><ele>655.0</ele><time>2026-04-18T13:26:26.064Z</time></trkpt><trkpt lat="44.2082667" lon="11.55035"><ele>655.0</ele><time>2026-04-18T13:26:27.064Z</time></trkpt><trkpt lat="44.2083017" lon="11.5504233"><ele>650.1666666666667</ele><time>2026-04-18T13:26:28.064Z</time></trkpt><trkpt lat="44.20833" lon="11.5505517"><ele>645.3333333333334</ele><time>2026-04-18T13:26:30.064Z</time></trkpt><trkpt lat="44.20839" lon="11.5505817"><ele>640.5</ele><time>2026-04-18T13:26:33.064Z</time></trkpt><trkpt lat="44.2084217" lon="11.550505"><ele>635.6666666666666</ele><time>2026-04-18T13:26:35.064Z</time></trkpt><trkpt lat="44.2084333" lon="11.5503917"><ele>630.8333333333333</ele><time>2026-04-18T13:26:37.064Z</time></trkpt><trkpt lat="44.2084183" lon="11.550255"><ele>626.0</ele><time>2026-04-18T13:26:39.063Z</time></trkpt><trkpt lat="44.2084" lon="11.5500883"><ele>625.5</ele><time>2026-04-18T13:26:41.063Z</time></trkpt><trkpt lat="44.2083917" lon="11.5499533"><ele>625.0</ele><time>2026-04-18T13:26:42.064Z</time></trkpt><trkpt lat="44.2083683" lon="11.549775"><ele>624.5</ele><time>2026-04-18T13:26:43.064Z</time></trkpt><trkpt lat="44.2083017" lon="11.5495233"><ele>624.0</ele><time>2026-04-18T13:26:44.064Z</time></trkpt><trkpt lat="44.2082767" lon="11.5493217"><ele>622.5</ele><time>2026-04-18T13:26:45.064Z</time></trkpt><trkpt lat="44.2082783" lon="11.5491417"><ele>621.0</ele><time>2026-04-18T13:26:46.063Z</time></trkpt><trkpt lat="44.2082767" lon="11.548965"><ele>619.5</ele><time>2026-04-18T13:26:47.064Z</time></trkpt><trkpt lat="44.2082617" lon="11.548775"><ele>618.0</ele><time>2026-04-18T13:26:48.064Z</time></trkpt><trkpt lat="44.2082483" lon="11.5486"><ele>617.4</ele><time>2026-04-18T13:26:49.064Z</time></trkpt><trkpt lat="44.2082267" lon="11.5484367"><ele>616.8</ele><time>2026-04-18T13:26:50.064Z</time></trkpt><trkpt lat="44.2082133" lon="11.5482683"><ele>616.2</ele><time>2026-04-18T13:26:51.064Z</time></trkpt><trkpt lat="44.2081967" lon="11.5481467"><ele>615.6</ele><time>2026-04-18T13:26:52.064Z</time></trkpt><trkpt lat="44.2081683" lon="11.54804"><ele>615.0</ele><time>2026-04-18T13:26:53.064Z</time></trkpt><trkpt lat="44.2081283" lon="11.54794"><ele>617.4</ele><time>2026-04-18T13:26:54.064Z</time></trkpt><trkpt lat="44.20808" lon="11.5478467"><ele>619.8</ele><time>2026-04-18T13:26:55.064Z</time></trkpt><trkpt lat="44.2080117" lon="11.5477617"><ele>622.2</ele><time>2026-04-18T13:26:56.063Z</time></trkpt><trkpt lat="44.20794" lon="11.5476633"><ele>624.6</ele><time>2026-04-18T13:26:57.063Z</time></trkpt><trkpt lat="44.2078917" lon="11.5475617"><ele>627.0</ele><time>2026-04-18T13:26:58.064Z</time></trkpt><trkpt lat="44.2078433" lon="11.547435"><ele>627.0</ele><time>2026-04-18T13:26:59.064Z</time></trkpt><trkpt lat="44.2078" lon="11.5473033"><ele>627.0</ele><time>2026-04-18T13:27:00.064Z</time></trkpt><trkpt lat="44.2077567" lon="11.5471733"><ele>627.0</ele><time>2026-04-18T13:27:01.063Z</time></trkpt><trkpt lat="44.207715" lon="11.5470267"><ele>627.0</ele><time>2026-04-18T13:27:02.064Z</time></trkpt><trkpt lat="44.2076817" lon="11.5468883"><ele>627.0</ele><time>2026-04-18T13:27:03.064Z</time></trkpt><trkpt lat="44.207655" lon="11.54674"><ele>625.4</ele><time>2026-04-18T13:27:04.064Z</time></trkpt><trkpt lat="44.2076317" lon="11.546595"><ele>623.8000000000001</ele><time>2026-04-18T13:27:05.064Z</time></trkpt><trkpt lat="44.20762" lon="11.5464633"><ele>622.2</ele><time>2026-04-18T13:27:06.064Z</time></trkpt><trkpt lat="44.20762" lon="11.5463467"><ele>620.6</ele><time>2026-04-18T13:27:07.064Z</time></trkpt><trkpt lat="44.2076517" lon="11.54617"><ele>619.0</ele><time>2026-04-18T13:27:09.064Z</time></trkpt><trkpt lat="44.2076967" lon="11.5460783"><ele>619.0</ele><time>2026-04-18T13:27:10.064Z</time></trkpt><trkpt lat="44.2077367" lon="11.545995"><ele>619.0</ele><time>2026-04-18T13:27:11.064Z</time></trkpt><trkpt lat="44.2078" lon="11.5459083"><ele>619.0</ele><time>2026-04-18T13:27:12.063Z</time></trkpt><trkpt lat="44.2078717" lon="11.5458183"><ele>619.0</ele><time>2026-04-18T13:27:13.064Z</time></trkpt><trkpt lat="44.2079833" lon="11.545715"><ele>619.0</ele><time>2026-04-18T13:27:14.064Z</time></trkpt><trkpt lat="44.208095" lon="11.54564"><ele>612.5</ele><time>2026-04-18T13:27:15.064Z</time></trkpt><trkpt lat="44.2082183" lon="11.5455717"><ele>606.0</ele><time>2026-04-18T13:27:16.064Z</time></trkpt><trkpt lat="44.2083333" lon="11.5455133"><ele>599.5</ele><time>2026-04-18T13:27:17.064Z</time></trkpt><trkpt lat="44.2084433" lon="11.5454733"><ele>593.0</ele><time>2026-04-18T13:27:18.064Z</time></trkpt><trkpt lat="44.2085583" lon="11.5454283"><ele>593.0</ele><time>2026-04-18T13:27:19.064Z</time></trkpt><trkpt lat="44.208675" lon="11.5454"><ele>593.0</ele><time>2026-04-18T13:27:20.064Z</time></trkpt><trkpt lat="44.208805" lon="11.5453733"><ele>593.0</ele><time>2026-04-18T13:27:21.064Z</time></trkpt><trkpt lat="44.2089283" lon="11.5453733"><ele>593.0</ele><time>2026-04-18T13:27:22.064Z</time></trkpt><trkpt lat="44.2090367" lon="11.5453917"><ele>589.6</ele><time>2026-04-18T13:27:23.063Z</time></trkpt><trkpt lat="44.2091317" lon="11.54543"><ele>586.1999999999999</ele><time>2026-04-18T13:27:24.064Z</time></trkpt><trkpt lat="44.20923" lon="11.5454767"><ele>582.8</ele><time>2026-04-18T13:27:25.064Z</time></trkpt><trkpt lat="44.2093217" lon="11.54552"><ele>579.4</ele><time>2026-04-18T13:27:26.064Z</time></trkpt><trkpt lat="44.2094067" lon="11.5455517"><ele>576.0</ele><time>2026-04-18T13:27:27.064Z</time></trkpt><trkpt lat="44.2094983" lon="11.54556"><ele>576.0</ele><time>2026-04-18T13:27:28.064Z</time></trkpt><trkpt lat="44.20958" lon="11.545545"><ele>576.0</ele><time>2026-04-18T13:27:29.064Z</time></trkpt><trkpt lat="44.2096417" lon="11.5455067"><ele>576.0</ele><time>2026-04-18T13:27:30.064Z</time></trkpt><trkpt lat="44.2096967" lon="11.5454417"><ele>576.0</ele><time>2026-04-18T13:27:31.064Z</time></trkpt><trkpt lat="44.2097367" lon="11.5453733"><ele>576.0</ele><time>2026-04-18T13:27:32.064Z</time></trkpt><trkpt lat="44.2097567" lon="11.5452617"><ele>576.0</ele><time>2026-04-18T13:27:33.064Z</time></trkpt><trkpt lat="44.2097833" lon="11.5451517"><ele>575.6666666666666</ele><time>2026-04-18T13:27:34.064Z</time></trkpt><trkpt lat="44.209815" lon="11.5450417"><ele>575.3333333333334</ele><time>2026-04-18T13:27:35.064Z</time></trkpt><trkpt lat="44.2098567" lon="11.5449467"><ele>575.0</ele><time>2026-04-18T13:27:36.064Z</time></trkpt><trkpt lat="44.20991" lon="11.5448567"><ele>574.6666666666667</ele><time>2026-04-18T13:27:37.064Z</time></trkpt><trkpt lat="44.2099717" lon="11.5447833"><ele>574.3333333333334</ele><time>2026-04-18T13:27:38.064Z</time></trkpt><trkpt lat="44.2100367" lon="11.54471"><ele>574.0</ele><time>2026-04-18T13:27:39.064Z</time></trkpt><trkpt lat="44.2100917" lon="11.54463"><ele>572.3333333333334</ele><time>2026-04-18T13:27:40.064Z</time></trkpt><trkpt lat="44.210135" lon="11.5445317"><ele>570.6666666666667</ele><time>2026-04-18T13:27:41.064Z</time></trkpt><trkpt lat="44.21017" lon="11.5444233"><ele>569.0</ele><time>2026-04-18T13:27:42.063Z</time></trkpt><trkpt lat="44.2102183" lon="11.54431"><ele>567.3333333333334</ele><time>2026-04-18T13:27:43.064Z</time></trkpt><trkpt lat="44.2102733" lon="11.54422"><ele>565.6666666666666</ele><time>2026-04-18T13:27:44.064Z</time></trkpt><trkpt lat="44.210335" lon="11.5441533"><ele>564.0</ele><time>2026-04-18T13:27:45.064Z</time></trkpt><trkpt lat="44.2104083" lon="11.5441183"><ele>564.0</ele><time>2026-04-18T13:27:46.064Z</time></trkpt><trkpt lat="44.2104917" lon="11.5440983"><ele>564.0</ele><time>2026-04-18T13:27:47.064Z</time></trkpt><trkpt lat="44.21057" lon="11.5440833"><ele>564.0</ele><time>2026-04-18T13:27:48.064Z</time></trkpt><trkpt lat="44.21065" lon="11.54405"><ele>564.0</ele><time>2026-04-18T13:27:49.064Z</time></trkpt><trkpt lat="44.2107217" lon="11.544005"><ele>564.0</ele><time>2026-04-18T13:27:50.064Z</time></trkpt><trkpt lat="44.2107867" lon="11.5439417"><ele>564.0</ele><time>2026-04-18T13:27:51.064Z</time></trkpt><trkpt lat="44.2108583" lon="11.5438583"><ele>561.6</ele><time>2026-04-18T13:27:52.064Z</time></trkpt><trkpt lat="44.21093" lon="11.543765"><ele>559.2</ele><time>2026-04-18T13:27:53.063Z</time></trkpt><trkpt lat="44.2110167" lon="11.543675"><ele>556.8000000000001</ele><time>2026-04-18T13:27:54.063Z</time></trkpt><trkpt lat="44.2111083" lon="11.54361"><ele>554.4</ele><time>2026-04-18T13:27:55.063Z</time></trkpt><trkpt lat="44.2112133" lon="11.5435867"><ele>552.0</ele><time>2026-04-18T13:27:56.062Z</time></trkpt><trkpt lat="44.2113117" lon="11.5435733"><ele>549.0</ele><time>2026-04-18T13:27:57.063Z</time></trkpt><trkpt lat="44.21142" lon="11.5435633"><ele>546.0</ele><time>2026-04-18T13:27:58.062Z</time></trkpt><trkpt lat="44.2115283" lon="11.5435417"><ele>543.0</ele><time>2026-04-18T13:27:59.063Z</time></trkpt><trkpt lat="44.2116317" lon="11.5434883"><ele>540.0</ele><time>2026-04-18T13:28:00.063Z</time></trkpt><trkpt lat="44.2117417" lon="11.543415"><ele>540.0</ele><time>2026-04-18T13:28:01.062Z</time></trkpt><trkpt lat="44.211865" lon="11.54333"><ele>540.0</ele><time>2026-04-18T13:28:02.063Z</time></trkpt><trkpt lat="44.211975" lon="11.54325"><ele>540.0</ele><time>2026-04-18T13:28:03.063Z</time></trkpt><trkpt lat="44.2120733" lon="11.5431767"><ele>540.0</ele><time>2026-04-18T13:28:04.062Z</time></trkpt><trkpt lat="44.212175" lon="11.543095"><ele>540.0</ele><time>2026-04-18T13:28:05.063Z</time></trkpt><trkpt lat="44.2122683" lon="11.54301"><ele>540.0</ele><time>2026-04-18T13:28:06.063Z</time></trkpt><trkpt lat="44.2123583" lon="11.54291"><ele>540.0</ele><time>2026-04-18T13:28:07.063Z</time></trkpt><trkpt lat="44.212455" lon="11.5428117"><ele>540.0</ele><time>2026-04-18T13:28:08.062Z</time></trkpt><trkpt lat="44.2125433" lon="11.542735"><ele>538.8333333333334</ele><time>2026-04-18T13:28:09.063Z</time></trkpt><trkpt lat="44.2126133" lon="11.5426667"><ele>537.6666666666666</ele><time>2026-04-18T13:28:10.063Z</time></trkpt><trkpt lat="44.21267" lon="11.5426033"><ele>536.5</ele><time>2026-04-18T13:28:11.063Z</time></trkpt><trkpt lat="44.21272" lon="11.5425167"><ele>535.3333333333333</ele><time>2026-04-18T13:28:12.063Z</time></trkpt><trkpt lat="44.2127683" lon="11.5424483"><ele>534.1666666666666</ele><time>2026-04-18T13:28:13.063Z</time></trkpt><trkpt lat="44.21288" lon="11.5423617"><ele>533.0</ele><time>2026-04-18T13:28:15.063Z</time></trkpt><trkpt lat="44.2129567" lon="11.542325"><ele>533.0</ele><time>2026-04-18T13:28:16.063Z</time></trkpt><trkpt lat="44.2130367" lon="11.5422783"><ele>533.0</ele><time>2026-04-18T13:28:17.063Z</time></trkpt><trkpt lat="44.2131117" lon="11.542225"><ele>533.0</ele><time>2026-04-18T13:28:18.063Z</time></trkpt><trkpt lat="44.2131733" lon="11.5421583"><ele>533.0</ele><time>2026-04-18T13:28:19.063Z</time></trkpt><trkpt lat="44.2132433" lon="11.542075"><ele>533.0</ele><time>2026-04-18T13:28:20.063Z</time></trkpt><trkpt lat="44.2133217" lon="11.5420083"><ele>533.0</ele><time>2026-04-18T13:28:21.063Z</time></trkpt><trkpt lat="44.2134333" lon="11.5419333"><ele>532.1999999999999</ele><time>2026-04-18T13:28:22.063Z</time></trkpt><trkpt lat="44.2135333" lon="11.5418633"><ele>531.4</ele><time>2026-04-18T13:28:23.062Z</time></trkpt><trkpt lat="44.2136117" lon="11.5417867"><ele>530.5999999999999</ele><time>2026-04-18T13:28:24.063Z</time></trkpt><trkpt lat="44.2136783" lon="11.5417067"><ele>529.8</ele><time>2026-04-18T13:28:25.063Z</time></trkpt><trkpt lat="44.21374" lon="11.541635"><ele>529.0</ele><time>2026-04-18T13:28:26.063Z</time></trkpt><trkpt lat="44.2137883" lon="11.5415533"><ele>529.0</ele><time>2026-04-18T13:28:27.063Z</time></trkpt><trkpt lat="44.2138367" lon="11.5414267"><ele>529.0</ele><time>2026-04-18T13:28:29.063Z</time></trkpt><trkpt lat="44.2138383" lon="11.5412733"><ele>529.0</ele><time>2026-04-18T13:28:31.063Z</time></trkpt><trkpt lat="44.213845" lon="11.5411783"><ele>529.0</ele><time>2026-04-18T13:28:32.062Z</time></trkpt><trkpt lat="44.2138617" lon="11.5410817"><ele>529.0</ele><time>2026-04-18T13:28:33.063Z</time></trkpt><trkpt lat="44.2138867" lon="11.5409967"><ele>529.0</ele><time>2026-04-18T13:28:34.062Z</time></trkpt><trkpt lat="44.2139117" lon="11.5409083"><ele>529.5</ele><time>2026-04-18T13:28:35.062Z</time></trkpt><trkpt lat="44.2139433" lon="11.5408233"><ele>530.0</ele><time>2026-04-18T13:28:36.063Z</time></trkpt><trkpt lat="44.2139833" lon="11.5407217"><ele>530.5</ele><time>2026-04-18T13:28:37.063Z</time></trkpt><trkpt lat="44.2140233" lon="11.54061"><ele>531.0</ele><time>2026-04-18T13:28:38.063Z</time></trkpt><trkpt lat="44.214065" lon="11.5404917"><ele>531.5</ele><time>2026-04-18T13:28:39.063Z</time></trkpt><trkpt lat="44.2140933" lon="11.5403767"><ele>532.0</ele><time>2026-04-18T13:28:40.063Z</time></trkpt><trkpt lat="44.2140967" lon="11.5402433"><ele>532.0</ele><time>2026-04-18T13:28:41.063Z</time></trkpt><trkpt lat="44.2141083" lon="11.5400917"><ele>532.0</ele><time>2026-04-18T13:28:42.062Z</time></trkpt><trkpt lat="44.21412" lon="11.539955"><ele>532.0</ele><time>2026-04-18T13:28:43.063Z</time></trkpt><trkpt lat="44.21415" lon="11.5398217"><ele>532.0</ele><time>2026-04-18T13:28:44.063Z</time></trkpt><trkpt lat="44.2142033" lon="11.53968"><ele>532.0</ele><time>2026-04-18T13:28:45.063Z</time></trkpt><trkpt lat="44.214235" lon="11.5395633"><ele>531.4</ele><time>2026-04-18T13:28:46.063Z</time></trkpt><trkpt lat="44.214255" lon="11.5394467"><ele>530.8000000000001</ele><time>2026-04-18T13:28:47.063Z</time></trkpt><trkpt lat="44.2142567" lon="11.5393217"><ele>530.2</ele><time>2026-04-18T13:28:48.063Z</time></trkpt><trkpt lat="44.2142633" lon="11.5391983"><ele>529.6</ele><time>2026-04-18T13:28:49.063Z</time></trkpt><trkpt lat="44.21426" lon="11.539065"><ele>529.0</ele><time>2026-04-18T13:28:50.063Z</time></trkpt><trkpt lat="44.2142433" lon="11.538925"><ele>529.0</ele><time>2026-04-18T13:28:51.063Z</time></trkpt><trkpt lat="44.21424" lon="11.5387933"><ele>529.0</ele><time>2026-04-18T13:28:52.063Z</time></trkpt><trkpt lat="44.2142383" lon="11.5386583"><ele>529.0</ele><time>2026-04-18T13:28:53.063Z</time></trkpt><trkpt lat="44.2142267" lon="11.53852"><ele>529.0</ele><time>2026-04-18T13:28:54.063Z</time></trkpt><trkpt lat="44.214215" lon="11.5383883"><ele>529.0</ele><time>2026-04-18T13:28:55.063Z</time></trkpt><trkpt lat="44.2141983" lon="11.5382583"><ele>528.4</ele><time>2026-04-18T13:28:56.063Z</time></trkpt><trkpt lat="44.2141783" lon="11.538125"><ele>527.8</ele><time>2026-04-18T13:28:57.063Z</time></trkpt><trkpt lat="44.2141517" lon="11.5379833"><ele>527.2</ele><time>2026-04-18T13:28:58.063Z</time></trkpt><trkpt lat="44.2141183" lon="11.537835"><ele>526.6</ele><time>2026-04-18T13:28:59.063Z</time></trkpt><trkpt lat="44.2140733" lon="11.537675"><ele>526.0</ele><time>2026-04-18T13:29:00.063Z</time></trkpt><trkpt lat="44.2140317" lon="11.5375283"><ele>523.6</ele><time>2026-04-18T13:29:01.062Z</time></trkpt><trkpt lat="44.2139783" lon="11.537395"><ele>521.2</ele><time>2026-04-18T13:29:02.063Z</time></trkpt><trkpt lat="44.2139283" lon="11.5372517"><ele>518.8</ele><time>2026-04-18T13:29:03.063Z</time></trkpt><trkpt lat="44.2138633" lon="11.5371233"><ele>516.4</ele><time>2026-04-18T13:29:04.063Z</time></trkpt><trkpt lat="44.2138083" lon="11.5370217"><ele>514.0</ele><time>2026-04-18T13:29:05.062Z</time></trkpt><trkpt lat="44.2137617" lon="11.5369233"><ele>513.4</ele><time>2026-04-18T13:29:06.063Z</time></trkpt><trkpt lat="44.2137283" lon="11.5368183"><ele>512.8</ele><time>2026-04-18T13:29:07.062Z</time></trkpt><trkpt lat="44.213735" lon="11.5367"><ele>512.2</ele><time>2026-04-18T13:29:08.062Z</time></trkpt><trkpt lat="44.2137633" lon="11.5365767"><ele>511.6</ele><time>2026-04-18T13:29:09.063Z</time></trkpt><trkpt lat="44.2138167" lon="11.5364383"><ele>511.0</ele><time>2026-04-18T13:29:10.063Z</time></trkpt><trkpt lat="44.2138683" lon="11.5363067"><ele>509.4</ele><time>2026-04-18T13:29:11.063Z</time></trkpt><trkpt lat="44.21392" lon="11.5361567"><ele>507.8</ele><time>2026-04-18T13:29:12.062Z</time></trkpt><trkpt lat="44.2139517" lon="11.5360217"><ele>506.19999999999993</ele><time>2026-04-18T13:29:13.063Z</time></trkpt><trkpt lat="44.2139767" lon="11.535895"><ele>504.59999999999997</ele><time>2026-04-18T13:29:14.063Z</time></trkpt><trkpt lat="44.2139883" lon="11.5357583"><ele>503.0</ele><time>2026-04-18T13:29:15.063Z</time></trkpt><trkpt lat="44.214005" lon="11.5356383"><ele>501.79999999999995</ele><time>2026-04-18T13:29:16.063Z</time></trkpt><trkpt lat="44.2140083" lon="11.535495"><ele>500.59999999999997</ele><time>2026-04-18T13:29:17.062Z</time></trkpt><trkpt lat="44.2139917" lon="11.5353317"><ele>499.40000000000003</ele><time>2026-04-18T13:29:18.063Z</time></trkpt><trkpt lat="44.2139667" lon="11.535185"><ele>498.20000000000005</ele><time>2026-04-18T13:29:19.063Z</time></trkpt><trkpt lat="44.2139283" lon="11.53505"><ele>497.0</ele><time>2026-04-18T13:29:20.063Z</time></trkpt><trkpt lat="44.21389" lon="11.5349217"><ele>497.0</ele><time>2026-04-18T13:29:21.063Z</time></trkpt><trkpt lat="44.2138517" lon="11.5348083"><ele>497.00000000000006</ele><time>2026-04-18T13:29:22.063Z</time></trkpt><trkpt lat="44.2138283" lon="11.5346867"><ele>497.00000000000006</ele><time>2026-04-18T13:29:23.062Z</time></trkpt><trkpt lat="44.2138133" lon="11.5345633"><ele>497.0</ele><time>2026-04-18T13:29:24.063Z</time></trkpt><trkpt lat="44.2138167" lon="11.5344417"><ele>497.0</ele><time>2026-04-18T13:29:25.063Z</time></trkpt><trkpt lat="44.2138433" lon="11.5343167"><ele>493.5</ele><time>2026-04-18T13:29:26.062Z</time></trkpt><trkpt lat="44.21391" lon="11.5341867"><ele>490.0</ele><time>2026-04-18T13:29:27.063Z</time></trkpt><trkpt lat="44.2139933" lon="11.5340267"><ele>486.5</ele><time>2026-04-18T13:29:28.063Z</time></trkpt><trkpt lat="44.21409" lon="11.533865"><ele>483.0</ele><time>2026-04-18T13:29:29.062Z</time></trkpt><trkpt lat="44.21418" lon="11.5337217"><ele>481.4</ele><time>2026-04-18T13:29:30.063Z</time></trkpt><trkpt lat="44.2142533" lon="11.5335767"><ele>479.79999999999995</ele><time>2026-04-18T13:29:31.063Z</time></trkpt><trkpt lat="44.2143083" lon="11.5334433"><ele>478.2</ele><time>2026-04-18T13:29:32.063Z</time></trkpt><trkpt lat="44.2143433" lon="11.5333333"><ele>476.6</ele><time>2026-04-18T13:29:33.063Z</time></trkpt><trkpt lat="44.2143833" lon="11.5332067"><ele>475.0</ele><time>2026-04-18T13:29:34.063Z</time></trkpt><trkpt lat="44.21441" lon="11.533075"><ele>475.00000000000006</ele><time>2026-04-18T13:29:35.062Z</time></trkpt><trkpt lat="44.2144367" lon="11.5329583"><ele>475.0</ele><time>2026-04-18T13:29:36.063Z</time></trkpt><trkpt lat="44.214475" lon="11.5328533"><ele>475.0</ele><time>2026-04-18T13:29:37.063Z</time></trkpt><trkpt lat="44.2145083" lon="11.5327667"><ele>475.0</ele><time>2026-04-18T13:29:38.063Z</time></trkpt><trkpt lat="44.214545" lon="11.5326667"><ele>475.00000000000006</ele><time>2026-04-18T13:29:40.063Z</time></trkpt><trkpt lat="44.2146133" lon="11.5327367"><ele>475.0</ele><time>2026-04-18T13:29:51.062Z</time></trkpt><trkpt lat="44.214675" lon="11.532915"><ele>475.0</ele><time>2026-04-18T13:29:53.062Z</time></trkpt><trkpt lat="44.2147367" lon="11.5330633"><ele>475.0</ele><time>2026-04-18T13:29:54.063Z</time></trkpt><trkpt lat="44.214805" lon="11.5332067"><ele>475.0</ele><time>2026-04-18T13:29:55.062Z</time></trkpt><trkpt lat="44.2148817" lon="11.53335"><ele>475.0</ele><time>2026-04-18T13:29:56.062Z</time></trkpt><trkpt lat="44.21493" lon="11.5334467"><ele>474.50000000000006</ele><time>2026-04-18T13:29:57.063Z</time></trkpt><trkpt lat="44.2149667" lon="11.5335267"><ele>474.0</ele><time>2026-04-18T13:29:58.063Z</time></trkpt><trkpt lat="44.2149817" lon="11.5336767"><ele>473.5</ele><time>2026-04-18T13:30:00.063Z</time></trkpt><trkpt lat="44.2149467" lon="11.53375"><ele>473.0</ele><time>2026-04-18T13:30:01.063Z</time></trkpt><trkpt lat="44.2149067" lon="11.5338183"><ele>472.50000000000006</ele><time>2026-04-18T13:30:02.063Z</time></trkpt><trkpt lat="44.2148317" lon="11.5339667"><ele>472.0</ele><time>2026-04-18T13:30:04.062Z</time></trkpt><trkpt lat="44.21479" lon="11.5341517"><ele>474.20000000000005</ele><time>2026-04-18T13:30:06.063Z</time></trkpt><trkpt lat="44.214775" lon="11.5342667"><ele>476.40000000000003</ele><time>2026-04-18T13:30:07.062Z</time></trkpt><trkpt lat="44.2147533" lon="11.53441"><ele>478.59999999999997</ele><time>2026-04-18T13:30:08.063Z</time></trkpt><trkpt lat="44.214735" lon="11.5345433"><ele>480.79999999999995</ele><time>2026-04-18T13:30:09.062Z</time></trkpt><trkpt lat="44.2147483" lon="11.534685"><ele>483.0</ele><time>2026-04-18T13:30:10.063Z</time></trkpt><trkpt lat="44.21479" lon="11.5348633"><ele>482.25</ele><time>2026-04-18T13:30:11.063Z</time></trkpt><trkpt lat="44.2148683" lon="11.53505"><ele>481.5</ele><time>2026-04-18T13:30:12.063Z</time></trkpt><trkpt lat="44.214925" lon="11.5352067"><ele>480.75</ele><time>2026-04-18T13:30:13.063Z</time></trkpt><trkpt lat="44.2149867" lon="11.5353583"><ele>480.0</ele><time>2026-04-18T13:30:14.063Z</time></trkpt><trkpt lat="44.215045" lon="11.5354933"><ele>480.0</ele><time>2026-04-18T13:30:15.063Z</time></trkpt><trkpt lat="44.2150933" lon="11.5356133"><ele>480.0</ele><time>2026-04-18T13:30:16.063Z</time></trkpt><trkpt lat="44.21514" lon="11.53571"><ele>480.0</ele><time>2026-04-18T13:30:17.063Z</time></trkpt><trkpt lat="44.2151967" lon="11.53579"><ele>480.0</ele><time>2026-04-18T13:30:18.063Z</time></trkpt><trkpt lat="44.21526" lon="11.5358617"><ele>480.0</ele><time>2026-04-18T13:30:19.063Z</time></trkpt><trkpt lat="44.2153433" lon="11.535915"><ele>480.0</ele><time>2026-04-18T13:30:20.063Z</time></trkpt><trkpt lat="44.21544" lon="11.5359517"><ele>480.0</ele><time>2026-04-18T13:30:21.063Z</time></trkpt><trkpt lat="44.2155283" lon="11.5359817"><ele>480.0</ele><time>2026-04-18T13:30:22.062Z</time></trkpt><trkpt lat="44.2156" lon="11.5360317"><ele>480.0</ele><time>2026-04-18T13:30:23.063Z</time></trkpt><trkpt lat="44.2156683" lon="11.5361067"><ele>480.0</ele><time>2026-04-18T13:30:24.063Z</time></trkpt><trkpt lat="44.2157033" lon="11.5361983"><ele>480.0</ele><time>2026-04-18T13:30:25.063Z</time></trkpt><trkpt lat="44.215765" lon="11.53628"><ele>480.0</ele><time>2026-04-18T13:30:26.063Z</time></trkpt><trkpt lat="44.2158083" lon="11.5363667"><ele>477.6666666666667</ele><time>2026-04-18T13:30:27.063Z</time></trkpt><trkpt lat="44.2158633" lon="11.53644"><ele>475.33333333333337</ele><time>2026-04-18T13:30:28.063Z</time></trkpt><trkpt lat="44.215945" lon="11.5365167"><ele>473.0</ele><time>2026-04-18T13:30:29.063Z</time></trkpt><trkpt lat="44.21602" lon="11.5365917"><ele>470.6666666666667</ele><time>2026-04-18T13:30:30.063Z</time></trkpt><trkpt lat="44.2160833" lon="11.5366633"><ele>468.33333333333337</ele><time>2026-04-18T13:30:31.063Z</time></trkpt><trkpt lat="44.2161517" lon="11.53675"><ele>466.0</ele><time>2026-04-18T13:30:32.062Z</time></trkpt><trkpt lat="44.2162133" lon="11.53684"><ele>466.00000000000006</ele><time>2026-04-18T13:30:33.063Z</time></trkpt><trkpt lat="44.216275" lon="11.5369283"><ele>466.0</ele><time>2026-04-18T13:30:34.063Z</time></trkpt><trkpt lat="44.2163333" lon="11.537015"><ele>466.0</ele><time>2026-04-18T13:30:35.063Z</time></trkpt><trkpt lat="44.216395" lon="11.5371183"><ele>466.0</ele><time>2026-04-18T13:30:36.063Z</time></trkpt><trkpt lat="44.2164417" lon="11.5372217"><ele>466.00000000000006</ele><time>2026-04-18T13:30:37.063Z</time></trkpt><trkpt lat="44.2164917" lon="11.5373117"><ele>466.0</ele><time>2026-04-18T13:30:38.062Z</time></trkpt><trkpt lat="44.2165467" lon="11.537395"><ele>465.20000000000005</ele><time>2026-04-18T13:30:39.062Z</time></trkpt><trkpt lat="44.2166033" lon="11.537465"><ele>464.40000000000003</ele><time>2026-04-18T13:30:40.063Z</time></trkpt><trkpt lat="44.2166967" lon="11.5375383"><ele>463.6</ele><time>2026-04-18T13:30:41.063Z</time></trkpt><trkpt lat="44.21679" lon="11.5376017"><ele>462.8</ele><time>2026-04-18T13:30:42.063Z</time></trkpt><trkpt lat="44.2168833" lon="11.53766"><ele>462.0</ele><time>2026-04-18T13:30:43.063Z</time></trkpt><trkpt lat="44.2169717" lon="11.5377233"><ele>462.0</ele><time>2026-04-18T13:30:44.063Z</time></trkpt><trkpt lat="44.217045" lon="11.5377967"><ele>462.0</ele><time>2026-04-18T13:30:45.063Z</time></trkpt><trkpt lat="44.217105" lon="11.5378783"><ele>462.0</ele><time>2026-04-18T13:30:46.063Z</time></trkpt><trkpt lat="44.2171583" lon="11.5379583"><ele>462.0</ele><time>2026-04-18T13:30:47.063Z</time></trkpt><trkpt lat="44.2172083" lon="11.5380317"><ele>462.0</ele><time>2026-04-18T13:30:48.063Z</time></trkpt><trkpt lat="44.2172633" lon="11.5380933"><ele>462.0</ele><time>2026-04-18T13:30:49.063Z</time></trkpt><trkpt lat="44.2173183" lon="11.5381367"><ele>466.0</ele><time>2026-04-18T13:30:50.063Z</time></trkpt><trkpt lat="44.2174317" lon="11.5381533"><ele>470.00000000000006</ele><time>2026-04-18T13:30:52.062Z</time></trkpt><trkpt lat="44.2175033" lon="11.538125"><ele>474.00000000000006</ele><time>2026-04-18T13:30:53.062Z</time></trkpt><trkpt lat="44.2175683" lon="11.5380633"><ele>478.0</ele><time>2026-04-18T13:30:54.062Z</time></trkpt><trkpt lat="44.2176433" lon="11.53799"><ele>482.0</ele><time>2026-04-18T13:30:55.062Z</time></trkpt><trkpt lat="44.217715" lon="11.537895"><ele>476.5</ele><time>2026-04-18T13:30:56.061Z</time></trkpt><trkpt lat="44.2177967" lon="11.5377683"><ele>471.0</ele><time>2026-04-18T13:30:57.062Z</time></trkpt><trkpt lat="44.2178817" lon="11.5375883"><ele>465.5</ele><time>2026-04-18T13:30:58.062Z</time></trkpt><trkpt lat="44.2179733" lon="11.53739"><ele>460.0</ele><time>2026-04-18T13:30:59.062Z</time></trkpt><trkpt lat="44.21805" lon="11.5372183"><ele>460.0</ele><time>2026-04-18T13:31:00.062Z</time></trkpt><trkpt lat="44.218105" lon="11.537055"><ele>460.0</ele><time>2026-04-18T13:31:01.061Z</time></trkpt><trkpt lat="44.2181567" lon="11.5368733"><ele>460.0</ele><time>2026-04-18T13:31:02.062Z</time></trkpt><trkpt lat="44.21821" lon="11.53672"><ele>460.0</ele><time>2026-04-18T13:31:03.062Z</time></trkpt><trkpt lat="44.2182417" lon="11.536595"><ele>461.4</ele><time>2026-04-18T13:31:04.062Z</time></trkpt><trkpt lat="44.2182983" lon="11.53648"><ele>462.8</ele><time>2026-04-18T13:31:05.062Z</time></trkpt><trkpt lat="44.2183417" lon="11.5363683"><ele>464.20000000000005</ele><time>2026-04-18T13:31:06.062Z</time></trkpt><trkpt lat="44.2183917" lon="11.5362817"><ele>465.6</ele><time>2026-04-18T13:31:07.062Z</time></trkpt><trkpt lat="44.218445" lon="11.53621"><ele>467.0</ele><time>2026-04-18T13:31:08.062Z</time></trkpt><trkpt lat="44.2185633" lon="11.536155"><ele>466.99999999999994</ele><time>2026-04-18T13:31:10.062Z</time></trkpt><trkpt lat="44.2186267" lon="11.5361633"><ele>467.0</ele><time>2026-04-18T13:31:11.062Z</time></trkpt><trkpt lat="44.218705" lon="11.53618"><ele>467.0</ele><time>2026-04-18T13:31:12.062Z</time></trkpt><trkpt lat="44.2187733" lon="11.5362083"><ele>467.0</ele><time>2026-04-18T13:31:13.062Z</time></trkpt><trkpt lat="44.2188583" lon="11.536235"><ele>466.99999999999994</ele><time>2026-04-18T13:31:14.062Z</time></trkpt><trkpt lat="44.218935" lon="11.5362417"><ele>467.0</ele><time>2026-04-18T13:31:15.062Z</time></trkpt><trkpt lat="44.21901" lon="11.5362367"><ele>464.8</ele><time>2026-04-18T13:31:16.062Z</time></trkpt><trkpt lat="44.219075" lon="11.5361367"><ele>462.6</ele><time>2026-04-18T13:31:17.062Z</time></trkpt><trkpt lat="44.219145" lon="11.5360717"><ele>460.40000000000003</ele><time>2026-04-18T13:31:18.062Z</time></trkpt><trkpt lat="44.21921" lon="11.5360083"><ele>458.20000000000005</ele><time>2026-04-18T13:31:19.061Z</time></trkpt><trkpt lat="44.2193133" lon="11.53597"><ele>456.0</ele><time>2026-04-18T13:31:20.062Z</time></trkpt><trkpt lat="44.2194067" lon="11.535965"><ele>456.0</ele><time>2026-04-18T13:31:21.062Z</time></trkpt><trkpt lat="44.2194933" lon="11.5359833"><ele>456.0</ele><time>2026-04-18T13:31:22.061Z</time></trkpt><trkpt lat="44.2196117" lon="11.5360033"><ele>456.0</ele><time>2026-04-18T13:31:23.062Z</time></trkpt><trkpt lat="44.2197117" lon="11.536015"><ele>456.0</ele><time>2026-04-18T13:31:24.062Z</time></trkpt><trkpt lat="44.2197867" lon="11.5360217"><ele>456.0</ele><time>2026-04-18T13:31:25.062Z</time></trkpt><trkpt lat="44.2198683" lon="11.53603"><ele>456.4</ele><time>2026-04-18T13:31:26.062Z</time></trkpt><trkpt lat="44.2199483" lon="11.5360467"><ele>456.8</ele><time>2026-04-18T13:31:27.062Z</time></trkpt><trkpt lat="44.2200267" lon="11.5360767"><ele>457.19999999999993</ele><time>2026-04-18T13:31:28.062Z</time></trkpt><trkpt lat="44.2201" lon="11.5361433"><ele>457.59999999999997</ele><time>2026-04-18T13:31:29.062Z</time></trkpt><trkpt lat="44.2201933" lon="11.5362233"><ele>458.0</ele><time>2026-04-18T13:31:30.062Z</time></trkpt><trkpt lat="44.2203" lon="11.5363067"><ele>458.0</ele><time>2026-04-18T13:31:31.062Z</time></trkpt><trkpt lat="44.2204117" lon="11.53637"><ele>457.99999999999994</ele><time>2026-04-18T13:31:32.062Z</time></trkpt><trkpt lat="44.220515" lon="11.536415"><ele>457.99999999999994</ele><time>2026-04-18T13:31:33.062Z</time></trkpt><trkpt lat="44.220615" lon="11.536445"><ele>458.0</ele><time>2026-04-18T13:31:34.062Z</time></trkpt><trkpt lat="44.2207117" lon="11.5364717"><ele>458.0</ele><time>2026-04-18T13:31:35.062Z</time></trkpt><trkpt lat="44.2208183" lon="11.5364983"><ele>458.0</ele><time>2026-04-18T13:31:36.062Z</time></trkpt><trkpt lat="44.2209233" lon="11.5365217"><ele>457.99999999999994</ele><time>2026-04-18T13:31:37.062Z</time></trkpt><trkpt lat="44.2210267" lon="11.5365483"><ele>457.99999999999994</ele><time>2026-04-18T13:31:38.062Z</time></trkpt><trkpt lat="44.2211233" lon="11.536575"><ele>458.0</ele><time>2026-04-18T13:31:39.062Z</time></trkpt><trkpt lat="44.2212067" lon="11.53658"><ele>458.0</ele><time>2026-04-18T13:31:40.062Z</time></trkpt><trkpt lat="44.2213083" lon="11.5365867"><ele>457.99999999999994</ele><time>2026-04-18T13:31:41.062Z</time></trkpt><trkpt lat="44.221395" lon="11.536565"><ele>458.0</ele><time>2026-04-18T13:31:42.062Z</time></trkpt><trkpt lat="44.221475" lon="11.53654"><ele>458.0</ele><time>2026-04-18T13:31:43.062Z</time></trkpt><trkpt lat="44.221555" lon="11.5365233"><ele>458.0</ele><time>2026-04-18T13:31:44.062Z</time></trkpt><trkpt lat="44.2216383" lon="11.53652"><ele>457.99999999999994</ele><time>2026-04-18T13:31:45.062Z</time></trkpt><trkpt lat="44.2217033" lon="11.5365317"><ele>458.0</ele><time>2026-04-18T13:31:46.062Z</time></trkpt><trkpt lat="44.221815" lon="11.536585"><ele>457.4</ele><time>2026-04-18T13:31:48.062Z</time></trkpt><trkpt lat="44.2219267" lon="11.53659"><ele>456.79999999999995</ele><time>2026-04-18T13:31:50.062Z</time></trkpt><trkpt lat="44.2220467" lon="11.5365283"><ele>456.2</ele><time>2026-04-18T13:31:52.062Z</time></trkpt><trkpt lat="44.2221117" lon="11.536485"><ele>455.6</ele><time>2026-04-18T13:31:53.062Z</time></trkpt><trkpt lat="44.2222" lon="11.5364583"><ele>455.0</ele><time>2026-04-18T13:31:54.062Z</time></trkpt><trkpt lat="44.2222817" lon="11.5364383"><ele>455.8</ele><time>2026-04-18T13:31:55.062Z</time></trkpt><trkpt lat="44.22235" lon="11.5364483"><ele>456.6</ele><time>2026-04-18T13:31:56.062Z</time></trkpt><trkpt lat="44.2224117" lon="11.5364667"><ele>457.4</ele><time>2026-04-18T13:31:57.062Z</time></trkpt><trkpt lat="44.2225" lon="11.5365083"><ele>458.2</ele><time>2026-04-18T13:31:58.062Z</time></trkpt><trkpt lat="44.22261" lon="11.53657"><ele>459.0</ele><time>2026-04-18T13:31:59.062Z</time></trkpt><trkpt lat="44.2227283" lon="11.5366333"><ele>459.0</ele><time>2026-04-18T13:32:00.062Z</time></trkpt><trkpt lat="44.222835" lon="11.5366667"><ele>459.0</ele><time>2026-04-18T13:32:01.062Z</time></trkpt><trkpt lat="44.2229217" lon="11.5367017"><ele>459.0</ele><time>2026-04-18T13:32:02.062Z</time></trkpt><trkpt lat="44.2230083" lon="11.5367333"><ele>459.0</ele><time>2026-04-18T13:32:03.061Z</time></trkpt><trkpt lat="44.2230967" lon="11.536815"><ele>459.0</ele><time>2026-04-18T13:32:05.062Z</time></trkpt><trkpt lat="44.2231583" lon="11.5368767"><ele>460.0</ele><time>2026-04-18T13:32:07.062Z</time></trkpt><trkpt lat="44.2232633" lon="11.5368483"><ele>461.0</ele><time>2026-04-18T13:32:09.062Z</time></trkpt><trkpt lat="44.223305" lon="11.536775"><ele>462.0</ele><time>2026-04-18T13:32:10.061Z</time></trkpt><trkpt lat="44.2233517" lon="11.5366333"><ele>463.0</ele><time>2026-04-18T13:32:11.062Z</time></trkpt><trkpt lat="44.2233917" lon="11.5365167"><ele>464.0</ele><time>2026-04-18T13:32:12.061Z</time></trkpt><trkpt lat="44.223435" lon="11.53643"><ele>463.99999999999994</ele><time>2026-04-18T13:32:13.062Z</time></trkpt><trkpt lat="44.22353" lon="11.5363183"><ele>464.0</ele><time>2026-04-18T13:32:15.062Z</time></trkpt><trkpt lat="44.2235667" lon="11.53624"><ele>464.0</ele><time>2026-04-18T13:32:16.062Z</time></trkpt><trkpt lat="44.22362" lon="11.5361833"><ele>464.0</ele><time>2026-04-18T13:32:17.062Z</time></trkpt><trkpt lat="44.2236617" lon="11.536105"><ele>463.99999999999994</ele><time>2026-04-18T13:32:18.061Z</time></trkpt><trkpt lat="44.22371" lon="11.53595"><ele>464.0</ele><time>2026-04-18T13:32:20.062Z</time></trkpt><trkpt lat="44.2237267" lon="11.535765"><ele>461.3333333333333</ele><time>2026-04-18T13:32:22.061Z</time></trkpt><trkpt lat="44.2237167" lon="11.5356333"><ele>458.66666666666663</ele><time>2026-04-18T13:32:23.062Z</time></trkpt><trkpt lat="44.2237067" lon="11.5355083"><ele>456.0</ele><time>2026-04-18T13:32:24.062Z</time></trkpt><trkpt lat="44.2237067" lon="11.53538"><ele>453.33333333333337</ele><time>2026-04-18T13:32:25.062Z</time></trkpt><trkpt lat="44.2237067" lon="11.53527"><ele>450.6666666666667</ele><time>2026-04-18T13:32:26.061Z</time></trkpt><trkpt lat="44.2237183" lon="11.5351817"><ele>448.0</ele><time>2026-04-18T13:32:27.061Z</time></trkpt><trkpt lat="44.2237633" lon="11.5350383"><ele>446.50000000000006</ele><time>2026-04-18T13:32:29.062Z</time></trkpt><trkpt lat="44.2238167" lon="11.5349817"><ele>445.0</ele><time>2026-04-18T13:32:30.061Z</time></trkpt><trkpt lat="44.2238917" lon="11.5349417"><ele>443.5</ele><time>2026-04-18T13:32:31.062Z</time></trkpt><trkpt lat="44.2239533" lon="11.5348867"><ele>442.0</ele><time>2026-04-18T13:32:32.061Z</time></trkpt><trkpt lat="44.2240233" lon="11.53482"><ele>440.50000000000006</ele><time>2026-04-18T13:32:33.062Z</time></trkpt><trkpt lat="44.2240967" lon="11.53475"><ele>439.0</ele><time>2026-04-18T13:32:34.061Z</time></trkpt><trkpt lat="44.2241967" lon="11.5346733"><ele>442.0</ele><time>2026-04-18T13:32:35.062Z</time></trkpt><trkpt lat="44.2242483" lon="11.53462"><ele>445.0</ele><time>2026-04-18T13:32:36.061Z</time></trkpt><trkpt lat="44.2242933" lon="11.5345433"><ele>448.0</ele><time>2026-04-18T13:32:37.062Z</time></trkpt><trkpt lat="44.2243417" lon="11.534465"><ele>451.0</ele><time>2026-04-18T13:32:38.062Z</time></trkpt><trkpt lat="44.224325" lon="11.53437"><ele>454.0</ele><time>2026-04-18T13:32:40.062Z</time></trkpt><trkpt lat="44.2243067" lon="11.5342733"><ele>456.99999999999994</ele><time>2026-04-18T13:32:42.062Z</time></trkpt><trkpt lat="44.224305" lon="11.5341433"><ele>459.99999999999994</ele><time>2026-04-18T13:32:44.062Z</time></trkpt><trkpt lat="44.224265" lon="11.53399"><ele>460.00000000000006</ele><time>2026-04-18T13:32:46.062Z</time></trkpt><trkpt lat="44.2242167" lon="11.5338967"><ele>460.0</ele><time>2026-04-18T13:32:47.062Z</time></trkpt><trkpt lat="44.2241517" lon="11.533795"><ele>460.0</ele><time>2026-04-18T13:32:48.062Z</time></trkpt><trkpt lat="44.2240883" lon="11.53371"><ele>460.0</ele><time>2026-04-18T13:32:49.062Z</time></trkpt><trkpt lat="44.22405" lon="11.5336317"><ele>460.00000000000006</ele><time>2026-04-18T13:32:50.062Z</time></trkpt><trkpt lat="44.224035" lon="11.533545"><ele>460.0</ele><time>2026-04-18T13:32:51.062Z</time></trkpt><trkpt lat="44.2240283" lon="11.533445"><ele>460.6666666666667</ele><time>2026-04-18T13:32:52.062Z</time></trkpt><trkpt lat="44.2240433" lon="11.53334"><ele>461.33333333333337</ele><time>2026-04-18T13:32:53.062Z</time></trkpt><trkpt lat="44.2240983" lon="11.533215"><ele>462.0</ele><time>2026-04-18T13:32:54.062Z</time></trkpt><trkpt lat="44.224165" lon="11.533115"><ele>462.66666666666663</ele><time>2026-04-18T13:32:55.062Z</time></trkpt><trkpt lat="44.2242333" lon="11.5330367"><ele>463.3333333333333</ele><time>2026-04-18T13:32:56.062Z</time></trkpt><trkpt lat="44.2242867" lon="11.5329717"><ele>464.0</ele><time>2026-04-18T13:32:57.062Z</time></trkpt><trkpt lat="44.2243517" lon="11.5329083"><ele>463.49999999999994</ele><time>2026-04-18T13:32:58.062Z</time></trkpt><trkpt lat="44.224455" lon="11.5328183"><ele>463.0</ele><time>2026-04-18T13:33:00.062Z</time></trkpt><trkpt lat="44.2245383" lon="11.5327833"><ele>462.5</ele><time>2026-04-18T13:33:02.062Z</time></trkpt><trkpt lat="44.2246033" lon="11.5327683"><ele>462.0</ele><time>2026-04-18T13:33:05.061Z</time></trkpt><trkpt lat="44.2247033" lon="11.5327883"><ele>461.49999999999994</ele><time>2026-04-18T13:33:25.062Z</time></trkpt><trkpt lat="44.2247717" lon="11.5327917"><ele>461.0</ele><time>2026-04-18T13:33:26.062Z</time></trkpt><trkpt lat="44.224895" lon="11.5328333"><ele>460.49999999999994</ele><time>2026-04-18T13:33:28.062Z</time></trkpt><trkpt lat="44.22496" lon="11.5328567"><ele>460.0</ele><time>2026-04-18T13:33:29.062Z</time></trkpt><trkpt lat="44.225035" lon="11.5328867"><ele>459.5</ele><time>2026-04-18T13:33:30.062Z</time></trkpt><trkpt lat="44.2251183" lon="11.53292"><ele>459.0</ele><time>2026-04-18T13:33:31.061Z</time></trkpt><trkpt lat="44.2252" lon="11.532955"><ele>458.49999999999994</ele><time>2026-04-18T13:33:32.062Z</time></trkpt><trkpt lat="44.225275" lon="11.5329917"><ele>458.0</ele><time>2026-04-18T13:33:33.062Z</time></trkpt><trkpt lat="44.225345" lon="11.5330317"><ele>456.79999999999995</ele><time>2026-04-18T13:33:34.061Z</time></trkpt><trkpt lat="44.2254683" lon="11.5330883"><ele>455.59999999999997</ele><time>2026-04-18T13:33:36.062Z</time></trkpt><trkpt lat="44.2255367" lon="11.5330983"><ele>454.40000000000003</ele><time>2026-04-18T13:33:37.062Z</time></trkpt><trkpt lat="44.2256183" lon="11.533105"><ele>453.20000000000005</ele><time>2026-04-18T13:33:38.061Z</time></trkpt><trkpt lat="44.2256817" lon="11.53309"><ele>452.0</ele><time>2026-04-18T13:33:39.062Z</time></trkpt><trkpt lat="44.2257717" lon="11.5329883"><ele>451.99999999999994</ele><time>2026-04-18T13:33:41.062Z</time></trkpt><trkpt lat="44.2257933" lon="11.5329033"><ele>452.0</ele><time>2026-04-18T13:33:42.062Z</time></trkpt><trkpt lat="44.2257833" lon="11.532795"><ele>452.0</ele><time>2026-04-18T13:33:43.062Z</time></trkpt><trkpt lat="44.2257667" lon="11.532695"><ele>452.0</ele><time>2026-04-18T13:33:44.062Z</time></trkpt><trkpt lat="44.2257667" lon="11.53259"><ele>451.99999999999994</ele><time>2026-04-18T13:33:45.062Z</time></trkpt><trkpt lat="44.2257833" lon="11.5324833"><ele>452.0</ele><time>2026-04-18T13:33:46.062Z</time></trkpt><trkpt lat="44.225865" lon="11.5323533"><ele>450.8</ele><time>2026-04-18T13:33:48.062Z</time></trkpt><trkpt lat="44.2259317" lon="11.5322933"><ele>449.6</ele><time>2026-04-18T13:33:49.062Z</time></trkpt><trkpt lat="44.226005" lon="11.53227"><ele>448.40000000000003</ele><time>2026-04-18T13:33:50.062Z</time></trkpt><trkpt lat="44.2260983" lon="11.5322667"><ele>447.20000000000005</ele><time>2026-04-18T13:33:51.062Z</time></trkpt><trkpt lat="44.2262033" lon="11.5322667"><ele>446.0</ele><time>2026-04-18T13:33:52.062Z</time></trkpt><trkpt lat="44.2263017" lon="11.5322517"><ele>446.0</ele><time>2026-04-18T13:33:53.062Z</time></trkpt><trkpt lat="44.2263933" lon="11.532225"><ele>446.0</ele><time>2026-04-18T13:33:54.062Z</time></trkpt><trkpt lat="44.2264933" lon="11.5322117"><ele>446.0</ele><time>2026-04-18T13:33:55.061Z</time></trkpt><trkpt lat="44.2266283" lon="11.5322183"><ele>446.0</ele><time>2026-04-18T13:33:56.061Z</time></trkpt><trkpt lat="44.2267533" lon="11.5322333"><ele>442.25</ele><time>2026-04-18T13:33:57.061Z</time></trkpt><trkpt lat="44.2268817" lon="11.5322483"><ele>438.5</ele><time>2026-04-18T13:33:58.06Z</time></trkpt><trkpt lat="44.227015" lon="11.5322683"><ele>434.75</ele><time>2026-04-18T13:33:59.061Z</time></trkpt><trkpt lat="44.22713" lon="11.532285"><ele>431.0</ele><time>2026-04-18T13:34:00.061Z</time></trkpt><trkpt lat="44.2272283" lon="11.5322867"><ele>426.6</ele><time>2026-04-18T13:34:01.061Z</time></trkpt><trkpt lat="44.22733" lon="11.5322817"><ele>422.20000000000005</ele><time>2026-04-18T13:34:02.061Z</time></trkpt><trkpt lat="44.2274283" lon="11.5322733"><ele>417.79999999999995</ele><time>2026-04-18T13:34:03.06Z</time></trkpt><trkpt lat="44.227515" lon="11.5322467"><ele>413.4</ele><time>2026-04-18T13:34:04.061Z</time></trkpt><trkpt lat="44.227605" lon="11.5322183"><ele>409.0</ele><time>2026-04-18T13:34:05.061Z</time></trkpt><trkpt lat="44.227695" lon="11.53217"><ele>409.00000000000006</ele><time>2026-04-18T13:34:06.061Z</time></trkpt><trkpt lat="44.2277817" lon="11.5321083"><ele>409.0</ele><time>2026-04-18T13:34:07.061Z</time></trkpt><trkpt lat="44.227865" lon="11.5320467"><ele>409.0</ele><time>2026-04-18T13:34:08.061Z</time></trkpt><trkpt lat="44.2279417" lon="11.532"><ele>409.0</ele><time>2026-04-18T13:34:09.061Z</time></trkpt><trkpt lat="44.2280117" lon="11.5319733"><ele>409.00000000000006</ele><time>2026-04-18T13:34:10.061Z</time></trkpt><trkpt lat="44.2280767" lon="11.5319683"><ele>409.0</ele><time>2026-04-18T13:34:11.061Z</time></trkpt><trkpt lat="44.2281467" lon="11.5319917"><ele>405.79999999999995</ele><time>2026-04-18T13:34:12.06Z</time></trkpt><trkpt lat="44.2282517" lon="11.53203"><ele>402.59999999999997</ele><time>2026-04-18T13:34:13.061Z</time></trkpt><trkpt lat="44.2283683" lon="11.5320767"><ele>399.4</ele><time>2026-04-18T13:34:14.061Z</time></trkpt><trkpt lat="44.228465" lon="11.5321117"><ele>396.2</ele><time>2026-04-18T13:34:15.061Z</time></trkpt><trkpt lat="44.2285533" lon="11.5321533"><ele>393.0</ele><time>2026-04-18T13:34:16.061Z</time></trkpt><trkpt lat="44.2286367" lon="11.5321983"><ele>392.8333333333333</ele><time>2026-04-18T13:34:17.061Z</time></trkpt><trkpt lat="44.2287233" lon="11.53226"><ele>392.66666666666663</ele><time>2026-04-18T13:34:18.061Z</time></trkpt><trkpt lat="44.2287917" lon="11.5323217"><ele>392.5</ele><time>2026-04-18T13:34:19.061Z</time></trkpt><trkpt lat="44.228835" lon="11.5323933"><ele>392.3333333333333</ele><time>2026-04-18T13:34:20.061Z</time></trkpt><trkpt lat="44.2288367" lon="11.53249"><ele>392.16666666666663</ele><time>2026-04-18T13:34:21.061Z</time></trkpt><trkpt lat="44.2288967" lon="11.5325933"><ele>392.0</ele><time>2026-04-18T13:34:23.061Z</time></trkpt><trkpt lat="44.2290167" lon="11.5326117"><ele>389.99999999999994</ele><time>2026-04-18T13:34:25.061Z</time></trkpt><trkpt lat="44.229105" lon="11.532635"><ele>388.0</ele><time>2026-04-18T13:34:26.06Z</time></trkpt><trkpt lat="44.2291733" lon="11.5326667"><ele>386.0</ele><time>2026-04-18T13:34:27.061Z</time></trkpt><trkpt lat="44.2292367" lon="11.5327267"><ele>384.0</ele><time>2026-04-18T13:34:28.061Z</time></trkpt><trkpt lat="44.2292917" lon="11.53284"><ele>382.0</ele><time>2026-04-18T13:34:30.061Z</time></trkpt><trkpt lat="44.2292917" lon="11.532965"><ele>380.0</ele><time>2026-04-18T13:34:32.061Z</time></trkpt><trkpt lat="44.2293317" lon="11.5331183"><ele>379.8</ele><time>2026-04-18T13:34:34.061Z</time></trkpt><trkpt lat="44.2293967" lon="11.5332933"><ele>379.6</ele><time>2026-04-18T13:34:36.061Z</time></trkpt><trkpt lat="44.2294517" lon="11.5333967"><ele>379.4</ele><time>2026-04-18T13:34:37.06Z</time></trkpt><trkpt lat="44.2295017" lon="11.5335"><ele>379.2</ele><time>2026-04-18T13:34:38.061Z</time></trkpt><trkpt lat="44.229565" lon="11.5335783"><ele>379.0</ele><time>2026-04-18T13:34:39.061Z</time></trkpt><trkpt lat="44.2296617" lon="11.5336767"><ele>379.3333333333333</ele><time>2026-04-18T13:34:40.061Z</time></trkpt><trkpt lat="44.2297233" lon="11.533745"><ele>379.66666666666663</ele><time>2026-04-18T13:34:41.061Z</time></trkpt><trkpt lat="44.2297967" lon="11.533785"><ele>380.0</ele><time>2026-04-18T13:34:42.061Z</time></trkpt><trkpt lat="44.2298717" lon="11.53377"><ele>380.3333333333333</ele><time>2026-04-18T13:34:43.061Z</time></trkpt><trkpt lat="44.2299583" lon="11.53374"><ele>380.6666666666667</ele><time>2026-04-18T13:34:44.061Z</time></trkpt><trkpt lat="44.2300367" lon="11.5336767"><ele>381.0</ele><time>2026-04-18T13:34:45.06Z</time></trkpt><trkpt lat="44.2301383" lon="11.5336183"><ele>378.20000000000005</ele><time>2026-04-18T13:34:46.06Z</time></trkpt><trkpt lat="44.2302317" lon="11.5335767"><ele>375.40000000000003</ele><time>2026-04-18T13:34:47.061Z</time></trkpt><trkpt lat="44.2303333" lon="11.5335383"><ele>372.6</ele><time>2026-04-18T13:34:48.061Z</time></trkpt><trkpt lat="44.23044" lon="11.5334967"><ele>369.8</ele><time>2026-04-18T13:34:49.061Z</time></trkpt><trkpt lat="44.2305483" lon="11.5334417"><ele>367.0</ele><time>2026-04-18T13:34:50.061Z</time></trkpt><trkpt lat="44.2306467" lon="11.53338"><ele>365.0</ele><time>2026-04-18T13:34:51.061Z</time></trkpt><trkpt lat="44.2307433" lon="11.533325"><ele>363.0</ele><time>2026-04-18T13:34:52.061Z</time></trkpt><trkpt lat="44.230825" lon="11.5332833"><ele>361.0</ele><time>2026-04-18T13:34:53.061Z</time></trkpt><trkpt lat="44.2308983" lon="11.5332233"><ele>359.0</ele><time>2026-04-18T13:34:54.061Z</time></trkpt><trkpt lat="44.231015" lon="11.5331933"><ele>357.0</ele><time>2026-04-18T13:34:55.061Z</time></trkpt><trkpt lat="44.231125" lon="11.5331617"><ele>357.0</ele><time>2026-04-18T13:34:56.06Z</time></trkpt><trkpt lat="44.231235" lon="11.5331217"><ele>357.0</ele><time>2026-04-18T13:34:57.06Z</time></trkpt><trkpt lat="44.2313517" lon="11.533065"><ele>357.0</ele><time>2026-04-18T13:34:58.061Z</time></trkpt><trkpt lat="44.231475" lon="11.5330167"><ele>357.0</ele><time>2026-04-18T13:34:59.06Z</time></trkpt><trkpt lat="44.2315967" lon="11.532975"><ele>356.6</ele><time>2026-04-18T13:35:00.061Z</time></trkpt><trkpt lat="44.2316967" lon="11.5329483"><ele>356.20000000000005</ele><time>2026-04-18T13:35:01.061Z</time></trkpt><trkpt lat="44.231785" lon="11.5329083"><ele>355.8</ele><time>2026-04-18T13:35:02.061Z</time></trkpt><trkpt lat="44.2318733" lon="11.5328933"><ele>355.4</ele><time>2026-04-18T13:35:03.061Z</time></trkpt><trkpt lat="44.2319867" lon="11.5329217"><ele>355.0</ele><time>2026-04-18T13:35:04.061Z</time></trkpt><trkpt lat="44.232095" lon="11.53297"><ele>355.0</ele><time>2026-04-18T13:35:05.061Z</time></trkpt><trkpt lat="44.232195" lon="11.5330283"><ele>355.0</ele><time>2026-04-18T13:35:06.061Z</time></trkpt><trkpt lat="44.2322933" lon="11.5331"><ele>355.0</ele><time>2026-04-18T13:35:07.061Z</time></trkpt><trkpt lat="44.2323867" lon="11.5331683"><ele>355.0</ele><time>2026-04-18T13:35:08.061Z</time></trkpt><trkpt lat="44.23247" lon="11.533245"><ele>355.0</ele><time>2026-04-18T13:35:09.06Z</time></trkpt><trkpt lat="44.23254" lon="11.5333183"><ele>354.4</ele><time>2026-04-18T13:35:10.061Z</time></trkpt><trkpt lat="44.232605" lon="11.53341"><ele>353.8</ele><time>2026-04-18T13:35:11.061Z</time></trkpt><trkpt lat="44.232625" lon="11.5335683"><ele>353.20000000000005</ele><time>2026-04-18T13:35:12.06Z</time></trkpt><trkpt lat="44.2326633" lon="11.533715"><ele>352.6</ele><time>2026-04-18T13:35:13.061Z</time></trkpt><trkpt lat="44.2326933" lon="11.5338867"><ele>352.0</ele><time>2026-04-18T13:35:14.061Z</time></trkpt><trkpt lat="44.2327183" lon="11.5340117"><ele>353.8</ele><time>2026-04-18T13:35:15.061Z</time></trkpt><trkpt lat="44.2327367" lon="11.53416"><ele>355.6</ele><time>2026-04-18T13:35:16.061Z</time></trkpt><trkpt lat="44.232745" lon="11.53431"><ele>357.40000000000003</ele><time>2026-04-18T13:35:17.061Z</time></trkpt><trkpt lat="44.2327533" lon="11.534465"><ele>359.20000000000005</ele><time>2026-04-18T13:35:18.06Z</time></trkpt><trkpt lat="44.2327683" lon="11.5346017"><ele>361.0</ele><time>2026-04-18T13:35:19.061Z</time></trkpt><trkpt lat="44.2328033" lon="11.5347167"><ele>361.25</ele><time>2026-04-18T13:35:20.061Z</time></trkpt><trkpt lat="44.2329" lon="11.53478"><ele>361.5</ele><time>2026-04-18T13:35:22.061Z</time></trkpt><trkpt lat="44.2330483" lon="11.5347133"><ele>361.75</ele><time>2026-04-18T13:35:24.061Z</time></trkpt><trkpt lat="44.2331417" lon="11.5346417"><ele>362.0</ele><time>2026-04-18T13:35:25.061Z</time></trkpt><trkpt lat="44.2332433" lon="11.5345883"><ele>362.0</ele><time>2026-04-18T13:35:26.061Z</time></trkpt><trkpt lat="44.2333483" lon="11.5345517"><ele>362.0</ele><time>2026-04-18T13:35:27.061Z</time></trkpt><trkpt lat="44.2334617" lon="11.53454"><ele>362.0</ele><time>2026-04-18T13:35:28.061Z</time></trkpt><trkpt lat="44.23356" lon="11.53455"><ele>362.0</ele><time>2026-04-18T13:35:29.061Z</time></trkpt><trkpt lat="44.2336483" lon="11.5345617"><ele>362.0</ele><time>2026-04-18T13:35:30.06Z</time></trkpt><trkpt lat="44.2337383" lon="11.5345567"><ele>359.33333333333337</ele><time>2026-04-18T13:35:31.061Z</time></trkpt><trkpt lat="44.2338283" lon="11.5345383"><ele>356.6666666666667</ele><time>2026-04-18T13:35:32.061Z</time></trkpt><trkpt lat="44.2339133" lon="11.5345033"><ele>354.0</ele><time>2026-04-18T13:35:33.061Z</time></trkpt><trkpt lat="44.233975" lon="11.5344483"><ele>351.3333333333333</ele><time>2026-04-18T13:35:34.061Z</time></trkpt><trkpt lat="44.2340267" lon="11.53438"><ele>348.66666666666663</ele><time>2026-04-18T13:35:35.061Z</time></trkpt><trkpt lat="44.2340783" lon="11.5343117"><ele>346.0</ele><time>2026-04-18T13:35:36.061Z</time></trkpt><trkpt lat="44.2341" lon="11.5342067"><ele>346.0</ele><time>2026-04-18T13:35:38.061Z</time></trkpt><trkpt lat="44.234065" lon="11.53411"><ele>346.0</ele><time>2026-04-18T13:35:41.06Z</time></trkpt><trkpt lat="44.2339817" lon="11.5341383"><ele>346.0</ele><time>2026-04-18T13:35:42.061Z</time></trkpt><trkpt lat="44.2339033" lon="11.5341383"><ele>346.0</ele><time>2026-04-18T13:35:43.061Z</time></trkpt><trkpt lat="44.2338233" lon="11.5341217"><ele>346.0</ele><time>2026-04-18T13:35:44.061Z</time></trkpt><trkpt lat="44.2337367" lon="11.5340733"><ele>346.0</ele><time>2026-04-18T13:35:45.06Z</time></trkpt><trkpt lat="44.2336533" lon="11.5339617"><ele>346.0</ele><time>2026-04-18T13:35:46.06Z</time></trkpt><trkpt lat="44.233595" lon="11.5338417"><ele>346.0</ele><time>2026-04-18T13:35:47.061Z</time></trkpt><trkpt lat="44.2335333" lon="11.5337217"><ele>346.0</ele><time>2026-04-18T13:35:48.06Z</time></trkpt><trkpt lat="44.2334667" lon="11.5336183"><ele>346.0</ele><time>2026-04-18T13:35:49.061Z</time></trkpt><trkpt lat="44.2334067" lon="11.5335167"><ele>346.0</ele><time>2026-04-18T13:35:50.06Z</time></trkpt><trkpt lat="44.2333533" lon="11.53342"><ele>345.8</ele><time>2026-04-18T13:35:51.061Z</time></trkpt><trkpt lat="44.233295" lon="11.53332"><ele>345.6</ele><time>2026-04-18T13:35:52.061Z</time></trkpt><trkpt lat="44.2332333" lon="11.5332083"><ele>345.4</ele><time>2026-04-18T13:35:53.061Z</time></trkpt><trkpt lat="44.2331733" lon="11.5331017"><ele>345.2</ele><time>2026-04-18T13:35:54.061Z</time></trkpt><trkpt lat="44.2331367" lon="11.5329917"><ele>345.0</ele><time>2026-04-18T13:35:55.061Z</time></trkpt><trkpt lat="44.2331283" lon="11.53287"><ele>342.4</ele><time>2026-04-18T13:35:56.061Z</time></trkpt><trkpt lat="44.2331533" lon="11.5327633"><ele>339.8</ele><time>2026-04-18T13:35:57.061Z</time></trkpt><trkpt lat="44.2332117" lon="11.5326667"><ele>337.20000000000005</ele><time>2026-04-18T13:35:58.061Z</time></trkpt><trkpt lat="44.23329" lon="11.532595"><ele>334.6</ele><time>2026-04-18T13:35:59.061Z</time></trkpt><trkpt lat="44.23339" lon="11.532585"><ele>332.0</ele><time>2026-04-18T13:36:00.061Z</time></trkpt><trkpt lat="44.23352" lon="11.5326183"><ele>332.0</ele><time>2026-04-18T13:36:01.061Z</time></trkpt><trkpt lat="44.233635" lon="11.5326233"><ele>332.0</ele><time>2026-04-18T13:36:02.06Z</time></trkpt><trkpt lat="44.2337767" lon="11.5326583"><ele>332.0</ele><time>2026-04-18T13:36:03.06Z</time></trkpt><trkpt lat="44.2339317" lon="11.532695"><ele>332.0</ele><time>2026-04-18T13:36:04.061Z</time></trkpt><trkpt lat="44.23409" lon="11.532715"><ele>330.0</ele><time>2026-04-18T13:36:05.061Z</time></trkpt><trkpt lat="44.2342533" lon="11.5327183"><ele>328.0</ele><time>2026-04-18T13:36:06.06Z</time></trkpt><trkpt lat="44.2344117" lon="11.5327017"><ele>326.0</ele><time>2026-04-18T13:36:07.061Z</time></trkpt><trkpt lat="44.2345633" lon="11.53267"><ele>326.0</ele><time>2026-04-18T13:36:08.061Z</time></trkpt><trkpt lat="44.2346833" lon="11.532575"><ele>326.0</ele><time>2026-04-18T13:36:09.061Z</time></trkpt><trkpt lat="44.2348083" lon="11.5324833"><ele>326.0</ele><time>2026-04-18T13:36:10.061Z</time></trkpt><trkpt lat="44.23494" lon="11.5323833"><ele>326.0</ele><time>2026-04-18T13:36:11.061Z</time></trkpt><trkpt lat="44.2350283" lon="11.5322783"><ele>325.5</ele><time>2026-04-18T13:36:12.061Z</time></trkpt><trkpt lat="44.2351267" lon="11.532145"><ele>325.0</ele><time>2026-04-18T13:36:13.06Z</time></trkpt><trkpt lat="44.235215" lon="11.531975"><ele>324.5</ele><time>2026-04-18T13:36:14.061Z</time></trkpt><trkpt lat="44.2352983" lon="11.53179"><ele>324.0</ele><time>2026-04-18T13:36:15.061Z</time></trkpt><trkpt lat="44.2353867" lon="11.5315917"><ele>324.0</ele><time>2026-04-18T13:36:16.06Z</time></trkpt><trkpt lat="44.2354783" lon="11.5313867"><ele>324.0</ele><time>2026-04-18T13:36:17.06Z</time></trkpt><trkpt lat="44.2355767" lon="11.5311817"><ele>324.0</ele><time>2026-04-18T13:36:18.06Z</time></trkpt><trkpt lat="44.2356717" lon="11.5309767"><ele>316.0</ele><time>2026-04-18T13:36:19.061Z</time></trkpt><trkpt lat="44.2357633" lon="11.5307683"><ele>308.0</ele><time>2026-04-18T13:36:20.061Z</time></trkpt><trkpt lat="44.2358517" lon="11.530565"><ele>300.0</ele><time>2026-04-18T13:36:21.061Z</time></trkpt><trkpt lat="44.2359283" lon="11.5303667"><ele>298.6666666666667</ele><time>2026-04-18T13:36:22.061Z</time></trkpt><trkpt lat="44.235995" lon="11.5301733"><ele>297.33333333333337</ele><time>2026-04-18T13:36:23.061Z</time></trkpt><trkpt lat="44.236045" lon="11.52998"><ele>296.0</ele><time>2026-04-18T13:36:24.061Z</time></trkpt><trkpt lat="44.2359867" lon="11.5297817"><ele>296.0</ele><time>2026-04-18T13:36:25.061Z</time></trkpt><trkpt lat="44.2359617" lon="11.5295833"><ele>296.0</ele><time>2026-04-18T13:36:26.061Z</time></trkpt><trkpt lat="44.2358917" lon="11.5293883"><ele>296.0</ele><time>2026-04-18T13:36:27.061Z</time></trkpt><trkpt lat="44.235825" lon="11.5292183"><ele>296.0</ele><time>2026-04-18T13:36:28.06Z</time></trkpt><trkpt lat="44.2357483" lon="11.5290617"><ele>296.33333333333337</ele><time>2026-04-18T13:36:29.061Z</time></trkpt><trkpt lat="44.23564" lon="11.528915"><ele>296.6666666666667</ele><time>2026-04-18T13:36:30.061Z</time></trkpt><trkpt lat="44.2355033" lon="11.5287667"><ele>297.0</ele><time>2026-04-18T13:36:31.061Z</time></trkpt><trkpt lat="44.235365" lon="11.5286133"><ele>292.3333333333333</ele><time>2026-04-18T13:36:32.06Z</time></trkpt><trkpt lat="44.2352383" lon="11.5284633"><ele>287.66666666666663</ele><time>2026-04-18T13:36:33.061Z</time></trkpt><trkpt lat="44.23511" lon="11.5283183"><ele>283.0</ele><time>2026-04-18T13:36:34.06Z</time></trkpt><trkpt lat="44.234995" lon="11.5281767"><ele>283.0</ele><time>2026-04-18T13:36:35.061Z</time></trkpt><trkpt lat="44.2348767" lon="11.52803"><ele>283.0</ele><time>2026-04-18T13:36:36.06Z</time></trkpt><trkpt lat="44.2347633" lon="11.5278767"><ele>283.0</ele><time>2026-04-18T13:36:37.061Z</time></trkpt><trkpt lat="44.2346633" lon="11.5277083"><ele>283.0</ele><time>2026-04-18T13:36:38.061Z</time></trkpt><trkpt lat="44.2345883" lon="11.5275183"><ele>283.0</ele><time>2026-04-18T13:36:39.061Z</time></trkpt><trkpt lat="44.2345483" lon="11.5273067"><ele>283.0</ele><time>2026-04-18T13:36:40.061Z</time></trkpt><trkpt lat="44.234515" lon="11.5270883"><ele>279.75</ele><time>2026-04-18T13:36:41.061Z</time></trkpt><trkpt lat="44.2344833" lon="11.5268767"><ele>276.5</ele><time>2026-04-18T13:36:42.061Z</time></trkpt><trkpt lat="44.2344733" lon="11.5266917"><ele>273.25</ele><time>2026-04-18T13:36:43.061Z</time></trkpt><trkpt lat="44.2344783" lon="11.52652"><ele>270.0</ele><time>2026-04-18T13:36:44.061Z</time></trkpt><trkpt lat="44.2345167" lon="11.5263483"><ele>268.0</ele><time>2026-04-18T13:36:45.06Z</time></trkpt><trkpt lat="44.2346" lon="11.526215"><ele>266.0</ele><time>2026-04-18T13:36:46.06Z</time></trkpt><trkpt lat="44.2346983" lon="11.5260967"><ele>264.0</ele><time>2026-04-18T13:36:47.061Z</time></trkpt><trkpt lat="44.234795" lon="11.525995"><ele>262.0</ele><time>2026-04-18T13:36:48.061Z</time></trkpt><trkpt lat="44.234895" lon="11.525955"><ele>262.0</ele><time>2026-04-18T13:36:49.061Z</time></trkpt><trkpt lat="44.2350117" lon="11.5259733"><ele>262.0</ele><time>2026-04-18T13:36:50.061Z</time></trkpt><trkpt lat="44.2351283" lon="11.5260383"><ele>262.0</ele><time>2026-04-18T13:36:51.061Z</time></trkpt><trkpt lat="44.235245" lon="11.5261317"><ele>262.0</ele><time>2026-04-18T13:36:52.06Z</time></trkpt><trkpt lat="44.2353233" lon="11.5263183"><ele>264.66666666666663</ele><time>2026-04-18T13:36:53.061Z</time></trkpt><trkpt lat="44.235395" lon="11.5265117"><ele>267.3333333333333</ele><time>2026-04-18T13:36:54.061Z</time></trkpt><trkpt lat="44.2354667" lon="11.5267067"><ele>270.0</ele><time>2026-04-18T13:36:55.06Z</time></trkpt><trkpt lat="44.2355517" lon="11.5268667"><ele>267.75</ele><time>2026-04-18T13:36:56.06Z</time></trkpt><trkpt lat="44.2356583" lon="11.5269817"><ele>265.5</ele><time>2026-04-18T13:36:57.06Z</time></trkpt><trkpt lat="44.2357933" lon="11.527085"><ele>263.25</ele><time>2026-04-18T13:36:58.06Z</time></trkpt><trkpt lat="44.235915" lon="11.5271283"><ele>261.0</ele><time>2026-04-18T13:36:59.059Z</time></trkpt><trkpt lat="44.23605" lon="11.52716"><ele>261.0</ele><time>2026-04-18T13:37:00.06Z</time></trkpt><trkpt lat="44.2361933" lon="11.5271833"><ele>261.0</ele><time>2026-04-18T13:37:01.059Z</time></trkpt><trkpt lat="44.23634" lon="11.5272"><ele>261.0</ele><time>2026-04-18T13:37:02.06Z</time></trkpt><trkpt lat="44.23648" lon="11.527215"><ele>261.0</ele><time>2026-04-18T13:37:03.06Z</time></trkpt><trkpt lat="44.2366283" lon="11.5272267"><ele>258.75</ele><time>2026-04-18T13:37:04.06Z</time></trkpt><trkpt lat="44.23677" lon="11.5272483"><ele>256.5</ele><time>2026-04-18T13:37:05.06Z</time></trkpt><trkpt lat="44.2369133" lon="11.5272683"><ele>254.25</ele><time>2026-04-18T13:37:06.06Z</time></trkpt><trkpt lat="44.2370583" lon="11.52729"><ele>252.0</ele><time>2026-04-18T13:37:07.059Z</time></trkpt><trkpt lat="44.2372017" lon="11.5273133"><ele>249.0</ele><time>2026-04-18T13:37:08.06Z</time></trkpt><trkpt lat="44.2373517" lon="11.5273433"><ele>246.0</ele><time>2026-04-18T13:37:09.06Z</time></trkpt><trkpt lat="44.2375133" lon="11.52737"><ele>243.0</ele><time>2026-04-18T13:37:10.059Z</time></trkpt><trkpt lat="44.2376667" lon="11.5274017"><ele>243.0</ele><time>2026-04-18T13:37:11.06Z</time></trkpt><trkpt lat="44.2378183" lon="11.5274283"><ele>243.0</ele><time>2026-04-18T13:37:12.06Z</time></trkpt><trkpt lat="44.2379717" lon="11.5274417"><ele>243.0</ele><time>2026-04-18T13:37:13.06Z</time></trkpt><trkpt lat="44.2381183" lon="11.5274467"><ele>240.66666666666669</ele><time>2026-04-18T13:37:14.06Z</time></trkpt><trkpt lat="44.2382633" lon="11.5274117"><ele>238.33333333333334</ele><time>2026-04-18T13:37:15.06Z</time></trkpt><trkpt lat="44.2383933" lon="11.5273133"><ele>236.0</ele><time>2026-04-18T13:37:16.06Z</time></trkpt><trkpt lat="44.2385083" lon="11.5271683"><ele>236.0</ele><time>2026-04-18T13:37:17.06Z</time></trkpt><trkpt lat="44.2386183" lon="11.5269983"><ele>236.0</ele><time>2026-04-18T13:37:18.06Z</time></trkpt><trkpt lat="44.2387117" lon="11.52684"><ele>236.0</ele><time>2026-04-18T13:37:19.06Z</time></trkpt><trkpt lat="44.2387933" lon="11.5266983"><ele>236.0</ele><time>2026-04-18T13:37:20.06Z</time></trkpt><trkpt lat="44.2388817" lon="11.5265683"><ele>234.5</ele><time>2026-04-18T13:37:21.06Z</time></trkpt><trkpt lat="44.2389817" lon="11.5264383"><ele>233.0</ele><time>2026-04-18T13:37:22.06Z</time></trkpt><trkpt lat="44.2390783" lon="11.5263317"><ele>231.5</ele><time>2026-04-18T13:37:23.06Z</time></trkpt><trkpt lat="44.239185" lon="11.5262367"><ele>230.0</ele><time>2026-04-18T13:37:24.06Z</time></trkpt><trkpt lat="44.2393167" lon="11.5261617"><ele>230.0</ele><time>2026-04-18T13:37:25.06Z</time></trkpt><trkpt lat="44.2394283" lon="11.5261"><ele>230.0</ele><time>2026-04-18T13:37:26.06Z</time></trkpt><trkpt lat="44.239545" lon="11.52604"><ele>230.0</ele><time>2026-04-18T13:37:27.059Z</time></trkpt><trkpt lat="44.2396683" lon="11.5259683"><ele>230.0</ele><time>2026-04-18T13:37:28.06Z</time></trkpt><trkpt lat="44.2397867" lon="11.5258983"><ele>228.25</ele><time>2026-04-18T13:37:29.06Z</time></trkpt><trkpt lat="44.239895" lon="11.5258067"><ele>226.5</ele><time>2026-04-18T13:37:30.06Z</time></trkpt><trkpt lat="44.2399883" lon="11.5256983"><ele>224.75</ele><time>2026-04-18T13:37:31.06Z</time></trkpt><trkpt lat="44.2400533" lon="11.5255617"><ele>223.0</ele><time>2026-04-18T13:37:32.06Z</time></trkpt><trkpt lat="44.2401083" lon="11.5254017"><ele>221.60000000000002</ele><time>2026-04-18T13:37:33.06Z</time></trkpt><trkpt lat="44.2401283" lon="11.5252367"><ele>220.20000000000002</ele><time>2026-04-18T13:37:34.06Z</time></trkpt><trkpt lat="44.2401217" lon="11.5250917"><ele>218.8</ele><time>2026-04-18T13:37:35.06Z</time></trkpt><trkpt lat="44.2401183" lon="11.524965"><ele>217.4</ele><time>2026-04-18T13:37:36.059Z</time></trkpt><trkpt lat="44.2401283" lon="11.5248433"><ele>216.0</ele><time>2026-04-18T13:37:37.06Z</time></trkpt><trkpt lat="44.2401633" lon="11.5247333"><ele>216.0</ele><time>2026-04-18T13:37:38.06Z</time></trkpt><trkpt lat="44.24023" lon="11.524665"><ele>216.0</ele><time>2026-04-18T13:37:40.06Z</time></trkpt><trkpt lat="44.240335" lon="11.52481"><ele>216.0</ele><time>2026-04-18T13:37:42.06Z</time></trkpt><trkpt lat="44.2404483" lon="11.52496"><ele>216.0</ele><time>2026-04-18T13:37:43.06Z</time></trkpt><trkpt lat="44.2405617" lon="11.5250917"><ele>214.0</ele><time>2026-04-18T13:37:44.06Z</time></trkpt><trkpt lat="44.2406767" lon="11.5251833"><ele>212.0</ele><time>2026-04-18T13:37:45.059Z</time></trkpt><trkpt lat="44.240775" lon="11.5252033"><ele>210.0</ele><time>2026-04-18T13:37:46.06Z</time></trkpt><trkpt lat="44.24093" lon="11.5250467"><ele>208.0</ele><time>2026-04-18T13:37:47.06Z</time></trkpt><trkpt lat="44.2410583" lon="11.524925"><ele>208.0</ele><time>2026-04-18T13:37:48.06Z</time></trkpt><trkpt lat="44.24117" lon="11.5248317"><ele>208.0</ele><time>2026-04-18T13:37:49.059Z</time></trkpt><trkpt lat="44.2412817" lon="11.52476"><ele>208.0</ele><time>2026-04-18T13:37:50.06Z</time></trkpt><trkpt lat="44.241405" lon="11.5247067"><ele>208.0</ele><time>2026-04-18T13:37:51.06Z</time></trkpt><trkpt lat="44.2415317" lon="11.524685"><ele>206.60000000000002</ele><time>2026-04-18T13:37:52.06Z</time></trkpt><trkpt lat="44.2416533" lon="11.5246817"><ele>205.20000000000002</ele><time>2026-04-18T13:37:53.059Z</time></trkpt><trkpt lat="44.2417733" lon="11.5246983"><ele>203.8</ele><time>2026-04-18T13:37:54.059Z</time></trkpt><trkpt lat="44.2418833" lon="11.524705"><ele>202.4</ele><time>2026-04-18T13:37:55.059Z</time></trkpt><trkpt lat="44.2419733" lon="11.5247183"><ele>201.0</ele><time>2026-04-18T13:37:56.06Z</time></trkpt><trkpt lat="44.24205" lon="11.5247283"><ele>201.0</ele><time>2026-04-18T13:37:57.06Z</time></trkpt><trkpt lat="44.2421467" lon="11.52474"><ele>201.0</ele><time>2026-04-18T13:37:59.06Z</time></trkpt><trkpt lat="44.2422167" lon="11.5247183"><ele>201.0</ele><time>2026-04-18T13:38:02.06Z</time></trkpt><trkpt lat="44.24227" lon="11.524665"><ele>201.0</ele><time>2026-04-18T13:38:17.06Z</time></trkpt><trkpt lat="44.2422583" lon="11.524565"><ele>201.0</ele><time>2026-04-18T13:38:19.06Z</time></trkpt><trkpt lat="44.2422033" lon="11.5245117"><ele>201.0</ele><time>2026-04-18T13:38:20.06Z</time></trkpt><trkpt lat="44.242115" lon="11.5244367"><ele>199.5</ele><time>2026-04-18T13:38:21.06Z</time></trkpt><trkpt lat="44.2420067" lon="11.5243467"><ele>198.0</ele><time>2026-04-18T13:38:22.06Z</time></trkpt><trkpt lat="44.241875" lon="11.5242183"><ele>196.5</ele><time>2026-04-18T13:38:23.059Z</time></trkpt><trkpt lat="44.2417633" lon="11.524085"><ele>195.0</ele><time>2026-04-18T13:38:24.06Z</time></trkpt><trkpt lat="44.2416483" lon="11.523945"><ele>195.0</ele><time>2026-04-18T13:38:25.059Z</time></trkpt><trkpt lat="44.24153" lon="11.5237867"><ele>195.0</ele><time>2026-04-18T13:38:26.06Z</time></trkpt><trkpt lat="44.24142" lon="11.52362"><ele>195.0</ele><time>2026-04-18T13:38:27.059Z</time></trkpt><trkpt lat="44.2413083" lon="11.5234683"><ele>194.0</ele><time>2026-04-18T13:38:28.06Z</time></trkpt><trkpt lat="44.241215" lon="11.5233167"><ele>193.0</ele><time>2026-04-18T13:38:29.06Z</time></trkpt><trkpt lat="44.24112" lon="11.5231883"><ele>192.0</ele><time>2026-04-18T13:38:30.06Z</time></trkpt><trkpt lat="44.24102" lon="11.5230867"><ele>191.0</ele><time>2026-04-18T13:38:31.06Z</time></trkpt><trkpt lat="44.240915" lon="11.5230133"><ele>191.0</ele><time>2026-04-18T13:38:32.06Z</time></trkpt><trkpt lat="44.2407717" lon="11.5229817"><ele>191.0</ele><time>2026-04-18T13:38:33.06Z</time></trkpt><trkpt lat="44.2406283" lon="11.5229983"><ele>191.0</ele><time>2026-04-18T13:38:34.06Z</time></trkpt><trkpt lat="44.2404667" lon="11.5230583"><ele>191.0</ele><time>2026-04-18T13:38:35.06Z</time></trkpt><trkpt lat="44.2403317" lon="11.523135"><ele>191.0</ele><time>2026-04-18T13:38:36.06Z</time></trkpt><trkpt lat="44.240215" lon="11.5231883"><ele>191.0</ele><time>2026-04-18T13:38:37.06Z</time></trkpt><trkpt lat="44.2400917" lon="11.5232333"><ele>191.0</ele><time>2026-04-18T13:38:38.06Z</time></trkpt><trkpt lat="44.23996" lon="11.52326"><ele>191.0</ele><time>2026-04-18T13:38:39.06Z</time></trkpt><trkpt lat="44.2398367" lon="11.5232267"><ele>191.0</ele><time>2026-04-18T13:38:40.06Z</time></trkpt><trkpt lat="44.2397133" lon="11.5231533"><ele>191.0</ele><time>2026-04-18T13:38:41.06Z</time></trkpt><trkpt lat="44.2395983" lon="11.523005"><ele>191.0</ele><time>2026-04-18T13:38:42.059Z</time></trkpt><trkpt lat="44.2394933" lon="11.5228417"><ele>189.75</ele><time>2026-04-18T13:38:43.06Z</time></trkpt><trkpt lat="44.2393933" lon="11.5226917"><ele>188.5</ele><time>2026-04-18T13:38:44.06Z</time></trkpt><trkpt lat="44.2393" lon="11.5225433"><ele>187.25</ele><time>2026-04-18T13:38:45.06Z</time></trkpt><trkpt lat="44.239215" lon="11.5223917"><ele>186.0</ele><time>2026-04-18T13:38:46.06Z</time></trkpt><trkpt lat="44.2391383" lon="11.5222217"><ele>188.66666666666669</ele><time>2026-04-18T13:38:47.06Z</time></trkpt><trkpt lat="44.2390633" lon="11.5220467"><ele>191.33333333333334</ele><time>2026-04-18T13:38:48.06Z</time></trkpt><trkpt lat="44.238975" lon="11.52187"><ele>194.0</ele><time>2026-04-18T13:38:49.06Z</time></trkpt><trkpt lat="44.238875" lon="11.5217133"><ele>194.0</ele><time>2026-04-18T13:38:50.06Z</time></trkpt><trkpt lat="44.2387667" lon="11.5215617"><ele>194.0</ele><time>2026-04-18T13:38:51.06Z</time></trkpt><trkpt lat="44.2386283" lon="11.521385"><ele>194.0</ele><time>2026-04-18T13:38:52.06Z</time></trkpt><trkpt lat="44.23854" lon="11.52123"><ele>187.33333333333334</ele><time>2026-04-18T13:38:53.06Z</time></trkpt><trkpt lat="44.2384483" lon="11.5210667"><ele>180.66666666666669</ele><time>2026-04-18T13:38:54.059Z</time></trkpt><trkpt lat="44.238325" lon="11.5209083"><ele>174.0</ele><time>2026-04-18T13:38:55.059Z</time></trkpt><trkpt lat="44.2381967" lon="11.52079"><ele>180.0</ele><time>2026-04-18T13:38:56.06Z</time></trkpt><trkpt lat="44.2380517" lon="11.52069"><ele>186.0</ele><time>2026-04-18T13:38:57.06Z</time></trkpt><trkpt lat="44.237905" lon="11.5206033"><ele>192.0</ele><time>2026-04-18T13:38:58.06Z</time></trkpt><trkpt lat="44.2377883" lon="11.5204867"><ele>186.75</ele><time>2026-04-18T13:38:59.06Z</time></trkpt><trkpt lat="44.2376933" lon="11.5203367"><ele>181.5</ele><time>2026-04-18T13:39:00.06Z</time></trkpt><trkpt lat="44.2376167" lon="11.52017"><ele>176.25</ele><time>2026-04-18T13:39:01.06Z</time></trkpt><trkpt lat="44.23755" lon="11.519985"><ele>171.0</ele><time>2026-04-18T13:39:02.06Z</time></trkpt><trkpt lat="44.2374517" lon="11.51984"><ele>171.0</ele><time>2026-04-18T13:39:03.06Z</time></trkpt><trkpt lat="44.2373533" lon="11.5197633"><ele>171.0</ele><time>2026-04-18T13:39:04.06Z</time></trkpt><trkpt lat="44.2372283" lon="11.5197133"><ele>171.0</ele><time>2026-04-18T13:39:05.06Z</time></trkpt><trkpt lat="44.2370867" lon="11.5196783"><ele>171.0</ele><time>2026-04-18T13:39:06.06Z</time></trkpt><trkpt lat="44.2369517" lon="11.5196233"><ele>170.0</ele><time>2026-04-18T13:39:07.06Z</time></trkpt><trkpt lat="44.2368017" lon="11.519545"><ele>169.0</ele><time>2026-04-18T13:39:08.06Z</time></trkpt><trkpt lat="44.2366883" lon="11.519445"><ele>168.0</ele><time>2026-04-18T13:39:09.059Z</time></trkpt><trkpt lat="44.2365967" lon="11.51935"><ele>167.0</ele><time>2026-04-18T13:39:10.06Z</time></trkpt><trkpt lat="44.23651" lon="11.5192617"><ele>167.0</ele><time>2026-04-18T13:39:11.06Z</time></trkpt><trkpt lat="44.2364383" lon="11.5191917"><ele>167.0</ele><time>2026-04-18T13:39:12.06Z</time></trkpt><trkpt lat="44.2363733" lon="11.5191217"><ele>167.0</ele><time>2026-04-18T13:39:13.06Z</time></trkpt><trkpt lat="44.2363217" lon="11.5190617"><ele>167.0</ele><time>2026-04-18T13:39:14.06Z</time></trkpt><trkpt lat="44.236275" lon="11.5189567"><ele>167.0</ele><time>2026-04-18T13:39:16.06Z</time></trkpt><trkpt lat="44.2363333" lon="11.51889"><ele>167.0</ele><time>2026-04-18T13:39:18.06Z</time></trkpt><trkpt lat="44.2364883" lon="11.5189583"><ele>167.0</ele><time>2026-04-18T13:39:20.06Z</time></trkpt><trkpt lat="44.2365917" lon="11.51901"><ele>167.0</ele><time>2026-04-18T13:39:21.059Z</time></trkpt><trkpt lat="44.2366983" lon="11.519045"><ele>167.0</ele><time>2026-04-18T13:39:22.06Z</time></trkpt><trkpt lat="44.2367983" lon="11.5190533"><ele>167.0</ele><time>2026-04-18T13:39:23.06Z</time></trkpt><trkpt lat="44.23689" lon="11.5190433"><ele>167.0</ele><time>2026-04-18T13:39:24.06Z</time></trkpt><trkpt lat="44.2369733" lon="11.519025"><ele>167.0</ele><time>2026-04-18T13:39:25.06Z</time></trkpt><trkpt lat="44.2370683" lon="11.518945"><ele>167.0</ele><time>2026-04-18T13:39:26.06Z</time></trkpt><trkpt lat="44.23712" lon="11.51882"><ele>167.0</ele><time>2026-04-18T13:39:27.06Z</time></trkpt><trkpt lat="44.2371533" lon="11.5187033"><ele>167.0</ele><time>2026-04-18T13:39:28.06Z</time></trkpt><trkpt lat="44.2371917" lon="11.5186083"><ele>167.0</ele><time>2026-04-18T13:39:29.06Z</time></trkpt><trkpt lat="44.2372383" lon="11.5184733"><ele>165.16666666666666</ele><time>2026-04-18T13:39:31.059Z</time></trkpt><trkpt lat="44.2372033" lon="11.5183733"><ele>163.33333333333331</ele><time>2026-04-18T13:39:34.059Z</time></trkpt><trkpt lat="44.2371333" lon="11.5183217"><ele>161.5</ele><time>2026-04-18T13:39:36.06Z</time></trkpt><trkpt lat="44.2370717" lon="11.5182567"><ele>159.66666666666666</ele><time>2026-04-18T13:39:38.06Z</time></trkpt><trkpt lat="44.2370133" lon="11.518165"><ele>157.83333333333334</ele><time>2026-04-18T13:39:40.06Z</time></trkpt><trkpt lat="44.2369717" lon="11.5180817"><ele>156.0</ele><time>2026-04-18T13:39:42.059Z</time></trkpt><trkpt lat="44.2369283" lon="11.51798"><ele>154.4</ele><time>2026-04-18T13:39:44.06Z</time></trkpt><trkpt lat="44.2369283" lon="11.5178367"><ele>152.8</ele><time>2026-04-18T13:39:46.06Z</time></trkpt><trkpt lat="44.2369533" lon="11.5176683"><ele>151.20000000000002</ele><time>2026-04-18T13:39:48.06Z</time></trkpt><trkpt lat="44.2369683" lon="11.517575"><ele>149.6</ele><time>2026-04-18T13:39:49.059Z</time></trkpt><trkpt lat="44.23701" lon="11.5174383"><ele>148.0</ele><time>2026-04-18T13:39:51.059Z</time></trkpt><trkpt lat="44.2370717" lon="11.5173783"><ele>148.0</ele><time>2026-04-18T13:39:53.059Z</time></trkpt><trkpt lat="44.23715" lon="11.517325"><ele>148.0</ele><time>2026-04-18T13:39:55.059Z</time></trkpt><trkpt lat="44.2371933" lon="11.5172533"><ele>148.0</ele><time>2026-04-18T13:39:57.059Z</time></trkpt><trkpt lat="44.2371733" lon="11.517165"><ele>148.0</ele><time>2026-04-18T13:39:59.059Z</time></trkpt><trkpt lat="44.237045" lon="11.5171467"><ele>148.0</ele><time>2026-04-18T13:40:01.059Z</time></trkpt><trkpt lat="44.2369433" lon="11.5171333"><ele>148.0</ele><time>2026-04-18T13:40:02.058Z</time></trkpt><trkpt lat="44.2368467" lon="11.5170783"><ele>148.0</ele><time>2026-04-18T13:40:03.059Z</time></trkpt><trkpt lat="44.236755" lon="11.5170167"><ele>148.0</ele><time>2026-04-18T13:40:04.059Z</time></trkpt><trkpt lat="44.23666" lon="11.51694"><ele>148.0</ele><time>2026-04-18T13:40:05.059Z</time></trkpt><trkpt lat="44.2365667" lon="11.51687"><ele>148.0</ele><time>2026-04-18T13:40:06.058Z</time></trkpt><trkpt lat="44.2364783" lon="11.5167967"><ele>148.4</ele><time>2026-04-18T13:40:07.059Z</time></trkpt><trkpt lat="44.2364033" lon="11.5167067"><ele>148.8</ele><time>2026-04-18T13:40:08.059Z</time></trkpt><trkpt lat="44.2363417" lon="11.51659"><ele>149.2</ele><time>2026-04-18T13:40:09.059Z</time></trkpt><trkpt lat="44.2362817" lon="11.5164483"><ele>149.6</ele><time>2026-04-18T13:40:10.059Z</time></trkpt><trkpt lat="44.2362283" lon="11.5163067"><ele>150.0</ele><time>2026-04-18T13:40:11.059Z</time></trkpt><trkpt lat="44.2361633" lon="11.5161483"><ele>151.25</ele><time>2026-04-18T13:40:12.059Z</time></trkpt><trkpt lat="44.236095" lon="11.5159783"><ele>152.5</ele><time>2026-04-18T13:40:13.059Z</time></trkpt><trkpt lat="44.2360133" lon="11.5158417"><ele>153.75</ele><time>2026-04-18T13:40:14.059Z</time></trkpt><trkpt lat="44.2359233" lon="11.51574"><ele>155.0</ele><time>2026-04-18T13:40:15.059Z</time></trkpt><trkpt lat="44.2358417" lon="11.5156683"><ele>155.0</ele><time>2026-04-18T13:40:16.059Z</time></trkpt><trkpt lat="44.2357533" lon="11.5156467"><ele>155.0</ele><time>2026-04-18T13:40:17.058Z</time></trkpt><trkpt lat="44.2356917" lon="11.51559"><ele>155.0</ele><time>2026-04-18T13:40:18.059Z</time></trkpt><trkpt lat="44.2356383" lon="11.51553"><ele>155.0</ele><time>2026-04-18T13:40:19.059Z</time></trkpt><trkpt lat="44.2355883" lon="11.5154683"><ele>155.0</ele><time>2026-04-18T13:40:20.059Z</time></trkpt><trkpt lat="44.2355617" lon="11.515365"><ele>155.0</ele><time>2026-04-18T13:40:21.058Z</time></trkpt><trkpt lat="44.2355517" lon="11.5152067"><ele>154.8</ele><time>2026-04-18T13:40:22.059Z</time></trkpt><trkpt lat="44.235545" lon="11.5150467"><ele>154.6</ele><time>2026-04-18T13:40:23.059Z</time></trkpt><trkpt lat="44.23556" lon="11.5148917"><ele>154.4</ele><time>2026-04-18T13:40:24.059Z</time></trkpt><trkpt lat="44.2355933" lon="11.514745"><ele>154.2</ele><time>2026-04-18T13:40:25.059Z</time></trkpt><trkpt lat="44.2355983" lon="11.514615"><ele>154.0</ele><time>2026-04-18T13:40:26.059Z</time></trkpt><trkpt lat="44.2355883" lon="11.5144667"><ele>154.0</ele><time>2026-04-18T13:40:27.059Z</time></trkpt><trkpt lat="44.235575" lon="11.5143267"><ele>154.0</ele><time>2026-04-18T13:40:28.059Z</time></trkpt><trkpt lat="44.23557" lon="11.514185"><ele>154.0</ele><time>2026-04-18T13:40:29.059Z</time></trkpt><trkpt lat="44.235545" lon="11.51406"><ele>154.0</ele><time>2026-04-18T13:40:30.059Z</time></trkpt><trkpt lat="44.2355267" lon="11.5139683"><ele>154.0</ele><time>2026-04-18T13:40:31.059Z</time></trkpt><trkpt lat="44.2355133" lon="11.5138733"><ele>154.0</ele><time>2026-04-18T13:40:32.058Z</time></trkpt><trkpt lat="44.2355083" lon="11.5137267"><ele>154.25</ele><time>2026-04-18T13:40:34.059Z</time></trkpt><trkpt lat="44.23562" lon="11.5136567"><ele>154.5</ele><time>2026-04-18T13:40:36.059Z</time></trkpt><trkpt lat="44.2357033" lon="11.513655"><ele>154.75</ele><time>2026-04-18T13:40:37.058Z</time></trkpt><trkpt lat="44.2358183" lon="11.5136583"><ele>155.0</ele><time>2026-04-18T13:40:38.059Z</time></trkpt><trkpt lat="44.2359583" lon="11.5136717"><ele>159.0</ele><time>2026-04-18T13:40:39.058Z</time></trkpt><trkpt lat="44.236105" lon="11.5136733"><ele>163.0</ele><time>2026-04-18T13:40:40.059Z</time></trkpt><trkpt lat="44.2362517" lon="11.5136767"><ele>167.0</ele><time>2026-04-18T13:40:41.059Z</time></trkpt><trkpt lat="44.2363783" lon="11.5136783"><ele>171.0</ele><time>2026-04-18T13:40:42.059Z</time></trkpt><trkpt lat="44.2364967" lon="11.5136733"><ele>172.20000000000002</ele><time>2026-04-18T13:40:43.059Z</time></trkpt><trkpt lat="44.2366" lon="11.5137"><ele>173.4</ele><time>2026-04-18T13:40:44.059Z</time></trkpt><trkpt lat="44.236705" lon="11.5137267"><ele>174.6</ele><time>2026-04-18T13:40:45.059Z</time></trkpt><trkpt lat="44.23681" lon="11.513775"><ele>175.8</ele><time>2026-04-18T13:40:46.059Z</time></trkpt><trkpt lat="44.2368983" lon="11.5138233"><ele>177.0</ele><time>2026-04-18T13:40:47.059Z</time></trkpt><trkpt lat="44.2369933" lon="11.51387"><ele>177.0</ele><time>2026-04-18T13:40:48.058Z</time></trkpt><trkpt lat="44.2370983" lon="11.5139033"><ele>177.0</ele><time>2026-04-18T13:40:49.059Z</time></trkpt><trkpt lat="44.237215" lon="11.5139367"><ele>177.0</ele><time>2026-04-18T13:40:50.059Z</time></trkpt><trkpt lat="44.2373417" lon="11.5139767"><ele>177.0</ele><time>2026-04-18T13:40:51.059Z</time></trkpt><trkpt lat="44.237475" lon="11.5140283"><ele>180.75</ele><time>2026-04-18T13:40:52.059Z</time></trkpt><trkpt lat="44.2376133" lon="11.5140783"><ele>184.5</ele><time>2026-04-18T13:40:53.059Z</time></trkpt><trkpt lat="44.237755" lon="11.5141217"><ele>188.25</ele><time>2026-04-18T13:40:54.058Z</time></trkpt><trkpt lat="44.2378917" lon="11.5141633"><ele>192.0</ele><time>2026-04-18T13:40:55.059Z</time></trkpt><trkpt lat="44.2380183" lon="11.5142033"><ele>193.5</ele><time>2026-04-18T13:40:56.058Z</time></trkpt><trkpt lat="44.238135" lon="11.514255"><ele>195.0</ele><time>2026-04-18T13:40:57.059Z</time></trkpt><trkpt lat="44.2382417" lon="11.5143217"><ele>196.5</ele><time>2026-04-18T13:40:58.059Z</time></trkpt><trkpt lat="44.2383417" lon="11.5144133"><ele>198.0</ele><time>2026-04-18T13:40:59.059Z</time></trkpt><trkpt lat="44.23843" lon="11.5145033"><ele>194.75</ele><time>2026-04-18T13:41:00.058Z</time></trkpt><trkpt lat="44.2385333" lon="11.5146033"><ele>191.5</ele><time>2026-04-18T13:41:01.059Z</time></trkpt><trkpt lat="44.2386383" lon="11.5146967"><ele>188.25</ele><time>2026-04-18T13:41:02.058Z</time></trkpt><trkpt lat="44.2387283" lon="11.51478"><ele>185.0</ele><time>2026-04-18T13:41:03.058Z</time></trkpt><trkpt lat="44.2388167" lon="11.5148483"><ele>185.0</ele><time>2026-04-18T13:41:04.059Z</time></trkpt><trkpt lat="44.2388983" lon="11.5149183"><ele>185.0</ele><time>2026-04-18T13:41:05.059Z</time></trkpt><trkpt lat="44.2389833" lon="11.51499"><ele>185.0</ele><time>2026-04-18T13:41:06.059Z</time></trkpt><trkpt lat="44.2390633" lon="11.5150583"><ele>185.0</ele><time>2026-04-18T13:41:07.059Z</time></trkpt><trkpt lat="44.2391367" lon="11.515135"><ele>185.0</ele><time>2026-04-18T13:41:08.059Z</time></trkpt><trkpt lat="44.2392083" lon="11.5152117"><ele>186.16666666666666</ele><time>2026-04-18T13:41:09.058Z</time></trkpt><trkpt lat="44.2392717" lon="11.5152767"><ele>187.33333333333331</ele><time>2026-04-18T13:41:10.059Z</time></trkpt><trkpt lat="44.23933" lon="11.51533"><ele>188.5</ele><time>2026-04-18T13:41:11.059Z</time></trkpt><trkpt lat="44.2393933" lon="11.515385"><ele>189.66666666666666</ele><time>2026-04-18T13:41:12.059Z</time></trkpt><trkpt lat="44.2394733" lon="11.5154433"><ele>190.83333333333334</ele><time>2026-04-18T13:41:13.059Z</time></trkpt><trkpt lat="44.23956" lon="11.5155033"><ele>192.0</ele><time>2026-04-18T13:41:14.059Z</time></trkpt><trkpt lat="44.239665" lon="11.5155783"><ele>192.0</ele><time>2026-04-18T13:41:15.059Z</time></trkpt><trkpt lat="44.2397933" lon="11.515675"><ele>192.0</ele><time>2026-04-18T13:41:16.058Z</time></trkpt><trkpt lat="44.2399117" lon="11.5157683"><ele>192.0</ele><time>2026-04-18T13:41:17.059Z</time></trkpt><trkpt lat="44.240025" lon="11.515865"><ele>192.0</ele><time>2026-04-18T13:41:18.059Z</time></trkpt><trkpt lat="44.2401283" lon="11.515965"><ele>191.8</ele><time>2026-04-18T13:41:19.059Z</time></trkpt><trkpt lat="44.24023" lon="11.5160567"><ele>191.6</ele><time>2026-04-18T13:41:20.059Z</time></trkpt><trkpt lat="44.24032" lon="11.5161517"><ele>191.4</ele><time>2026-04-18T13:41:21.059Z</time></trkpt><trkpt lat="44.2403933" lon="11.51626"><ele>191.20000000000002</ele><time>2026-04-18T13:41:22.059Z</time></trkpt><trkpt lat="44.24047" lon="11.5163467"><ele>191.0</ele><time>2026-04-18T13:41:23.059Z</time></trkpt><trkpt lat="44.2405667" lon="11.516425"><ele>191.5</ele><time>2026-04-18T13:41:24.059Z</time></trkpt><trkpt lat="44.240645" lon="11.5164983"><ele>192.0</ele><time>2026-04-18T13:41:25.059Z</time></trkpt><trkpt lat="44.24071" lon="11.5165483"><ele>192.5</ele><time>2026-04-18T13:41:26.059Z</time></trkpt><trkpt lat="44.2407933" lon="11.5165717"><ele>193.0</ele><time>2026-04-18T13:41:28.059Z</time></trkpt><trkpt lat="44.2408533" lon="11.51653"><ele>193.50000000000003</ele><time>2026-04-18T13:41:30.059Z</time></trkpt><trkpt lat="44.2409433" lon="11.5164833"><ele>194.0</ele><time>2026-04-18T13:41:32.059Z</time></trkpt><trkpt lat="44.2410467" lon="11.5165033"><ele>194.0</ele><time>2026-04-18T13:41:34.059Z</time></trkpt><trkpt lat="44.241115" lon="11.516535"><ele>194.0</ele><time>2026-04-18T13:41:35.059Z</time></trkpt><trkpt lat="44.241215" lon="11.5165517"><ele>194.0</ele><time>2026-04-18T13:41:37.059Z</time></trkpt><trkpt lat="44.2412817" lon="11.51649"><ele>194.0</ele><time>2026-04-18T13:41:39.059Z</time></trkpt><trkpt lat="44.241325" lon="11.5163667"><ele>194.0</ele><time>2026-04-18T13:41:41.058Z</time></trkpt><trkpt lat="44.2413933" lon="11.5162167"><ele>195.0</ele><time>2026-04-18T13:41:43.059Z</time></trkpt><trkpt lat="44.241445" lon="11.5161233"><ele>196.0</ele><time>2026-04-18T13:41:44.059Z</time></trkpt><trkpt lat="44.241495" lon="11.51602"><ele>197.0</ele><time>2026-04-18T13:41:45.059Z</time></trkpt><trkpt lat="44.2415533" lon="11.51591"><ele>198.0</ele><time>2026-04-18T13:41:46.059Z</time></trkpt><trkpt lat="44.24161" lon="11.5158033"><ele>199.0</ele><time>2026-04-18T13:41:47.059Z</time></trkpt><trkpt lat="44.2416717" lon="11.515695"><ele>200.49999999999997</ele><time>2026-04-18T13:41:48.058Z</time></trkpt><trkpt lat="44.2417233" lon="11.51561"><ele>202.0</ele><time>2026-04-18T13:41:49.059Z</time></trkpt><trkpt lat="44.2417633" lon="11.5155383"><ele>203.5</ele><time>2026-04-18T13:41:50.059Z</time></trkpt><trkpt lat="44.2418033" lon="11.515405"><ele>205.0</ele><time>2026-04-18T13:41:52.059Z</time></trkpt><trkpt lat="44.2417933" lon="11.5152883"><ele>206.49999999999997</ele><time>2026-04-18T13:41:54.059Z</time></trkpt><trkpt lat="44.2417517" lon="11.515165"><ele>208.0</ele><time>2026-04-18T13:41:56.059Z</time></trkpt><trkpt lat="44.2417283" lon="11.514995"><ele>210.49999999999997</ele><time>2026-04-18T13:41:58.058Z</time></trkpt><trkpt lat="44.2417" lon="11.5148967"><ele>213.0</ele><time>2026-04-18T13:41:59.059Z</time></trkpt><trkpt lat="44.2416617" lon="11.5147567"><ele>215.5</ele><time>2026-04-18T13:42:01.059Z</time></trkpt><trkpt lat="44.2416017" lon="11.514645"><ele>218.0</ele><time>2026-04-18T13:42:03.059Z</time></trkpt><trkpt lat="44.2415417" lon="11.5145983"><ele>220.49999999999997</ele><time>2026-04-18T13:42:04.059Z</time></trkpt><trkpt lat="44.241485" lon="11.5145517"><ele>223.0</ele><time>2026-04-18T13:42:05.059Z</time></trkpt><trkpt lat="44.241435" lon="11.5144983"><ele>222.99999999999997</ele><time>2026-04-18T13:42:06.058Z</time></trkpt><trkpt lat="44.24139" lon="11.514415"><ele>223.0</ele><time>2026-04-18T13:42:07.059Z</time></trkpt><trkpt lat="44.2413667" lon="11.514265"><ele>223.0</ele><time>2026-04-18T13:42:09.059Z</time></trkpt><trkpt lat="44.2413867" lon="11.514135"><ele>223.0</ele><time>2026-04-18T13:42:11.059Z</time></trkpt><trkpt lat="44.2413933" lon="11.51403"><ele>222.99999999999997</ele><time>2026-04-18T13:42:13.059Z</time></trkpt><trkpt lat="44.2414" lon="11.5139367"><ele>223.0</ele><time>2026-04-18T13:42:16.059Z</time></trkpt><trkpt lat="44.2414333" lon="11.5140283"><ele>226.99999999999997</ele><time>2026-04-18T13:42:21.058Z</time></trkpt><trkpt lat="44.2414917" lon="11.5141233"><ele>231.0</ele><time>2026-04-18T13:42:23.059Z</time></trkpt><trkpt lat="44.24158" lon="11.51419"><ele>235.0</ele><time>2026-04-18T13:42:25.059Z</time></trkpt><trkpt lat="44.2416517" lon="11.5141983"><ele>239.0</ele><time>2026-04-18T13:42:26.059Z</time></trkpt><trkpt lat="44.2417233" lon="11.5142"><ele>242.99999999999997</ele><time>2026-04-18T13:42:27.059Z</time></trkpt><trkpt lat="44.2417883" lon="11.5141983"><ele>247.0</ele><time>2026-04-18T13:42:28.059Z</time></trkpt><trkpt lat="44.2418683" lon="11.5142033"><ele>246.99999999999997</ele><time>2026-04-18T13:42:29.059Z</time></trkpt><trkpt lat="44.2419417" lon="11.5142467"><ele>247.0</ele><time>2026-04-18T13:42:30.059Z</time></trkpt><trkpt lat="44.24201" lon="11.514305"><ele>247.0</ele><time>2026-04-18T13:42:31.059Z</time></trkpt><trkpt lat="44.2420683" lon="11.514385"><ele>247.0</ele><time>2026-04-18T13:42:32.059Z</time></trkpt><trkpt lat="44.24213" lon="11.5144717"><ele>246.99999999999997</ele><time>2026-04-18T13:42:33.059Z</time></trkpt><trkpt lat="44.2421783" lon="11.5145467"><ele>247.0</ele><time>2026-04-18T13:42:34.058Z</time></trkpt><trkpt lat="44.2422317" lon="11.5146083"><ele>247.83333333333331</ele><time>2026-04-18T13:42:35.059Z</time></trkpt><trkpt lat="44.2423067" lon="11.51467"><ele>248.66666666666666</ele><time>2026-04-18T13:42:36.059Z</time></trkpt><trkpt lat="44.2423933" lon="11.51473"><ele>249.5</ele><time>2026-04-18T13:42:37.059Z</time></trkpt><trkpt lat="44.242475" lon="11.5148017"><ele>250.33333333333331</ele><time>2026-04-18T13:42:38.059Z</time></trkpt><trkpt lat="44.2425383" lon="11.5148667"><ele>251.16666666666666</ele><time>2026-04-18T13:42:39.059Z</time></trkpt><trkpt lat="44.2425967" lon="11.5149083"><ele>252.0</ele><time>2026-04-18T13:42:40.059Z</time></trkpt><trkpt lat="44.2426583" lon="11.5149333"><ele>252.0</ele><time>2026-04-18T13:42:41.059Z</time></trkpt><trkpt lat="44.2427617" lon="11.514935"><ele>252.0</ele><time>2026-04-18T13:42:43.059Z</time></trkpt><trkpt lat="44.242855" lon="11.5148667"><ele>252.0</ele><time>2026-04-18T13:42:45.059Z</time></trkpt><trkpt lat="44.2429133" lon="11.5148283"><ele>252.0</ele><time>2026-04-18T13:42:46.059Z</time></trkpt><trkpt lat="44.2429733" lon="11.514795"><ele>252.0</ele><time>2026-04-18T13:42:47.059Z</time></trkpt><trkpt lat="44.243065" lon="11.51477"><ele>252.0</ele><time>2026-04-18T13:42:49.059Z</time></trkpt><trkpt lat="44.2431883" lon="11.514785"><ele>254.66666666666666</ele><time>2026-04-18T13:42:51.058Z</time></trkpt><trkpt lat="44.2432883" lon="11.5147933"><ele>257.3333333333333</ele><time>2026-04-18T13:42:53.058Z</time></trkpt><trkpt lat="44.2433833" lon="11.51487"><ele>260.0</ele><time>2026-04-18T13:42:55.058Z</time></trkpt><trkpt lat="44.2434283" lon="11.5149333"><ele>262.66666666666663</ele><time>2026-04-18T13:42:56.058Z</time></trkpt><trkpt lat="44.2434583" lon="11.5150217"><ele>265.3333333333333</ele><time>2026-04-18T13:42:57.058Z</time></trkpt><trkpt lat="44.2435" lon="11.51509"><ele>268.0</ele><time>2026-04-18T13:42:58.058Z</time></trkpt><trkpt lat="44.2435683" lon="11.5151617"><ele>268.0</ele><time>2026-04-18T13:42:59.058Z</time></trkpt><trkpt lat="44.243635" lon="11.5152567"><ele>268.0</ele><time>2026-04-18T13:43:00.058Z</time></trkpt><trkpt lat="44.2437183" lon="11.515355"><ele>268.0</ele><time>2026-04-18T13:43:01.058Z</time></trkpt><trkpt lat="44.2438" lon="11.5154983"><ele>268.0</ele><time>2026-04-18T13:43:02.057Z</time></trkpt><trkpt lat="44.2438733" lon="11.5156183"><ele>268.0</ele><time>2026-04-18T13:43:03.057Z</time></trkpt><trkpt lat="44.243945" lon="11.5157183"><ele>269.0</ele><time>2026-04-18T13:43:04.058Z</time></trkpt><trkpt lat="44.2440067" lon="11.515785"><ele>270.0</ele><time>2026-04-18T13:43:05.058Z</time></trkpt><trkpt lat="44.244105" lon="11.5157483"><ele>271.0</ele><time>2026-04-18T13:43:07.057Z</time></trkpt><trkpt lat="44.2442317" lon="11.51576"><ele>272.0</ele><time>2026-04-18T13:43:09.058Z</time></trkpt><trkpt lat="44.2443" lon="11.515725"><ele>273.0</ele><time>2026-04-18T13:43:10.058Z</time></trkpt><trkpt lat="44.2443817" lon="11.5157167"><ele>273.0</ele><time>2026-04-18T13:43:11.058Z</time></trkpt><trkpt lat="44.244475" lon="11.5157167"><ele>273.0</ele><time>2026-04-18T13:43:12.058Z</time></trkpt><trkpt lat="44.2445683" lon="11.5157183"><ele>273.0</ele><time>2026-04-18T13:43:13.058Z</time></trkpt><trkpt lat="44.24465" lon="11.5157083"><ele>273.0</ele><time>2026-04-18T13:43:14.058Z</time></trkpt><trkpt lat="44.2447467" lon="11.5156917"><ele>273.0</ele><time>2026-04-18T13:43:15.058Z</time></trkpt><trkpt lat="44.2448267" lon="11.5156817"><ele>273.0</ele><time>2026-04-18T13:43:16.057Z</time></trkpt><trkpt lat="44.2449017" lon="11.51565"><ele>275.8</ele><time>2026-04-18T13:43:17.058Z</time></trkpt><trkpt lat="44.2449867" lon="11.5155867"><ele>278.6</ele><time>2026-04-18T13:43:18.058Z</time></trkpt><trkpt lat="44.24506" lon="11.5155217"><ele>281.4</ele><time>2026-04-18T13:43:19.058Z</time></trkpt><trkpt lat="44.24515" lon="11.5154683"><ele>284.2</ele><time>2026-04-18T13:43:20.058Z</time></trkpt><trkpt lat="44.2452317" lon="11.5154183"><ele>287.0</ele><time>2026-04-18T13:43:21.057Z</time></trkpt><trkpt lat="44.2453117" lon="11.5153867"><ele>290.83333333333337</ele><time>2026-04-18T13:43:22.058Z</time></trkpt><trkpt lat="44.24538" lon="11.515375"><ele>294.6666666666667</ele><time>2026-04-18T13:43:23.058Z</time></trkpt><trkpt lat="44.2454417" lon="11.515355"><ele>298.5</ele><time>2026-04-18T13:43:24.058Z</time></trkpt><trkpt lat="44.2455583" lon="11.5153583"><ele>302.3333333333333</ele><time>2026-04-18T13:43:26.058Z</time></trkpt><trkpt lat="44.24563" lon="11.5153783"><ele>306.16666666666663</ele><time>2026-04-18T13:43:27.058Z</time></trkpt><trkpt lat="44.24572" lon="11.515385"><ele>310.0</ele><time>2026-04-18T13:43:28.058Z</time></trkpt><trkpt lat="44.24579" lon="11.515425"><ele>310.0</ele><time>2026-04-18T13:43:29.058Z</time></trkpt><trkpt lat="44.2458633" lon="11.5154717"><ele>310.0</ele><time>2026-04-18T13:43:30.058Z</time></trkpt><trkpt lat="44.245925" lon="11.5155067"><ele>310.0</ele><time>2026-04-18T13:43:31.058Z</time></trkpt><trkpt lat="44.246005" lon="11.5155517"><ele>310.0</ele><time>2026-04-18T13:43:32.058Z</time></trkpt><trkpt lat="44.246065" lon="11.515585"><ele>310.0</ele><time>2026-04-18T13:43:33.057Z</time></trkpt><trkpt lat="44.2461283" lon="11.5156017"><ele>310.0</ele><time>2026-04-18T13:43:34.058Z</time></trkpt><trkpt lat="44.2462283" lon="11.5155683"><ele>310.0</ele><time>2026-04-18T13:43:36.057Z</time></trkpt><trkpt lat="44.2463167" lon="11.5154617"><ele>310.0</ele><time>2026-04-18T13:43:38.057Z</time></trkpt><trkpt lat="44.2464117" lon="11.5153883"><ele>310.0</ele><time>2026-04-18T13:43:40.057Z</time></trkpt><trkpt lat="44.2465067" lon="11.5153667"><ele>310.0</ele><time>2026-04-18T13:43:42.057Z</time></trkpt><trkpt lat="44.2466067" lon="11.5153867"><ele>310.0</ele><time>2026-04-18T13:43:44.058Z</time></trkpt><trkpt lat="44.2466717" lon="11.5153983"><ele>311.0</ele><time>2026-04-18T13:43:45.058Z</time></trkpt><trkpt lat="44.2467667" lon="11.5154083"><ele>312.0</ele><time>2026-04-18T13:43:47.057Z</time></trkpt><trkpt lat="44.2468417" lon="11.5153383"><ele>313.0</ele><time>2026-04-18T13:43:49.058Z</time></trkpt><trkpt lat="44.24692" lon="11.515235"><ele>314.0</ele><time>2026-04-18T13:43:51.058Z</time></trkpt><trkpt lat="44.247025" lon="11.5151383"><ele>315.0</ele><time>2026-04-18T13:43:53.058Z</time></trkpt><trkpt lat="44.2471583" lon="11.5151067"><ele>320.5</ele><time>2026-04-18T13:43:55.058Z</time></trkpt><trkpt lat="44.247225" lon="11.5151133"><ele>326.0</ele><time>2026-04-18T13:43:56.058Z</time></trkpt><trkpt lat="44.2472917" lon="11.51511"><ele>331.5</ele><time>2026-04-18T13:43:57.058Z</time></trkpt><trkpt lat="44.2473683" lon="11.5151433"><ele>337.0</ele><time>2026-04-18T13:43:58.058Z</time></trkpt><trkpt lat="44.2474317" lon="11.5151617"><ele>342.5</ele><time>2026-04-18T13:43:59.058Z</time></trkpt><trkpt lat="44.247515" lon="11.5152133"><ele>348.0</ele><time>2026-04-18T13:44:01.058Z</time></trkpt><trkpt lat="44.2476033" lon="11.515285"><ele>348.0</ele><time>2026-04-18T13:44:03.058Z</time></trkpt><trkpt lat="44.2476633" lon="11.5153483"><ele>348.0</ele><time>2026-04-18T13:44:04.058Z</time></trkpt><trkpt lat="44.2477167" lon="11.5154017"><ele>348.0</ele><time>2026-04-18T13:44:05.058Z</time></trkpt><trkpt lat="44.247765" lon="11.5154633"><ele>348.0</ele><time>2026-04-18T13:44:06.058Z</time></trkpt><trkpt lat="44.24784" lon="11.51556"><ele>348.0</ele><time>2026-04-18T13:44:08.058Z</time></trkpt><trkpt lat="44.24792" lon="11.515595"><ele>348.0</ele><time>2026-04-18T13:44:11.058Z</time></trkpt><trkpt lat="44.2479067" lon="11.5155"><ele>348.0</ele><time>2026-04-18T13:44:19.058Z</time></trkpt><trkpt lat="44.2478717" lon="11.51531"><ele>348.0</ele><time>2026-04-18T13:44:21.058Z</time></trkpt><trkpt lat="44.247825" lon="11.5152133"><ele>348.0</ele><time>2026-04-18T13:44:22.058Z</time></trkpt><trkpt lat="44.2477933" lon="11.5151367"><ele>348.0</ele><time>2026-04-18T13:44:23.058Z</time></trkpt><trkpt lat="44.2477533" lon="11.5150533"><ele>348.0</ele><time>2026-04-18T13:44:24.058Z</time></trkpt><trkpt lat="44.247705" lon="11.51499"><ele>348.0</ele><time>2026-04-18T13:44:25.058Z</time></trkpt><trkpt lat="44.2476283" lon="11.51492"><ele>348.0</ele><time>2026-04-18T13:44:38.058Z</time></trkpt><trkpt lat="44.2474983" lon="11.514855"><ele>348.0</ele><time>2026-04-18T13:44:40.057Z</time></trkpt><trkpt lat="44.2474083" lon="11.5148133"><ele>348.0</ele><time>2026-04-18T13:44:41.058Z</time></trkpt><trkpt lat="44.24731" lon="11.5147833"><ele>348.0</ele><time>2026-04-18T13:44:42.058Z</time></trkpt><trkpt lat="44.2472067" lon="11.51476"><ele>348.0</ele><time>2026-04-18T13:44:43.058Z</time></trkpt><trkpt lat="44.2470933" lon="11.5147317"><ele>348.0</ele><time>2026-04-18T13:44:44.058Z</time></trkpt><trkpt lat="44.2469867" lon="11.5147083"><ele>348.0</ele><time>2026-04-18T13:44:45.058Z</time></trkpt><trkpt lat="44.2468883" lon="11.5146733"><ele>348.0</ele><time>2026-04-18T13:44:46.058Z</time></trkpt><trkpt lat="44.2467933" lon="11.5146317"><ele>348.0</ele><time>2026-04-18T13:44:47.058Z</time></trkpt><trkpt lat="44.24671" lon="11.51456"><ele>348.0</ele><time>2026-04-18T13:44:48.058Z</time></trkpt><trkpt lat="44.2466117" lon="11.5145083"><ele>350.5</ele><time>2026-04-18T13:44:49.058Z</time></trkpt><trkpt lat="44.2465133" lon="11.5144567"><ele>353.0</ele><time>2026-04-18T13:44:50.058Z</time></trkpt><trkpt lat="44.24643" lon="11.5143917"><ele>355.5</ele><time>2026-04-18T13:44:51.058Z</time></trkpt><trkpt lat="44.2463633" lon="11.5143233"><ele>358.0</ele><time>2026-04-18T13:44:52.058Z</time></trkpt><trkpt lat="44.2463133" lon="11.5142433"><ele>360.5</ele><time>2026-04-18T13:44:53.057Z</time></trkpt><trkpt lat="44.24626" lon="11.5141633"><ele>363.0</ele><time>2026-04-18T13:44:54.057Z</time></trkpt><trkpt lat="44.2462117" lon="11.514095"><ele>363.0</ele><time>2026-04-18T13:44:55.058Z</time></trkpt><trkpt lat="44.2461533" lon="11.51404"><ele>363.0</ele><time>2026-04-18T13:44:56.057Z</time></trkpt><trkpt lat="44.24607" lon="11.5139767"><ele>363.0</ele><time>2026-04-18T13:44:58.058Z</time></trkpt><trkpt lat="44.2460167" lon="11.5139133"><ele>363.0</ele><time>2026-04-18T13:45:00.058Z</time></trkpt><trkpt lat="44.245945" lon="11.5138367"><ele>363.0</ele><time>2026-04-18T13:45:02.058Z</time></trkpt><trkpt lat="44.2458617" lon="11.51375"><ele>363.0</ele><time>2026-04-18T13:45:04.058Z</time></trkpt><trkpt lat="44.2457733" lon="11.5136583"><ele>364.1666666666667</ele><time>2026-04-18T13:45:06.057Z</time></trkpt><trkpt lat="44.2457183" lon="11.51361"><ele>365.3333333333333</ele><time>2026-04-18T13:45:07.058Z</time></trkpt><trkpt lat="44.24559" lon="11.5135283"><ele>366.5</ele><time>2026-04-18T13:45:09.058Z</time></trkpt><trkpt lat="44.2455183" lon="11.5134883"><ele>367.66666666666663</ele><time>2026-04-18T13:45:10.058Z</time></trkpt><trkpt lat="44.24545" lon="11.5134483"><ele>368.8333333333333</ele><time>2026-04-18T13:45:11.058Z</time></trkpt><trkpt lat="44.24539" lon="11.513405"><ele>370.0</ele><time>2026-04-18T13:45:12.058Z</time></trkpt><trkpt lat="44.2453267" lon="11.5133483"><ele>370.0</ele><time>2026-04-18T13:45:13.058Z</time></trkpt><trkpt lat="44.2452733" lon="11.51329"><ele>370.0</ele><time>2026-04-18T13:45:14.058Z</time></trkpt><trkpt lat="44.2452217" lon="11.51323"><ele>370.0</ele><time>2026-04-18T13:45:15.058Z</time></trkpt><trkpt lat="44.24514" lon="11.513135"><ele>370.0</ele><time>2026-04-18T13:45:17.058Z</time></trkpt><trkpt lat="44.2450983" lon="11.5130033"><ele>370.0</ele><time>2026-04-18T13:45:19.057Z</time></trkpt><trkpt lat="44.24508" lon="11.51284"><ele>374.0</ele><time>2026-04-18T13:45:21.058Z</time></trkpt><trkpt lat="44.2450467" lon="11.5127133"><ele>378.0</ele><time>2026-04-18T13:45:23.058Z</time></trkpt><trkpt lat="44.2450133" lon="11.5125767"><ele>382.0</ele><time>2026-04-18T13:45:25.058Z</time></trkpt><trkpt lat="44.2449933" lon="11.5124583"><ele>386.0</ele><time>2026-04-18T13:45:27.057Z</time></trkpt><trkpt lat="44.2449533" lon="11.512365"><ele>390.0</ele><time>2026-04-18T13:45:29.057Z</time></trkpt><trkpt lat="44.2448717" lon="11.512275"><ele>390.0</ele><time>2026-04-18T13:45:31.058Z</time></trkpt><trkpt lat="44.2448167" lon="11.512225"><ele>390.0</ele><time>2026-04-18T13:45:32.057Z</time></trkpt><trkpt lat="44.2447533" lon="11.5121617"><ele>390.0</ele><time>2026-04-18T13:45:33.057Z</time></trkpt><trkpt lat="44.2446883" lon="11.5121"><ele>390.0</ele><time>2026-04-18T13:45:34.058Z</time></trkpt><trkpt lat="44.2446267" lon="11.5120167"><ele>390.0</ele><time>2026-04-18T13:45:35.058Z</time></trkpt><trkpt lat="44.244565" lon="11.5119183"><ele>390.0</ele><time>2026-04-18T13:45:36.058Z</time></trkpt><trkpt lat="44.24451" lon="11.5118183"><ele>390.0</ele><time>2026-04-18T13:45:37.057Z</time></trkpt><trkpt lat="44.2444483" lon="11.5117083"><ele>390.0</ele><time>2026-04-18T13:45:38.058Z</time></trkpt><trkpt lat="44.24438" lon="11.5116233"><ele>390.0</ele><time>2026-04-18T13:45:39.058Z</time></trkpt><trkpt lat="44.24431" lon="11.5115483"><ele>390.0</ele><time>2026-04-18T13:45:40.058Z</time></trkpt><trkpt lat="44.2442583" lon="11.5114717"><ele>390.0</ele><time>2026-04-18T13:45:41.058Z</time></trkpt><trkpt lat="44.244215" lon="11.5114"><ele>390.0</ele><time>2026-04-18T13:45:42.058Z</time></trkpt><trkpt lat="44.2441817" lon="11.5113117"><ele>391.1666666666667</ele><time>2026-04-18T13:45:43.058Z</time></trkpt><trkpt lat="44.24414" lon="11.5112117"><ele>392.33333333333337</ele><time>2026-04-18T13:45:44.057Z</time></trkpt><trkpt lat="44.244105" lon="11.5111"><ele>393.5</ele><time>2026-04-18T13:45:45.056Z</time></trkpt><trkpt lat="44.2440667" lon="11.5109583"><ele>394.6666666666667</ele><time>2026-04-18T13:45:46.057Z</time></trkpt><trkpt lat="44.244035" lon="11.5108383"><ele>395.83333333333337</ele><time>2026-04-18T13:45:47.057Z</time></trkpt><trkpt lat="44.2440167" lon="11.5107367"><ele>397.0</ele><time>2026-04-18T13:45:48.057Z</time></trkpt><trkpt lat="44.244" lon="11.510645"><ele>397.0</ele><time>2026-04-18T13:45:49.057Z</time></trkpt><trkpt lat="44.2439817" lon="11.5104967"><ele>397.0</ele><time>2026-04-18T13:45:51.057Z</time></trkpt><trkpt lat="44.2439433" lon="11.510355"><ele>397.0</ele><time>2026-04-18T13:46:05.057Z</time></trkpt><trkpt lat="44.2438783" lon="11.510155"><ele>397.0</ele><time>2026-04-18T13:46:07.057Z</time></trkpt><trkpt lat="44.2438217" lon="11.5100417"><ele>395.6</ele><time>2026-04-18T13:46:08.057Z</time></trkpt><trkpt lat="44.24375" lon="11.50992"><ele>394.20000000000005</ele><time>2026-04-18T13:46:09.057Z</time></trkpt><trkpt lat="44.2436933" lon="11.5098067"><ele>392.8</ele><time>2026-04-18T13:46:10.057Z</time></trkpt><trkpt lat="44.24365" lon="11.509685"><ele>391.4</ele><time>2026-04-18T13:46:11.057Z</time></trkpt><trkpt lat="44.2436" lon="11.50957"><ele>390.0</ele><time>2026-04-18T13:46:12.057Z</time></trkpt><trkpt lat="44.2435583" lon="11.5094717"><ele>392.5</ele><time>2026-04-18T13:46:13.057Z</time></trkpt><trkpt lat="44.2435267" lon="11.5093733"><ele>395.0</ele><time>2026-04-18T13:46:14.056Z</time></trkpt><trkpt lat="44.2435067" lon="11.509285"><ele>397.5</ele><time>2026-04-18T13:46:15.057Z</time></trkpt><trkpt lat="44.2434917" lon="11.5091933"><ele>400.0</ele><time>2026-04-18T13:46:16.057Z</time></trkpt><trkpt lat="44.2434817" lon="11.5090717"><ele>402.5</ele><time>2026-04-18T13:46:17.057Z</time></trkpt><trkpt lat="44.2434717" lon="11.5089517"><ele>405.0</ele><time>2026-04-18T13:46:18.057Z</time></trkpt><trkpt lat="44.2434717" lon="11.5088383"><ele>406.5</ele><time>2026-04-18T13:46:19.057Z</time></trkpt><trkpt lat="44.243475" lon="11.5087333"><ele>408.0</ele><time>2026-04-18T13:46:20.057Z</time></trkpt><trkpt lat="44.243485" lon="11.5086183"><ele>409.5</ele><time>2026-04-18T13:46:21.057Z</time></trkpt><trkpt lat="44.2435033" lon="11.5085"><ele>411.0</ele><time>2026-04-18T13:46:22.057Z</time></trkpt><trkpt lat="44.2435383" lon="11.5083817"><ele>412.5</ele><time>2026-04-18T13:46:23.057Z</time></trkpt><trkpt lat="44.243565" lon="11.50827"><ele>414.0</ele><time>2026-04-18T13:46:24.057Z</time></trkpt><trkpt lat="44.2435917" lon="11.5081667"><ele>414.0</ele><time>2026-04-18T13:46:25.057Z</time></trkpt><trkpt lat="44.2436183" lon="11.5080767"><ele>414.0</ele><time>2026-04-18T13:46:26.057Z</time></trkpt><trkpt lat="44.24368" lon="11.507965"><ele>414.0</ele><time>2026-04-18T13:46:28.057Z</time></trkpt><trkpt lat="44.2437717" lon="11.5079083"><ele>414.0</ele><time>2026-04-18T13:46:30.056Z</time></trkpt><trkpt lat="44.2438367" lon="11.5078717"><ele>414.0</ele><time>2026-04-18T13:46:31.057Z</time></trkpt><trkpt lat="44.2439267" lon="11.5078283"><ele>414.0</ele><time>2026-04-18T13:46:32.057Z</time></trkpt><trkpt lat="44.2440033" lon="11.5077867"><ele>414.5714285714286</ele><time>2026-04-18T13:46:33.057Z</time></trkpt><trkpt lat="44.24408" lon="11.50775"><ele>415.14285714285717</ele><time>2026-04-18T13:46:34.057Z</time></trkpt><trkpt lat="44.2441533" lon="11.5077267"><ele>415.7142857142857</ele><time>2026-04-18T13:46:35.057Z</time></trkpt><trkpt lat="44.2442183" lon="11.5076967"><ele>416.28571428571433</ele><time>2026-04-18T13:46:36.057Z</time></trkpt><trkpt lat="44.2442883" lon="11.5076483"><ele>416.85714285714283</ele><time>2026-04-18T13:46:37.056Z</time></trkpt><trkpt lat="44.2443417" lon="11.507585"><ele>417.42857142857144</ele><time>2026-04-18T13:46:38.057Z</time></trkpt><trkpt lat="44.2443867" lon="11.50751"><ele>418.0</ele><time>2026-04-18T13:46:39.057Z</time></trkpt><trkpt lat="44.244425" lon="11.5074333"><ele>418.00000000000006</ele><time>2026-04-18T13:46:40.057Z</time></trkpt><trkpt lat="44.2444983" lon="11.50731"><ele>418.0</ele><time>2026-04-18T13:46:42.057Z</time></trkpt><trkpt lat="44.2445383" lon="11.5072333"><ele>418.0</ele><time>2026-04-18T13:46:43.057Z</time></trkpt><trkpt lat="44.2445867" lon="11.50716"><ele>418.0</ele><time>2026-04-18T13:46:44.056Z</time></trkpt><trkpt lat="44.2446467" lon="11.5070717"><ele>418.00000000000006</ele><time>2026-04-18T13:46:45.057Z</time></trkpt><trkpt lat="44.2447233" lon="11.507025"><ele>418.0</ele><time>2026-04-18T13:46:46.057Z</time></trkpt><trkpt lat="44.244785" lon="11.5069467"><ele>416.4</ele><time>2026-04-18T13:46:47.057Z</time></trkpt><trkpt lat="44.2448317" lon="11.5068367"><ele>414.79999999999995</ele><time>2026-04-18T13:46:48.057Z</time></trkpt><trkpt lat="44.2448733" lon="11.5067267"><ele>413.2</ele><time>2026-04-18T13:46:49.057Z</time></trkpt><trkpt lat="44.2449183" lon="11.5066183"><ele>411.6</ele><time>2026-04-18T13:46:50.057Z</time></trkpt><trkpt lat="44.2449567" lon="11.5065067"><ele>410.0</ele><time>2026-04-18T13:46:51.057Z</time></trkpt><trkpt lat="44.24499" lon="11.5063883"><ele>410.0</ele><time>2026-04-18T13:46:52.057Z</time></trkpt><trkpt lat="44.24503" lon="11.5062817"><ele>410.0</ele><time>2026-04-18T13:46:53.057Z</time></trkpt><trkpt lat="44.2450583" lon="11.5061733"><ele>410.0</ele><time>2026-04-18T13:46:54.057Z</time></trkpt><trkpt lat="44.24509" lon="11.5060583"><ele>410.0</ele><time>2026-04-18T13:46:55.057Z</time></trkpt><trkpt lat="44.2451183" lon="11.5059233"><ele>410.0</ele><time>2026-04-18T13:46:56.057Z</time></trkpt><trkpt lat="44.2451317" lon="11.5057867"><ele>408.4</ele><time>2026-04-18T13:46:57.057Z</time></trkpt><trkpt lat="44.2451217" lon="11.5056533"><ele>406.8</ele><time>2026-04-18T13:46:58.057Z</time></trkpt><trkpt lat="44.2451183" lon="11.5055217"><ele>405.20000000000005</ele><time>2026-04-18T13:46:59.057Z</time></trkpt><trkpt lat="44.2451117" lon="11.5054017"><ele>403.6</ele><time>2026-04-18T13:47:00.056Z</time></trkpt><trkpt lat="44.24511" lon="11.5052817"><ele>402.0</ele><time>2026-04-18T13:47:01.057Z</time></trkpt><trkpt lat="44.2451167" lon="11.5051567"><ele>400.0</ele><time>2026-04-18T13:47:02.057Z</time></trkpt><trkpt lat="44.2451317" lon="11.5050517"><ele>398.0</ele><time>2026-04-18T13:47:03.057Z</time></trkpt><trkpt lat="44.2451467" lon="11.50494"><ele>396.0</ele><time>2026-04-18T13:47:04.057Z</time></trkpt><trkpt lat="44.24517" lon="11.5048317"><ele>394.0</ele><time>2026-04-18T13:47:05.057Z</time></trkpt><trkpt lat="44.245195" lon="11.5047233"><ele>392.0</ele><time>2026-04-18T13:47:06.057Z</time></trkpt><trkpt lat="44.245225" lon="11.504585"><ele>390.0</ele><time>2026-04-18T13:47:07.057Z</time></trkpt><trkpt lat="44.2452617" lon="11.5044083"><ele>390.0</ele><time>2026-04-18T13:47:08.057Z</time></trkpt><trkpt lat="44.2452933" lon="11.5042133"><ele>390.0</ele><time>2026-04-18T13:47:09.056Z</time></trkpt><trkpt lat="44.2453183" lon="11.5040367"><ele>390.0</ele><time>2026-04-18T13:47:10.057Z</time></trkpt><trkpt lat="44.24533" lon="11.50385"><ele>390.0</ele><time>2026-04-18T13:47:11.057Z</time></trkpt><trkpt lat="44.2453267" lon="11.5036667"><ele>391.5</ele><time>2026-04-18T13:47:12.057Z</time></trkpt><trkpt lat="44.2453183" lon="11.5034717"><ele>393.0</ele><time>2026-04-18T13:47:13.057Z</time></trkpt><trkpt lat="44.2452917" lon="11.503315"><ele>394.5</ele><time>2026-04-18T13:47:14.057Z</time></trkpt><trkpt lat="44.24525" lon="11.5031367"><ele>396.0</ele><time>2026-04-18T13:47:15.057Z</time></trkpt><trkpt lat="44.245205" lon="11.50296"><ele>399.0</ele><time>2026-04-18T13:47:16.057Z</time></trkpt><trkpt lat="44.2451617" lon="11.502815"><ele>402.0</ele><time>2026-04-18T13:47:17.057Z</time></trkpt><trkpt lat="44.245115" lon="11.5026483"><ele>405.0</ele><time>2026-04-18T13:47:18.057Z</time></trkpt><trkpt lat="44.24506" lon="11.5024917"><ele>408.0</ele><time>2026-04-18T13:47:19.057Z</time></trkpt><trkpt lat="44.2449983" lon="11.5023383"><ele>408.0</ele><time>2026-04-18T13:47:20.057Z</time></trkpt><trkpt lat="44.2449367" lon="11.5022133"><ele>408.0</ele><time>2026-04-18T13:47:21.057Z</time></trkpt><trkpt lat="44.2448617" lon="11.5020867"><ele>408.0</ele><time>2026-04-18T13:47:22.057Z</time></trkpt><trkpt lat="44.24481" lon="11.5019917"><ele>408.0</ele><time>2026-04-18T13:47:23.057Z</time></trkpt><trkpt lat="44.2447617" lon="11.5018917"><ele>408.0</ele><time>2026-04-18T13:47:24.057Z</time></trkpt><trkpt lat="44.24471" lon="11.5018017"><ele>407.8333333333333</ele><time>2026-04-18T13:47:25.056Z</time></trkpt><trkpt lat="44.24465" lon="11.5017067"><ele>407.66666666666663</ele><time>2026-04-18T13:47:26.057Z</time></trkpt><trkpt lat="44.2445933" lon="11.5016267"><ele>407.5</ele><time>2026-04-18T13:47:27.057Z</time></trkpt><trkpt lat="44.2445433" lon="11.5015483"><ele>407.3333333333333</ele><time>2026-04-18T13:47:28.057Z</time></trkpt><trkpt lat="44.2444867" lon="11.5014717"><ele>407.16666666666663</ele><time>2026-04-18T13:47:29.057Z</time></trkpt><trkpt lat="44.2444317" lon="11.5013983"><ele>407.0</ele><time>2026-04-18T13:47:30.057Z</time></trkpt><trkpt lat="44.2443783" lon="11.5013267"><ele>408.8333333333333</ele><time>2026-04-18T13:47:31.057Z</time></trkpt><trkpt lat="44.24432" lon="11.5012467"><ele>410.66666666666663</ele><time>2026-04-18T13:47:32.057Z</time></trkpt><trkpt lat="44.24427" lon="11.5011733"><ele>412.5</ele><time>2026-04-18T13:47:33.057Z</time></trkpt><trkpt lat="44.2442117" lon="11.5010983"><ele>414.33333333333337</ele><time>2026-04-18T13:47:34.057Z</time></trkpt><trkpt lat="44.244155" lon="11.501025"><ele>416.1666666666667</ele><time>2026-04-18T13:47:35.057Z</time></trkpt><trkpt lat="44.2440967" lon="11.5009583"><ele>418.0</ele><time>2026-04-18T13:47:36.057Z</time></trkpt><trkpt lat="44.24404" lon="11.500905"><ele>415.75</ele><time>2026-04-18T13:47:37.057Z</time></trkpt><trkpt lat="44.2439333" lon="11.5008"><ele>413.5</ele><time>2026-04-18T13:47:39.056Z</time></trkpt><trkpt lat="44.2438467" lon="11.5007017"><ele>411.25</ele><time>2026-04-18T13:47:41.057Z</time></trkpt><trkpt lat="44.24377" lon="11.50056"><ele>409.0</ele><time>2026-04-18T13:47:43.057Z</time></trkpt><trkpt lat="44.2436983" lon="11.500425"><ele>413.79999999999995</ele><time>2026-04-18T13:47:45.056Z</time></trkpt><trkpt lat="44.24362" lon="11.5003117"><ele>418.59999999999997</ele><time>2026-04-18T13:47:47.056Z</time></trkpt><trkpt lat="44.24354" lon="11.50021"><ele>423.4</ele><time>2026-04-18T13:47:49.057Z</time></trkpt><trkpt lat="44.2434367" lon="11.5001333"><ele>428.2</ele><time>2026-04-18T13:47:51.057Z</time></trkpt><trkpt lat="44.2433767" lon="11.5001067"><ele>433.0</ele><time>2026-04-18T13:47:52.057Z</time></trkpt><trkpt lat="44.2433083" lon="11.50008"><ele>433.00000000000006</ele><time>2026-04-18T13:47:53.057Z</time></trkpt><trkpt lat="44.2432317" lon="11.500045"><ele>433.0</ele><time>2026-04-18T13:47:54.057Z</time></trkpt><trkpt lat="44.2431483" lon="11.5000083"><ele>433.0</ele><time>2026-04-18T13:47:55.056Z</time></trkpt><trkpt lat="44.243065" lon="11.4999867"><ele>433.0</ele><time>2026-04-18T13:47:56.057Z</time></trkpt><trkpt lat="44.24299" lon="11.4999717"><ele>433.00000000000006</ele><time>2026-04-18T13:47:57.057Z</time></trkpt><trkpt lat="44.2429317" lon="11.499935"><ele>433.0</ele><time>2026-04-18T13:47:58.057Z</time></trkpt><trkpt lat="44.2428517" lon="11.4998567"><ele>431.59999999999997</ele><time>2026-04-18T13:48:00.057Z</time></trkpt><trkpt lat="44.242765" lon="11.4998217"><ele>430.19999999999993</ele><time>2026-04-18T13:48:02.057Z</time></trkpt><trkpt lat="44.2426717" lon="11.4998417"><ele>428.8</ele><time>2026-04-18T13:48:04.056Z</time></trkpt><trkpt lat="44.2425917" lon="11.4999317"><ele>427.4</ele><time>2026-04-18T13:48:06.056Z</time></trkpt><trkpt lat="44.2424867" lon="11.5000283"><ele>426.0</ele><time>2026-04-18T13:48:08.057Z</time></trkpt><trkpt lat="44.2424217" lon="11.5000617"><ele>426.0</ele><time>2026-04-18T13:48:09.057Z</time></trkpt><trkpt lat="44.24234" lon="11.5000833"><ele>426.0</ele><time>2026-04-18T13:48:10.057Z</time></trkpt><trkpt lat="44.2422767" lon="11.50009"><ele>426.0</ele><time>2026-04-18T13:48:11.057Z</time></trkpt><trkpt lat="44.24218" lon="11.5001017"><ele>426.0</ele><time>2026-04-18T13:48:13.057Z</time></trkpt><trkpt lat="44.2421067" lon="11.5000983"><ele>426.0</ele><time>2026-04-18T13:48:15.057Z</time></trkpt><trkpt lat="44.24208" lon="11.5000167"><ele>426.0</ele><time>2026-04-18T13:48:18.057Z</time></trkpt><trkpt lat="44.24211" lon="11.4999267"><ele>422.8333333333333</ele><time>2026-04-18T13:48:20.057Z</time></trkpt><trkpt lat="44.2421367" lon="11.4998367"><ele>419.66666666666663</ele><time>2026-04-18T13:48:21.057Z</time></trkpt><trkpt lat="44.24216" lon="11.49974"><ele>416.5</ele><time>2026-04-18T13:48:22.056Z</time></trkpt><trkpt lat="44.242175" lon="11.4996283"><ele>413.3333333333333</ele><time>2026-04-18T13:48:23.057Z</time></trkpt><trkpt lat="44.242175" lon="11.4995167"><ele>410.16666666666663</ele><time>2026-04-18T13:48:24.057Z</time></trkpt><trkpt lat="44.24217" lon="11.4994083"><ele>407.0</ele><time>2026-04-18T13:48:25.056Z</time></trkpt><trkpt lat="44.2421617" lon="11.4992917"><ele>407.0</ele><time>2026-04-18T13:48:26.056Z</time></trkpt><trkpt lat="44.2421417" lon="11.4991617"><ele>407.0</ele><time>2026-04-18T13:48:27.057Z</time></trkpt><trkpt lat="44.24212" lon="11.4990133"><ele>407.0</ele><time>2026-04-18T13:48:28.057Z</time></trkpt><trkpt lat="44.2420883" lon="11.49889"><ele>407.0</ele><time>2026-04-18T13:48:29.057Z</time></trkpt><trkpt lat="44.2420583" lon="11.4987833"><ele>407.0</ele><time>2026-04-18T13:48:30.057Z</time></trkpt><trkpt lat="44.2420217" lon="11.4986933"><ele>409.6</ele><time>2026-04-18T13:48:31.057Z</time></trkpt><trkpt lat="44.24199" lon="11.4986167"><ele>412.20000000000005</ele><time>2026-04-18T13:48:32.057Z</time></trkpt><trkpt lat="44.2419717" lon="11.4985317"><ele>414.8</ele><time>2026-04-18T13:48:33.057Z</time></trkpt><trkpt lat="44.2419617" lon="11.4983783"><ele>417.4</ele><time>2026-04-18T13:48:35.057Z</time></trkpt><trkpt lat="44.24198" lon="11.49819"><ele>420.0</ele><time>2026-04-18T13:48:37.057Z</time></trkpt><trkpt lat="44.242005" lon="11.4980683"><ele>420.0</ele><time>2026-04-18T13:48:38.057Z</time></trkpt><trkpt lat="44.2420333" lon="11.4979467"><ele>420.0</ele><time>2026-04-18T13:48:39.056Z</time></trkpt><trkpt lat="44.2420567" lon="11.4978433"><ele>420.0</ele><time>2026-04-18T13:48:40.056Z</time></trkpt><trkpt lat="44.242075" lon="11.497725"><ele>420.0</ele><time>2026-04-18T13:48:41.056Z</time></trkpt><trkpt lat="44.24209" lon="11.4976133"><ele>420.0</ele><time>2026-04-18T13:48:42.056Z</time></trkpt><trkpt lat="44.2421083" lon="11.4975067"><ele>420.0</ele><time>2026-04-18T13:48:43.056Z</time></trkpt><trkpt lat="44.24212" lon="11.4974133"><ele>420.3333333333333</ele><time>2026-04-18T13:48:44.056Z</time></trkpt><trkpt lat="44.2421217" lon="11.4973033"><ele>420.66666666666663</ele><time>2026-04-18T13:48:45.056Z</time></trkpt><trkpt lat="44.24211" lon="11.4972133"><ele>421.0</ele><time>2026-04-18T13:48:46.055Z</time></trkpt><trkpt lat="44.24207" lon="11.4971117"><ele>421.3333333333333</ele><time>2026-04-18T13:48:47.055Z</time></trkpt><trkpt lat="44.2420033" lon="11.497015"><ele>421.66666666666663</ele><time>2026-04-18T13:48:48.056Z</time></trkpt><trkpt lat="44.2419633" lon="11.4969367"><ele>422.0</ele><time>2026-04-18T13:48:49.056Z</time></trkpt><trkpt lat="44.2419333" lon="11.49685"><ele>424.40000000000003</ele><time>2026-04-18T13:48:50.056Z</time></trkpt><trkpt lat="44.241885" lon="11.4967567"><ele>426.8</ele><time>2026-04-18T13:48:51.056Z</time></trkpt><trkpt lat="44.2418483" lon="11.4966367"><ele>429.2</ele><time>2026-04-18T13:48:52.056Z</time></trkpt><trkpt lat="44.241825" lon="11.4965067"><ele>431.6</ele><time>2026-04-18T13:48:53.056Z</time></trkpt><trkpt lat="44.2418117" lon="11.496375"><ele>434.0</ele><time>2026-04-18T13:48:54.056Z</time></trkpt><trkpt lat="44.2418067" lon="11.49624"><ele>435.66666666666663</ele><time>2026-04-18T13:48:55.056Z</time></trkpt><trkpt lat="44.241805" lon="11.49611"><ele>437.3333333333333</ele><time>2026-04-18T13:48:56.056Z</time></trkpt><trkpt lat="44.2417883" lon="11.49599"><ele>439.0</ele><time>2026-04-18T13:48:57.056Z</time></trkpt><trkpt lat="44.2417833" lon="11.49589"><ele>440.66666666666663</ele><time>2026-04-18T13:48:58.056Z</time></trkpt><trkpt lat="44.2417683" lon="11.4957233"><ele>442.3333333333333</ele><time>2026-04-18T13:49:00.056Z</time></trkpt><trkpt lat="44.2417383" lon="11.4956333"><ele>444.0</ele><time>2026-04-18T13:49:26.056Z</time></trkpt><trkpt lat="44.2417733" lon="11.4954517"><ele>446.79999999999995</ele><time>2026-04-18T13:49:28.056Z</time></trkpt><trkpt lat="44.2417983" lon="11.4953133"><ele>449.59999999999997</ele><time>2026-04-18T13:49:29.056Z</time></trkpt><trkpt lat="44.2418183" lon="11.495185"><ele>452.4</ele><time>2026-04-18T13:49:30.055Z</time></trkpt><trkpt lat="44.2418417" lon="11.4950567"><ele>455.2</ele><time>2026-04-18T13:49:31.056Z</time></trkpt><trkpt lat="44.2418767" lon="11.49493"><ele>458.0</ele><time>2026-04-18T13:49:32.055Z</time></trkpt><trkpt lat="44.2419183" lon="11.4947783"><ele>458.0</ele><time>2026-04-18T13:49:33.056Z</time></trkpt><trkpt lat="44.241965" lon="11.4946217"><ele>458.0</ele><time>2026-04-18T13:49:34.056Z</time></trkpt><trkpt lat="44.2420083" lon="11.4944567"><ele>458.0</ele><time>2026-04-18T13:49:35.055Z</time></trkpt><trkpt lat="44.2420467" lon="11.4942983"><ele>458.0</ele><time>2026-04-18T13:49:36.056Z</time></trkpt><trkpt lat="44.24209" lon="11.49415"><ele>460.59999999999997</ele><time>2026-04-18T13:49:37.056Z</time></trkpt><trkpt lat="44.242105" lon="11.49401"><ele>463.19999999999993</ele><time>2026-04-18T13:49:38.056Z</time></trkpt><trkpt lat="44.2420967" lon="11.4938683"><ele>465.8</ele><time>2026-04-18T13:49:39.056Z</time></trkpt><trkpt lat="44.2420667" lon="11.493745"><ele>468.4</ele><time>2026-04-18T13:49:40.056Z</time></trkpt><trkpt lat="44.2420133" lon="11.4936517"><ele>471.0</ele><time>2026-04-18T13:49:41.056Z</time></trkpt><trkpt lat="44.2419083" lon="11.49355"><ele>471.0</ele><time>2026-04-18T13:49:42.056Z</time></trkpt><trkpt lat="44.2417717" lon="11.4934617"><ele>471.0</ele><time>2026-04-18T13:49:43.056Z</time></trkpt><trkpt lat="44.241625" lon="11.4933933"><ele>471.0</ele><time>2026-04-18T13:49:44.056Z</time></trkpt><trkpt lat="44.2414917" lon="11.49333"><ele>471.0</ele><time>2026-04-18T13:49:45.056Z</time></trkpt><trkpt lat="44.24137" lon="11.4932633"><ele>471.75</ele><time>2026-04-18T13:49:46.055Z</time></trkpt><trkpt lat="44.2412517" lon="11.49318"><ele>472.5</ele><time>2026-04-18T13:49:47.055Z</time></trkpt><trkpt lat="44.24115" lon="11.4930783"><ele>473.25</ele><time>2026-04-18T13:49:48.056Z</time></trkpt><trkpt lat="44.2410733" lon="11.4929683"><ele>474.0</ele><time>2026-04-18T13:49:49.055Z</time></trkpt><trkpt lat="44.24102" lon="11.49285"><ele>474.0</ele><time>2026-04-18T13:49:50.056Z</time></trkpt><trkpt lat="44.2409867" lon="11.49272"><ele>474.0</ele><time>2026-04-18T13:49:51.056Z</time></trkpt><trkpt lat="44.240985" lon="11.4925767"><ele>474.0</ele><time>2026-04-18T13:49:52.056Z</time></trkpt><trkpt lat="44.24099" lon="11.492425"><ele>474.0</ele><time>2026-04-18T13:49:53.055Z</time></trkpt><trkpt lat="44.2410117" lon="11.492265"><ele>474.0</ele><time>2026-04-18T13:49:54.055Z</time></trkpt><trkpt lat="44.24105" lon="11.4920917"><ele>472.0</ele><time>2026-04-18T13:49:55.056Z</time></trkpt><trkpt lat="44.2410967" lon="11.491915"><ele>470.0</ele><time>2026-04-18T13:49:56.056Z</time></trkpt><trkpt lat="44.2411283" lon="11.4917417"><ele>468.0</ele><time>2026-04-18T13:49:57.055Z</time></trkpt><trkpt lat="44.241165" lon="11.4915467"><ele>466.0</ele><time>2026-04-18T13:49:58.056Z</time></trkpt><trkpt lat="44.2411617" lon="11.49133"><ele>466.5</ele><time>2026-04-18T13:49:59.056Z</time></trkpt><trkpt lat="44.24116" lon="11.491115"><ele>467.0</ele><time>2026-04-18T13:50:00.056Z</time></trkpt><trkpt lat="44.2411533" lon="11.4909233"><ele>467.5</ele><time>2026-04-18T13:50:01.056Z</time></trkpt><trkpt lat="44.2411283" lon="11.4907467"><ele>468.0</ele><time>2026-04-18T13:50:02.056Z</time></trkpt><trkpt lat="44.2410917" lon="11.490595"><ele>468.0</ele><time>2026-04-18T13:50:03.056Z</time></trkpt><trkpt lat="44.2410467" lon="11.49047"><ele>467.99999999999994</ele><time>2026-04-18T13:50:04.056Z</time></trkpt><trkpt lat="44.2410183" lon="11.4903383"><ele>467.99999999999994</ele><time>2026-04-18T13:50:05.056Z</time></trkpt><trkpt lat="44.2410183" lon="11.49021"><ele>468.0</ele><time>2026-04-18T13:50:06.056Z</time></trkpt><trkpt lat="44.2410433" lon="11.490085"><ele>468.0</ele><time>2026-04-18T13:50:07.056Z</time></trkpt><trkpt lat="44.2410867" lon="11.4899633"><ele>469.25</ele><time>2026-04-18T13:50:08.055Z</time></trkpt><trkpt lat="44.24115" lon="11.4898617"><ele>470.5</ele><time>2026-04-18T13:50:09.055Z</time></trkpt><trkpt lat="44.2412517" lon="11.4897817"><ele>471.75</ele><time>2026-04-18T13:50:10.056Z</time></trkpt><trkpt lat="44.2413667" lon="11.4897083"><ele>473.0</ele><time>2026-04-18T13:50:11.055Z</time></trkpt><trkpt lat="44.241505" lon="11.4896233"><ele>472.3333333333333</ele><time>2026-04-18T13:50:12.056Z</time></trkpt><trkpt lat="44.2416383" lon="11.4895283"><ele>471.66666666666663</ele><time>2026-04-18T13:50:13.056Z</time></trkpt><trkpt lat="44.2417817" lon="11.4894083"><ele>471.0</ele><time>2026-04-18T13:50:14.056Z</time></trkpt><trkpt lat="44.2419" lon="11.4892783"><ele>471.0</ele><time>2026-04-18T13:50:15.055Z</time></trkpt><trkpt lat="44.24201" lon="11.4891367"><ele>471.0</ele><time>2026-04-18T13:50:16.056Z</time></trkpt><trkpt lat="44.2421067" lon="11.488965"><ele>471.0</ele><time>2026-04-18T13:50:17.056Z</time></trkpt><trkpt lat="44.2421883" lon="11.4887883"><ele>466.66666666666663</ele><time>2026-04-18T13:50:18.056Z</time></trkpt><trkpt lat="44.242265" lon="11.4886"><ele>462.3333333333333</ele><time>2026-04-18T13:50:19.056Z</time></trkpt><trkpt lat="44.2422733" lon="11.4883583"><ele>458.0</ele><time>2026-04-18T13:50:20.056Z</time></trkpt><trkpt lat="44.2422967" lon="11.4881483"><ele>462.59999999999997</ele><time>2026-04-18T13:50:21.056Z</time></trkpt><trkpt lat="44.24234" lon="11.4879817"><ele>467.19999999999993</ele><time>2026-04-18T13:50:22.056Z</time></trkpt><trkpt lat="44.2424" lon="11.4878533"><ele>471.8</ele><time>2026-04-18T13:50:23.056Z</time></trkpt><trkpt lat="44.2424483" lon="11.4877267"><ele>476.4</ele><time>2026-04-18T13:50:24.055Z</time></trkpt><trkpt lat="44.24249" lon="11.4876"><ele>481.0</ele><time>2026-04-18T13:50:25.056Z</time></trkpt><trkpt lat="44.2425133" lon="11.487465"><ele>481.0</ele><time>2026-04-18T13:50:26.056Z</time></trkpt><trkpt lat="44.2425367" lon="11.4873183"><ele>481.0</ele><time>2026-04-18T13:50:27.056Z</time></trkpt><trkpt lat="44.2425217" lon="11.48717"><ele>481.0</ele><time>2026-04-18T13:50:28.056Z</time></trkpt><trkpt lat="44.2424317" lon="11.4869817"><ele>481.0</ele><time>2026-04-18T13:50:29.056Z</time></trkpt><trkpt lat="44.242385" lon="11.4868217"><ele>480.83333333333337</ele><time>2026-04-18T13:50:30.055Z</time></trkpt><trkpt lat="44.2423483" lon="11.48669"><ele>480.6666666666667</ele><time>2026-04-18T13:50:31.056Z</time></trkpt><trkpt lat="44.24232" lon="11.4865633"><ele>480.5</ele><time>2026-04-18T13:50:32.055Z</time></trkpt><trkpt lat="44.242285" lon="11.4864433"><ele>480.33333333333337</ele><time>2026-04-18T13:50:33.056Z</time></trkpt><trkpt lat="44.2422633" lon="11.4863417"><ele>480.1666666666667</ele><time>2026-04-18T13:50:34.056Z</time></trkpt><trkpt lat="44.2422467" lon="11.48625"><ele>480.0</ele><time>2026-04-18T13:50:35.056Z</time></trkpt><trkpt lat="44.2422133" lon="11.48616"><ele>475.1666666666667</ele><time>2026-04-18T13:50:36.056Z</time></trkpt><trkpt lat="44.2421817" lon="11.48605"><ele>470.33333333333337</ele><time>2026-04-18T13:50:37.055Z</time></trkpt><trkpt lat="44.2421367" lon="11.4859683"><ele>465.5</ele><time>2026-04-18T13:50:38.056Z</time></trkpt><trkpt lat="44.2420933" lon="11.4858667"><ele>460.6666666666667</ele><time>2026-04-18T13:50:39.056Z</time></trkpt><trkpt lat="44.24206" lon="11.4857767"><ele>455.83333333333337</ele><time>2026-04-18T13:50:40.056Z</time></trkpt><trkpt lat="44.2420467" lon="11.4856717"><ele>451.0</ele><time>2026-04-18T13:50:41.055Z</time></trkpt><trkpt lat="44.2420483" lon="11.4855517"><ele>451.0</ele><time>2026-04-18T13:50:42.056Z</time></trkpt><trkpt lat="44.242065" lon="11.4854183"><ele>451.0</ele><time>2026-04-18T13:50:43.056Z</time></trkpt><trkpt lat="44.242105" lon="11.4852667"><ele>451.0</ele><time>2026-04-18T13:50:44.056Z</time></trkpt><trkpt lat="44.2421933" lon="11.48511"><ele>451.0</ele><time>2026-04-18T13:50:45.056Z</time></trkpt><trkpt lat="44.2422567" lon="11.4849617"><ele>451.0</ele><time>2026-04-18T13:50:46.056Z</time></trkpt><trkpt lat="44.2422967" lon="11.4848383"><ele>451.0</ele><time>2026-04-18T13:50:47.056Z</time></trkpt><trkpt lat="44.2423217" lon="11.4847233"><ele>451.0</ele><time>2026-04-18T13:50:48.056Z</time></trkpt><trkpt lat="44.2423417" lon="11.4846333"><ele>451.0</ele><time>2026-04-18T13:50:49.056Z</time></trkpt><trkpt lat="44.2423533" lon="11.484495"><ele>451.0</ele><time>2026-04-18T13:50:51.055Z</time></trkpt><trkpt lat="44.242235" lon="11.484565"><ele>450.5</ele><time>2026-04-18T13:51:12.056Z</time></trkpt><trkpt lat="44.242155" lon="11.4844433"><ele>450.0</ele><time>2026-04-18T13:51:39.055Z</time></trkpt><trkpt lat="44.2421217" lon="11.484335"><ele>449.5</ele><time>2026-04-18T13:51:41.055Z</time></trkpt><trkpt lat="44.2422117" lon="11.4841433"><ele>449.0</ele><time>2026-04-18T13:51:43.055Z</time></trkpt><trkpt lat="44.24228" lon="11.48403"><ele>456.2</ele><time>2026-04-18T13:51:44.055Z</time></trkpt><trkpt lat="44.2423167" lon="11.4839167"><ele>463.4</ele><time>2026-04-18T13:51:45.055Z</time></trkpt><trkpt lat="44.2423467" lon="11.4837917"><ele>470.6</ele><time>2026-04-18T13:51:46.055Z</time></trkpt><trkpt lat="44.2423733" lon="11.483685"><ele>477.8</ele><time>2026-04-18T13:51:47.055Z</time></trkpt><trkpt lat="44.2423883" lon="11.4835633"><ele>485.0</ele><time>2026-04-18T13:51:48.055Z</time></trkpt><trkpt lat="44.2423967" lon="11.48342"><ele>485.4</ele><time>2026-04-18T13:51:49.055Z</time></trkpt><trkpt lat="44.24238" lon="11.4832983"><ele>485.8</ele><time>2026-04-18T13:51:50.055Z</time></trkpt><trkpt lat="44.2423483" lon="11.48318"><ele>486.20000000000005</ele><time>2026-04-18T13:51:51.055Z</time></trkpt><trkpt lat="44.2422983" lon="11.4830617"><ele>486.6</ele><time>2026-04-18T13:51:52.055Z</time></trkpt><trkpt lat="44.2422433" lon="11.48294"><ele>487.0</ele><time>2026-04-18T13:51:53.055Z</time></trkpt><trkpt lat="44.2421767" lon="11.4828167"><ele>484.40000000000003</ele><time>2026-04-18T13:51:54.054Z</time></trkpt><trkpt lat="44.2421083" lon="11.4826883"><ele>481.80000000000007</ele><time>2026-04-18T13:51:55.055Z</time></trkpt><trkpt lat="44.2420467" lon="11.4825633"><ele>479.2</ele><time>2026-04-18T13:51:56.055Z</time></trkpt><trkpt lat="44.2419867" lon="11.4824467"><ele>476.6</ele><time>2026-04-18T13:51:57.055Z</time></trkpt><trkpt lat="44.2419283" lon="11.4823567"><ele>474.0</ele><time>2026-04-18T13:51:58.055Z</time></trkpt><trkpt lat="44.2418283" lon="11.4822583"><ele>474.0</ele><time>2026-04-18T13:51:59.055Z</time></trkpt><trkpt lat="44.24174" lon="11.48219"><ele>474.0</ele><time>2026-04-18T13:52:00.054Z</time></trkpt><trkpt lat="44.24163" lon="11.4821333"><ele>474.0</ele><time>2026-04-18T13:52:01.055Z</time></trkpt><trkpt lat="44.241515" lon="11.48207"><ele>474.0</ele><time>2026-04-18T13:52:02.055Z</time></trkpt><trkpt lat="44.2414033" lon="11.4820017"><ele>476.2</ele><time>2026-04-18T13:52:03.055Z</time></trkpt><trkpt lat="44.2413033" lon="11.4819367"><ele>478.4</ele><time>2026-04-18T13:52:04.055Z</time></trkpt><trkpt lat="44.241225" lon="11.4818633"><ele>480.6</ele><time>2026-04-18T13:52:05.055Z</time></trkpt><trkpt lat="44.24117" lon="11.4817567"><ele>482.8</ele><time>2026-04-18T13:52:06.055Z</time></trkpt><trkpt lat="44.241135" lon="11.4816467"><ele>485.0</ele><time>2026-04-18T13:52:07.055Z</time></trkpt><trkpt lat="44.2411067" lon="11.481555"><ele>484.99999999999994</ele><time>2026-04-18T13:52:08.055Z</time></trkpt><trkpt lat="44.24111" lon="11.4814583"><ele>485.0</ele><time>2026-04-18T13:52:09.054Z</time></trkpt><trkpt lat="44.2411583" lon="11.4813783"><ele>485.0</ele><time>2026-04-18T13:52:10.055Z</time></trkpt><trkpt lat="44.2412167" lon="11.4813067"><ele>485.0</ele><time>2026-04-18T13:52:11.055Z</time></trkpt><trkpt lat="44.2412883" lon="11.481245"><ele>484.99999999999994</ele><time>2026-04-18T13:52:12.054Z</time></trkpt><trkpt lat="44.24138" lon="11.4812033"><ele>485.0</ele><time>2026-04-18T13:52:13.055Z</time></trkpt><trkpt lat="44.2414983" lon="11.4812017"><ele>485.5</ele><time>2026-04-18T13:52:14.055Z</time></trkpt><trkpt lat="44.2416283" lon="11.481255"><ele>486.0</ele><time>2026-04-18T13:52:15.054Z</time></trkpt><trkpt lat="44.2417617" lon="11.4813333"><ele>486.5</ele><time>2026-04-18T13:52:16.055Z</time></trkpt><trkpt lat="44.2418933" lon="11.4814333"><ele>487.0</ele><time>2026-04-18T13:52:17.055Z</time></trkpt><trkpt lat="44.242025" lon="11.4815567"><ele>487.0</ele><time>2026-04-18T13:52:18.055Z</time></trkpt><trkpt lat="44.2421467" lon="11.481675"><ele>487.0</ele><time>2026-04-18T13:52:19.055Z</time></trkpt><trkpt lat="44.2422667" lon="11.4817817"><ele>487.0</ele><time>2026-04-18T13:52:20.055Z</time></trkpt><trkpt lat="44.2424" lon="11.4818767"><ele>487.0</ele><time>2026-04-18T13:52:21.055Z</time></trkpt><trkpt lat="44.2425317" lon="11.48196"><ele>485.25</ele><time>2026-04-18T13:52:22.055Z</time></trkpt><trkpt lat="44.2426617" lon="11.4820117"><ele>483.5</ele><time>2026-04-18T13:52:23.055Z</time></trkpt><trkpt lat="44.2427883" lon="11.4820267"><ele>481.75</ele><time>2026-04-18T13:52:24.055Z</time></trkpt><trkpt lat="44.2429233" lon="11.4820033"><ele>480.0</ele><time>2026-04-18T13:52:25.055Z</time></trkpt><trkpt lat="44.24308" lon="11.481955"><ele>480.0</ele><time>2026-04-18T13:52:26.055Z</time></trkpt><trkpt lat="44.2432333" lon="11.4819333"><ele>480.0</ele><time>2026-04-18T13:52:27.055Z</time></trkpt><trkpt lat="44.2433733" lon="11.4819367"><ele>480.0</ele><time>2026-04-18T13:52:28.054Z</time></trkpt><trkpt lat="44.24351" lon="11.48198"><ele>480.0</ele><time>2026-04-18T13:52:29.054Z</time></trkpt><trkpt lat="44.243635" lon="11.4820483"><ele>482.75</ele><time>2026-04-18T13:52:30.055Z</time></trkpt><trkpt lat="44.2437617" lon="11.4821417"><ele>485.5</ele><time>2026-04-18T13:52:31.055Z</time></trkpt><trkpt lat="44.2438833" lon="11.482235"><ele>488.25</ele><time>2026-04-18T13:52:32.055Z</time></trkpt><trkpt lat="44.24403" lon="11.4823117"><ele>491.0</ele><time>2026-04-18T13:52:33.055Z</time></trkpt><trkpt lat="44.2441783" lon="11.48235"><ele>491.0</ele><time>2026-04-18T13:52:34.055Z</time></trkpt><trkpt lat="44.244315" lon="11.48238"><ele>491.0</ele><time>2026-04-18T13:52:35.055Z</time></trkpt><trkpt lat="44.2444517" lon="11.4823533"><ele>491.0</ele><time>2026-04-18T13:52:36.054Z</time></trkpt><trkpt lat="44.2446017" lon="11.482305"><ele>491.0</ele><time>2026-04-18T13:52:37.055Z</time></trkpt><trkpt lat="44.24476" lon="11.4822667"><ele>490.3333333333333</ele><time>2026-04-18T13:52:38.055Z</time></trkpt><trkpt lat="44.244925" lon="11.4822383"><ele>489.66666666666663</ele><time>2026-04-18T13:52:39.055Z</time></trkpt><trkpt lat="44.2450867" lon="11.482205"><ele>489.0</ele><time>2026-04-18T13:52:40.055Z</time></trkpt><trkpt lat="44.2452383" lon="11.482125"><ele>484.0</ele><time>2026-04-18T13:52:41.054Z</time></trkpt><trkpt lat="44.2453967" lon="11.48206"><ele>479.0</ele><time>2026-04-18T13:52:42.055Z</time></trkpt><trkpt lat="44.2455383" lon="11.481985"><ele>474.0</ele><time>2026-04-18T13:52:43.055Z</time></trkpt><trkpt lat="44.24567" lon="11.4819"><ele>474.0</ele><time>2026-04-18T13:52:44.055Z</time></trkpt><trkpt lat="44.2457933" lon="11.481815"><ele>474.0</ele><time>2026-04-18T13:52:45.054Z</time></trkpt><trkpt lat="44.24592" lon="11.48172"><ele>474.0</ele><time>2026-04-18T13:52:46.055Z</time></trkpt><trkpt lat="44.2460433" lon="11.4816283"><ele>474.0</ele><time>2026-04-18T13:52:47.055Z</time></trkpt><trkpt lat="44.2461783" lon="11.4815583"><ele>474.0</ele><time>2026-04-18T13:52:48.055Z</time></trkpt><trkpt lat="44.2463233" lon="11.4815"><ele>474.0</ele><time>2026-04-18T13:52:49.055Z</time></trkpt><trkpt lat="44.246465" lon="11.481435"><ele>474.0</ele><time>2026-04-18T13:52:50.054Z</time></trkpt><trkpt lat="44.246615" lon="11.4813867"><ele>473.0</ele><time>2026-04-18T13:52:51.055Z</time></trkpt><trkpt lat="44.246765" lon="11.4813583"><ele>472.0</ele><time>2026-04-18T13:52:52.055Z</time></trkpt><trkpt lat="44.246925" lon="11.4813467"><ele>471.0</ele><time>2026-04-18T13:52:53.055Z</time></trkpt><trkpt lat="44.24708" lon="11.4813633"><ele>471.0</ele><time>2026-04-18T13:52:54.055Z</time></trkpt><trkpt lat="44.2472467" lon="11.4814083"><ele>471.0</ele><time>2026-04-18T13:52:55.055Z</time></trkpt><trkpt lat="44.2473883" lon="11.481465"><ele>471.0</ele><time>2026-04-18T13:52:56.055Z</time></trkpt><trkpt lat="44.24752" lon="11.4815433"><ele>470.25</ele><time>2026-04-18T13:52:57.055Z</time></trkpt><trkpt lat="44.24763" lon="11.4816283"><ele>469.5</ele><time>2026-04-18T13:52:58.055Z</time></trkpt><trkpt lat="44.24775" lon="11.481725"><ele>468.75</ele><time>2026-04-18T13:52:59.054Z</time></trkpt><trkpt lat="44.24787" lon="11.481775"><ele>468.0</ele><time>2026-04-18T13:53:00.055Z</time></trkpt><trkpt lat="44.24799" lon="11.4818067"><ele>468.0</ele><time>2026-04-18T13:53:01.055Z</time></trkpt><trkpt lat="44.2481183" lon="11.4818233"><ele>468.0</ele><time>2026-04-18T13:53:02.055Z</time></trkpt><trkpt lat="44.248245" lon="11.48183"><ele>468.0</ele><time>2026-04-18T13:53:03.055Z</time></trkpt><trkpt lat="44.2483717" lon="11.4818317"><ele>468.0</ele><time>2026-04-18T13:53:04.055Z</time></trkpt><trkpt lat="44.2484917" lon="11.4817983"><ele>467.59999999999997</ele><time>2026-04-18T13:53:05.055Z</time></trkpt><trkpt lat="44.24862" lon="11.4817767"><ele>467.19999999999993</ele><time>2026-04-18T13:53:06.054Z</time></trkpt><trkpt lat="44.2487383" lon="11.4817633"><ele>466.8</ele><time>2026-04-18T13:53:07.055Z</time></trkpt><trkpt lat="44.2488467" lon="11.48175"><ele>466.4</ele><time>2026-04-18T13:53:08.054Z</time></trkpt><trkpt lat="44.248935" lon="11.4817417"><ele>466.0</ele><time>2026-04-18T13:53:09.055Z</time></trkpt><trkpt lat="44.24901" lon="11.481735"><ele>464.50000000000006</ele><time>2026-04-18T13:53:10.055Z</time></trkpt><trkpt lat="44.2490783" lon="11.4817217"><ele>463.0</ele><time>2026-04-18T13:53:11.055Z</time></trkpt><trkpt lat="44.249185" lon="11.4816917"><ele>461.5</ele><time>2026-04-18T13:53:13.054Z</time></trkpt><trkpt lat="44.2492583" lon="11.48167"><ele>460.0</ele><time>2026-04-18T13:53:15.055Z</time></trkpt><trkpt lat="44.2493217" lon="11.4816517"><ele>458.50000000000006</ele><time>2026-04-18T13:53:17.055Z</time></trkpt><trkpt lat="44.2493983" lon="11.48159"><ele>457.0</ele><time>2026-04-18T13:53:19.054Z</time></trkpt><trkpt lat="44.2494983" lon="11.4815033"><ele>457.0</ele><time>2026-04-18T13:53:21.055Z</time></trkpt><trkpt lat="44.249615" lon="11.481405"><ele>457.00000000000006</ele><time>2026-04-18T13:53:23.055Z</time></trkpt><trkpt lat="44.249685" lon="11.4813367"><ele>457.00000000000006</ele><time>2026-04-18T13:53:24.055Z</time></trkpt><trkpt lat="44.2497617" lon="11.4812317"><ele>457.0</ele><time>2026-04-18T13:53:25.055Z</time></trkpt><trkpt lat="44.249835" lon="11.4811083"><ele>457.0</ele><time>2026-04-18T13:53:26.055Z</time></trkpt><trkpt lat="44.2499033" lon="11.4809733"><ele>454.75</ele><time>2026-04-18T13:53:27.055Z</time></trkpt><trkpt lat="44.2499717" lon="11.4808383"><ele>452.5</ele><time>2026-04-18T13:53:28.055Z</time></trkpt><trkpt lat="44.2500417" lon="11.4807133"><ele>450.25</ele><time>2026-04-18T13:53:29.055Z</time></trkpt><trkpt lat="44.2501217" lon="11.4805783"><ele>448.0</ele><time>2026-04-18T13:53:30.055Z</time></trkpt><trkpt lat="44.25021" lon="11.4804483"><ele>445.0</ele><time>2026-04-18T13:53:31.055Z</time></trkpt><trkpt lat="44.250315" lon="11.4803233"><ele>442.0</ele><time>2026-04-18T13:53:32.055Z</time></trkpt><trkpt lat="44.2504233" lon="11.4801983"><ele>439.0</ele><time>2026-04-18T13:53:33.054Z</time></trkpt><trkpt lat="44.2505383" lon="11.4800783"><ele>436.0</ele><time>2026-04-18T13:53:34.055Z</time></trkpt><trkpt lat="44.25066" lon="11.4799667"><ele>433.25</ele><time>2026-04-18T13:53:35.055Z</time></trkpt><trkpt lat="44.2507817" lon="11.479875"><ele>430.5</ele><time>2026-04-18T13:53:36.054Z</time></trkpt><trkpt lat="44.250895" lon="11.47978"><ele>427.75</ele><time>2026-04-18T13:53:37.055Z</time></trkpt><trkpt lat="44.2510033" lon="11.4796783"><ele>425.0</ele><time>2026-04-18T13:53:38.055Z</time></trkpt><trkpt lat="44.2510867" lon="11.4795633"><ele>423.8</ele><time>2026-04-18T13:53:39.054Z</time></trkpt><trkpt lat="44.2511467" lon="11.4794517"><ele>422.6</ele><time>2026-04-18T13:53:40.055Z</time></trkpt><trkpt lat="44.2511883" lon="11.4793417"><ele>421.4</ele><time>2026-04-18T13:53:41.054Z</time></trkpt><trkpt lat="44.251215" lon="11.47922"><ele>420.2</ele><time>2026-04-18T13:53:42.054Z</time></trkpt><trkpt lat="44.2512433" lon="11.47907"><ele>419.0</ele><time>2026-04-18T13:53:43.055Z</time></trkpt><trkpt lat="44.251265" lon="11.4789367"><ele>419.0</ele><time>2026-04-18T13:53:44.055Z</time></trkpt><trkpt lat="44.25129" lon="11.478795"><ele>419.0</ele><time>2026-04-18T13:53:45.055Z</time></trkpt><trkpt lat="44.2513117" lon="11.4786417"><ele>419.0</ele><time>2026-04-18T13:53:46.055Z</time></trkpt><trkpt lat="44.2513383" lon="11.4784817"><ele>419.0</ele><time>2026-04-18T13:53:47.054Z</time></trkpt><trkpt lat="44.25136" lon="11.478315"><ele>417.0</ele><time>2026-04-18T13:53:48.055Z</time></trkpt><trkpt lat="44.2513967" lon="11.47815"><ele>415.0</ele><time>2026-04-18T13:53:49.055Z</time></trkpt><trkpt lat="44.2514267" lon="11.4780033"><ele>413.0</ele><time>2026-04-18T13:53:50.054Z</time></trkpt><trkpt lat="44.25145" lon="11.4778517"><ele>411.0</ele><time>2026-04-18T13:53:51.054Z</time></trkpt><trkpt lat="44.2514733" lon="11.477725"><ele>409.0</ele><time>2026-04-18T13:53:52.054Z</time></trkpt><trkpt lat="44.2514917" lon="11.4776133"><ele>407.00000000000006</ele><time>2026-04-18T13:53:53.055Z</time></trkpt><trkpt lat="44.2515" lon="11.4775083"><ele>405.0</ele><time>2026-04-18T13:53:54.055Z</time></trkpt><trkpt lat="44.2515183" lon="11.4774117"><ele>403.0</ele><time>2026-04-18T13:53:55.055Z</time></trkpt><trkpt lat="44.2515483" lon="11.47733"><ele>401.0</ele><time>2026-04-18T13:53:56.055Z</time></trkpt><trkpt lat="44.251605" lon="11.47719"><ele>399.00000000000006</ele><time>2026-04-18T13:53:58.055Z</time></trkpt><trkpt lat="44.25166" lon="11.4771183"><ele>397.0</ele><time>2026-04-18T13:54:00.055Z</time></trkpt><trkpt lat="44.2517383" lon="11.47718"><ele>397.0</ele><time>2026-04-18T13:54:03.055Z</time></trkpt><trkpt lat="44.2518167" lon="11.4773417"><ele>397.0</ele><time>2026-04-18T13:54:05.054Z</time></trkpt><trkpt lat="44.25188" lon="11.4774667"><ele>397.0</ele><time>2026-04-18T13:54:06.055Z</time></trkpt><trkpt lat="44.251945" lon="11.4776033"><ele>397.0</ele><time>2026-04-18T13:54:07.055Z</time></trkpt><trkpt lat="44.2520117" lon="11.47774"><ele>397.0</ele><time>2026-04-18T13:54:08.055Z</time></trkpt><trkpt lat="44.2520783" lon="11.4778867"><ele>397.0</ele><time>2026-04-18T13:54:09.055Z</time></trkpt><trkpt lat="44.25216" lon="11.4780317"><ele>397.0</ele><time>2026-04-18T13:54:10.055Z</time></trkpt><trkpt lat="44.2522383" lon="11.4781733"><ele>397.0</ele><time>2026-04-18T13:54:11.055Z</time></trkpt><trkpt lat="44.2523367" lon="11.4783267"><ele>396.75</ele><time>2026-04-18T13:54:12.055Z</time></trkpt><trkpt lat="44.2524183" lon="11.4784833"><ele>396.5</ele><time>2026-04-18T13:54:13.055Z</time></trkpt><trkpt lat="44.2524967" lon="11.478635"><ele>396.25</ele><time>2026-04-18T13:54:14.054Z</time></trkpt><trkpt lat="44.25258" lon="11.478765"><ele>396.0</ele><time>2026-04-18T13:54:15.055Z</time></trkpt><trkpt lat="44.25265" lon="11.4788767"><ele>397.8</ele><time>2026-04-18T13:54:16.055Z</time></trkpt><trkpt lat="44.2527183" lon="11.47899"><ele>399.6</ele><time>2026-04-18T13:54:17.054Z</time></trkpt><trkpt lat="44.2527867" lon="11.4791017"><ele>401.4</ele><time>2026-04-18T13:54:18.055Z</time></trkpt><trkpt lat="44.2528633" lon="11.4792083"><ele>403.2</ele><time>2026-04-18T13:54:19.055Z</time></trkpt><trkpt lat="44.2529383" lon="11.4793167"><ele>405.0</ele><time>2026-04-18T13:54:20.055Z</time></trkpt><trkpt lat="44.2530083" lon="11.47942"><ele>405.0</ele><time>2026-04-18T13:54:21.055Z</time></trkpt><trkpt lat="44.2530617" lon="11.4795183"><ele>405.0</ele><time>2026-04-18T13:54:22.054Z</time></trkpt><trkpt lat="44.2531183" lon="11.4796267"><ele>405.0</ele><time>2026-04-18T13:54:23.054Z</time></trkpt><trkpt lat="44.2531733" lon="11.47972"><ele>405.0</ele><time>2026-04-18T13:54:24.055Z</time></trkpt><trkpt lat="44.2532367" lon="11.4797933"><ele>405.0</ele><time>2026-04-18T13:54:25.055Z</time></trkpt><trkpt lat="44.2533017" lon="11.4798367"><ele>405.0</ele><time>2026-04-18T13:54:26.055Z</time></trkpt><trkpt lat="44.253375" lon="11.479855"><ele>405.2</ele><time>2026-04-18T13:54:27.055Z</time></trkpt><trkpt lat="44.2534433" lon="11.4798483"><ele>405.4</ele><time>2026-04-18T13:54:28.055Z</time></trkpt><trkpt lat="44.25352" lon="11.4798233"><ele>405.6</ele><time>2026-04-18T13:54:29.054Z</time></trkpt><trkpt lat="44.2536033" lon="11.479745"><ele>405.8</ele><time>2026-04-18T13:54:30.053Z</time></trkpt><trkpt lat="44.2536983" lon="11.4795933"><ele>406.0</ele><time>2026-04-18T13:54:31.053Z</time></trkpt><trkpt lat="44.2537983" lon="11.479465"><ele>406.0</ele><time>2026-04-18T13:54:32.054Z</time></trkpt><trkpt lat="44.2538967" lon="11.4793333"><ele>406.0</ele><time>2026-04-18T13:54:33.054Z</time></trkpt><trkpt lat="44.25398" lon="11.4792283"><ele>406.0</ele><time>2026-04-18T13:54:34.054Z</time></trkpt><trkpt lat="44.2540583" lon="11.4791283"><ele>406.0</ele><time>2026-04-18T13:54:35.054Z</time></trkpt><trkpt lat="44.2541433" lon="11.47907"><ele>406.0</ele><time>2026-04-18T13:54:36.054Z</time></trkpt><trkpt lat="44.254245" lon="11.47904"><ele>407.75</ele><time>2026-04-18T13:54:37.054Z</time></trkpt><trkpt lat="44.2543617" lon="11.4790167"><ele>409.5</ele><time>2026-04-18T13:54:38.054Z</time></trkpt><trkpt lat="44.2544883" lon="11.4789867"><ele>411.25</ele><time>2026-04-18T13:54:39.054Z</time></trkpt><trkpt lat="44.2545983" lon="11.4789617"><ele>413.0</ele><time>2026-04-18T13:54:40.054Z</time></trkpt><trkpt lat="44.254705" lon="11.4789283"><ele>414.79999999999995</ele><time>2026-04-18T13:54:41.054Z</time></trkpt><trkpt lat="44.2548217" lon="11.47889"><ele>416.6</ele><time>2026-04-18T13:54:42.054Z</time></trkpt><trkpt lat="44.2549167" lon="11.4788733"><ele>418.4</ele><time>2026-04-18T13:54:43.054Z</time></trkpt><trkpt lat="44.2550183" lon="11.4788683"><ele>420.20000000000005</ele><time>2026-04-18T13:54:44.054Z</time></trkpt><trkpt lat="44.25511" lon="11.478865"><ele>422.0</ele><time>2026-04-18T13:54:45.054Z</time></trkpt><trkpt lat="44.25518" lon="11.4788567"><ele>422.0</ele><time>2026-04-18T13:54:46.054Z</time></trkpt><trkpt lat="44.25526" lon="11.4788533"><ele>422.0</ele><time>2026-04-18T13:54:47.054Z</time></trkpt><trkpt lat="44.255345" lon="11.4788683"><ele>422.0</ele><time>2026-04-18T13:54:48.054Z</time></trkpt><trkpt lat="44.2554383" lon="11.4788967"><ele>422.0</ele><time>2026-04-18T13:54:49.054Z</time></trkpt><trkpt lat="44.2555267" lon="11.4789533"><ele>422.0</ele><time>2026-04-18T13:54:50.054Z</time></trkpt><trkpt lat="44.2556067" lon="11.4790233"><ele>423.0</ele><time>2026-04-18T13:54:51.054Z</time></trkpt><trkpt lat="44.255685" lon="11.4791067"><ele>424.0</ele><time>2026-04-18T13:54:52.054Z</time></trkpt><trkpt lat="44.255775" lon="11.47918"><ele>425.00000000000006</ele><time>2026-04-18T13:54:53.053Z</time></trkpt><trkpt lat="44.25587" lon="11.479265"><ele>426.0</ele><time>2026-04-18T13:54:54.054Z</time></trkpt><trkpt lat="44.255965" lon="11.4793467"><ele>427.0</ele><time>2026-04-18T13:54:55.054Z</time></trkpt><trkpt lat="44.2560567" lon="11.4794133"><ele>427.0</ele><time>2026-04-18T13:54:56.054Z</time></trkpt><trkpt lat="44.2561533" lon="11.47946"><ele>427.00000000000006</ele><time>2026-04-18T13:54:57.054Z</time></trkpt><trkpt lat="44.25625" lon="11.4794917"><ele>427.00000000000006</ele><time>2026-04-18T13:54:58.054Z</time></trkpt><trkpt lat="44.2563417" lon="11.4795033"><ele>427.0</ele><time>2026-04-18T13:54:59.054Z</time></trkpt><trkpt lat="44.2564317" lon="11.4795167"><ele>427.0</ele><time>2026-04-18T13:55:00.054Z</time></trkpt><trkpt lat="44.2565117" lon="11.47953"><ele>425.00000000000006</ele><time>2026-04-18T13:55:01.054Z</time></trkpt><trkpt lat="44.25659" lon="11.4795433"><ele>423.0</ele><time>2026-04-18T13:55:02.054Z</time></trkpt><trkpt lat="44.2566583" lon="11.4795583"><ele>421.0</ele><time>2026-04-18T13:55:03.054Z</time></trkpt><trkpt lat="44.256725" lon="11.4795817"><ele>419.0</ele><time>2026-04-18T13:55:04.054Z</time></trkpt><trkpt lat="44.2567967" lon="11.4795933"><ele>417.00000000000006</ele><time>2026-04-18T13:55:05.054Z</time></trkpt><trkpt lat="44.2568833" lon="11.4795983"><ele>415.0</ele><time>2026-04-18T13:55:06.054Z</time></trkpt><trkpt lat="44.2569683" lon="11.4795733"><ele>415.0</ele><time>2026-04-18T13:55:07.054Z</time></trkpt><trkpt lat="44.25706" lon="11.4795383"><ele>415.0</ele><time>2026-04-18T13:55:08.054Z</time></trkpt><trkpt lat="44.2571533" lon="11.4795017"><ele>415.0</ele><time>2026-04-18T13:55:09.054Z</time></trkpt><trkpt lat="44.2572383" lon="11.4794767"><ele>415.0</ele><time>2026-04-18T13:55:10.054Z</time></trkpt><trkpt lat="44.25734" lon="11.479475"><ele>415.0</ele><time>2026-04-18T13:55:11.054Z</time></trkpt><trkpt lat="44.2574383" lon="11.47951"><ele>416.0</ele><time>2026-04-18T13:55:12.054Z</time></trkpt><trkpt lat="44.2575433" lon="11.479565"><ele>417.0</ele><time>2026-04-18T13:55:13.054Z</time></trkpt><trkpt lat="44.2576467" lon="11.4796233"><ele>418.0</ele><time>2026-04-18T13:55:14.054Z</time></trkpt><trkpt lat="44.2577433" lon="11.4796817"><ele>419.0</ele><time>2026-04-18T13:55:15.054Z</time></trkpt><trkpt lat="44.2578333" lon="11.479755"><ele>420.0</ele><time>2026-04-18T13:55:16.054Z</time></trkpt><trkpt lat="44.2579133" lon="11.47984"><ele>420.0</ele><time>2026-04-18T13:55:17.054Z</time></trkpt><trkpt lat="44.258" lon="11.4799233"><ele>420.0</ele><time>2026-04-18T13:55:18.054Z</time></trkpt><trkpt lat="44.25809" lon="11.4800033"><ele>420.0</ele><time>2026-04-18T13:55:19.053Z</time></trkpt><trkpt lat="44.2581883" lon="11.4800767"><ele>420.0</ele><time>2026-04-18T13:55:20.054Z</time></trkpt><trkpt lat="44.2582917" lon="11.48015"><ele>420.0</ele><time>2026-04-18T13:55:21.054Z</time></trkpt><trkpt lat="44.258395" lon="11.4802133"><ele>421.75</ele><time>2026-04-18T13:55:22.053Z</time></trkpt><trkpt lat="44.2584967" lon="11.4802767"><ele>423.5</ele><time>2026-04-18T13:55:23.054Z</time></trkpt><trkpt lat="44.2586083" lon="11.4803283"><ele>425.25</ele><time>2026-04-18T13:55:24.054Z</time></trkpt><trkpt lat="44.2587133" lon="11.480385"><ele>427.0</ele><time>2026-04-18T13:55:25.054Z</time></trkpt><trkpt lat="44.2588233" lon="11.4804383"><ele>427.0</ele><time>2026-04-18T13:55:26.054Z</time></trkpt><trkpt lat="44.25892" lon="11.48049"><ele>427.00000000000006</ele><time>2026-04-18T13:55:27.054Z</time></trkpt><trkpt lat="44.25901" lon="11.4805233"><ele>427.00000000000006</ele><time>2026-04-18T13:55:28.054Z</time></trkpt><trkpt lat="44.2591017" lon="11.48054"><ele>427.0</ele><time>2026-04-18T13:55:29.054Z</time></trkpt><trkpt lat="44.2592" lon="11.4805317"><ele>427.0</ele><time>2026-04-18T13:55:30.054Z</time></trkpt><trkpt lat="44.259305" lon="11.4804983"><ele>427.5</ele><time>2026-04-18T13:55:31.054Z</time></trkpt><trkpt lat="44.2594217" lon="11.4804533"><ele>428.0</ele><time>2026-04-18T13:55:32.054Z</time></trkpt><trkpt lat="44.259545" lon="11.480405"><ele>428.5</ele><time>2026-04-18T13:55:33.054Z</time></trkpt><trkpt lat="44.25966" lon="11.4803683"><ele>429.0</ele><time>2026-04-18T13:55:34.054Z</time></trkpt><trkpt lat="44.2597733" lon="11.48033"><ele>427.6</ele><time>2026-04-18T13:55:35.054Z</time></trkpt><trkpt lat="44.2598883" lon="11.4803033"><ele>426.2</ele><time>2026-04-18T13:55:36.054Z</time></trkpt><trkpt lat="44.2599983" lon="11.48028"><ele>424.8</ele><time>2026-04-18T13:55:37.054Z</time></trkpt><trkpt lat="44.2600917" lon="11.4802517"><ele>423.40000000000003</ele><time>2026-04-18T13:55:38.054Z</time></trkpt><trkpt lat="44.2601817" lon="11.480235"><ele>422.0</ele><time>2026-04-18T13:55:39.054Z</time></trkpt><trkpt lat="44.2602683" lon="11.4802267"><ele>421.99999999999994</ele><time>2026-04-18T13:55:40.054Z</time></trkpt><trkpt lat="44.2603567" lon="11.4802367"><ele>422.0</ele><time>2026-04-18T13:55:41.054Z</time></trkpt><trkpt lat="44.26044" lon="11.4802617"><ele>422.0</ele><time>2026-04-18T13:55:42.054Z</time></trkpt><trkpt lat="44.2605233" lon="11.4802833"><ele>422.0</ele><time>2026-04-18T13:55:43.054Z</time></trkpt><trkpt lat="44.2605933" lon="11.4803017"><ele>421.99999999999994</ele><time>2026-04-18T13:55:44.054Z</time></trkpt><trkpt lat="44.2606783" lon="11.4803517"><ele>422.0</ele><time>2026-04-18T13:55:46.054Z</time></trkpt><trkpt lat="44.2606817" lon="11.4801767"><ele>425.40000000000003</ele><time>2026-04-18T13:56:10.054Z</time></trkpt><trkpt lat="44.2606783" lon="11.480045"><ele>428.8</ele><time>2026-04-18T13:56:12.054Z</time></trkpt><trkpt lat="44.26069" lon="11.4799383"><ele>432.2</ele><time>2026-04-18T13:56:14.054Z</time></trkpt><trkpt lat="44.2607467" lon="11.4798617"><ele>435.6</ele><time>2026-04-18T13:56:16.053Z</time></trkpt><trkpt lat="44.2608383" lon="11.4798117"><ele>439.0</ele><time>2026-04-18T13:56:18.054Z</time></trkpt><trkpt lat="44.2609533" lon="11.4797267"><ele>439.00000000000006</ele><time>2026-04-18T13:56:20.054Z</time></trkpt><trkpt lat="44.261035" lon="11.4796917"><ele>439.0</ele><time>2026-04-18T13:56:21.054Z</time></trkpt><trkpt lat="44.26111" lon="11.4796733"><ele>439.0</ele><time>2026-04-18T13:56:22.054Z</time></trkpt><trkpt lat="44.2611783" lon="11.479635"><ele>439.0</ele><time>2026-04-18T13:56:23.054Z</time></trkpt><trkpt lat="44.2612417" lon="11.479575"><ele>439.00000000000006</ele><time>2026-04-18T13:56:24.054Z</time></trkpt><trkpt lat="44.2612967" lon="11.4795067"><ele>439.0</ele><time>2026-04-18T13:56:25.054Z</time></trkpt><trkpt lat="44.2613733" lon="11.4794233"><ele>435.6</ele><time>2026-04-18T13:56:26.054Z</time></trkpt><trkpt lat="44.261445" lon="11.479325"><ele>432.2</ele><time>2026-04-18T13:56:27.054Z</time></trkpt><trkpt lat="44.2615217" lon="11.4792183"><ele>428.8</ele><time>2026-04-18T13:56:28.053Z</time></trkpt><trkpt lat="44.2615933" lon="11.4791033"><ele>425.40000000000003</ele><time>2026-04-18T13:56:29.054Z</time></trkpt><trkpt lat="44.2616583" lon="11.479"><ele>422.0</ele><time>2026-04-18T13:56:30.054Z</time></trkpt><trkpt lat="44.26172" lon="11.47891"><ele>421.99999999999994</ele><time>2026-04-18T13:56:31.054Z</time></trkpt><trkpt lat="44.2617817" lon="11.4788133"><ele>422.0</ele><time>2026-04-18T13:56:32.054Z</time></trkpt><trkpt lat="44.2618233" lon="11.47871"><ele>422.0</ele><time>2026-04-18T13:56:33.054Z</time></trkpt><trkpt lat="44.26185" lon="11.4786133"><ele>422.0</ele><time>2026-04-18T13:56:34.054Z</time></trkpt><trkpt lat="44.2618333" lon="11.4785233"><ele>421.99999999999994</ele><time>2026-04-18T13:56:35.054Z</time></trkpt><trkpt lat="44.2618017" lon="11.47844"><ele>422.0</ele><time>2026-04-18T13:56:36.054Z</time></trkpt><trkpt lat="44.2617983" lon="11.4783467"><ele>419.0</ele><time>2026-04-18T13:56:37.054Z</time></trkpt><trkpt lat="44.261815" lon="11.4782083"><ele>416.0</ele><time>2026-04-18T13:56:39.054Z</time></trkpt><trkpt lat="44.2618883" lon="11.4780917"><ele>413.0</ele><time>2026-04-18T13:56:41.053Z</time></trkpt><trkpt lat="44.261975" lon="11.4780683"><ele>410.0</ele><time>2026-04-18T13:56:42.054Z</time></trkpt><trkpt lat="44.2620333" lon="11.4781017"><ele>407.0</ele><time>2026-04-18T13:56:43.053Z</time></trkpt><trkpt lat="44.2620883" lon="11.4782683"><ele>407.0</ele><time>2026-04-18T13:56:45.054Z</time></trkpt><trkpt lat="44.26211" lon="11.478385"><ele>407.0</ele><time>2026-04-18T13:56:46.053Z</time></trkpt><trkpt lat="44.2621333" lon="11.4785083"><ele>407.0</ele><time>2026-04-18T13:56:47.054Z</time></trkpt><trkpt lat="44.2621533" lon="11.4786567"><ele>407.0</ele><time>2026-04-18T13:56:48.054Z</time></trkpt><trkpt lat="44.2621667" lon="11.4788167"><ele>407.0</ele><time>2026-04-18T13:56:49.054Z</time></trkpt><trkpt lat="44.2621917" lon="11.47899"><ele>410.0</ele><time>2026-04-18T13:56:50.054Z</time></trkpt><trkpt lat="44.2621917" lon="11.4791567"><ele>413.0</ele><time>2026-04-18T13:56:51.054Z</time></trkpt><trkpt lat="44.2621817" lon="11.479295"><ele>416.0</ele><time>2026-04-18T13:56:52.054Z</time></trkpt><trkpt lat="44.2621733" lon="11.47941"><ele>419.0</ele><time>2026-04-18T13:56:53.054Z</time></trkpt><trkpt lat="44.2621567" lon="11.4795183"><ele>422.0</ele><time>2026-04-18T13:56:54.053Z</time></trkpt><trkpt lat="44.2621467" lon="11.479615"><ele>422.0</ele><time>2026-04-18T13:56:55.054Z</time></trkpt><trkpt lat="44.2621633" lon="11.47975"><ele>422.0</ele><time>2026-04-18T13:56:57.054Z</time></trkpt><trkpt lat="44.2622433" lon="11.4797333"><ele>422.0</ele><time>2026-04-18T13:57:00.054Z</time></trkpt><trkpt lat="44.262315" lon="11.479555"><ele>422.0</ele><time>2026-04-18T13:57:02.054Z</time></trkpt><trkpt lat="44.262345" lon="11.4793967"><ele>422.0</ele><time>2026-04-18T13:57:03.054Z</time></trkpt><trkpt lat="44.2623983" lon="11.4792083"><ele>411.3333333333333</ele><time>2026-04-18T13:57:04.054Z</time></trkpt><trkpt lat="44.262455" lon="11.4789667"><ele>400.66666666666663</ele><time>2026-04-18T13:57:05.054Z</time></trkpt><trkpt lat="44.2625167" lon="11.47874"><ele>390.0</ele><time>2026-04-18T13:57:06.054Z</time></trkpt><trkpt lat="44.2625683" lon="11.4785217"><ele>388.75</ele><time>2026-04-18T13:57:07.054Z</time></trkpt><trkpt lat="44.26262" lon="11.4783067"><ele>387.5</ele><time>2026-04-18T13:57:08.054Z</time></trkpt><trkpt lat="44.26265" lon="11.47812"><ele>386.25</ele><time>2026-04-18T13:57:09.054Z</time></trkpt><trkpt lat="44.2626633" lon="11.47794"><ele>385.0</ele><time>2026-04-18T13:57:10.054Z</time></trkpt><trkpt lat="44.2626467" lon="11.4777983"><ele>382.0</ele><time>2026-04-18T13:57:11.054Z</time></trkpt><trkpt lat="44.2626033" lon="11.4776667"><ele>379.0</ele><time>2026-04-18T13:57:12.054Z</time></trkpt><trkpt lat="44.2625267" lon="11.47756"><ele>376.0</ele><time>2026-04-18T13:57:13.054Z</time></trkpt><trkpt lat="44.2624117" lon="11.4774833"><ele>373.0</ele><time>2026-04-18T13:57:14.053Z</time></trkpt><trkpt lat="44.2623017" lon="11.4774467"><ele>374.16666666666663</ele><time>2026-04-18T13:57:15.053Z</time></trkpt><trkpt lat="44.2622133" lon="11.47744"><ele>375.3333333333333</ele><time>2026-04-18T13:57:16.054Z</time></trkpt><trkpt lat="44.262135" lon="11.4774383"><ele>376.5</ele><time>2026-04-18T13:57:17.054Z</time></trkpt><trkpt lat="44.262065" lon="11.4774333"><ele>377.6666666666667</ele><time>2026-04-18T13:57:18.054Z</time></trkpt><trkpt lat="44.2619817" lon="11.4774517"><ele>378.83333333333337</ele><time>2026-04-18T13:57:20.054Z</time></trkpt><trkpt lat="44.261915" lon="11.4774633"><ele>380.0</ele><time>2026-04-18T13:57:23.054Z</time></trkpt><trkpt lat="44.2618533" lon="11.4774983"><ele>380.0</ele><time>2026-04-18T13:57:35.053Z</time></trkpt><trkpt lat="44.2617617" lon="11.4775117"><ele>380.0</ele><time>2026-04-18T13:57:38.053Z</time></trkpt><trkpt lat="44.2616933" lon="11.47754"><ele>380.0</ele><time>2026-04-18T13:57:40.053Z</time></trkpt><trkpt lat="44.261605" lon="11.4775233"><ele>380.0</ele><time>2026-04-18T13:57:42.053Z</time></trkpt><trkpt lat="44.26163" lon="11.4773283"><ele>380.0</ele><time>2026-04-18T13:57:47.053Z</time></trkpt><trkpt lat="44.2616633" lon="11.4772017"><ele>376.4</ele><time>2026-04-18T13:57:48.053Z</time></trkpt><trkpt lat="44.261675" lon="11.4770617"><ele>372.8</ele><time>2026-04-18T13:57:49.053Z</time></trkpt><trkpt lat="44.2616483" lon="11.4768567"><ele>369.20000000000005</ele><time>2026-04-18T13:57:50.053Z</time></trkpt><trkpt lat="44.261655" lon="11.4767267"><ele>365.6</ele><time>2026-04-18T13:57:51.052Z</time></trkpt><trkpt lat="44.261675" lon="11.4766117"><ele>362.0</ele><time>2026-04-18T13:57:52.052Z</time></trkpt><trkpt lat="44.261725" lon="11.4764633"><ele>362.0</ele><time>2026-04-18T13:57:54.053Z</time></trkpt><trkpt lat="44.2617517" lon="11.47635"><ele>362.0</ele><time>2026-04-18T13:57:56.053Z</time></trkpt><trkpt lat="44.2616317" lon="11.476245"><ele>362.0</ele><time>2026-04-18T13:58:16.053Z</time></trkpt><trkpt lat="44.261605" lon="11.4761467"><ele>362.0</ele><time>2026-04-18T13:58:19.053Z</time></trkpt><trkpt lat="44.26163" lon="11.476055"><ele>362.0</ele><time>2026-04-18T13:58:21.053Z</time></trkpt><trkpt lat="44.2616583" lon="11.47593"><ele>360.6666666666667</ele><time>2026-04-18T13:58:23.053Z</time></trkpt><trkpt lat="44.26162" lon="11.4757983"><ele>359.33333333333337</ele><time>2026-04-18T13:58:25.053Z</time></trkpt><trkpt lat="44.2615833" lon="11.4756783"><ele>358.0</ele><time>2026-04-18T13:58:26.053Z</time></trkpt><trkpt lat="44.2615383" lon="11.4756017"><ele>356.6666666666667</ele><time>2026-04-18T13:58:27.053Z</time></trkpt><trkpt lat="44.2614783" lon="11.475515"><ele>355.3333333333333</ele><time>2026-04-18T13:58:28.053Z</time></trkpt><trkpt lat="44.2614317" lon="11.475435"><ele>354.0</ele><time>2026-04-18T13:58:29.053Z</time></trkpt><trkpt lat="44.261395" lon="11.475355"><ele>352.42857142857144</ele><time>2026-04-18T13:58:30.053Z</time></trkpt><trkpt lat="44.26136" lon="11.4752767"><ele>350.85714285714283</ele><time>2026-04-18T13:58:31.053Z</time></trkpt><trkpt lat="44.26133" lon="11.4751983"><ele>349.2857142857143</ele><time>2026-04-18T13:58:32.053Z</time></trkpt><trkpt lat="44.261285" lon="11.4750767"><ele>347.7142857142857</ele><time>2026-04-18T13:58:34.053Z</time></trkpt><trkpt lat="44.261295" lon="11.4749833"><ele>346.1428571428571</ele><time>2026-04-18T13:58:37.052Z</time></trkpt><trkpt lat="44.2613567" lon="11.4749217"><ele>344.57142857142856</ele><time>2026-04-18T13:58:41.053Z</time></trkpt><trkpt lat="44.261415" lon="11.4748683"><ele>343.0</ele><time>2026-04-18T13:58:43.053Z</time></trkpt><trkpt lat="44.2614583" lon="11.4747967"><ele>343.0</ele><time>2026-04-18T13:58:44.053Z</time></trkpt><trkpt lat="44.261535" lon="11.4747033"><ele>343.0</ele><time>2026-04-18T13:58:45.052Z</time></trkpt><trkpt lat="44.2616117" lon="11.4746183"><ele>343.0</ele><time>2026-04-18T13:58:46.052Z</time></trkpt><trkpt lat="44.261705" lon="11.4745267"><ele>343.0</ele><time>2026-04-18T13:58:47.053Z</time></trkpt><trkpt lat="44.2618233" lon="11.4744767"><ele>343.0</ele><time>2026-04-18T13:58:48.052Z</time></trkpt><trkpt lat="44.2619333" lon="11.47447"><ele>342.0</ele><time>2026-04-18T13:58:49.052Z</time></trkpt><trkpt lat="44.2620683" lon="11.474495"><ele>341.0</ele><time>2026-04-18T13:58:50.053Z</time></trkpt><trkpt lat="44.262195" lon="11.4745617"><ele>340.0</ele><time>2026-04-18T13:58:51.053Z</time></trkpt><trkpt lat="44.2623083" lon="11.4746617"><ele>339.0</ele><time>2026-04-18T13:58:52.053Z</time></trkpt><trkpt lat="44.2624417" lon="11.4747383"><ele>339.0</ele><time>2026-04-18T13:58:53.052Z</time></trkpt><trkpt lat="44.262575" lon="11.4747867"><ele>339.0</ele><time>2026-04-18T13:58:54.053Z</time></trkpt><trkpt lat="44.2627133" lon="11.4748133"><ele>339.0</ele><time>2026-04-18T13:58:55.053Z</time></trkpt><trkpt lat="44.262855" lon="11.4748383"><ele>339.0</ele><time>2026-04-18T13:58:56.053Z</time></trkpt><trkpt lat="44.2629967" lon="11.474855"><ele>337.25</ele><time>2026-04-18T13:58:57.053Z</time></trkpt><trkpt lat="44.263135" lon="11.4748867"><ele>335.5</ele><time>2026-04-18T13:58:58.053Z</time></trkpt><trkpt lat="44.26327" lon="11.4749433"><ele>333.75</ele><time>2026-04-18T13:58:59.053Z</time></trkpt><trkpt lat="44.2634033" lon="11.4750183"><ele>332.0</ele><time>2026-04-18T13:59:00.053Z</time></trkpt><trkpt lat="44.2635433" lon="11.4751067"><ele>332.0</ele><time>2026-04-18T13:59:01.053Z</time></trkpt><trkpt lat="44.2636817" lon="11.4752383"><ele>332.0</ele><time>2026-04-18T13:59:02.053Z</time></trkpt><trkpt lat="44.2638083" lon="11.4753567"><ele>332.0</ele><time>2026-04-18T13:59:03.053Z</time></trkpt><trkpt lat="44.263915" lon="11.4754867"><ele>329.75</ele><time>2026-04-18T13:59:04.053Z</time></trkpt><trkpt lat="44.264015" lon="11.4756383"><ele>327.5</ele><time>2026-04-18T13:59:05.052Z</time></trkpt><trkpt lat="44.26412" lon="11.4757917"><ele>325.25</ele><time>2026-04-18T13:59:06.053Z</time></trkpt><trkpt lat="44.2642067" lon="11.4759517"><ele>323.0</ele><time>2026-04-18T13:59:07.052Z</time></trkpt><trkpt lat="44.2642967" lon="11.47611"><ele>326.0</ele><time>2026-04-18T13:59:08.053Z</time></trkpt><trkpt lat="44.2643583" lon="11.4762733"><ele>329.0</ele><time>2026-04-18T13:59:09.053Z</time></trkpt><trkpt lat="44.2644317" lon="11.4764217"><ele>332.0</ele><time>2026-04-18T13:59:10.053Z</time></trkpt><trkpt lat="44.264535" lon="11.4764917"><ele>335.0</ele><time>2026-04-18T13:59:11.053Z</time></trkpt><trkpt lat="44.264645" lon="11.47654"><ele>335.0</ele><time>2026-04-18T13:59:12.053Z</time></trkpt><trkpt lat="44.2647617" lon="11.4765583"><ele>335.0</ele><time>2026-04-18T13:59:13.053Z</time></trkpt><trkpt lat="44.2648817" lon="11.4765467"><ele>335.0</ele><time>2026-04-18T13:59:14.053Z</time></trkpt><trkpt lat="44.26499" lon="11.4765017"><ele>335.0</ele><time>2026-04-18T13:59:15.053Z</time></trkpt><trkpt lat="44.2650833" lon="11.4763767"><ele>327.33333333333337</ele><time>2026-04-18T13:59:16.053Z</time></trkpt><trkpt lat="44.2651617" lon="11.4762133"><ele>319.6666666666667</ele><time>2026-04-18T13:59:17.053Z</time></trkpt><trkpt lat="44.2652467" lon="11.4760217"><ele>312.0</ele><time>2026-04-18T13:59:18.053Z</time></trkpt><trkpt lat="44.2653333" lon="11.4758283"><ele>312.0</ele><time>2026-04-18T13:59:19.052Z</time></trkpt><trkpt lat="44.2654217" lon="11.475635"><ele>312.0</ele><time>2026-04-18T13:59:20.053Z</time></trkpt><trkpt lat="44.2655017" lon="11.4754367"><ele>312.0</ele><time>2026-04-18T13:59:21.053Z</time></trkpt><trkpt lat="44.2655433" lon="11.4752683"><ele>312.0</ele><time>2026-04-18T13:59:22.053Z</time></trkpt><trkpt lat="44.2655317" lon="11.4750917"><ele>312.0</ele><time>2026-04-18T13:59:23.053Z</time></trkpt><trkpt lat="44.2654883" lon="11.4749233"><ele>312.0</ele><time>2026-04-18T13:59:24.053Z</time></trkpt><trkpt lat="44.2654067" lon="11.4747567"><ele>312.0</ele><time>2026-04-18T13:59:25.053Z</time></trkpt><trkpt lat="44.265275" lon="11.47456"><ele>312.0</ele><time>2026-04-18T13:59:26.053Z</time></trkpt><trkpt lat="44.2651367" lon="11.4743333"><ele>312.0</ele><time>2026-04-18T13:59:27.053Z</time></trkpt><trkpt lat="44.2650133" lon="11.4740917"><ele>312.0</ele><time>2026-04-18T13:59:28.053Z</time></trkpt><trkpt lat="44.2649183" lon="11.4738733"><ele>311.75</ele><time>2026-04-18T13:59:29.053Z</time></trkpt><trkpt lat="44.2648367" lon="11.4736583"><ele>311.5</ele><time>2026-04-18T13:59:30.053Z</time></trkpt><trkpt lat="44.2648017" lon="11.4734667"><ele>311.25</ele><time>2026-04-18T13:59:31.053Z</time></trkpt><trkpt lat="44.2648083" lon="11.473285"><ele>311.0</ele><time>2026-04-18T13:59:32.053Z</time></trkpt><trkpt lat="44.2648367" lon="11.4731067"><ele>311.0</ele><time>2026-04-18T13:59:33.053Z</time></trkpt><trkpt lat="44.26493" lon="11.4729467"><ele>311.0</ele><time>2026-04-18T13:59:34.053Z</time></trkpt><trkpt lat="44.2650583" lon="11.4727867"><ele>311.0</ele><time>2026-04-18T13:59:35.053Z</time></trkpt><trkpt lat="44.2652033" lon="11.47265"><ele>310.0</ele><time>2026-04-18T13:59:36.053Z</time></trkpt><trkpt lat="44.2653617" lon="11.4725217"><ele>309.0</ele><time>2026-04-18T13:59:37.053Z</time></trkpt><trkpt lat="44.2655233" lon="11.4724167"><ele>308.0</ele><time>2026-04-18T13:59:38.053Z</time></trkpt><trkpt lat="44.2657033" lon="11.4723467"><ele>308.0</ele><time>2026-04-18T13:59:39.052Z</time></trkpt><trkpt lat="44.2659367" lon="11.4722667"><ele>308.0</ele><time>2026-04-18T13:59:40.053Z</time></trkpt><trkpt lat="44.2661233" lon="11.4721883"><ele>308.0</ele><time>2026-04-18T13:59:41.052Z</time></trkpt><trkpt lat="44.266315" lon="11.4721133"><ele>305.0</ele><time>2026-04-18T13:59:42.053Z</time></trkpt><trkpt lat="44.2664983" lon="11.47204"><ele>302.0</ele><time>2026-04-18T13:59:43.053Z</time></trkpt><trkpt lat="44.2666633" lon="11.4719333"><ele>299.0</ele><time>2026-04-18T13:59:44.053Z</time></trkpt><trkpt lat="44.2668167" lon="11.471785"><ele>299.0</ele><time>2026-04-18T13:59:45.053Z</time></trkpt><trkpt lat="44.26695" lon="11.4716033"><ele>299.0</ele><time>2026-04-18T13:59:46.053Z</time></trkpt><trkpt lat="44.267115" lon="11.4713833"><ele>299.0</ele><time>2026-04-18T13:59:47.053Z</time></trkpt><trkpt lat="44.26726" lon="11.4711483"><ele>298.33333333333337</ele><time>2026-04-18T13:59:48.053Z</time></trkpt><trkpt lat="44.2674083" lon="11.47092"><ele>297.6666666666667</ele><time>2026-04-18T13:59:49.052Z</time></trkpt><trkpt lat="44.2675483" lon="11.470715"><ele>297.0</ele><time>2026-04-18T13:59:50.052Z</time></trkpt><trkpt lat="44.2676783" lon="11.4705183"><ele>294.0</ele><time>2026-04-18T13:59:51.053Z</time></trkpt><trkpt lat="44.26781" lon="11.4703017"><ele>291.0</ele><time>2026-04-18T13:59:52.052Z</time></trkpt><trkpt lat="44.267935" lon="11.4700217"><ele>288.0</ele><time>2026-04-18T13:59:53.052Z</time></trkpt><trkpt lat="44.2680383" lon="11.4697317"><ele>291.3333333333333</ele><time>2026-04-18T13:59:54.053Z</time></trkpt><trkpt lat="44.2681167" lon="11.4694417"><ele>294.66666666666663</ele><time>2026-04-18T13:59:55.053Z</time></trkpt><trkpt lat="44.2682133" lon="11.4691617"><ele>298.0</ele><time>2026-04-18T13:59:56.053Z</time></trkpt><trkpt lat="44.2683133" lon="11.46891"><ele>295.66666666666663</ele><time>2026-04-18T13:59:57.052Z</time></trkpt><trkpt lat="44.26842" lon="11.4686517"><ele>293.3333333333333</ele><time>2026-04-18T13:59:58.053Z</time></trkpt><trkpt lat="44.2685083" lon="11.4683933"><ele>291.0</ele><time>2026-04-18T13:59:59.053Z</time></trkpt><trkpt lat="44.268605" lon="11.4681283"><ele>289.6666666666667</ele><time>2026-04-18T14:00:00.053Z</time></trkpt><trkpt lat="44.2686817" lon="11.4678617"><ele>288.33333333333337</ele><time>2026-04-18T14:00:01.053Z</time></trkpt><trkpt lat="44.2687267" lon="11.4676033"><ele>287.0</ele><time>2026-04-18T14:00:02.053Z</time></trkpt><trkpt lat="44.2687517" lon="11.4673567"><ele>287.0</ele><time>2026-04-18T14:00:03.053Z</time></trkpt><trkpt lat="44.26875" lon="11.4671517"><ele>287.0</ele><time>2026-04-18T14:00:04.053Z</time></trkpt><trkpt lat="44.26879" lon="11.46698"><ele>287.0</ele><time>2026-04-18T14:00:05.052Z</time></trkpt><trkpt lat="44.268885" lon="11.466835"><ele>287.0</ele><time>2026-04-18T14:00:06.053Z</time></trkpt><trkpt lat="44.2690083" lon="11.466655"><ele>286.6666666666667</ele><time>2026-04-18T14:00:07.053Z</time></trkpt><trkpt lat="44.2691283" lon="11.4664433"><ele>286.3333333333333</ele><time>2026-04-18T14:00:08.053Z</time></trkpt><trkpt lat="44.269255" lon="11.466205"><ele>286.0</ele><time>2026-04-18T14:00:09.053Z</time></trkpt><trkpt lat="44.2693767" lon="11.465965"><ele>286.0</ele><time>2026-04-18T14:00:10.053Z</time></trkpt><trkpt lat="44.26949" lon="11.4657383"><ele>286.0</ele><time>2026-04-18T14:00:11.053Z</time></trkpt><trkpt lat="44.269595" lon="11.465515"><ele>286.0</ele><time>2026-04-18T14:00:12.053Z</time></trkpt><trkpt lat="44.2696917" lon="11.465325"><ele>286.0</ele><time>2026-04-18T14:00:13.052Z</time></trkpt><trkpt lat="44.2697683" lon="11.4651283"><ele>286.0</ele><time>2026-04-18T14:00:14.053Z</time></trkpt><trkpt lat="44.2698117" lon="11.46492"><ele>286.0</ele><time>2026-04-18T14:00:15.053Z</time></trkpt><trkpt lat="44.26982" lon="11.4647083"><ele>285.0</ele><time>2026-04-18T14:00:16.053Z</time></trkpt><trkpt lat="44.2698" lon="11.4644867"><ele>284.0</ele><time>2026-04-18T14:00:17.053Z</time></trkpt><trkpt lat="44.2697783" lon="11.4642867"><ele>283.0</ele><time>2026-04-18T14:00:18.053Z</time></trkpt><trkpt lat="44.2697833" lon="11.4641033"><ele>282.0</ele><time>2026-04-18T14:00:19.053Z</time></trkpt><trkpt lat="44.2698167" lon="11.4639317"><ele>284.3333333333333</ele><time>2026-04-18T14:00:20.053Z</time></trkpt><trkpt lat="44.269885" lon="11.4637533"><ele>286.66666666666663</ele><time>2026-04-18T14:00:21.052Z</time></trkpt><trkpt lat="44.2699683" lon="11.46357"><ele>289.0</ele><time>2026-04-18T14:00:22.052Z</time></trkpt><trkpt lat="44.2700483" lon="11.4633717"><ele>289.0</ele><time>2026-04-18T14:00:23.052Z</time></trkpt><trkpt lat="44.2701083" lon="11.4631717"><ele>289.0</ele><time>2026-04-18T14:00:24.052Z</time></trkpt><trkpt lat="44.270155" lon="11.4629767"><ele>289.0</ele><time>2026-04-18T14:00:25.051Z</time></trkpt><trkpt lat="44.2701683" lon="11.46279"><ele>289.0</ele><time>2026-04-18T14:00:26.051Z</time></trkpt><trkpt lat="44.2701183" lon="11.462605"><ele>290.0</ele><time>2026-04-18T14:00:27.051Z</time></trkpt><trkpt lat="44.270085" lon="11.46242"><ele>291.0</ele><time>2026-04-18T14:00:28.052Z</time></trkpt><trkpt lat="44.27008" lon="11.4622333"><ele>292.0</ele><time>2026-04-18T14:00:29.052Z</time></trkpt><trkpt lat="44.2700983" lon="11.4620417"><ele>293.0</ele><time>2026-04-18T14:00:30.051Z</time></trkpt><trkpt lat="44.2701567" lon="11.46184"><ele>292.33333333333337</ele><time>2026-04-18T14:00:31.052Z</time></trkpt><trkpt lat="44.2702417" lon="11.461615"><ele>291.6666666666667</ele><time>2026-04-18T14:00:32.052Z</time></trkpt><trkpt lat="44.2703817" lon="11.4613617"><ele>291.0</ele><time>2026-04-18T14:00:33.052Z</time></trkpt><trkpt lat="44.270685" lon="11.46102"><ele>291.0</ele><time>2026-04-18T14:00:34.052Z</time></trkpt><trkpt lat="44.2708717" lon="11.4607233"><ele>291.0</ele><time>2026-04-18T14:00:35.052Z</time></trkpt><trkpt lat="44.2710417" lon="11.46046"><ele>293.3333333333333</ele><time>2026-04-18T14:00:36.051Z</time></trkpt><trkpt lat="44.2711933" lon="11.46023"><ele>295.66666666666663</ele><time>2026-04-18T14:00:37.052Z</time></trkpt><trkpt lat="44.271325" lon="11.4600317"><ele>298.0</ele><time>2026-04-18T14:00:38.051Z</time></trkpt><trkpt lat="44.271425" lon="11.4598317"><ele>293.66666666666663</ele><time>2026-04-18T14:00:39.051Z</time></trkpt><trkpt lat="44.271505" lon="11.45961"><ele>289.3333333333333</ele><time>2026-04-18T14:00:40.052Z</time></trkpt><trkpt lat="44.2715717" lon="11.4593767"><ele>285.0</ele><time>2026-04-18T14:00:41.052Z</time></trkpt><trkpt lat="44.2716233" lon="11.4591417"><ele>285.0</ele><time>2026-04-18T14:00:42.051Z</time></trkpt><trkpt lat="44.27168" lon="11.4589183"><ele>285.0</ele><time>2026-04-18T14:00:43.052Z</time></trkpt><trkpt lat="44.2717417" lon="11.4587167"><ele>285.0</ele><time>2026-04-18T14:00:44.052Z</time></trkpt><trkpt lat="44.2718117" lon="11.4585417"><ele>286.25</ele><time>2026-04-18T14:00:45.052Z</time></trkpt><trkpt lat="44.2718933" lon="11.4583867"><ele>287.5</ele><time>2026-04-18T14:00:46.052Z</time></trkpt><trkpt lat="44.2720083" lon="11.4582667"><ele>288.75</ele><time>2026-04-18T14:00:47.052Z</time></trkpt><trkpt lat="44.2721283" lon="11.4581733"><ele>290.0</ele><time>2026-04-18T14:00:48.052Z</time></trkpt><trkpt lat="44.2722617" lon="11.4580917"><ele>290.5</ele><time>2026-04-18T14:00:49.052Z</time></trkpt><trkpt lat="44.2724067" lon="11.458"><ele>291.0</ele><time>2026-04-18T14:00:50.052Z</time></trkpt><trkpt lat="44.2725283" lon="11.4579033"><ele>291.5</ele><time>2026-04-18T14:00:51.052Z</time></trkpt><trkpt lat="44.272645" lon="11.4577867"><ele>292.0</ele><time>2026-04-18T14:00:52.052Z</time></trkpt><trkpt lat="44.272725" lon="11.4576733"><ele>292.0</ele><time>2026-04-18T14:00:53.051Z</time></trkpt><trkpt lat="44.2727917" lon="11.45756"><ele>292.0</ele><time>2026-04-18T14:00:54.052Z</time></trkpt><trkpt lat="44.272865" lon="11.4574517"><ele>292.0</ele><time>2026-04-18T14:00:55.052Z</time></trkpt><trkpt lat="44.2729383" lon="11.4573517"><ele>292.0</ele><time>2026-04-18T14:00:56.052Z</time></trkpt><trkpt lat="44.2730317" lon="11.4573067"><ele>292.0</ele><time>2026-04-18T14:00:57.052Z</time></trkpt><trkpt lat="44.273135" lon="11.457295"><ele>290.75</ele><time>2026-04-18T14:00:58.052Z</time></trkpt><trkpt lat="44.27325" lon="11.457335"><ele>289.5</ele><time>2026-04-18T14:00:59.052Z</time></trkpt><trkpt lat="44.273365" lon="11.4573933"><ele>288.25</ele><time>2026-04-18T14:01:00.052Z</time></trkpt><trkpt lat="44.2734717" lon="11.4574617"><ele>287.0</ele><time>2026-04-18T14:01:01.051Z</time></trkpt><trkpt lat="44.273575" lon="11.45753"><ele>287.0</ele><time>2026-04-18T14:01:02.052Z</time></trkpt><trkpt lat="44.273665" lon="11.4575767"><ele>287.0</ele><time>2026-04-18T14:01:03.052Z</time></trkpt><trkpt lat="44.2737317" lon="11.4576083"><ele>287.0</ele><time>2026-04-18T14:01:04.052Z</time></trkpt><trkpt lat="44.2738283" lon="11.4576217"><ele>287.0</ele><time>2026-04-18T14:01:06.052Z</time></trkpt><trkpt lat="44.2738667" lon="11.45755"><ele>287.0</ele><time>2026-04-18T14:01:08.052Z</time></trkpt><trkpt lat="44.2738383" lon="11.4574467"><ele>287.0</ele><time>2026-04-18T14:01:10.052Z</time></trkpt><trkpt lat="44.2737233" lon="11.4573583"><ele>287.0</ele><time>2026-04-18T14:01:12.052Z</time></trkpt><trkpt lat="44.2736433" lon="11.4573183"><ele>287.0</ele><time>2026-04-18T14:01:13.051Z</time></trkpt><trkpt lat="44.2735817" lon="11.4572683"><ele>287.0</ele><time>2026-04-18T14:01:14.052Z</time></trkpt><trkpt lat="44.27354" lon="11.4572017"><ele>287.0</ele><time>2026-04-18T14:01:15.052Z</time></trkpt><trkpt lat="44.273545" lon="11.4570867"><ele>287.0</ele><time>2026-04-18T14:01:17.052Z</time></trkpt><trkpt lat="44.2736217" lon="11.457045"><ele>287.0</ele><time>2026-04-18T14:01:18.052Z</time></trkpt><trkpt lat="44.2736917" lon="11.45699"><ele>289.25</ele><time>2026-04-18T14:01:19.052Z</time></trkpt><trkpt lat="44.273765" lon="11.4569267"><ele>291.5</ele><time>2026-04-18T14:01:20.052Z</time></trkpt><trkpt lat="44.273815" lon="11.456815"><ele>293.75</ele><time>2026-04-18T14:01:21.052Z</time></trkpt><trkpt lat="44.27387" lon="11.4566433"><ele>296.0</ele><time>2026-04-18T14:01:22.052Z</time></trkpt><trkpt lat="44.27392" lon="11.4564683"><ele>296.6</ele><time>2026-04-18T14:01:23.052Z</time></trkpt><trkpt lat="44.273985" lon="11.456315"><ele>297.20000000000005</ele><time>2026-04-18T14:01:24.051Z</time></trkpt><trkpt lat="44.274055" lon="11.456215"><ele>297.79999999999995</ele><time>2026-04-18T14:01:25.051Z</time></trkpt><trkpt lat="44.274145" lon="11.456175"><ele>298.4</ele><time>2026-04-18T14:01:26.051Z</time></trkpt><trkpt lat="44.2742533" lon="11.4561733"><ele>299.0</ele><time>2026-04-18T14:01:27.051Z</time></trkpt><trkpt lat="44.2743767" lon="11.456195"><ele>301.25</ele><time>2026-04-18T14:01:28.051Z</time></trkpt><trkpt lat="44.2745117" lon="11.4562183"><ele>303.5</ele><time>2026-04-18T14:01:29.052Z</time></trkpt><trkpt lat="44.274655" lon="11.4562317"><ele>305.75</ele><time>2026-04-18T14:01:30.052Z</time></trkpt><trkpt lat="44.2747867" lon="11.4562267"><ele>308.0</ele><time>2026-04-18T14:01:31.052Z</time></trkpt><trkpt lat="44.2749033" lon="11.45622"><ele>309.2</ele><time>2026-04-18T14:01:32.052Z</time></trkpt><trkpt lat="44.275" lon="11.4562"><ele>310.4</ele><time>2026-04-18T14:01:33.052Z</time></trkpt><trkpt lat="44.275065" lon="11.4561517"><ele>311.59999999999997</ele><time>2026-04-18T14:01:34.052Z</time></trkpt><trkpt lat="44.275065" lon="11.4559883"><ele>312.8</ele><time>2026-04-18T14:01:36.051Z</time></trkpt><trkpt lat="44.2749683" lon="11.455865"><ele>314.0</ele><time>2026-04-18T14:01:38.052Z</time></trkpt><trkpt lat="44.274885" lon="11.4558033"><ele>314.0</ele><time>2026-04-18T14:01:39.052Z</time></trkpt><trkpt lat="44.2747833" lon="11.45573"><ele>314.0</ele><time>2026-04-18T14:01:40.052Z</time></trkpt><trkpt lat="44.2746633" lon="11.4556183"><ele>314.0</ele><time>2026-04-18T14:01:41.051Z</time></trkpt><trkpt lat="44.2745333" lon="11.4554733"><ele>314.0</ele><time>2026-04-18T14:01:42.052Z</time></trkpt><trkpt lat="44.274425" lon="11.4553167"><ele>314.6666666666667</ele><time>2026-04-18T14:01:43.052Z</time></trkpt><trkpt lat="44.2743217" lon="11.4551383"><ele>315.3333333333333</ele><time>2026-04-18T14:01:44.052Z</time></trkpt><trkpt lat="44.2742533" lon="11.4549483"><ele>316.0</ele><time>2026-04-18T14:01:45.052Z</time></trkpt><trkpt lat="44.2741783" lon="11.45476"><ele>318.3333333333333</ele><time>2026-04-18T14:01:46.051Z</time></trkpt><trkpt lat="44.274105" lon="11.45456"><ele>320.6666666666667</ele><time>2026-04-18T14:01:47.052Z</time></trkpt><trkpt lat="44.2740283" lon="11.4543517"><ele>323.0</ele><time>2026-04-18T14:01:48.052Z</time></trkpt><trkpt lat="44.2739483" lon="11.45415"><ele>323.75</ele><time>2026-04-18T14:01:49.052Z</time></trkpt><trkpt lat="44.2738767" lon="11.4539683"><ele>324.5</ele><time>2026-04-18T14:01:50.051Z</time></trkpt><trkpt lat="44.2738083" lon="11.4538067"><ele>325.25</ele><time>2026-04-18T14:01:51.052Z</time></trkpt><trkpt lat="44.2737383" lon="11.4536267"><ele>326.0</ele><time>2026-04-18T14:01:52.051Z</time></trkpt><trkpt lat="44.2736733" lon="11.4534583"><ele>328.25</ele><time>2026-04-18T14:01:53.052Z</time></trkpt><trkpt lat="44.27361" lon="11.4533017"><ele>330.5</ele><time>2026-04-18T14:01:54.052Z</time></trkpt><trkpt lat="44.27355" lon="11.4531367"><ele>332.75</ele><time>2026-04-18T14:01:55.052Z</time></trkpt><trkpt lat="44.2735233" lon="11.45297"><ele>335.0</ele><time>2026-04-18T14:01:56.051Z</time></trkpt><trkpt lat="44.273495" lon="11.4527867"><ele>337.25</ele><time>2026-04-18T14:01:57.052Z</time></trkpt><trkpt lat="44.2734933" lon="11.4526067"><ele>339.5</ele><time>2026-04-18T14:01:58.052Z</time></trkpt><trkpt lat="44.2734767" lon="11.4524067"><ele>341.75</ele><time>2026-04-18T14:01:59.052Z</time></trkpt><trkpt lat="44.2734567" lon="11.4521867"><ele>344.0</ele><time>2026-04-18T14:02:00.052Z</time></trkpt><trkpt lat="44.2734333" lon="11.4519583"><ele>345.5</ele><time>2026-04-18T14:02:01.052Z</time></trkpt><trkpt lat="44.2734083" lon="11.451735"><ele>347.0</ele><time>2026-04-18T14:02:02.052Z</time></trkpt><trkpt lat="44.2733817" lon="11.451525"><ele>348.5</ele><time>2026-04-18T14:02:03.052Z</time></trkpt><trkpt lat="44.2733517" lon="11.4513567"><ele>350.0</ele><time>2026-04-18T14:02:04.052Z</time></trkpt><trkpt lat="44.273335" lon="11.4512033"><ele>351.2</ele><time>2026-04-18T14:02:05.052Z</time></trkpt><trkpt lat="44.27333" lon="11.4510767"><ele>352.4</ele><time>2026-04-18T14:02:06.051Z</time></trkpt><trkpt lat="44.273355" lon="11.4509617"><ele>353.6</ele><time>2026-04-18T14:02:07.052Z</time></trkpt><trkpt lat="44.2734183" lon="11.4508467"><ele>354.8</ele><time>2026-04-18T14:02:08.052Z</time></trkpt><trkpt lat="44.2734967" lon="11.450735"><ele>356.0</ele><time>2026-04-18T14:02:09.051Z</time></trkpt><trkpt lat="44.2735733" lon="11.4505867"><ele>359.0</ele><time>2026-04-18T14:02:10.052Z</time></trkpt><trkpt lat="44.2736317" lon="11.4504183"><ele>362.0</ele><time>2026-04-18T14:02:11.052Z</time></trkpt><trkpt lat="44.27368" lon="11.4502483"><ele>365.0</ele><time>2026-04-18T14:02:12.052Z</time></trkpt><trkpt lat="44.2737367" lon="11.4500967"><ele>368.0</ele><time>2026-04-18T14:02:13.052Z</time></trkpt><trkpt lat="44.273815" lon="11.4499783"><ele>368.0</ele><time>2026-04-18T14:02:14.052Z</time></trkpt><trkpt lat="44.2739017" lon="11.4499017"><ele>368.0</ele><time>2026-04-18T14:02:15.052Z</time></trkpt><trkpt lat="44.273975" lon="11.4498417"><ele>368.0</ele><time>2026-04-18T14:02:16.052Z</time></trkpt><trkpt lat="44.2740317" lon="11.449775"><ele>368.0</ele><time>2026-04-18T14:02:17.052Z</time></trkpt><trkpt lat="44.2740533" lon="11.4496417"><ele>368.0</ele><time>2026-04-18T14:02:19.052Z</time></trkpt><trkpt lat="44.2739533" lon="11.4495517"><ele>367.75</ele><time>2026-04-18T14:02:21.052Z</time></trkpt><trkpt lat="44.2738417" lon="11.44954"><ele>367.5</ele><time>2026-04-18T14:02:22.052Z</time></trkpt><trkpt lat="44.2737" lon="11.449555"><ele>367.25</ele><time>2026-04-18T14:02:23.052Z</time></trkpt><trkpt lat="44.2735567" lon="11.4495733"><ele>367.0</ele><time>2026-04-18T14:02:24.051Z</time></trkpt><trkpt lat="44.2734233" lon="11.449595"><ele>367.0</ele><time>2026-04-18T14:02:25.052Z</time></trkpt><trkpt lat="44.2732983" lon="11.4496233"><ele>367.0</ele><time>2026-04-18T14:02:26.052Z</time></trkpt><trkpt lat="44.2731767" lon="11.449655"><ele>367.0</ele><time>2026-04-18T14:02:27.052Z</time></trkpt><trkpt lat="44.27306" lon="11.4496917"><ele>367.0</ele><time>2026-04-18T14:02:28.052Z</time></trkpt><trkpt lat="44.272945" lon="11.4497017"><ele>369.40000000000003</ele><time>2026-04-18T14:02:29.052Z</time></trkpt><trkpt lat="44.2728367" lon="11.4496817"><ele>371.8</ele><time>2026-04-18T14:02:30.051Z</time></trkpt><trkpt lat="44.27274" lon="11.4496417"><ele>374.2</ele><time>2026-04-18T14:02:31.052Z</time></trkpt><trkpt lat="44.27266" lon="11.4495817"><ele>376.6</ele><time>2026-04-18T14:02:32.052Z</time></trkpt><trkpt lat="44.2725983" lon="11.449505"><ele>379.0</ele><time>2026-04-18T14:02:33.052Z</time></trkpt><trkpt lat="44.27255" lon="11.4494033"><ele>380.4</ele><time>2026-04-18T14:02:34.052Z</time></trkpt><trkpt lat="44.2725217" lon="11.44927"><ele>381.79999999999995</ele><time>2026-04-18T14:02:35.052Z</time></trkpt><trkpt lat="44.2725183" lon="11.4491183"><ele>383.20000000000005</ele><time>2026-04-18T14:02:36.052Z</time></trkpt><trkpt lat="44.272525" lon="11.448955"><ele>384.6</ele><time>2026-04-18T14:02:37.052Z</time></trkpt><trkpt lat="44.2725667" lon="11.448795"><ele>386.0</ele><time>2026-04-18T14:02:38.052Z</time></trkpt><trkpt lat="44.2725967" lon="11.4486233"><ele>388.5</ele><time>2026-04-18T14:02:39.052Z</time></trkpt><trkpt lat="44.27262" lon="11.4484583"><ele>391.0</ele><time>2026-04-18T14:02:40.052Z</time></trkpt><trkpt lat="44.2726233" lon="11.4482967"><ele>393.5</ele><time>2026-04-18T14:02:41.052Z</time></trkpt><trkpt lat="44.2726067" lon="11.4481217"><ele>396.0</ele><time>2026-04-18T14:02:42.052Z</time></trkpt><trkpt lat="44.27258" lon="11.4479533"><ele>397.4</ele><time>2026-04-18T14:02:43.052Z</time></trkpt><trkpt lat="44.2725483" lon="11.4477917"><ele>398.8</ele><time>2026-04-18T14:02:44.052Z</time></trkpt><trkpt lat="44.272535" lon="11.4476517"><ele>400.2</ele><time>2026-04-18T14:02:45.052Z</time></trkpt><trkpt lat="44.2725183" lon="11.4475167"><ele>401.59999999999997</ele><time>2026-04-18T14:02:46.051Z</time></trkpt><trkpt lat="44.272495" lon="11.447385"><ele>403.0</ele><time>2026-04-18T14:02:47.052Z</time></trkpt><trkpt lat="44.27246" lon="11.4472533"><ele>402.0</ele><time>2026-04-18T14:02:48.052Z</time></trkpt><trkpt lat="44.272405" lon="11.447115"><ele>401.0</ele><time>2026-04-18T14:02:49.052Z</time></trkpt><trkpt lat="44.2723417" lon="11.446965"><ele>400.0</ele><time>2026-04-18T14:02:50.052Z</time></trkpt><trkpt lat="44.2722567" lon="11.4468133"><ele>399.0</ele><time>2026-04-18T14:02:51.051Z</time></trkpt><trkpt lat="44.2721783" lon="11.446665"><ele>402.5</ele><time>2026-04-18T14:02:52.052Z</time></trkpt><trkpt lat="44.272095" lon="11.4465267"><ele>406.0</ele><time>2026-04-18T14:02:53.051Z</time></trkpt><trkpt lat="44.2720017" lon="11.4463883"><ele>409.5</ele><time>2026-04-18T14:02:54.052Z</time></trkpt><trkpt lat="44.2719183" lon="11.4462567"><ele>413.0</ele><time>2026-04-18T14:02:55.052Z</time></trkpt><trkpt lat="44.2718233" lon="11.446125"><ele>413.0</ele><time>2026-04-18T14:02:56.052Z</time></trkpt><trkpt lat="44.2717317" lon="11.4459867"><ele>413.0</ele><time>2026-04-18T14:02:57.052Z</time></trkpt><trkpt lat="44.2716533" lon="11.4458583"><ele>413.0</ele><time>2026-04-18T14:02:58.052Z</time></trkpt><trkpt lat="44.2715783" lon="11.44573"><ele>413.0</ele><time>2026-04-18T14:02:59.052Z</time></trkpt><trkpt lat="44.2714783" lon="11.4456183"><ele>416.25</ele><time>2026-04-18T14:03:00.052Z</time></trkpt><trkpt lat="44.2713733" lon="11.4455333"><ele>419.5</ele><time>2026-04-18T14:03:01.052Z</time></trkpt><trkpt lat="44.2712517" lon="11.4454767"><ele>422.75</ele><time>2026-04-18T14:03:02.051Z</time></trkpt><trkpt lat="44.2710883" lon="11.4454467"><ele>426.0</ele><time>2026-04-18T14:03:03.051Z</time></trkpt><trkpt lat="44.2709317" lon="11.4454333"><ele>426.25</ele><time>2026-04-18T14:03:04.052Z</time></trkpt><trkpt lat="44.270795" lon="11.4454167"><ele>426.5</ele><time>2026-04-18T14:03:05.052Z</time></trkpt><trkpt lat="44.2706567" lon="11.4454"><ele>426.75</ele><time>2026-04-18T14:03:06.051Z</time></trkpt><trkpt lat="44.2705317" lon="11.4453717"><ele>427.0</ele><time>2026-04-18T14:03:07.052Z</time></trkpt><trkpt lat="44.2704133" lon="11.4453067"><ele>427.5</ele><time>2026-04-18T14:03:08.052Z</time></trkpt><trkpt lat="44.270315" lon="11.4452283"><ele>428.0</ele><time>2026-04-18T14:03:09.051Z</time></trkpt><trkpt lat="44.2702183" lon="11.4451217"><ele>428.5</ele><time>2026-04-18T14:03:10.052Z</time></trkpt><trkpt lat="44.27014" lon="11.4449733"><ele>429.0</ele><time>2026-04-18T14:03:11.052Z</time></trkpt><trkpt lat="44.2700633" lon="11.444805"><ele>428.66666666666663</ele><time>2026-04-18T14:03:12.052Z</time></trkpt><trkpt lat="44.2699833" lon="11.4446133"><ele>428.3333333333333</ele><time>2026-04-18T14:03:13.052Z</time></trkpt><trkpt lat="44.2699067" lon="11.4444133"><ele>428.0</ele><time>2026-04-18T14:03:14.052Z</time></trkpt><trkpt lat="44.2698267" lon="11.4442133"><ele>430.0</ele><time>2026-04-18T14:03:15.052Z</time></trkpt><trkpt lat="44.2697367" lon="11.4440317"><ele>432.0</ele><time>2026-04-18T14:03:16.052Z</time></trkpt><trkpt lat="44.2696417" lon="11.4438517"><ele>434.0</ele><time>2026-04-18T14:03:17.052Z</time></trkpt><trkpt lat="44.2695517" lon="11.4437233"><ele>436.0</ele><time>2026-04-18T14:03:18.052Z</time></trkpt><trkpt lat="44.2694783" lon="11.4436033"><ele>436.0</ele><time>2026-04-18T14:03:19.05Z</time></trkpt><trkpt lat="44.2694167" lon="11.4434817"><ele>436.0</ele><time>2026-04-18T14:03:20.051Z</time></trkpt><trkpt lat="44.2693583" lon="11.44336"><ele>436.0</ele><time>2026-04-18T14:03:21.051Z</time></trkpt><trkpt lat="44.2693033" lon="11.4432267"><ele>436.0</ele><time>2026-04-18T14:03:22.051Z</time></trkpt><trkpt lat="44.2692633" lon="11.44308"><ele>436.0</ele><time>2026-04-18T14:03:23.051Z</time></trkpt><trkpt lat="44.26923" lon="11.4429067"><ele>435.33333333333337</ele><time>2026-04-18T14:03:24.051Z</time></trkpt><trkpt lat="44.2692067" lon="11.4427233"><ele>434.66666666666663</ele><time>2026-04-18T14:03:25.05Z</time></trkpt><trkpt lat="44.2692383" lon="11.4425083"><ele>434.0</ele><time>2026-04-18T14:03:26.05Z</time></trkpt><trkpt lat="44.26928" lon="11.4422783"><ele>434.0</ele><time>2026-04-18T14:03:27.05Z</time></trkpt><trkpt lat="44.26933" lon="11.4420433"><ele>434.0</ele><time>2026-04-18T14:03:28.051Z</time></trkpt><trkpt lat="44.26937" lon="11.4418083"><ele>434.0</ele><time>2026-04-18T14:03:29.051Z</time></trkpt><trkpt lat="44.2693983" lon="11.4415867"><ele>434.0</ele><time>2026-04-18T14:03:30.051Z</time></trkpt><trkpt lat="44.26943" lon="11.4413833"><ele>434.0</ele><time>2026-04-18T14:03:31.051Z</time></trkpt><trkpt lat="44.26946" lon="11.44121"><ele>434.0</ele><time>2026-04-18T14:03:32.05Z</time></trkpt><trkpt lat="44.26947" lon="11.4410583"><ele>434.0</ele><time>2026-04-18T14:03:33.051Z</time></trkpt><trkpt lat="44.2694617" lon="11.4409217"><ele>432.0</ele><time>2026-04-18T14:03:34.051Z</time></trkpt><trkpt lat="44.2694317" lon="11.4407933"><ele>430.0</ele><time>2026-04-18T14:03:35.051Z</time></trkpt><trkpt lat="44.269385" lon="11.4406717"><ele>428.0</ele><time>2026-04-18T14:03:36.051Z</time></trkpt><trkpt lat="44.2693217" lon="11.440525"><ele>426.0</ele><time>2026-04-18T14:03:37.051Z</time></trkpt><trkpt lat="44.2692633" lon="11.4403483"><ele>422.25</ele><time>2026-04-18T14:03:38.051Z</time></trkpt><trkpt lat="44.2692067" lon="11.4401783"><ele>418.5</ele><time>2026-04-18T14:03:39.051Z</time></trkpt><trkpt lat="44.26914" lon="11.44001"><ele>414.75</ele><time>2026-04-18T14:03:40.051Z</time></trkpt><trkpt lat="44.2690783" lon="11.4398467"><ele>411.0</ele><time>2026-04-18T14:03:41.05Z</time></trkpt><trkpt lat="44.2690083" lon="11.4397"><ele>415.25</ele><time>2026-04-18T14:03:42.051Z</time></trkpt><trkpt lat="44.26893" lon="11.4395833"><ele>419.5</ele><time>2026-04-18T14:03:43.051Z</time></trkpt><trkpt lat="44.2688383" lon="11.43948"><ele>423.75</ele><time>2026-04-18T14:03:44.051Z</time></trkpt><trkpt lat="44.2687533" lon="11.43937"><ele>428.0</ele><time>2026-04-18T14:03:45.05Z</time></trkpt><trkpt lat="44.26868" lon="11.4392467"><ele>428.0</ele><time>2026-04-18T14:03:46.05Z</time></trkpt><trkpt lat="44.2686283" lon="11.4391"><ele>428.0</ele><time>2026-04-18T14:03:47.051Z</time></trkpt><trkpt lat="44.2685833" lon="11.4389517"><ele>428.0</ele><time>2026-04-18T14:03:48.051Z</time></trkpt><trkpt lat="44.268525" lon="11.4388117"><ele>428.0</ele><time>2026-04-18T14:03:49.051Z</time></trkpt><trkpt lat="44.2684467" lon="11.4386833"><ele>425.5</ele><time>2026-04-18T14:03:50.05Z</time></trkpt><trkpt lat="44.2683683" lon="11.4385617"><ele>423.0</ele><time>2026-04-18T14:03:51.051Z</time></trkpt><trkpt lat="44.2683083" lon="11.438415"><ele>420.5</ele><time>2026-04-18T14:03:52.051Z</time></trkpt><trkpt lat="44.26827" lon="11.4382533"><ele>418.0</ele><time>2026-04-18T14:03:53.051Z</time></trkpt><trkpt lat="44.2682383" lon="11.43808"><ele>417.0</ele><time>2026-04-18T14:03:54.051Z</time></trkpt><trkpt lat="44.2681917" lon="11.4378917"><ele>416.0</ele><time>2026-04-18T14:03:55.051Z</time></trkpt><trkpt lat="44.2681333" lon="11.4376983"><ele>415.0</ele><time>2026-04-18T14:03:56.051Z</time></trkpt><trkpt lat="44.2680667" lon="11.43751"><ele>414.0</ele><time>2026-04-18T14:03:57.051Z</time></trkpt><trkpt lat="44.268" lon="11.4373267"><ele>417.5</ele><time>2026-04-18T14:03:58.05Z</time></trkpt><trkpt lat="44.2679483" lon="11.4371583"><ele>421.0</ele><time>2026-04-18T14:03:59.051Z</time></trkpt><trkpt lat="44.26792" lon="11.4370067"><ele>424.5</ele><time>2026-04-18T14:04:00.051Z</time></trkpt><trkpt lat="44.2679083" lon="11.4368583"><ele>428.0</ele><time>2026-04-18T14:04:01.051Z</time></trkpt><trkpt lat="44.267935" lon="11.4367183"><ele>427.99999999999994</ele><time>2026-04-18T14:04:02.05Z</time></trkpt><trkpt lat="44.2679717" lon="11.4365967"><ele>428.0</ele><time>2026-04-18T14:04:03.051Z</time></trkpt><trkpt lat="44.2679817" lon="11.43648"><ele>428.0</ele><time>2026-04-18T14:04:04.051Z</time></trkpt><trkpt lat="44.2679833" lon="11.4363683"><ele>428.0</ele><time>2026-04-18T14:04:05.051Z</time></trkpt><trkpt lat="44.26796" lon="11.43627"><ele>427.99999999999994</ele><time>2026-04-18T14:04:06.051Z</time></trkpt><trkpt lat="44.2679183" lon="11.4362"><ele>428.0</ele><time>2026-04-18T14:04:07.051Z</time></trkpt><trkpt lat="44.2677817" lon="11.4362117"><ele>428.4</ele><time>2026-04-18T14:04:08.051Z</time></trkpt><trkpt lat="44.2676783" lon="11.4361767"><ele>428.79999999999995</ele><time>2026-04-18T14:04:09.051Z</time></trkpt><trkpt lat="44.2676017" lon="11.4361033"><ele>429.2</ele><time>2026-04-18T14:04:10.051Z</time></trkpt><trkpt lat="44.2675333" lon="11.43599"><ele>429.6</ele><time>2026-04-18T14:04:11.051Z</time></trkpt><trkpt lat="44.26747" lon="11.4358517"><ele>430.0</ele><time>2026-04-18T14:04:12.051Z</time></trkpt><trkpt lat="44.2674183" lon="11.4356967"><ele>430.0</ele><time>2026-04-18T14:04:13.051Z</time></trkpt><trkpt lat="44.2673633" lon="11.4355317"><ele>430.0</ele><time>2026-04-18T14:04:14.051Z</time></trkpt><trkpt lat="44.2673167" lon="11.4353767"><ele>430.0</ele><time>2026-04-18T14:04:15.051Z</time></trkpt><trkpt lat="44.2672967" lon="11.4352383"><ele>430.0</ele><time>2026-04-18T14:04:16.051Z</time></trkpt><trkpt lat="44.2672917" lon="11.435105"><ele>430.0</ele><time>2026-04-18T14:04:17.051Z</time></trkpt><trkpt lat="44.2673033" lon="11.434995"><ele>432.0</ele><time>2026-04-18T14:04:18.051Z</time></trkpt><trkpt lat="44.2673233" lon="11.434885"><ele>434.0</ele><time>2026-04-18T14:04:19.051Z</time></trkpt><trkpt lat="44.2673683" lon="11.4347967"><ele>436.0</ele><time>2026-04-18T14:04:20.051Z</time></trkpt><trkpt lat="44.2674317" lon="11.4347267"><ele>438.0</ele><time>2026-04-18T14:04:21.051Z</time></trkpt><trkpt lat="44.26753" lon="11.4346667"><ele>440.0</ele><time>2026-04-18T14:04:22.051Z</time></trkpt><trkpt lat="44.2676467" lon="11.4346067"><ele>442.75</ele><time>2026-04-18T14:04:23.05Z</time></trkpt><trkpt lat="44.26777" lon="11.4345317"><ele>445.5</ele><time>2026-04-18T14:04:24.051Z</time></trkpt><trkpt lat="44.2678867" lon="11.4344433"><ele>448.25</ele><time>2026-04-18T14:04:25.051Z</time></trkpt><trkpt lat="44.2679883" lon="11.43433"><ele>451.0</ele><time>2026-04-18T14:04:26.051Z</time></trkpt><trkpt lat="44.26811" lon="11.4341983"><ele>451.0</ele><time>2026-04-18T14:04:27.051Z</time></trkpt><trkpt lat="44.2682217" lon="11.4340717"><ele>451.0</ele><time>2026-04-18T14:04:28.051Z</time></trkpt><trkpt lat="44.2683383" lon="11.4339533"><ele>451.0</ele><time>2026-04-18T14:04:29.051Z</time></trkpt><trkpt lat="44.2684567" lon="11.4338433"><ele>451.0</ele><time>2026-04-18T14:04:30.051Z</time></trkpt><trkpt lat="44.26858" lon="11.4337717"><ele>454.33333333333337</ele><time>2026-04-18T14:04:31.05Z</time></trkpt><trkpt lat="44.26872" lon="11.4337417"><ele>457.66666666666663</ele><time>2026-04-18T14:04:32.051Z</time></trkpt><trkpt lat="44.2688783" lon="11.4336933"><ele>461.0</ele><time>2026-04-18T14:04:33.05Z</time></trkpt><trkpt lat="44.26903" lon="11.4336283"><ele>461.0</ele><time>2026-04-18T14:04:34.051Z</time></trkpt><trkpt lat="44.2691833" lon="11.4335667"><ele>461.0</ele><time>2026-04-18T14:04:35.051Z</time></trkpt><trkpt lat="44.26937" lon="11.4335283"><ele>461.0</ele><time>2026-04-18T14:04:36.051Z</time></trkpt><trkpt lat="44.2695067" lon="11.43349"><ele>461.0</ele><time>2026-04-18T14:04:37.051Z</time></trkpt><trkpt lat="44.26963" lon="11.4334733"><ele>461.0</ele><time>2026-04-18T14:04:38.051Z</time></trkpt><trkpt lat="44.2697433" lon="11.43346"><ele>461.0</ele><time>2026-04-18T14:04:39.051Z</time></trkpt><trkpt lat="44.269835" lon="11.4334133"><ele>461.0</ele><time>2026-04-18T14:04:40.051Z</time></trkpt><trkpt lat="44.2699017" lon="11.433325"><ele>461.0</ele><time>2026-04-18T14:04:41.051Z</time></trkpt><trkpt lat="44.2699617" lon="11.4331833"><ele>461.25</ele><time>2026-04-18T14:04:42.051Z</time></trkpt><trkpt lat="44.27003" lon="11.433025"><ele>461.5</ele><time>2026-04-18T14:04:43.05Z</time></trkpt><trkpt lat="44.2701067" lon="11.4328733"><ele>461.75</ele><time>2026-04-18T14:04:44.051Z</time></trkpt><trkpt lat="44.2702083" lon="11.43275"><ele>462.0</ele><time>2026-04-18T14:04:45.051Z</time></trkpt><trkpt lat="44.2703233" lon="11.4326117"><ele>465.0</ele><time>2026-04-18T14:04:46.051Z</time></trkpt><trkpt lat="44.2704383" lon="11.4324667"><ele>468.0</ele><time>2026-04-18T14:04:47.051Z</time></trkpt><trkpt lat="44.27055" lon="11.4323083"><ele>471.0</ele><time>2026-04-18T14:04:48.051Z</time></trkpt><trkpt lat="44.2706533" lon="11.432145"><ele>474.0</ele><time>2026-04-18T14:04:49.05Z</time></trkpt><trkpt lat="44.270755" lon="11.4320033"><ele>477.0</ele><time>2026-04-18T14:04:50.051Z</time></trkpt><trkpt lat="44.270855" lon="11.4319"><ele>480.0</ele><time>2026-04-18T14:04:51.05Z</time></trkpt><trkpt lat="44.2709567" lon="11.43184"><ele>483.0</ele><time>2026-04-18T14:04:52.051Z</time></trkpt><trkpt lat="44.2710667" lon="11.4318217"><ele>483.0</ele><time>2026-04-18T14:04:53.051Z</time></trkpt><trkpt lat="44.2711817" lon="11.431795"><ele>483.0</ele><time>2026-04-18T14:04:54.051Z</time></trkpt><trkpt lat="44.27131" lon="11.4317817"><ele>483.0</ele><time>2026-04-18T14:04:55.051Z</time></trkpt><trkpt lat="44.2714583" lon="11.4317567"><ele>483.0</ele><time>2026-04-18T14:04:56.05Z</time></trkpt><trkpt lat="44.2715917" lon="11.4317367"><ele>483.8333333333333</ele><time>2026-04-18T14:04:57.051Z</time></trkpt><trkpt lat="44.27168" lon="11.4317067"><ele>484.66666666666663</ele><time>2026-04-18T14:04:58.051Z</time></trkpt><trkpt lat="44.2717517" lon="11.4316783"><ele>485.5</ele><time>2026-04-18T14:04:59.051Z</time></trkpt><trkpt lat="44.27182" lon="11.431635"><ele>486.3333333333333</ele><time>2026-04-18T14:05:00.051Z</time></trkpt><trkpt lat="44.2718717" lon="11.4315717"><ele>487.16666666666663</ele><time>2026-04-18T14:05:01.051Z</time></trkpt><trkpt lat="44.2718683" lon="11.4314233"><ele>488.0</ele><time>2026-04-18T14:05:03.051Z</time></trkpt><trkpt lat="44.2718133" lon="11.4313283"><ele>490.75</ele><time>2026-04-18T14:05:04.051Z</time></trkpt><trkpt lat="44.2717233" lon="11.4312217"><ele>493.5</ele><time>2026-04-18T14:05:05.051Z</time></trkpt><trkpt lat="44.2716183" lon="11.431105"><ele>496.25</ele><time>2026-04-18T14:05:06.051Z</time></trkpt><trkpt lat="44.2714917" lon="11.43094"><ele>499.0</ele><time>2026-04-18T14:05:07.051Z</time></trkpt><trkpt lat="44.27139" lon="11.4307917"><ele>499.33333333333337</ele><time>2026-04-18T14:05:08.051Z</time></trkpt><trkpt lat="44.2712817" lon="11.430625"><ele>499.66666666666663</ele><time>2026-04-18T14:05:09.051Z</time></trkpt><trkpt lat="44.271185" lon="11.4304667"><ele>500.0</ele><time>2026-04-18T14:05:10.051Z</time></trkpt><trkpt lat="44.2710867" lon="11.4302867"><ele>503.0</ele><time>2026-04-18T14:05:11.051Z</time></trkpt><trkpt lat="44.2709833" lon="11.4301267"><ele>506.0</ele><time>2026-04-18T14:05:12.051Z</time></trkpt><trkpt lat="44.270895" lon="11.4299833"><ele>509.0</ele><time>2026-04-18T14:05:13.051Z</time></trkpt><trkpt lat="44.27081" lon="11.42985"><ele>512.0</ele><time>2026-04-18T14:05:14.051Z</time></trkpt><trkpt lat="44.2707417" lon="11.4297283"><ele>513.6</ele><time>2026-04-18T14:05:15.051Z</time></trkpt><trkpt lat="44.2707117" lon="11.4296233"><ele>515.2</ele><time>2026-04-18T14:05:16.051Z</time></trkpt><trkpt lat="44.2707067" lon="11.429495"><ele>516.8</ele><time>2026-04-18T14:05:17.051Z</time></trkpt><trkpt lat="44.2706983" lon="11.429345"><ele>518.4</ele><time>2026-04-18T14:05:18.051Z</time></trkpt><trkpt lat="44.2706833" lon="11.4291983"><ele>520.0</ele><time>2026-04-18T14:05:19.051Z</time></trkpt><trkpt lat="44.27065" lon="11.4290767"><ele>522.8</ele><time>2026-04-18T14:05:20.051Z</time></trkpt><trkpt lat="44.2705967" lon="11.42896"><ele>525.6</ele><time>2026-04-18T14:05:21.051Z</time></trkpt><trkpt lat="44.27054" lon="11.428865"><ele>528.4</ele><time>2026-04-18T14:05:22.051Z</time></trkpt><trkpt lat="44.2704983" lon="11.4287333"><ele>531.2</ele><time>2026-04-18T14:05:23.051Z</time></trkpt><trkpt lat="44.2705167" lon="11.428605"><ele>534.0</ele><time>2026-04-18T14:05:24.051Z</time></trkpt><trkpt lat="44.2705467" lon="11.4284817"><ele>535.8</ele><time>2026-04-18T14:05:25.051Z</time></trkpt><trkpt lat="44.2705783" lon="11.42836"><ele>537.5999999999999</ele><time>2026-04-18T14:05:26.051Z</time></trkpt><trkpt lat="44.2705967" lon="11.4282383"><ele>539.4</ele><time>2026-04-18T14:05:27.051Z</time></trkpt><trkpt lat="44.2705733" lon="11.4281183"><ele>541.1999999999999</ele><time>2026-04-18T14:05:28.051Z</time></trkpt><trkpt lat="44.270525" lon="11.4280267"><ele>543.0</ele><time>2026-04-18T14:05:29.051Z</time></trkpt><trkpt lat="44.270425" lon="11.4279567"><ele>543.0</ele><time>2026-04-18T14:05:30.051Z</time></trkpt><trkpt lat="44.2703183" lon="11.4279183"><ele>543.0</ele><time>2026-04-18T14:05:31.051Z</time></trkpt><trkpt lat="44.2702" lon="11.4278917"><ele>543.0</ele><time>2026-04-18T14:05:32.051Z</time></trkpt><trkpt lat="44.2700917" lon="11.42784"><ele>543.0</ele><time>2026-04-18T14:05:33.05Z</time></trkpt><trkpt lat="44.26999" lon="11.42776"><ele>543.0</ele><time>2026-04-18T14:05:34.051Z</time></trkpt><trkpt lat="44.2699117" lon="11.4276217"><ele>543.0</ele><time>2026-04-18T14:05:35.051Z</time></trkpt><trkpt lat="44.2698567" lon="11.427465"><ele>543.0</ele><time>2026-04-18T14:05:36.051Z</time></trkpt><trkpt lat="44.2697983" lon="11.4273217"><ele>543.0</ele><time>2026-04-18T14:05:37.051Z</time></trkpt><trkpt lat="44.2697567" lon="11.4272"><ele>543.8</ele><time>2026-04-18T14:05:38.051Z</time></trkpt><trkpt lat="44.269745" lon="11.427075"><ele>544.5999999999999</ele><time>2026-04-18T14:05:39.051Z</time></trkpt><trkpt lat="44.269755" lon="11.4269417"><ele>545.4000000000001</ele><time>2026-04-18T14:05:40.051Z</time></trkpt><trkpt lat="44.2698017" lon="11.4268317"><ele>546.2</ele><time>2026-04-18T14:05:41.051Z</time></trkpt><trkpt lat="44.2698567" lon="11.42671"><ele>547.0</ele><time>2026-04-18T14:05:42.051Z</time></trkpt><trkpt lat="44.2698667" lon="11.426605"><ele>547.0</ele><time>2026-04-18T14:05:43.051Z</time></trkpt><trkpt lat="44.2698667" lon="11.4265"><ele>547.0</ele><time>2026-04-18T14:05:44.051Z</time></trkpt><trkpt lat="44.2698083" lon="11.4264117"><ele>547.0</ele><time>2026-04-18T14:05:45.051Z</time></trkpt><trkpt lat="44.2697117" lon="11.4262983"><ele>547.0</ele><time>2026-04-18T14:05:46.05Z</time></trkpt><trkpt lat="44.2695983" lon="11.4261683"><ele>547.0</ele><time>2026-04-18T14:05:47.051Z</time></trkpt><trkpt lat="44.2695017" lon="11.4260283"><ele>551.75</ele><time>2026-04-18T14:05:48.051Z</time></trkpt><trkpt lat="44.269435" lon="11.425885"><ele>556.5</ele><time>2026-04-18T14:05:49.051Z</time></trkpt><trkpt lat="44.26937" lon="11.4257517"><ele>561.25</ele><time>2026-04-18T14:05:50.051Z</time></trkpt><trkpt lat="44.269295" lon="11.4256367"><ele>566.0</ele><time>2026-04-18T14:05:51.051Z</time></trkpt><trkpt lat="44.269205" lon="11.4255483"><ele>566.0</ele><time>2026-04-18T14:05:52.051Z</time></trkpt><trkpt lat="44.269095" lon="11.4254933"><ele>566.0</ele><time>2026-04-18T14:05:53.051Z</time></trkpt><trkpt lat="44.268985" lon="11.4254633"><ele>566.0</ele><time>2026-04-18T14:05:54.05Z</time></trkpt><trkpt lat="44.2688867" lon="11.4254083"><ele>566.0</ele><time>2026-04-18T14:05:55.051Z</time></trkpt><trkpt lat="44.2687983" lon="11.425315"><ele>566.0</ele><time>2026-04-18T14:05:56.05Z</time></trkpt><trkpt lat="44.2687417" lon="11.4251733"><ele>569.5</ele><time>2026-04-18T14:05:57.051Z</time></trkpt><trkpt lat="44.268725" lon="11.4250133"><ele>573.0</ele><time>2026-04-18T14:05:58.051Z</time></trkpt><trkpt lat="44.2687217" lon="11.4248433"><ele>576.5</ele><time>2026-04-18T14:05:59.051Z</time></trkpt><trkpt lat="44.2687317" lon="11.424665"><ele>580.0</ele><time>2026-04-18T14:06:00.051Z</time></trkpt><trkpt lat="44.2687483" lon="11.4244717"><ele>581.3333333333334</ele><time>2026-04-18T14:06:01.051Z</time></trkpt><trkpt lat="44.2687783" lon="11.424275"><ele>582.6666666666666</ele><time>2026-04-18T14:06:02.051Z</time></trkpt><trkpt lat="44.2688317" lon="11.4240667"><ele>584.0</ele><time>2026-04-18T14:06:03.051Z</time></trkpt><trkpt lat="44.26889" lon="11.423865"><ele>584.5</ele><time>2026-04-18T14:06:04.051Z</time></trkpt><trkpt lat="44.26896" lon="11.42368"><ele>585.0</ele><time>2026-04-18T14:06:05.051Z</time></trkpt><trkpt lat="44.2690267" lon="11.423525"><ele>585.5</ele><time>2026-04-18T14:06:06.051Z</time></trkpt><trkpt lat="44.2690917" lon="11.4233933"><ele>586.0</ele><time>2026-04-18T14:06:07.051Z</time></trkpt><trkpt lat="44.2691633" lon="11.4232917"><ele>586.0</ele><time>2026-04-18T14:06:08.051Z</time></trkpt><trkpt lat="44.2692467" lon="11.423235"><ele>586.0</ele><time>2026-04-18T14:06:09.05Z</time></trkpt><trkpt lat="44.2693483" lon="11.4232467"><ele>586.0</ele><time>2026-04-18T14:06:10.05Z</time></trkpt><trkpt lat="44.2694317" lon="11.4232333"><ele>586.0</ele><time>2026-04-18T14:06:11.051Z</time></trkpt><trkpt lat="44.269505" lon="11.4232183"><ele>586.0</ele><time>2026-04-18T14:06:12.05Z</time></trkpt><trkpt lat="44.2695617" lon="11.4231767"><ele>586.0</ele><time>2026-04-18T14:06:13.051Z</time></trkpt><trkpt lat="44.2696467" lon="11.423045"><ele>588.2</ele><time>2026-04-18T14:06:15.051Z</time></trkpt><trkpt lat="44.26968" lon="11.4229483"><ele>590.4000000000001</ele><time>2026-04-18T14:06:16.05Z</time></trkpt><trkpt lat="44.2697167" lon="11.4228367"><ele>592.6</ele><time>2026-04-18T14:06:17.051Z</time></trkpt><trkpt lat="44.269775" lon="11.4227067"><ele>594.8000000000001</ele><time>2026-04-18T14:06:18.051Z</time></trkpt><trkpt lat="44.2698383" lon="11.4225967"><ele>597.0</ele><time>2026-04-18T14:06:19.051Z</time></trkpt><trkpt lat="44.2699183" lon="11.4225"><ele>597.0</ele><time>2026-04-18T14:06:20.05Z</time></trkpt><trkpt lat="44.2700217" lon="11.4224267"><ele>597.0</ele><time>2026-04-18T14:06:21.05Z</time></trkpt><trkpt lat="44.2701317" lon="11.4223617"><ele>597.0</ele><time>2026-04-18T14:06:22.05Z</time></trkpt><trkpt lat="44.27024" lon="11.4222983"><ele>597.0</ele><time>2026-04-18T14:06:23.05Z</time></trkpt><trkpt lat="44.2703483" lon="11.4222367"><ele>597.0</ele><time>2026-04-18T14:06:24.049Z</time></trkpt><trkpt lat="44.2704767" lon="11.42219"><ele>597.0</ele><time>2026-04-18T14:06:25.049Z</time></trkpt><trkpt lat="44.2706167" lon="11.4221633"><ele>597.0</ele><time>2026-04-18T14:06:26.05Z</time></trkpt><trkpt lat="44.2707717" lon="11.4221583"><ele>597.0</ele><time>2026-04-18T14:06:27.05Z</time></trkpt><trkpt lat="44.2709367" lon="11.42216"><ele>595.3333333333334</ele><time>2026-04-18T14:06:28.05Z</time></trkpt><trkpt lat="44.2711133" lon="11.42218"><ele>593.6666666666667</ele><time>2026-04-18T14:06:29.05Z</time></trkpt><trkpt lat="44.2712867" lon="11.42219"><ele>592.0</ele><time>2026-04-18T14:06:30.05Z</time></trkpt><trkpt lat="44.2714633" lon="11.4222017"><ele>592.0</ele><time>2026-04-18T14:06:31.049Z</time></trkpt><trkpt lat="44.2716117" lon="11.422195"><ele>592.0</ele><time>2026-04-18T14:06:32.05Z</time></trkpt><trkpt lat="44.2717633" lon="11.4221767"><ele>592.0</ele><time>2026-04-18T14:06:33.05Z</time></trkpt><trkpt lat="44.2719" lon="11.4221383"><ele>592.0</ele><time>2026-04-18T14:06:34.05Z</time></trkpt><trkpt lat="44.2720367" lon="11.4220933"><ele>590.25</ele><time>2026-04-18T14:06:35.049Z</time></trkpt><trkpt lat="44.2721733" lon="11.4220517"><ele>588.5</ele><time>2026-04-18T14:06:36.05Z</time></trkpt><trkpt lat="44.27231" lon="11.42203"><ele>586.75</ele><time>2026-04-18T14:06:37.05Z</time></trkpt><trkpt lat="44.2724467" lon="11.422025"><ele>585.0</ele><time>2026-04-18T14:06:38.05Z</time></trkpt><trkpt lat="44.272595" lon="11.42202"><ele>584.5</ele><time>2026-04-18T14:06:39.049Z</time></trkpt><trkpt lat="44.2727333" lon="11.422015"><ele>584.0</ele><time>2026-04-18T14:06:40.05Z</time></trkpt><trkpt lat="44.27288" lon="11.4220283"><ele>583.5</ele><time>2026-04-18T14:06:41.05Z</time></trkpt><trkpt lat="44.2730183" lon="11.4220267"><ele>583.0</ele><time>2026-04-18T14:06:42.05Z</time></trkpt><trkpt lat="44.273165" lon="11.4220317"><ele>583.0</ele><time>2026-04-18T14:06:43.05Z</time></trkpt><trkpt lat="44.2733117" lon="11.4220317"><ele>583.0</ele><time>2026-04-18T14:06:44.05Z</time></trkpt><trkpt lat="44.2734567" lon="11.4220483"><ele>583.0</ele><time>2026-04-18T14:06:45.05Z</time></trkpt><trkpt lat="44.2736" lon="11.4220833"><ele>583.0</ele><time>2026-04-18T14:06:46.05Z</time></trkpt><trkpt lat="44.27373" lon="11.42214"><ele>583.0</ele><time>2026-04-18T14:06:47.05Z</time></trkpt><trkpt lat="44.273865" lon="11.4221883"><ele>583.0</ele><time>2026-04-18T14:06:48.05Z</time></trkpt><trkpt lat="44.27396" lon="11.4222167"><ele>583.0</ele><time>2026-04-18T14:06:49.05Z</time></trkpt><trkpt lat="44.27407" lon="11.4222017"><ele>583.0</ele><time>2026-04-18T14:06:50.05Z</time></trkpt><trkpt lat="44.2741933" lon="11.4221583"><ele>583.75</ele><time>2026-04-18T14:06:51.05Z</time></trkpt><trkpt lat="44.274315" lon="11.42209"><ele>584.5</ele><time>2026-04-18T14:06:52.05Z</time></trkpt><trkpt lat="44.2744483" lon="11.4220067"><ele>585.25</ele><time>2026-04-18T14:06:53.05Z</time></trkpt><trkpt lat="44.27458" lon="11.4219233"><ele>586.0</ele><time>2026-04-18T14:06:54.05Z</time></trkpt><trkpt lat="44.2747133" lon="11.4218567"><ele>585.75</ele><time>2026-04-18T14:06:55.05Z</time></trkpt><trkpt lat="44.2748583" lon="11.4218117"><ele>585.5</ele><time>2026-04-18T14:06:56.05Z</time></trkpt><trkpt lat="44.2750067" lon="11.4217767"><ele>585.25</ele><time>2026-04-18T14:06:57.05Z</time></trkpt><trkpt lat="44.2751467" lon="11.42174"><ele>585.0</ele><time>2026-04-18T14:06:58.05Z</time></trkpt><trkpt lat="44.27528" lon="11.4217183"><ele>585.0</ele><time>2026-04-18T14:06:59.05Z</time></trkpt><trkpt lat="44.275405" lon="11.4217167"><ele>585.0</ele><time>2026-04-18T14:07:00.05Z</time></trkpt><trkpt lat="44.2755083" lon="11.421745"><ele>585.0</ele><time>2026-04-18T14:07:01.05Z</time></trkpt><trkpt lat="44.2755983" lon="11.421805"><ele>585.0</ele><time>2026-04-18T14:07:02.05Z</time></trkpt><trkpt lat="44.2756767" lon="11.421905"><ele>585.0</ele><time>2026-04-18T14:07:03.05Z</time></trkpt><trkpt lat="44.2757433" lon="11.4220233"><ele>582.25</ele><time>2026-04-18T14:07:04.05Z</time></trkpt><trkpt lat="44.2758183" lon="11.4221517"><ele>579.5</ele><time>2026-04-18T14:07:05.05Z</time></trkpt><trkpt lat="44.2759133" lon="11.4222867"><ele>576.75</ele><time>2026-04-18T14:07:06.05Z</time></trkpt><trkpt lat="44.2760567" lon="11.4224367"><ele>574.0</ele><time>2026-04-18T14:07:07.049Z</time></trkpt><trkpt lat="44.27621" lon="11.42256"><ele>574.0</ele><time>2026-04-18T14:07:08.05Z</time></trkpt><trkpt lat="44.276355" lon="11.4226817"><ele>574.0</ele><time>2026-04-18T14:07:09.05Z</time></trkpt><trkpt lat="44.2764933" lon="11.4227933"><ele>574.0</ele><time>2026-04-18T14:07:10.05Z</time></trkpt><trkpt lat="44.2766333" lon="11.4229033"><ele>573.5</ele><time>2026-04-18T14:07:11.049Z</time></trkpt><trkpt lat="44.2767733" lon="11.422985"><ele>573.0</ele><time>2026-04-18T14:07:12.05Z</time></trkpt><trkpt lat="44.276915" lon="11.4230133"><ele>572.5</ele><time>2026-04-18T14:07:13.05Z</time></trkpt><trkpt lat="44.2770483" lon="11.4230233"><ele>572.0</ele><time>2026-04-18T14:07:14.05Z</time></trkpt><trkpt lat="44.2771867" lon="11.423035"><ele>572.75</ele><time>2026-04-18T14:07:15.049Z</time></trkpt><trkpt lat="44.2773133" lon="11.4230433"><ele>573.5</ele><time>2026-04-18T14:07:16.049Z</time></trkpt><trkpt lat="44.2774217" lon="11.4230533"><ele>574.25</ele><time>2026-04-18T14:07:17.05Z</time></trkpt><trkpt lat="44.2775367" lon="11.423075"><ele>575.0</ele><time>2026-04-18T14:07:18.05Z</time></trkpt><trkpt lat="44.2776633" lon="11.4231217"><ele>575.0</ele><time>2026-04-18T14:07:19.05Z</time></trkpt><trkpt lat="44.2777833" lon="11.4231783"><ele>575.0</ele><time>2026-04-18T14:07:20.05Z</time></trkpt><trkpt lat="44.277915" lon="11.4232317"><ele>575.0</ele><time>2026-04-18T14:07:21.05Z</time></trkpt><trkpt lat="44.2780517" lon="11.423275"><ele>575.0</ele><time>2026-04-18T14:07:22.05Z</time></trkpt><trkpt lat="44.2782067" lon="11.4233117"><ele>573.75</ele><time>2026-04-18T14:07:23.049Z</time></trkpt><trkpt lat="44.2783383" lon="11.4233667"><ele>572.5</ele><time>2026-04-18T14:07:24.05Z</time></trkpt><trkpt lat="44.2784633" lon="11.4234267"><ele>571.25</ele><time>2026-04-18T14:07:25.05Z</time></trkpt><trkpt lat="44.2785567" lon="11.423505"><ele>570.0</ele><time>2026-04-18T14:07:26.05Z</time></trkpt><trkpt lat="44.2786383" lon="11.42361"><ele>570.0</ele><time>2026-04-18T14:07:27.05Z</time></trkpt><trkpt lat="44.2786933" lon="11.423735"><ele>570.0</ele><time>2026-04-18T14:07:28.05Z</time></trkpt><trkpt lat="44.2787683" lon="11.42385"><ele>570.0</ele><time>2026-04-18T14:07:29.049Z</time></trkpt><trkpt lat="44.27887" lon="11.42395"><ele>570.0</ele><time>2026-04-18T14:07:30.049Z</time></trkpt><trkpt lat="44.278985" lon="11.4240167"><ele>569.25</ele><time>2026-04-18T14:07:31.05Z</time></trkpt><trkpt lat="44.27911" lon="11.424055"><ele>568.5</ele><time>2026-04-18T14:07:32.05Z</time></trkpt><trkpt lat="44.2792267" lon="11.424065"><ele>567.75</ele><time>2026-04-18T14:07:33.05Z</time></trkpt><trkpt lat="44.2793383" lon="11.424075"><ele>567.0</ele><time>2026-04-18T14:07:34.05Z</time></trkpt><trkpt lat="44.279435" lon="11.4240833"><ele>567.0</ele><time>2026-04-18T14:07:35.05Z</time></trkpt><trkpt lat="44.2795283" lon="11.4241067"><ele>567.0</ele><time>2026-04-18T14:07:36.05Z</time></trkpt><trkpt lat="44.27962" lon="11.4241583"><ele>567.0</ele><time>2026-04-18T14:07:37.05Z</time></trkpt><trkpt lat="44.2797083" lon="11.424235"><ele>567.0</ele><time>2026-04-18T14:07:38.05Z</time></trkpt><trkpt lat="44.2798133" lon="11.4242983"><ele>567.0</ele><time>2026-04-18T14:07:39.05Z</time></trkpt><trkpt lat="44.279915" lon="11.424325"><ele>565.75</ele><time>2026-04-18T14:07:40.05Z</time></trkpt><trkpt lat="44.2800383" lon="11.4243217"><ele>564.5</ele><time>2026-04-18T14:07:41.049Z</time></trkpt><trkpt lat="44.280155" lon="11.4242817"><ele>563.25</ele><time>2026-04-18T14:07:42.049Z</time></trkpt><trkpt lat="44.2802867" lon="11.4242183"><ele>562.0</ele><time>2026-04-18T14:07:43.049Z</time></trkpt><trkpt lat="44.2804217" lon="11.4241583"><ele>562.0</ele><time>2026-04-18T14:07:44.05Z</time></trkpt><trkpt lat="44.280555" lon="11.4241167"><ele>562.0</ele><time>2026-04-18T14:07:45.049Z</time></trkpt><trkpt lat="44.280685" lon="11.424085"><ele>562.0</ele><time>2026-04-18T14:07:46.05Z</time></trkpt><trkpt lat="44.28083" lon="11.42404"><ele>562.0</ele><time>2026-04-18T14:07:47.05Z</time></trkpt><trkpt lat="44.2809483" lon="11.4239783"><ele>561.75</ele><time>2026-04-18T14:07:48.05Z</time></trkpt><trkpt lat="44.2810533" lon="11.4239167"><ele>561.5</ele><time>2026-04-18T14:07:49.05Z</time></trkpt><trkpt lat="44.2811633" lon="11.42386"><ele>561.25</ele><time>2026-04-18T14:07:50.05Z</time></trkpt><trkpt lat="44.2812833" lon="11.4238417"><ele>561.0</ele><time>2026-04-18T14:07:51.049Z</time></trkpt><trkpt lat="44.2814067" lon="11.4238917"><ele>559.25</ele><time>2026-04-18T14:07:52.05Z</time></trkpt><trkpt lat="44.2815383" lon="11.4239867"><ele>557.5</ele><time>2026-04-18T14:07:53.05Z</time></trkpt><trkpt lat="44.281645" lon="11.42409"><ele>555.75</ele><time>2026-04-18T14:07:54.05Z</time></trkpt><trkpt lat="44.2817433" lon="11.4242033"><ele>554.0</ele><time>2026-04-18T14:07:55.049Z</time></trkpt><trkpt lat="44.2818433" lon="11.4243333"><ele>554.0</ele><time>2026-04-18T14:07:56.049Z</time></trkpt><trkpt lat="44.2819483" lon="11.424445"><ele>554.0</ele><time>2026-04-18T14:07:57.05Z</time></trkpt><trkpt lat="44.282065" lon="11.4245333"><ele>554.0</ele><time>2026-04-18T14:07:58.05Z</time></trkpt><trkpt lat="44.28219" lon="11.424565"><ele>554.0</ele><time>2026-04-18T14:07:59.05Z</time></trkpt><trkpt lat="44.2823033" lon="11.42458"><ele>554.75</ele><time>2026-04-18T14:08:00.05Z</time></trkpt><trkpt lat="44.2824283" lon="11.4245633"><ele>555.5</ele><time>2026-04-18T14:08:01.05Z</time></trkpt><trkpt lat="44.282545" lon="11.4245933"><ele>556.25</ele><time>2026-04-18T14:08:02.05Z</time></trkpt><trkpt lat="44.2826517" lon="11.42466"><ele>557.0</ele><time>2026-04-18T14:08:03.05Z</time></trkpt><trkpt lat="44.282755" lon="11.424715"><ele>557.0</ele><time>2026-04-18T14:08:04.05Z</time></trkpt><trkpt lat="44.2828717" lon="11.4247567"><ele>557.0</ele><time>2026-04-18T14:08:05.049Z</time></trkpt><trkpt lat="44.28301" lon="11.4247667"><ele>557.0</ele><time>2026-04-18T14:08:06.05Z</time></trkpt><trkpt lat="44.2831633" lon="11.42476"><ele>557.0</ele><time>2026-04-18T14:08:07.05Z</time></trkpt><trkpt lat="44.28331" lon="11.4247617"><ele>554.0</ele><time>2026-04-18T14:08:08.049Z</time></trkpt><trkpt lat="44.2834233" lon="11.4247517"><ele>551.0</ele><time>2026-04-18T14:08:09.05Z</time></trkpt><trkpt lat="44.2835317" lon="11.4247417"><ele>548.0</ele><time>2026-04-18T14:08:10.05Z</time></trkpt><trkpt lat="44.28365" lon="11.424725"><ele>545.0</ele><time>2026-04-18T14:08:11.05Z</time></trkpt><trkpt lat="44.2837717" lon="11.4246967"><ele>545.0</ele><time>2026-04-18T14:08:12.049Z</time></trkpt><trkpt lat="44.2839" lon="11.42468"><ele>545.0</ele><time>2026-04-18T14:08:13.05Z</time></trkpt><trkpt lat="44.28403" lon="11.42465"><ele>545.0</ele><time>2026-04-18T14:08:14.05Z</time></trkpt><trkpt lat="44.2841717" lon="11.42462"><ele>545.0</ele><time>2026-04-18T14:08:15.05Z</time></trkpt><trkpt lat="44.284295" lon="11.4245683"><ele>540.5</ele><time>2026-04-18T14:08:16.05Z</time></trkpt><trkpt lat="44.284415" lon="11.4245233"><ele>536.0</ele><time>2026-04-18T14:08:17.05Z</time></trkpt><trkpt lat="44.28455" lon="11.4244933"><ele>531.5</ele><time>2026-04-18T14:08:18.05Z</time></trkpt><trkpt lat="44.28468" lon="11.424475"><ele>527.0</ele><time>2026-04-18T14:08:19.05Z</time></trkpt><trkpt lat="44.28483" lon="11.4244567"><ele>527.0</ele><time>2026-04-18T14:08:20.049Z</time></trkpt><trkpt lat="44.2849733" lon="11.42444"><ele>527.0</ele><time>2026-04-18T14:08:21.05Z</time></trkpt><trkpt lat="44.2851183" lon="11.4244333"><ele>527.0</ele><time>2026-04-18T14:08:22.05Z</time></trkpt><trkpt lat="44.2852717" lon="11.424435"><ele>527.0</ele><time>2026-04-18T14:08:23.05Z</time></trkpt><trkpt lat="44.285425" lon="11.4244483"><ele>527.0</ele><time>2026-04-18T14:08:24.05Z</time></trkpt><trkpt lat="44.2855783" lon="11.4244717"><ele>527.0</ele><time>2026-04-18T14:08:25.05Z</time></trkpt><trkpt lat="44.2857233" lon="11.4244933"><ele>527.0</ele><time>2026-04-18T14:08:26.05Z</time></trkpt><trkpt lat="44.285855" lon="11.42451"><ele>527.0</ele><time>2026-04-18T14:08:27.05Z</time></trkpt><trkpt lat="44.2859633" lon="11.4244983"><ele>527.3333333333333</ele><time>2026-04-18T14:08:28.05Z</time></trkpt><trkpt lat="44.2860533" lon="11.4244517"><ele>527.6666666666666</ele><time>2026-04-18T14:08:29.05Z</time></trkpt><trkpt lat="44.28613" lon="11.4243967"><ele>528.0</ele><time>2026-04-18T14:08:30.05Z</time></trkpt><trkpt lat="44.2861917" lon="11.4243383"><ele>528.3333333333334</ele><time>2026-04-18T14:08:31.05Z</time></trkpt><trkpt lat="44.2862567" lon="11.4242867"><ele>528.6666666666667</ele><time>2026-04-18T14:08:33.05Z</time></trkpt><trkpt lat="44.2862633" lon="11.4243767"><ele>529.0</ele><time>2026-04-18T14:08:37.05Z</time></trkpt><trkpt lat="44.2862" lon="11.4244917"><ele>529.0</ele><time>2026-04-18T14:08:39.05Z</time></trkpt><trkpt lat="44.286155" lon="11.424555"><ele>529.0</ele><time>2026-04-18T14:08:40.05Z</time></trkpt><trkpt lat="44.2860983" lon="11.4246167"><ele>529.0</ele><time>2026-04-18T14:08:41.05Z</time></trkpt><trkpt lat="44.286045" lon="11.424685"><ele>529.0</ele><time>2026-04-18T14:08:42.05Z</time></trkpt><trkpt lat="44.2859767" lon="11.4247383"><ele>529.0</ele><time>2026-04-18T14:08:43.049Z</time></trkpt><trkpt lat="44.2859067" lon="11.42479"><ele>529.0</ele><time>2026-04-18T14:08:44.049Z</time></trkpt><trkpt lat="44.28583" lon="11.42483"><ele>529.0</ele><time>2026-04-18T14:08:45.05Z</time></trkpt><trkpt lat="44.2857517" lon="11.4248417"><ele>528.6666666666667</ele><time>2026-04-18T14:08:46.05Z</time></trkpt><trkpt lat="44.2856717" lon="11.424845"><ele>528.3333333333334</ele><time>2026-04-18T14:08:47.05Z</time></trkpt><trkpt lat="44.2855833" lon="11.424845"><ele>528.0</ele><time>2026-04-18T14:08:48.05Z</time></trkpt><trkpt lat="44.2854933" lon="11.4248583"><ele>527.6666666666666</ele><time>2026-04-18T14:08:49.049Z</time></trkpt><trkpt lat="44.2854033" lon="11.4248783"><ele>527.3333333333333</ele><time>2026-04-18T14:08:50.05Z</time></trkpt><trkpt lat="44.2853133" lon="11.4249133"><ele>527.0</ele><time>2026-04-18T14:08:51.05Z</time></trkpt><trkpt lat="44.2852167" lon="11.4249433"><ele>526.6</ele><time>2026-04-18T14:08:52.05Z</time></trkpt><trkpt lat="44.285135" lon="11.424975"><ele>526.2</ele><time>2026-04-18T14:08:53.05Z</time></trkpt><trkpt lat="44.2850533" lon="11.4250183"><ele>525.8</ele><time>2026-04-18T14:08:54.05Z</time></trkpt><trkpt lat="44.2849717" lon="11.42509"><ele>525.4</ele><time>2026-04-18T14:08:55.049Z</time></trkpt><trkpt lat="44.2848983" lon="11.4251767"><ele>525.0</ele><time>2026-04-18T14:08:56.05Z</time></trkpt><trkpt lat="44.2848367" lon="11.42528"><ele>525.0</ele><time>2026-04-18T14:08:57.05Z</time></trkpt><trkpt lat="44.2847817" lon="11.4253883"><ele>525.0</ele><time>2026-04-18T14:08:58.05Z</time></trkpt><trkpt lat="44.2847317" lon="11.4255033"><ele>525.0</ele><time>2026-04-18T14:08:59.05Z</time></trkpt><trkpt lat="44.2846883" lon="11.425605"><ele>525.0</ele><time>2026-04-18T14:09:00.05Z</time></trkpt><trkpt lat="44.284645" lon="11.4257067"><ele>525.0</ele><time>2026-04-18T14:09:01.05Z</time></trkpt><trkpt lat="44.2846017" lon="11.4257867"><ele>525.0</ele><time>2026-04-18T14:09:02.049Z</time></trkpt><trkpt lat="44.2845333" lon="11.4259183"><ele>524.8333333333334</ele><time>2026-04-18T14:09:04.05Z</time></trkpt><trkpt lat="44.2845483" lon="11.42605"><ele>524.6666666666666</ele><time>2026-04-18T14:09:06.049Z</time></trkpt><trkpt lat="44.28458" lon="11.4261333"><ele>524.5</ele><time>2026-04-18T14:09:07.05Z</time></trkpt><trkpt lat="44.284635" lon="11.4262117"><ele>524.3333333333333</ele><time>2026-04-18T14:09:08.05Z</time></trkpt><trkpt lat="44.28471" lon="11.4262683"><ele>524.1666666666666</ele><time>2026-04-18T14:09:09.05Z</time></trkpt><trkpt lat="44.28479" lon="11.4263"><ele>524.0</ele><time>2026-04-18T14:09:10.05Z</time></trkpt><trkpt lat="44.2848733" lon="11.4263067"><ele>521.8</ele><time>2026-04-18T14:09:11.049Z</time></trkpt><trkpt lat="44.2849667" lon="11.4262633"><ele>519.5999999999999</ele><time>2026-04-18T14:09:12.05Z</time></trkpt><trkpt lat="44.2850567" lon="11.4262"><ele>517.4</ele><time>2026-04-18T14:09:13.049Z</time></trkpt><trkpt lat="44.2851333" lon="11.4261283"><ele>515.1999999999999</ele><time>2026-04-18T14:09:14.05Z</time></trkpt><trkpt lat="44.285185" lon="11.4260283"><ele>513.0</ele><time>2026-04-18T14:09:15.049Z</time></trkpt><trkpt lat="44.2852317" lon="11.42593"><ele>513.0</ele><time>2026-04-18T14:09:16.05Z</time></trkpt><trkpt lat="44.28529" lon="11.42586"><ele>513.0</ele><time>2026-04-18T14:09:17.05Z</time></trkpt><trkpt lat="44.2853583" lon="11.4258267"><ele>513.0</ele><time>2026-04-18T14:09:18.05Z</time></trkpt><trkpt lat="44.28545" lon="11.4258717"><ele>513.0</ele><time>2026-04-18T14:09:19.049Z</time></trkpt><trkpt lat="44.2855417" lon="11.4259233"><ele>513.0</ele><time>2026-04-18T14:09:20.05Z</time></trkpt><trkpt lat="44.285635" lon="11.42597"><ele>513.0</ele><time>2026-04-18T14:09:21.049Z</time></trkpt><trkpt lat="44.285735" lon="11.426015"><ele>512.75</ele><time>2026-04-18T14:09:22.049Z</time></trkpt><trkpt lat="44.2858417" lon="11.4260567"><ele>512.5</ele><time>2026-04-18T14:09:23.049Z</time></trkpt><trkpt lat="44.2859567" lon="11.4261"><ele>512.25</ele><time>2026-04-18T14:09:24.049Z</time></trkpt><trkpt lat="44.2860667" lon="11.4261283"><ele>512.0</ele><time>2026-04-18T14:09:25.048Z</time></trkpt><trkpt lat="44.286185" lon="11.4261333"><ele>512.0</ele><time>2026-04-18T14:09:26.048Z</time></trkpt><trkpt lat="44.286295" lon="11.4261283"><ele>512.0</ele><time>2026-04-18T14:09:27.049Z</time></trkpt><trkpt lat="44.2863967" lon="11.4261317"><ele>512.0</ele><time>2026-04-18T14:09:28.049Z</time></trkpt><trkpt lat="44.2864917" lon="11.426145"><ele>512.0</ele><time>2026-04-18T14:09:29.049Z</time></trkpt><trkpt lat="44.2865717" lon="11.426195"><ele>512.0</ele><time>2026-04-18T14:09:30.049Z</time></trkpt><trkpt lat="44.2866533" lon="11.426265"><ele>509.66666666666663</ele><time>2026-04-18T14:09:31.049Z</time></trkpt><trkpt lat="44.2867283" lon="11.4263367"><ele>507.3333333333333</ele><time>2026-04-18T14:09:32.048Z</time></trkpt><trkpt lat="44.28679" lon="11.42643"><ele>505.0</ele><time>2026-04-18T14:09:33.049Z</time></trkpt><trkpt lat="44.28684" lon="11.4265267"><ele>502.66666666666663</ele><time>2026-04-18T14:09:34.048Z</time></trkpt><trkpt lat="44.2868917" lon="11.426595"><ele>500.3333333333333</ele><time>2026-04-18T14:09:35.048Z</time></trkpt><trkpt lat="44.2869433" lon="11.4266617"><ele>498.0</ele><time>2026-04-18T14:09:36.049Z</time></trkpt><trkpt lat="44.2870083" lon="11.4267183"><ele>498.0</ele><time>2026-04-18T14:09:37.048Z</time></trkpt><trkpt lat="44.287085" lon="11.4267517"><ele>498.0</ele><time>2026-04-18T14:09:38.049Z</time></trkpt><trkpt lat="44.28716" lon="11.426785"><ele>498.0</ele><time>2026-04-18T14:09:39.048Z</time></trkpt><trkpt lat="44.2872267" lon="11.426795"><ele>498.0</ele><time>2026-04-18T14:09:40.049Z</time></trkpt><trkpt lat="44.28735" lon="11.4267633"><ele>498.0</ele><time>2026-04-18T14:09:42.049Z</time></trkpt><trkpt lat="44.2874167" lon="11.4267267"><ele>498.0</ele><time>2026-04-18T14:09:43.048Z</time></trkpt><trkpt lat="44.287495" lon="11.4266817"><ele>499.4</ele><time>2026-04-18T14:09:44.049Z</time></trkpt><trkpt lat="44.2875833" lon="11.42664"><ele>500.79999999999995</ele><time>2026-04-18T14:09:45.049Z</time></trkpt><trkpt lat="44.2876867" lon="11.426615"><ele>502.2</ele><time>2026-04-18T14:09:46.049Z</time></trkpt><trkpt lat="44.2877933" lon="11.4266117"><ele>503.6</ele><time>2026-04-18T14:09:47.048Z</time></trkpt><trkpt lat="44.2878917" lon="11.42663"><ele>505.0</ele><time>2026-04-18T14:09:48.049Z</time></trkpt><trkpt lat="44.28799" lon="11.426655"><ele>505.00000000000006</ele><time>2026-04-18T14:09:49.049Z</time></trkpt><trkpt lat="44.2880783" lon="11.42667"><ele>505.0</ele><time>2026-04-18T14:09:50.049Z</time></trkpt><trkpt lat="44.2881617" lon="11.4266883"><ele>505.0</ele><time>2026-04-18T14:09:51.049Z</time></trkpt><trkpt lat="44.2882383" lon="11.4267333"><ele>505.0</ele><time>2026-04-18T14:09:52.049Z</time></trkpt><trkpt lat="44.288325" lon="11.42678"><ele>505.00000000000006</ele><time>2026-04-18T14:09:53.049Z</time></trkpt><trkpt lat="44.2883917" lon="11.4268483"><ele>505.0</ele><time>2026-04-18T14:09:54.049Z</time></trkpt><trkpt lat="44.2884533" lon="11.426905"><ele>504.8</ele><time>2026-04-18T14:09:55.049Z</time></trkpt><trkpt lat="44.2885083" lon="11.4269683"><ele>504.6</ele><time>2026-04-18T14:09:56.049Z</time></trkpt><trkpt lat="44.2885733" lon="11.4270567"><ele>504.4</ele><time>2026-04-18T14:09:57.049Z</time></trkpt><trkpt lat="44.2886383" lon="11.4271733"><ele>504.2</ele><time>2026-04-18T14:09:58.049Z</time></trkpt><trkpt lat="44.288685" lon="11.427295"><ele>504.0</ele><time>2026-04-18T14:09:59.049Z</time></trkpt><trkpt lat="44.288725" lon="11.4274267"><ele>502.3333333333333</ele><time>2026-04-18T14:10:00.049Z</time></trkpt><trkpt lat="44.288765" lon="11.427555"><ele>500.66666666666663</ele><time>2026-04-18T14:10:01.049Z</time></trkpt><trkpt lat="44.2887867" lon="11.4276683"><ele>499.0</ele><time>2026-04-18T14:10:02.049Z</time></trkpt><trkpt lat="44.2888083" lon="11.427775"><ele>497.3333333333333</ele><time>2026-04-18T14:10:03.049Z</time></trkpt><trkpt lat="44.2888417" lon="11.4278683"><ele>495.66666666666663</ele><time>2026-04-18T14:10:04.049Z</time></trkpt><trkpt lat="44.2889183" lon="11.427965"><ele>494.0</ele><time>2026-04-18T14:10:06.049Z</time></trkpt><trkpt lat="44.288985" lon="11.42799"><ele>493.99999999999994</ele><time>2026-04-18T14:10:07.048Z</time></trkpt><trkpt lat="44.289055" lon="11.4279967"><ele>494.0</ele><time>2026-04-18T14:10:08.049Z</time></trkpt><trkpt lat="44.2891283" lon="11.4280183"><ele>494.0</ele><time>2026-04-18T14:10:09.049Z</time></trkpt><trkpt lat="44.28921" lon="11.4280567"><ele>494.0</ele><time>2026-04-18T14:10:10.049Z</time></trkpt><trkpt lat="44.2892967" lon="11.42811"><ele>493.99999999999994</ele><time>2026-04-18T14:10:11.048Z</time></trkpt><trkpt lat="44.289385" lon="11.4281483"><ele>494.0</ele><time>2026-04-18T14:10:12.049Z</time></trkpt><trkpt lat="44.2894733" lon="11.4281617"><ele>493.99999999999994</ele><time>2026-04-18T14:10:13.049Z</time></trkpt><trkpt lat="44.289555" lon="11.4281583"><ele>494.0</ele><time>2026-04-18T14:10:14.049Z</time></trkpt><trkpt lat="44.2896433" lon="11.4281433"><ele>494.0</ele><time>2026-04-18T14:10:15.049Z</time></trkpt><trkpt lat="44.289725" lon="11.42811"><ele>494.0</ele><time>2026-04-18T14:10:16.049Z</time></trkpt><trkpt lat="44.2897983" lon="11.4280867"><ele>493.99999999999994</ele><time>2026-04-18T14:10:17.049Z</time></trkpt><trkpt lat="44.28988" lon="11.4280617"><ele>494.0</ele><time>2026-04-18T14:10:18.049Z</time></trkpt><trkpt lat="44.2899683" lon="11.428045"><ele>494.99999999999994</ele><time>2026-04-18T14:10:19.049Z</time></trkpt><trkpt lat="44.2900483" lon="11.42801"><ele>496.0</ele><time>2026-04-18T14:10:20.049Z</time></trkpt><trkpt lat="44.2901133" lon="11.42794"><ele>497.0</ele><time>2026-04-18T14:10:21.049Z</time></trkpt><trkpt lat="44.2901667" lon="11.4278533"><ele>498.0</ele><time>2026-04-18T14:10:22.049Z</time></trkpt><trkpt lat="44.290225" lon="11.4277583"><ele>498.99999999999994</ele><time>2026-04-18T14:10:23.048Z</time></trkpt><trkpt lat="44.2902867" lon="11.427675"><ele>500.0</ele><time>2026-04-18T14:10:24.049Z</time></trkpt><trkpt lat="44.2903533" lon="11.4275917"><ele>499.99999999999994</ele><time>2026-04-18T14:10:25.049Z</time></trkpt><trkpt lat="44.2904283" lon="11.42754"><ele>500.0</ele><time>2026-04-18T14:10:26.049Z</time></trkpt><trkpt lat="44.290505" lon="11.42751"><ele>500.0</ele><time>2026-04-18T14:10:27.049Z</time></trkpt><trkpt lat="44.29058" lon="11.4275083"><ele>500.0</ele><time>2026-04-18T14:10:28.049Z</time></trkpt><trkpt lat="44.2906467" lon="11.4275283"><ele>499.99999999999994</ele><time>2026-04-18T14:10:29.048Z</time></trkpt><trkpt lat="44.2907183" lon="11.427575"><ele>500.0</ele><time>2026-04-18T14:10:30.048Z</time></trkpt><trkpt lat="44.2907967" lon="11.4276283"><ele>498.66666666666663</ele><time>2026-04-18T14:10:31.049Z</time></trkpt><trkpt lat="44.2908717" lon="11.427685"><ele>497.3333333333333</ele><time>2026-04-18T14:10:32.049Z</time></trkpt><trkpt lat="44.290935" lon="11.42771"><ele>496.0</ele><time>2026-04-18T14:10:33.049Z</time></trkpt><trkpt lat="44.2909983" lon="11.4277183"><ele>494.66666666666663</ele><time>2026-04-18T14:10:34.049Z</time></trkpt><trkpt lat="44.2910783" lon="11.4276967"><ele>493.3333333333333</ele><time>2026-04-18T14:10:35.049Z</time></trkpt><trkpt lat="44.2911383" lon="11.4275833"><ele>492.0</ele><time>2026-04-18T14:10:36.049Z</time></trkpt><trkpt lat="44.2911933" lon="11.4274883"><ele>492.0</ele><time>2026-04-18T14:10:37.049Z</time></trkpt><trkpt lat="44.2912583" lon="11.4273983"><ele>492.00000000000006</ele><time>2026-04-18T14:10:38.049Z</time></trkpt><trkpt lat="44.2913333" lon="11.4273283"><ele>492.00000000000006</ele><time>2026-04-18T14:10:39.049Z</time></trkpt><trkpt lat="44.2914167" lon="11.4272683"><ele>492.0</ele><time>2026-04-18T14:10:40.049Z</time></trkpt><trkpt lat="44.2915083" lon="11.4272283"><ele>492.0</ele><time>2026-04-18T14:10:41.049Z</time></trkpt><trkpt lat="44.2916" lon="11.4272267"><ele>491.40000000000003</ele><time>2026-04-18T14:10:42.049Z</time></trkpt><trkpt lat="44.2916917" lon="11.427245"><ele>490.80000000000007</ele><time>2026-04-18T14:10:43.049Z</time></trkpt><trkpt lat="44.2917783" lon="11.4272933"><ele>490.2</ele><time>2026-04-18T14:10:44.049Z</time></trkpt><trkpt lat="44.2918717" lon="11.4273667"><ele>489.6</ele><time>2026-04-18T14:10:45.049Z</time></trkpt><trkpt lat="44.2919633" lon="11.427445"><ele>489.0</ele><time>2026-04-18T14:10:46.049Z</time></trkpt><trkpt lat="44.2920333" lon="11.4275233"><ele>489.0</ele><time>2026-04-18T14:10:47.049Z</time></trkpt><trkpt lat="44.2921" lon="11.427635"><ele>489.0</ele><time>2026-04-18T14:10:48.049Z</time></trkpt><trkpt lat="44.2921533" lon="11.4277617"><ele>489.0</ele><time>2026-04-18T14:10:49.049Z</time></trkpt><trkpt lat="44.2922083" lon="11.42787"><ele>489.0</ele><time>2026-04-18T14:10:50.048Z</time></trkpt><trkpt lat="44.292285" lon="11.427955"><ele>489.0</ele><time>2026-04-18T14:10:51.049Z</time></trkpt><trkpt lat="44.2923633" lon="11.4280167"><ele>488.2</ele><time>2026-04-18T14:10:52.049Z</time></trkpt><trkpt lat="44.29246" lon="11.42807"><ele>487.4</ele><time>2026-04-18T14:10:53.049Z</time></trkpt><trkpt lat="44.2925667" lon="11.4280967"><ele>486.6</ele><time>2026-04-18T14:10:54.049Z</time></trkpt><trkpt lat="44.2926683" lon="11.42811"><ele>485.8</ele><time>2026-04-18T14:10:55.049Z</time></trkpt><trkpt lat="44.2927667" lon="11.4281333"><ele>485.0</ele><time>2026-04-18T14:10:56.049Z</time></trkpt><trkpt lat="44.2928667" lon="11.428155"><ele>485.0</ele><time>2026-04-18T14:10:57.048Z</time></trkpt><trkpt lat="44.29295" lon="11.4281567"><ele>485.0</ele><time>2026-04-18T14:10:58.049Z</time></trkpt><trkpt lat="44.2930417" lon="11.4281567"><ele>485.0</ele><time>2026-04-18T14:10:59.049Z</time></trkpt><trkpt lat="44.29313" lon="11.4281367"><ele>485.0</ele><time>2026-04-18T14:11:00.049Z</time></trkpt><trkpt lat="44.2932233" lon="11.4281"><ele>485.0</ele><time>2026-04-18T14:11:01.048Z</time></trkpt><trkpt lat="44.293325" lon="11.4280583"><ele>487.25</ele><time>2026-04-18T14:11:02.048Z</time></trkpt><trkpt lat="44.293425" lon="11.428005"><ele>489.5</ele><time>2026-04-18T14:11:03.049Z</time></trkpt><trkpt lat="44.2935283" lon="11.4279383"><ele>491.75</ele><time>2026-04-18T14:11:04.049Z</time></trkpt><trkpt lat="44.29363" lon="11.4278517"><ele>494.0</ele><time>2026-04-18T14:11:05.049Z</time></trkpt><trkpt lat="44.2937467" lon="11.4277783"><ele>495.0</ele><time>2026-04-18T14:11:06.049Z</time></trkpt><trkpt lat="44.293865" lon="11.4277133"><ele>496.0</ele><time>2026-04-18T14:11:07.049Z</time></trkpt><trkpt lat="44.2939667" lon="11.427635"><ele>497.0</ele><time>2026-04-18T14:11:08.049Z</time></trkpt><trkpt lat="44.2940683" lon="11.4275467"><ele>498.0</ele><time>2026-04-18T14:11:09.049Z</time></trkpt><trkpt lat="44.2941433" lon="11.427465"><ele>498.0</ele><time>2026-04-18T14:11:10.048Z</time></trkpt><trkpt lat="44.2942067" lon="11.42739"><ele>497.99999999999994</ele><time>2026-04-18T14:11:11.049Z</time></trkpt><trkpt lat="44.294255" lon="11.4272967"><ele>497.99999999999994</ele><time>2026-04-18T14:11:12.048Z</time></trkpt><trkpt lat="44.2942917" lon="11.42719"><ele>498.0</ele><time>2026-04-18T14:11:13.049Z</time></trkpt><trkpt lat="44.2943283" lon="11.4270517"><ele>498.0</ele><time>2026-04-18T14:11:14.049Z</time></trkpt><trkpt lat="44.2943633" lon="11.4268933"><ele>498.4</ele><time>2026-04-18T14:11:15.049Z</time></trkpt><trkpt lat="44.2944017" lon="11.426755"><ele>498.79999999999995</ele><time>2026-04-18T14:11:16.048Z</time></trkpt><trkpt lat="44.2944433" lon="11.42662"><ele>499.2</ele><time>2026-04-18T14:11:17.049Z</time></trkpt><trkpt lat="44.294475" lon="11.4264833"><ele>499.6</ele><time>2026-04-18T14:11:18.049Z</time></trkpt><trkpt lat="44.294515" lon="11.4263617"><ele>500.0</ele><time>2026-04-18T14:11:19.049Z</time></trkpt><trkpt lat="44.2945667" lon="11.4262733"><ele>501.0</ele><time>2026-04-18T14:11:20.049Z</time></trkpt><trkpt lat="44.294685" lon="11.4262083"><ele>502.0</ele><time>2026-04-18T14:11:22.049Z</time></trkpt><trkpt lat="44.2947717" lon="11.4262017"><ele>503.0</ele><time>2026-04-18T14:11:23.049Z</time></trkpt><trkpt lat="44.29486" lon="11.4261783"><ele>504.0</ele><time>2026-04-18T14:11:24.049Z</time></trkpt><trkpt lat="44.294945" lon="11.426155"><ele>505.0</ele><time>2026-04-18T14:11:25.049Z</time></trkpt><trkpt lat="44.2950433" lon="11.4261383"><ele>502.6</ele><time>2026-04-18T14:11:26.048Z</time></trkpt><trkpt lat="44.295155" lon="11.4261433"><ele>500.2</ele><time>2026-04-18T14:11:27.049Z</time></trkpt><trkpt lat="44.2952683" lon="11.4261533"><ele>497.79999999999995</ele><time>2026-04-18T14:11:28.049Z</time></trkpt><trkpt lat="44.2953833" lon="11.4261533"><ele>495.4</ele><time>2026-04-18T14:11:29.049Z</time></trkpt><trkpt lat="44.2954783" lon="11.4261367"><ele>493.0</ele><time>2026-04-18T14:11:30.049Z</time></trkpt><trkpt lat="44.2955833" lon="11.4261"><ele>491.4</ele><time>2026-04-18T14:11:31.048Z</time></trkpt><trkpt lat="44.2956883" lon="11.4260667"><ele>489.79999999999995</ele><time>2026-04-18T14:11:32.049Z</time></trkpt><trkpt lat="44.295805" lon="11.42603"><ele>488.2</ele><time>2026-04-18T14:11:33.049Z</time></trkpt><trkpt lat="44.29591" lon="11.425995"><ele>486.6</ele><time>2026-04-18T14:11:34.049Z</time></trkpt><trkpt lat="44.2960117" lon="11.4259717"><ele>485.0</ele><time>2026-04-18T14:11:35.049Z</time></trkpt><trkpt lat="44.2960967" lon="11.4259483"><ele>484.99999999999994</ele><time>2026-04-18T14:11:36.049Z</time></trkpt><trkpt lat="44.2961767" lon="11.4259383"><ele>485.0</ele><time>2026-04-18T14:11:37.049Z</time></trkpt><trkpt lat="44.2962633" lon="11.42593"><ele>485.0</ele><time>2026-04-18T14:11:38.049Z</time></trkpt><trkpt lat="44.296355" lon="11.4259133"><ele>485.0</ele><time>2026-04-18T14:11:39.049Z</time></trkpt><trkpt lat="44.2964433" lon="11.42589"><ele>484.99999999999994</ele><time>2026-04-18T14:11:40.049Z</time></trkpt><trkpt lat="44.2965317" lon="11.425865"><ele>485.0</ele><time>2026-04-18T14:11:41.049Z</time></trkpt><trkpt lat="44.2966167" lon="11.4258367"><ele>484.0</ele><time>2026-04-18T14:11:42.048Z</time></trkpt><trkpt lat="44.2966817" lon="11.425815"><ele>483.0</ele><time>2026-04-18T14:11:43.049Z</time></trkpt><trkpt lat="44.2967817" lon="11.4257933"><ele>482.0</ele><time>2026-04-18T14:11:45.048Z</time></trkpt><trkpt lat="44.296845" lon="11.4257783"><ele>481.0</ele><time>2026-04-18T14:11:47.049Z</time></trkpt><trkpt lat="44.29698" lon="11.4256683"><ele>480.0</ele><time>2026-04-18T14:12:04.049Z</time></trkpt><trkpt lat="44.297025" lon="11.4255833"><ele>480.0</ele><time>2026-04-18T14:12:05.049Z</time></trkpt><trkpt lat="44.2970717" lon="11.42552"><ele>480.0</ele><time>2026-04-18T14:12:06.049Z</time></trkpt><trkpt lat="44.297105" lon="11.425435"><ele>480.0</ele><time>2026-04-18T14:12:07.049Z</time></trkpt><trkpt lat="44.2971367" lon="11.4253"><ele>480.0</ele><time>2026-04-18T14:12:09.049Z</time></trkpt><trkpt lat="44.297145" lon="11.42521"><ele>480.0</ele><time>2026-04-18T14:12:10.049Z</time></trkpt><trkpt lat="44.29716" lon="11.42504"><ele>480.0</ele><time>2026-04-18T14:12:12.049Z</time></trkpt><trkpt lat="44.2972367" lon="11.4249367"><ele>479.0</ele><time>2026-04-18T14:12:14.049Z</time></trkpt><trkpt lat="44.2973167" lon="11.4249367"><ele>478.0</ele><time>2026-04-18T14:12:16.048Z</time></trkpt><trkpt lat="44.297445" lon="11.4249917"><ele>477.0</ele><time>2026-04-18T14:12:18.049Z</time></trkpt><trkpt lat="44.297515" lon="11.425"><ele>476.0</ele><time>2026-04-18T14:12:19.049Z</time></trkpt><trkpt lat="44.2975817" lon="11.4249883"><ele>475.0</ele><time>2026-04-18T14:12:20.048Z</time></trkpt><trkpt lat="44.29765" lon="11.4249533"><ele>474.0</ele><time>2026-04-18T14:12:21.048Z</time></trkpt><trkpt lat="44.29772" lon="11.4248967"><ele>474.0</ele><time>2026-04-18T14:12:22.048Z</time></trkpt><trkpt lat="44.2978083" lon="11.42483"><ele>474.0</ele><time>2026-04-18T14:12:23.048Z</time></trkpt><trkpt lat="44.29789" lon="11.42476"><ele>474.0</ele><time>2026-04-18T14:12:24.048Z</time></trkpt><trkpt lat="44.298" lon="11.42472"><ele>474.0</ele><time>2026-04-18T14:12:25.048Z</time></trkpt><trkpt lat="44.2981133" lon="11.424705"><ele>474.0</ele><time>2026-04-18T14:12:26.047Z</time></trkpt><trkpt lat="44.2982317" lon="11.4247033"><ele>471.5</ele><time>2026-04-18T14:12:27.048Z</time></trkpt><trkpt lat="44.2983633" lon="11.4247083"><ele>469.0</ele><time>2026-04-18T14:12:28.048Z</time></trkpt><trkpt lat="44.2984933" lon="11.424715"><ele>466.5</ele><time>2026-04-18T14:12:29.048Z</time></trkpt><trkpt lat="44.2986233" lon="11.4247167"><ele>464.0</ele><time>2026-04-18T14:12:30.048Z</time></trkpt><trkpt lat="44.2987317" lon="11.4247383"><ele>464.0</ele><time>2026-04-18T14:12:31.048Z</time></trkpt><trkpt lat="44.298835" lon="11.4247483"><ele>464.0</ele><time>2026-04-18T14:12:32.047Z</time></trkpt><trkpt lat="44.2989567" lon="11.4247683"><ele>464.0</ele><time>2026-04-18T14:12:33.047Z</time></trkpt><trkpt lat="44.2990733" lon="11.42478"><ele>464.0</ele><time>2026-04-18T14:12:34.048Z</time></trkpt><trkpt lat="44.2991917" lon="11.4247767"><ele>464.0</ele><time>2026-04-18T14:12:35.048Z</time></trkpt><trkpt lat="44.29929" lon="11.42477"><ele>464.0</ele><time>2026-04-18T14:12:36.048Z</time></trkpt><trkpt lat="44.29939" lon="11.424775"><ele>464.0</ele><time>2026-04-18T14:12:37.048Z</time></trkpt><trkpt lat="44.2995117" lon="11.4247917"><ele>464.0</ele><time>2026-04-18T14:12:38.048Z</time></trkpt><trkpt lat="44.2996367" lon="11.4248283"><ele>464.0</ele><time>2026-04-18T14:12:39.048Z</time></trkpt><trkpt lat="44.2997783" lon="11.4248683"><ele>462.0</ele><time>2026-04-18T14:12:40.048Z</time></trkpt><trkpt lat="44.2999267" lon="11.4249217"><ele>460.0</ele><time>2026-04-18T14:12:41.047Z</time></trkpt><trkpt lat="44.3000633" lon="11.424985"><ele>458.0</ele><time>2026-04-18T14:12:42.048Z</time></trkpt><trkpt lat="44.300195" lon="11.4250467"><ele>456.0</ele><time>2026-04-18T14:12:43.048Z</time></trkpt><trkpt lat="44.3003267" lon="11.4251017"><ele>456.0</ele><time>2026-04-18T14:12:44.048Z</time></trkpt><trkpt lat="44.30046" lon="11.4251433"><ele>456.0</ele><time>2026-04-18T14:12:45.048Z</time></trkpt><trkpt lat="44.300595" lon="11.4251833"><ele>456.0</ele><time>2026-04-18T14:12:46.048Z</time></trkpt><trkpt lat="44.30072" lon="11.42521"><ele>456.0</ele><time>2026-04-18T14:12:47.048Z</time></trkpt><trkpt lat="44.30084" lon="11.42522"><ele>458.6</ele><time>2026-04-18T14:12:48.047Z</time></trkpt><trkpt lat="44.3009633" lon="11.4252383"><ele>461.20000000000005</ele><time>2026-04-18T14:12:49.048Z</time></trkpt><trkpt lat="44.3010567" lon="11.4252517"><ele>463.79999999999995</ele><time>2026-04-18T14:12:50.048Z</time></trkpt><trkpt lat="44.30114" lon="11.4252483"><ele>466.4</ele><time>2026-04-18T14:12:51.048Z</time></trkpt><trkpt lat="44.301235" lon="11.4252167"><ele>469.0</ele><time>2026-04-18T14:12:52.048Z</time></trkpt><trkpt lat="44.30133" lon="11.425175"><ele>472.2</ele><time>2026-04-18T14:12:53.047Z</time></trkpt><trkpt lat="44.3014283" lon="11.4251367"><ele>475.4</ele><time>2026-04-18T14:12:54.048Z</time></trkpt><trkpt lat="44.301525" lon="11.42512"><ele>478.6</ele><time>2026-04-18T14:12:55.048Z</time></trkpt><trkpt lat="44.3016333" lon="11.4251233"><ele>481.8</ele><time>2026-04-18T14:12:56.048Z</time></trkpt><trkpt lat="44.30175" lon="11.4251483"><ele>485.0</ele><time>2026-04-18T14:12:57.048Z</time></trkpt><trkpt lat="44.3018867" lon="11.4251817"><ele>485.0</ele><time>2026-04-18T14:12:58.048Z</time></trkpt><trkpt lat="44.30202" lon="11.425215"><ele>485.0</ele><time>2026-04-18T14:12:59.048Z</time></trkpt><trkpt lat="44.3021583" lon="11.4252567"><ele>485.0</ele><time>2026-04-18T14:13:00.048Z</time></trkpt><trkpt lat="44.3022933" lon="11.4252817"><ele>485.0</ele><time>2026-04-18T14:13:01.048Z</time></trkpt><trkpt lat="44.3024083" lon="11.425315"><ele>485.4</ele><time>2026-04-18T14:13:02.047Z</time></trkpt><trkpt lat="44.3025083" lon="11.4253633"><ele>485.8</ele><time>2026-04-18T14:13:03.048Z</time></trkpt><trkpt lat="44.3026017" lon="11.4254233"><ele>486.20000000000005</ele><time>2026-04-18T14:13:04.048Z</time></trkpt><trkpt lat="44.3026917" lon="11.4254883"><ele>486.6</ele><time>2026-04-18T14:13:05.048Z</time></trkpt><trkpt lat="44.302785" lon="11.4255633"><ele>487.0</ele><time>2026-04-18T14:13:06.048Z</time></trkpt><trkpt lat="44.3028817" lon="11.425655"><ele>487.0</ele><time>2026-04-18T14:13:07.048Z</time></trkpt><trkpt lat="44.30298" lon="11.42574"><ele>487.00000000000006</ele><time>2026-04-18T14:13:08.048Z</time></trkpt><trkpt lat="44.3030667" lon="11.4258333"><ele>487.00000000000006</ele><time>2026-04-18T14:13:09.048Z</time></trkpt><trkpt lat="44.3031333" lon="11.4259167"><ele>487.0</ele><time>2026-04-18T14:13:10.048Z</time></trkpt><trkpt lat="44.3032017" lon="11.4259933"><ele>487.0</ele><time>2026-04-18T14:13:11.048Z</time></trkpt><trkpt lat="44.3032733" lon="11.4260583"><ele>490.40000000000003</ele><time>2026-04-18T14:13:12.048Z</time></trkpt><trkpt lat="44.30335" lon="11.4261033"><ele>493.80000000000007</ele><time>2026-04-18T14:13:13.048Z</time></trkpt><trkpt lat="44.3034283" lon="11.426105"><ele>497.2</ele><time>2026-04-18T14:13:14.048Z</time></trkpt><trkpt lat="44.303525" lon="11.4261"><ele>500.6</ele><time>2026-04-18T14:13:15.048Z</time></trkpt><trkpt lat="44.3036317" lon="11.4260817"><ele>504.0</ele><time>2026-04-18T14:13:16.048Z</time></trkpt><trkpt lat="44.3037317" lon="11.426055"><ele>504.0</ele><time>2026-04-18T14:13:17.048Z</time></trkpt><trkpt lat="44.3038167" lon="11.4260383"><ele>504.0</ele><time>2026-04-18T14:13:18.048Z</time></trkpt><trkpt lat="44.3038983" lon="11.4260333"><ele>504.0</ele><time>2026-04-18T14:13:19.047Z</time></trkpt><trkpt lat="44.30398" lon="11.4260483"><ele>504.0</ele><time>2026-04-18T14:13:20.048Z</time></trkpt><trkpt lat="44.3040633" lon="11.426075"><ele>504.0</ele><time>2026-04-18T14:13:21.048Z</time></trkpt><trkpt lat="44.3041617" lon="11.426105"><ele>504.0</ele><time>2026-04-18T14:13:22.047Z</time></trkpt><trkpt lat="44.3042467" lon="11.4261267"><ele>506.0</ele><time>2026-04-18T14:13:23.048Z</time></trkpt><trkpt lat="44.3043417" lon="11.4261433"><ele>508.0</ele><time>2026-04-18T14:13:24.048Z</time></trkpt><trkpt lat="44.304435" lon="11.4261583"><ele>510.0</ele><time>2026-04-18T14:13:25.048Z</time></trkpt><trkpt lat="44.3045183" lon="11.4261883"><ele>512.0</ele><time>2026-04-18T14:13:26.048Z</time></trkpt><trkpt lat="44.3045917" lon="11.42624"><ele>514.0</ele><time>2026-04-18T14:13:27.048Z</time></trkpt><trkpt lat="44.3046683" lon="11.42632"><ele>514.0</ele><time>2026-04-18T14:13:28.048Z</time></trkpt><trkpt lat="44.3047567" lon="11.4264017"><ele>514.0</ele><time>2026-04-18T14:13:29.048Z</time></trkpt><trkpt lat="44.304865" lon="11.42649"><ele>514.0</ele><time>2026-04-18T14:13:30.047Z</time></trkpt><trkpt lat="44.3049783" lon="11.4265467"><ele>514.0</ele><time>2026-04-18T14:13:31.048Z</time></trkpt><trkpt lat="44.30511" lon="11.426595"><ele>514.0</ele><time>2026-04-18T14:13:32.048Z</time></trkpt><trkpt lat="44.30523" lon="11.4266283"><ele>514.0</ele><time>2026-04-18T14:13:33.048Z</time></trkpt><trkpt lat="44.3053467" lon="11.4266467"><ele>514.0</ele><time>2026-04-18T14:13:34.048Z</time></trkpt><trkpt lat="44.3054617" lon="11.4266633"><ele>514.0</ele><time>2026-04-18T14:13:35.048Z</time></trkpt><trkpt lat="44.305575" lon="11.4266917"><ele>512.2</ele><time>2026-04-18T14:13:36.047Z</time></trkpt><trkpt lat="44.305685" lon="11.426725"><ele>510.4</ele><time>2026-04-18T14:13:37.047Z</time></trkpt><trkpt lat="44.3057967" lon="11.426765"><ele>508.6</ele><time>2026-04-18T14:13:38.048Z</time></trkpt><trkpt lat="44.3058867" lon="11.42682"><ele>506.8</ele><time>2026-04-18T14:13:39.048Z</time></trkpt><trkpt lat="44.30596" lon="11.4268833"><ele>505.0</ele><time>2026-04-18T14:13:40.048Z</time></trkpt><trkpt lat="44.3060133" lon="11.4269533"><ele>505.00000000000006</ele><time>2026-04-18T14:13:41.048Z</time></trkpt><trkpt lat="44.3060683" lon="11.4270233"><ele>505.0</ele><time>2026-04-18T14:13:42.048Z</time></trkpt><trkpt lat="44.3061233" lon="11.4270967"><ele>505.0</ele><time>2026-04-18T14:13:43.048Z</time></trkpt><trkpt lat="44.3061783" lon="11.42716"><ele>505.0</ele><time>2026-04-18T14:13:44.047Z</time></trkpt><trkpt lat="44.3062733" lon="11.4272517"><ele>505.00000000000006</ele><time>2026-04-18T14:13:46.048Z</time></trkpt><trkpt lat="44.3063367" lon="11.42726"><ele>505.0</ele><time>2026-04-18T14:13:49.048Z</time></trkpt><trkpt lat="44.3063383" lon="11.4271367"><ele>503.2</ele><time>2026-04-18T14:25:07.044Z</time></trkpt><trkpt lat="44.3064633" lon="11.427135"><ele>501.4</ele><time>2026-04-18T14:25:09.044Z</time></trkpt><trkpt lat="44.30656" lon="11.427135"><ele>499.6</ele><time>2026-04-18T14:25:10.044Z</time></trkpt><trkpt lat="44.3066717" lon="11.4271117"><ele>497.8</ele><time>2026-04-18T14:25:11.043Z</time></trkpt><trkpt lat="44.3067733" lon="11.42709"><ele>496.0</ele><time>2026-04-18T14:25:12.044Z</time></trkpt><trkpt lat="44.3068733" lon="11.4270783"><ele>496.0</ele><time>2026-04-18T14:25:13.043Z</time></trkpt><trkpt lat="44.30697" lon="11.427075"><ele>496.0</ele><time>2026-04-18T14:25:14.043Z</time></trkpt><trkpt lat="44.3070683" lon="11.4270933"><ele>496.0</ele><time>2026-04-18T14:25:15.044Z</time></trkpt><trkpt lat="44.3071717" lon="11.42713"><ele>496.0</ele><time>2026-04-18T14:25:16.044Z</time></trkpt><trkpt lat="44.3072767" lon="11.4271467"><ele>496.0</ele><time>2026-04-18T14:25:17.044Z</time></trkpt><trkpt lat="44.3073883" lon="11.4271517"><ele>495.0</ele><time>2026-04-18T14:25:18.044Z</time></trkpt><trkpt lat="44.3075067" lon="11.427125"><ele>494.0</ele><time>2026-04-18T14:25:19.044Z</time></trkpt><trkpt lat="44.3076233" lon="11.4270717"><ele>493.0</ele><time>2026-04-18T14:25:20.044Z</time></trkpt><trkpt lat="44.3077383" lon="11.4269933"><ele>492.0</ele><time>2026-04-18T14:25:21.044Z</time></trkpt><trkpt lat="44.307855" lon="11.4269017"><ele>492.0</ele><time>2026-04-18T14:25:22.044Z</time></trkpt><trkpt lat="44.3079667" lon="11.4268233"><ele>492.0</ele><time>2026-04-18T14:25:23.044Z</time></trkpt><trkpt lat="44.3080683" lon="11.4267317"><ele>492.0</ele><time>2026-04-18T14:25:24.043Z</time></trkpt><trkpt lat="44.3081617" lon="11.4266417"><ele>492.0</ele><time>2026-04-18T14:25:25.043Z</time></trkpt><trkpt lat="44.308265" lon="11.42654"><ele>491.75</ele><time>2026-04-18T14:25:26.044Z</time></trkpt><trkpt lat="44.30836" lon="11.426435"><ele>491.5</ele><time>2026-04-18T14:25:27.044Z</time></trkpt><trkpt lat="44.3084583" lon="11.4263533"><ele>491.25</ele><time>2026-04-18T14:25:28.044Z</time></trkpt><trkpt lat="44.308555" lon="11.42627"><ele>491.0</ele><time>2026-04-18T14:25:29.044Z</time></trkpt><trkpt lat="44.308655" lon="11.4261767"><ele>491.0</ele><time>2026-04-18T14:25:30.044Z</time></trkpt><trkpt lat="44.3087367" lon="11.42606"><ele>491.0</ele><time>2026-04-18T14:25:31.044Z</time></trkpt><trkpt lat="44.3088183" lon="11.4259283"><ele>491.0</ele><time>2026-04-18T14:25:32.043Z</time></trkpt><trkpt lat="44.3088983" lon="11.42579"><ele>491.0</ele><time>2026-04-18T14:25:33.044Z</time></trkpt><trkpt lat="44.3089683" lon="11.425635"><ele>493.0</ele><time>2026-04-18T14:25:34.044Z</time></trkpt><trkpt lat="44.3090317" lon="11.4255"><ele>495.0</ele><time>2026-04-18T14:25:35.044Z</time></trkpt><trkpt lat="44.3091033" lon="11.4253667"><ele>497.0</ele><time>2026-04-18T14:25:36.044Z</time></trkpt><trkpt lat="44.309175" lon="11.4252367"><ele>499.0</ele><time>2026-04-18T14:25:37.043Z</time></trkpt><trkpt lat="44.3092467" lon="11.4251217"><ele>500.4</ele><time>2026-04-18T14:25:38.044Z</time></trkpt><trkpt lat="44.3093217" lon="11.425015"><ele>501.79999999999995</ele><time>2026-04-18T14:25:39.044Z</time></trkpt><trkpt lat="44.3093867" lon="11.424915"><ele>503.20000000000005</ele><time>2026-04-18T14:25:40.044Z</time></trkpt><trkpt lat="44.3094483" lon="11.4248017"><ele>504.6</ele><time>2026-04-18T14:25:41.044Z</time></trkpt><trkpt lat="44.3095167" lon="11.4246867"><ele>506.0</ele><time>2026-04-18T14:25:42.044Z</time></trkpt><trkpt lat="44.3095767" lon="11.4245833"><ele>507.49999999999994</ele><time>2026-04-18T14:25:43.044Z</time></trkpt><trkpt lat="44.3096283" lon="11.4244917"><ele>509.0</ele><time>2026-04-18T14:25:44.043Z</time></trkpt><trkpt lat="44.3096833" lon="11.4244317"><ele>510.5</ele><time>2026-04-18T14:25:45.044Z</time></trkpt><trkpt lat="44.3098033" lon="11.42445"><ele>512.0</ele><time>2026-04-18T14:25:47.044Z</time></trkpt><trkpt lat="44.309865" lon="11.424505"><ele>513.5</ele><time>2026-04-18T14:25:48.044Z</time></trkpt><trkpt lat="44.30994" lon="11.424585"><ele>515.0</ele><time>2026-04-18T14:25:49.044Z</time></trkpt><trkpt lat="44.3100283" lon="11.4246933"><ele>515.0</ele><time>2026-04-18T14:25:50.044Z</time></trkpt><trkpt lat="44.310135" lon="11.4248017"><ele>515.0</ele><time>2026-04-18T14:25:51.044Z</time></trkpt><trkpt lat="44.31025" lon="11.4249017"><ele>515.0</ele><time>2026-04-18T14:25:52.043Z</time></trkpt><trkpt lat="44.3103617" lon="11.42504"><ele>515.0</ele><time>2026-04-18T14:25:53.043Z</time></trkpt><trkpt lat="44.3104733" lon="11.4252017"><ele>515.0</ele><time>2026-04-18T14:25:54.044Z</time></trkpt><trkpt lat="44.3105667" lon="11.425355"><ele>515.0</ele><time>2026-04-18T14:25:55.044Z</time></trkpt><trkpt lat="44.3106533" lon="11.4255"><ele>515.0</ele><time>2026-04-18T14:25:56.044Z</time></trkpt><trkpt lat="44.310725" lon="11.425645"><ele>515.0</ele><time>2026-04-18T14:25:57.044Z</time></trkpt><trkpt lat="44.3107933" lon="11.425775"><ele>514.6</ele><time>2026-04-18T14:25:58.044Z</time></trkpt><trkpt lat="44.3108617" lon="11.4258933"><ele>514.2</ele><time>2026-04-18T14:25:59.044Z</time></trkpt><trkpt lat="44.3109333" lon="11.426005"><ele>513.8</ele><time>2026-04-18T14:26:00.044Z</time></trkpt><trkpt lat="44.310985" lon="11.426135"><ele>513.4</ele><time>2026-04-18T14:26:01.044Z</time></trkpt><trkpt lat="44.3110383" lon="11.4262583"><ele>513.0</ele><time>2026-04-18T14:26:02.044Z</time></trkpt><trkpt lat="44.3110367" lon="11.4263817"><ele>510.0</ele><time>2026-04-18T14:26:03.044Z</time></trkpt><trkpt lat="44.3110383" lon="11.426505"><ele>506.99999999999994</ele><time>2026-04-18T14:26:04.044Z</time></trkpt><trkpt lat="44.311035" lon="11.4266433"><ele>503.99999999999994</ele><time>2026-04-18T14:26:05.044Z</time></trkpt><trkpt lat="44.3110367" lon="11.426775"><ele>501.0</ele><time>2026-04-18T14:26:06.044Z</time></trkpt><trkpt lat="44.3110417" lon="11.4269067"><ele>498.0</ele><time>2026-04-18T14:26:07.044Z</time></trkpt><trkpt lat="44.31107" lon="11.4270333"><ele>495.4</ele><time>2026-04-18T14:26:08.043Z</time></trkpt><trkpt lat="44.31111" lon="11.427145"><ele>492.79999999999995</ele><time>2026-04-18T14:26:09.043Z</time></trkpt><trkpt lat="44.31117" lon="11.4272483"><ele>490.2</ele><time>2026-04-18T14:26:10.044Z</time></trkpt><trkpt lat="44.3112333" lon="11.4273267"><ele>487.6</ele><time>2026-04-18T14:26:11.044Z</time></trkpt><trkpt lat="44.3113117" lon="11.4273883"><ele>485.0</ele><time>2026-04-18T14:26:12.043Z</time></trkpt><trkpt lat="44.3114067" lon="11.4274467"><ele>489.2</ele><time>2026-04-18T14:26:13.044Z</time></trkpt><trkpt lat="44.3115133" lon="11.4275033"><ele>493.4</ele><time>2026-04-18T14:26:14.044Z</time></trkpt><trkpt lat="44.31162" lon="11.4275633"><ele>497.6</ele><time>2026-04-18T14:26:15.044Z</time></trkpt><trkpt lat="44.3117183" lon="11.42762"><ele>501.8</ele><time>2026-04-18T14:26:16.044Z</time></trkpt><trkpt lat="44.3118133" lon="11.4276667"><ele>506.0</ele><time>2026-04-18T14:26:17.044Z</time></trkpt><trkpt lat="44.31191" lon="11.4276933"><ele>506.0</ele><time>2026-04-18T14:26:18.044Z</time></trkpt><trkpt lat="44.3120117" lon="11.4277"><ele>506.0</ele><time>2026-04-18T14:26:19.044Z</time></trkpt><trkpt lat="44.3121167" lon="11.4276983"><ele>506.0</ele><time>2026-04-18T14:26:20.044Z</time></trkpt><trkpt lat="44.31222" lon="11.4277017"><ele>506.0</ele><time>2026-04-18T14:26:21.043Z</time></trkpt><trkpt lat="44.312305" lon="11.4276883"><ele>506.0</ele><time>2026-04-18T14:26:22.044Z</time></trkpt><trkpt lat="44.312375" lon="11.427655"><ele>506.8</ele><time>2026-04-18T14:26:23.043Z</time></trkpt><trkpt lat="44.3124517" lon="11.427555"><ele>507.6</ele><time>2026-04-18T14:26:25.043Z</time></trkpt><trkpt lat="44.312505" lon="11.4273667"><ele>508.4</ele><time>2026-04-18T14:26:27.043Z</time></trkpt><trkpt lat="44.3125467" lon="11.427275"><ele>509.2</ele><time>2026-04-18T14:26:28.043Z</time></trkpt><trkpt lat="44.3125967" lon="11.42719"><ele>510.0</ele><time>2026-04-18T14:26:29.043Z</time></trkpt><trkpt lat="44.3126583" lon="11.427105"><ele>514.4</ele><time>2026-04-18T14:26:30.043Z</time></trkpt><trkpt lat="44.31276" lon="11.4270517"><ele>518.8</ele><time>2026-04-18T14:26:31.043Z</time></trkpt><trkpt lat="44.312865" lon="11.42702"><ele>523.2</ele><time>2026-04-18T14:26:32.043Z</time></trkpt><trkpt lat="44.3129567" lon="11.4270083"><ele>527.6</ele><time>2026-04-18T14:26:33.043Z</time></trkpt><trkpt lat="44.313065" lon="11.4270017"><ele>532.0</ele><time>2026-04-18T14:26:34.043Z</time></trkpt><trkpt lat="44.3131767" lon="11.4269967"><ele>532.0</ele><time>2026-04-18T14:26:35.043Z</time></trkpt><trkpt lat="44.3132817" lon="11.426965"><ele>532.0</ele><time>2026-04-18T14:26:36.042Z</time></trkpt><trkpt lat="44.3133983" lon="11.4269183"><ele>532.0</ele><time>2026-04-18T14:26:37.043Z</time></trkpt><trkpt lat="44.3135217" lon="11.4268833"><ele>532.0</ele><time>2026-04-18T14:26:38.043Z</time></trkpt><trkpt lat="44.313625" lon="11.4268417"><ele>532.0</ele><time>2026-04-18T14:26:39.043Z</time></trkpt><trkpt lat="44.3137117" lon="11.426805"><ele>532.0</ele><time>2026-04-18T14:26:40.043Z</time></trkpt><trkpt lat="44.313785" lon="11.4267817"><ele>532.0</ele><time>2026-04-18T14:26:41.042Z</time></trkpt><trkpt lat="44.3138533" lon="11.4267433"><ele>532.0</ele><time>2026-04-18T14:26:42.042Z</time></trkpt><trkpt lat="44.313935" lon="11.4266783"><ele>532.0</ele><time>2026-04-18T14:26:43.043Z</time></trkpt><trkpt lat="44.3140183" lon="11.4266233"><ele>532.0</ele><time>2026-04-18T14:26:44.043Z</time></trkpt><trkpt lat="44.31411" lon="11.4265783"><ele>530.6</ele><time>2026-04-18T14:26:45.043Z</time></trkpt><trkpt lat="44.314195" lon="11.42655"><ele>529.2</ele><time>2026-04-18T14:26:46.043Z</time></trkpt><trkpt lat="44.3142883" lon="11.4265217"><ele>527.8</ele><time>2026-04-18T14:26:47.043Z</time></trkpt><trkpt lat="44.3143633" lon="11.4264667"><ele>526.4</ele><time>2026-04-18T14:26:48.043Z</time></trkpt><trkpt lat="44.3144517" lon="11.4264067"><ele>525.0</ele><time>2026-04-18T14:26:49.042Z</time></trkpt><trkpt lat="44.3145333" lon="11.4263417"><ele>527.6666666666666</ele><time>2026-04-18T14:26:50.043Z</time></trkpt><trkpt lat="44.3146117" lon="11.4262717"><ele>530.3333333333334</ele><time>2026-04-18T14:26:51.042Z</time></trkpt><trkpt lat="44.31468" lon="11.426225"><ele>533.0</ele><time>2026-04-18T14:26:52.043Z</time></trkpt><trkpt lat="44.3147483" lon="11.4262083"><ele>535.6666666666667</ele><time>2026-04-18T14:26:53.042Z</time></trkpt><trkpt lat="44.31483" lon="11.4262133"><ele>538.3333333333334</ele><time>2026-04-18T14:26:54.043Z</time></trkpt><trkpt lat="44.31492" lon="11.4262267"><ele>541.0</ele><time>2026-04-18T14:26:55.043Z</time></trkpt><trkpt lat="44.3150167" lon="11.426255"><ele>541.0</ele><time>2026-04-18T14:26:56.043Z</time></trkpt><trkpt lat="44.3151217" lon="11.42626"><ele>541.0</ele><time>2026-04-18T14:26:57.043Z</time></trkpt><trkpt lat="44.3152367" lon="11.426265"><ele>541.0</ele><time>2026-04-18T14:26:58.043Z</time></trkpt><trkpt lat="44.315355" lon="11.4262633"><ele>541.0</ele><time>2026-04-18T14:26:59.043Z</time></trkpt><trkpt lat="44.3154367" lon="11.4262817"><ele>541.0</ele><time>2026-04-18T14:27:00.042Z</time></trkpt><trkpt lat="44.3155233" lon="11.4263283"><ele>538.4</ele><time>2026-04-18T14:27:01.042Z</time></trkpt><trkpt lat="44.3155967" lon="11.4264117"><ele>535.8</ele><time>2026-04-18T14:27:02.043Z</time></trkpt><trkpt lat="44.3156717" lon="11.426505"><ele>533.1999999999999</ele><time>2026-04-18T14:27:03.042Z</time></trkpt><trkpt lat="44.31576" lon="11.4265983"><ele>530.6</ele><time>2026-04-18T14:27:04.043Z</time></trkpt><trkpt lat="44.31586" lon="11.426665"><ele>528.0</ele><time>2026-04-18T14:27:05.043Z</time></trkpt><trkpt lat="44.3159583" lon="11.4267233"><ele>528.0</ele><time>2026-04-18T14:27:06.042Z</time></trkpt><trkpt lat="44.3160533" lon="11.4267817"><ele>528.0</ele><time>2026-04-18T14:27:07.043Z</time></trkpt><trkpt lat="44.31615" lon="11.4268567"><ele>528.0</ele><time>2026-04-18T14:27:08.043Z</time></trkpt><trkpt lat="44.3162483" lon="11.4269717"><ele>528.0</ele><time>2026-04-18T14:27:09.043Z</time></trkpt><trkpt lat="44.3163533" lon="11.4270667"><ele>527.5</ele><time>2026-04-18T14:27:10.043Z</time></trkpt><trkpt lat="44.31646" lon="11.42716"><ele>527.0</ele><time>2026-04-18T14:27:11.043Z</time></trkpt><trkpt lat="44.3165417" lon="11.427285"><ele>526.5</ele><time>2026-04-18T14:27:12.043Z</time></trkpt><trkpt lat="44.316635" lon="11.42737"><ele>526.0</ele><time>2026-04-18T14:27:13.043Z</time></trkpt><trkpt lat="44.316725" lon="11.4274283"><ele>526.0</ele><time>2026-04-18T14:27:14.042Z</time></trkpt><trkpt lat="44.3168183" lon="11.42749"><ele>526.0</ele><time>2026-04-18T14:27:15.042Z</time></trkpt><trkpt lat="44.316895" lon="11.4275683"><ele>526.0</ele><time>2026-04-18T14:27:16.042Z</time></trkpt><trkpt lat="44.316975" lon="11.4276683"><ele>526.0</ele><time>2026-04-18T14:27:17.043Z</time></trkpt><trkpt lat="44.31705" lon="11.4277767"><ele>526.0</ele><time>2026-04-18T14:27:18.043Z</time></trkpt><trkpt lat="44.3171167" lon="11.4278883"><ele>526.0</ele><time>2026-04-18T14:27:19.043Z</time></trkpt><trkpt lat="44.317195" lon="11.4279883"><ele>526.0</ele><time>2026-04-18T14:27:20.043Z</time></trkpt><trkpt lat="44.3172717" lon="11.428055"><ele>526.0</ele><time>2026-04-18T14:27:21.042Z</time></trkpt><trkpt lat="44.3173417" lon="11.4281083"><ele>526.0</ele><time>2026-04-18T14:27:22.043Z</time></trkpt><trkpt lat="44.3174133" lon="11.42817"><ele>526.0</ele><time>2026-04-18T14:27:23.042Z</time></trkpt><trkpt lat="44.3175117" lon="11.4282317"><ele>526.0</ele><time>2026-04-18T14:27:24.042Z</time></trkpt><trkpt lat="44.31762" lon="11.4282967"><ele>526.0</ele><time>2026-04-18T14:27:25.042Z</time></trkpt><trkpt lat="44.317725" lon="11.4283667"><ele>526.0</ele><time>2026-04-18T14:27:26.043Z</time></trkpt><trkpt lat="44.3178267" lon="11.428435"><ele>526.0</ele><time>2026-04-18T14:27:27.043Z</time></trkpt><trkpt lat="44.3179317" lon="11.4285017"><ele>526.0</ele><time>2026-04-18T14:27:28.043Z</time></trkpt><trkpt lat="44.3180317" lon="11.42859"><ele>526.0</ele><time>2026-04-18T14:27:29.043Z</time></trkpt><trkpt lat="44.3181233" lon="11.42871"><ele>526.0</ele><time>2026-04-18T14:27:30.043Z</time></trkpt><trkpt lat="44.31821" lon="11.4288433"><ele>526.0</ele><time>2026-04-18T14:27:31.042Z</time></trkpt><trkpt lat="44.3183067" lon="11.4289833"><ele>528.2</ele><time>2026-04-18T14:27:32.042Z</time></trkpt><trkpt lat="44.31838" lon="11.42909"><ele>530.4000000000001</ele><time>2026-04-18T14:27:33.043Z</time></trkpt><trkpt lat="44.3184533" lon="11.4291917"><ele>532.6</ele><time>2026-04-18T14:27:34.043Z</time></trkpt><trkpt lat="44.3185233" lon="11.4292883"><ele>534.8000000000001</ele><time>2026-04-18T14:27:35.043Z</time></trkpt><trkpt lat="44.31858" lon="11.4293817"><ele>537.0</ele><time>2026-04-18T14:27:36.043Z</time></trkpt><trkpt lat="44.3186183" lon="11.4294617"><ele>537.0</ele><time>2026-04-18T14:27:37.042Z</time></trkpt><trkpt lat="44.318645" lon="11.429545"><ele>537.0</ele><time>2026-04-18T14:27:38.043Z</time></trkpt><trkpt lat="44.3186517" lon="11.42964"><ele>537.0</ele><time>2026-04-18T14:27:39.043Z</time></trkpt><trkpt lat="44.3186367" lon="11.4297733"><ele>537.0</ele><time>2026-04-18T14:27:40.043Z</time></trkpt><trkpt lat="44.3186267" lon="11.42992"><ele>537.0</ele><time>2026-04-18T14:27:41.043Z</time></trkpt><trkpt lat="44.3186117" lon="11.4300683"><ele>537.0</ele><time>2026-04-18T14:27:42.043Z</time></trkpt><trkpt lat="44.3186067" lon="11.4302167"><ele>536.4</ele><time>2026-04-18T14:27:43.043Z</time></trkpt><trkpt lat="44.3185983" lon="11.43037"><ele>535.8000000000001</ele><time>2026-04-18T14:27:44.043Z</time></trkpt><trkpt lat="44.3185933" lon="11.430495"><ele>535.2</ele><time>2026-04-18T14:27:45.043Z</time></trkpt><trkpt lat="44.318595" lon="11.4306267"><ele>534.6</ele><time>2026-04-18T14:27:46.042Z</time></trkpt><trkpt lat="44.3186083" lon="11.4307533"><ele>534.0</ele><time>2026-04-18T14:27:47.043Z</time></trkpt><trkpt lat="44.3186333" lon="11.4308733"><ele>536.8</ele><time>2026-04-18T14:27:48.043Z</time></trkpt><trkpt lat="44.3186767" lon="11.4309883"><ele>539.5999999999999</ele><time>2026-04-18T14:27:49.042Z</time></trkpt><trkpt lat="44.3187167" lon="11.431095"><ele>542.4</ele><time>2026-04-18T14:27:50.043Z</time></trkpt><trkpt lat="44.3187733" lon="11.4311867"><ele>545.1999999999999</ele><time>2026-04-18T14:27:51.043Z</time></trkpt><trkpt lat="44.3188433" lon="11.4312733"><ele>548.0</ele><time>2026-04-18T14:27:52.043Z</time></trkpt><trkpt lat="44.3189767" lon="11.431325"><ele>548.0</ele><time>2026-04-18T14:27:53.043Z</time></trkpt><trkpt lat="44.3191" lon="11.4313883"><ele>548.0</ele><time>2026-04-18T14:27:54.043Z</time></trkpt><trkpt lat="44.3192233" lon="11.4314533"><ele>548.0</ele><time>2026-04-18T14:27:55.043Z</time></trkpt><trkpt lat="44.3193283" lon="11.43151"><ele>548.0</ele><time>2026-04-18T14:27:56.043Z</time></trkpt><trkpt lat="44.319455" lon="11.431585"><ele>548.0</ele><time>2026-04-18T14:27:57.043Z</time></trkpt><trkpt lat="44.319585" lon="11.4316317"><ele>548.0</ele><time>2026-04-18T14:27:58.043Z</time></trkpt><trkpt lat="44.3197033" lon="11.4316783"><ele>548.0</ele><time>2026-04-18T14:27:59.043Z</time></trkpt><trkpt lat="44.31981" lon="11.43172"><ele>548.0</ele><time>2026-04-18T14:28:00.043Z</time></trkpt><trkpt lat="44.3198817" lon="11.43175"><ele>548.0</ele><time>2026-04-18T14:28:01.043Z</time></trkpt><trkpt lat="44.31995" lon="11.4317633"><ele>548.1666666666666</ele><time>2026-04-18T14:28:02.043Z</time></trkpt><trkpt lat="44.32001" lon="11.4317267"><ele>548.3333333333333</ele><time>2026-04-18T14:28:03.043Z</time></trkpt><trkpt lat="44.32007" lon="11.4316683"><ele>548.5</ele><time>2026-04-18T14:28:04.043Z</time></trkpt><trkpt lat="44.3201217" lon="11.4316017"><ele>548.6666666666666</ele><time>2026-04-18T14:28:05.043Z</time></trkpt><trkpt lat="44.320185" lon="11.43152"><ele>548.8333333333334</ele><time>2026-04-18T14:28:06.043Z</time></trkpt><trkpt lat="44.32026" lon="11.431445"><ele>549.0</ele><time>2026-04-18T14:28:07.043Z</time></trkpt><trkpt lat="44.320355" lon="11.4314017"><ele>549.0</ele><time>2026-04-18T14:28:08.043Z</time></trkpt><trkpt lat="44.3204783" lon="11.43137"><ele>549.0</ele><time>2026-04-18T14:28:09.043Z</time></trkpt><trkpt lat="44.320585" lon="11.4313217"><ele>549.0</ele><time>2026-04-18T14:28:10.043Z</time></trkpt><trkpt lat="44.3206883" lon="11.4312583"><ele>549.0</ele><time>2026-04-18T14:28:11.043Z</time></trkpt><trkpt lat="44.320775" lon="11.4311733"><ele>548.0</ele><time>2026-04-18T14:28:12.043Z</time></trkpt><trkpt lat="44.3208717" lon="11.4310867"><ele>547.0</ele><time>2026-04-18T14:28:13.043Z</time></trkpt><trkpt lat="44.32096" lon="11.4309917"><ele>546.0</ele><time>2026-04-18T14:28:14.042Z</time></trkpt><trkpt lat="44.3210483" lon="11.4309"><ele>545.0</ele><time>2026-04-18T14:28:15.043Z</time></trkpt><trkpt lat="44.3211383" lon="11.4308317"><ele>544.0</ele><time>2026-04-18T14:28:16.043Z</time></trkpt><trkpt lat="44.3212433" lon="11.43081"><ele>544.0</ele><time>2026-04-18T14:28:17.042Z</time></trkpt><trkpt lat="44.321345" lon="11.4308083"><ele>544.0</ele><time>2026-04-18T14:28:18.043Z</time></trkpt><trkpt lat="44.32144" lon="11.4308167"><ele>544.0</ele><time>2026-04-18T14:28:19.043Z</time></trkpt><trkpt lat="44.321525" lon="11.4308283"><ele>544.0</ele><time>2026-04-18T14:28:20.043Z</time></trkpt><trkpt lat="44.3216" lon="11.43083"><ele>544.0</ele><time>2026-04-18T14:28:21.043Z</time></trkpt><trkpt lat="44.32168" lon="11.430825"><ele>544.0</ele><time>2026-04-18T14:28:22.043Z</time></trkpt><trkpt lat="44.3217433" lon="11.430795"><ele>544.2</ele><time>2026-04-18T14:28:23.043Z</time></trkpt><trkpt lat="44.3218167" lon="11.430665"><ele>544.4</ele><time>2026-04-18T14:28:25.042Z</time></trkpt><trkpt lat="44.32179" lon="11.4305467"><ele>544.6</ele><time>2026-04-18T14:28:26.042Z</time></trkpt><trkpt lat="44.3217667" lon="11.4304367"><ele>544.8</ele><time>2026-04-18T14:28:27.043Z</time></trkpt><trkpt lat="44.3216883" lon="11.4302867"><ele>545.0</ele><time>2026-04-18T14:28:28.042Z</time></trkpt><trkpt lat="44.3216283" lon="11.4301583"><ele>543.4</ele><time>2026-04-18T14:28:29.043Z</time></trkpt><trkpt lat="44.3215817" lon="11.4300333"><ele>541.8</ele><time>2026-04-18T14:28:30.043Z</time></trkpt><trkpt lat="44.3215433" lon="11.4299017"><ele>540.2</ele><time>2026-04-18T14:28:31.042Z</time></trkpt><trkpt lat="44.3215217" lon="11.4297633"><ele>538.6</ele><time>2026-04-18T14:28:32.043Z</time></trkpt><trkpt lat="44.3215133" lon="11.4296233"><ele>537.0</ele><time>2026-04-18T14:28:33.043Z</time></trkpt><trkpt lat="44.321535" lon="11.4294817"><ele>532.25</ele><time>2026-04-18T14:28:34.043Z</time></trkpt><trkpt lat="44.3215617" lon="11.4293333"><ele>527.5</ele><time>2026-04-18T14:28:35.043Z</time></trkpt><trkpt lat="44.32159" lon="11.4291683"><ele>522.75</ele><time>2026-04-18T14:28:36.043Z</time></trkpt><trkpt lat="44.3216167" lon="11.4289967"><ele>518.0</ele><time>2026-04-18T14:28:37.043Z</time></trkpt><trkpt lat="44.3216433" lon="11.4288267"><ele>513.5</ele><time>2026-04-18T14:28:38.042Z</time></trkpt><trkpt lat="44.32168" lon="11.42866"><ele>509.0</ele><time>2026-04-18T14:28:39.043Z</time></trkpt><trkpt lat="44.32174" lon="11.42848"><ele>504.5</ele><time>2026-04-18T14:28:40.043Z</time></trkpt><trkpt lat="44.3218183" lon="11.4283067"><ele>500.0</ele><time>2026-04-18T14:28:41.043Z</time></trkpt><trkpt lat="44.3219167" lon="11.4281433"><ele>500.0</ele><time>2026-04-18T14:28:42.043Z</time></trkpt><trkpt lat="44.322025" lon="11.427995"><ele>500.0</ele><time>2026-04-18T14:28:43.042Z</time></trkpt><trkpt lat="44.3221183" lon="11.4278417"><ele>500.0</ele><time>2026-04-18T14:28:44.043Z</time></trkpt><trkpt lat="44.3222017" lon="11.4276967"><ele>500.0</ele><time>2026-04-18T14:28:45.042Z</time></trkpt><trkpt lat="44.3222817" lon="11.4275633"><ele>502.25</ele><time>2026-04-18T14:28:46.043Z</time></trkpt><trkpt lat="44.32236" lon="11.4274367"><ele>504.5</ele><time>2026-04-18T14:28:47.043Z</time></trkpt><trkpt lat="44.32245" lon="11.42732"><ele>506.75</ele><time>2026-04-18T14:28:48.042Z</time></trkpt><trkpt lat="44.322555" lon="11.4272083"><ele>509.0</ele><time>2026-04-18T14:28:49.043Z</time></trkpt><trkpt lat="44.3226633" lon="11.4270867"><ele>513.5</ele><time>2026-04-18T14:28:50.043Z</time></trkpt><trkpt lat="44.3227767" lon="11.4269683"><ele>518.0</ele><time>2026-04-18T14:28:51.043Z</time></trkpt><trkpt lat="44.32288" lon="11.426845"><ele>522.5</ele><time>2026-04-18T14:28:52.043Z</time></trkpt><trkpt lat="44.3229733" lon="11.4267167"><ele>527.0</ele><time>2026-04-18T14:28:53.043Z</time></trkpt><trkpt lat="44.323055" lon="11.426605"><ele>526.2</ele><time>2026-04-18T14:28:54.043Z</time></trkpt><trkpt lat="44.32313" lon="11.4264833"><ele>525.4000000000001</ele><time>2026-04-18T14:28:55.042Z</time></trkpt><trkpt lat="44.3231783" lon="11.4263633"><ele>524.5999999999999</ele><time>2026-04-18T14:28:56.043Z</time></trkpt><trkpt lat="44.3232217" lon="11.4262333"><ele>523.8</ele><time>2026-04-18T14:28:57.043Z</time></trkpt><trkpt lat="44.3232517" lon="11.4260883"><ele>523.0</ele><time>2026-04-18T14:28:58.043Z</time></trkpt><trkpt lat="44.323275" lon="11.425935"><ele>522.4</ele><time>2026-04-18T14:28:59.042Z</time></trkpt><trkpt lat="44.3232733" lon="11.4257817"><ele>521.8</ele><time>2026-04-18T14:29:00.043Z</time></trkpt><trkpt lat="44.323225" lon="11.4256533"><ele>521.2</ele><time>2026-04-18T14:29:01.043Z</time></trkpt><trkpt lat="44.3231733" lon="11.4255217"><ele>520.6</ele><time>2026-04-18T14:29:02.043Z</time></trkpt><trkpt lat="44.3231117" lon="11.4254017"><ele>520.0</ele><time>2026-04-18T14:29:03.042Z</time></trkpt><trkpt lat="44.323065" lon="11.4252683"><ele>520.6666666666667</ele><time>2026-04-18T14:29:04.043Z</time></trkpt><trkpt lat="44.3230367" lon="11.4251517"><ele>521.3333333333334</ele><time>2026-04-18T14:29:05.042Z</time></trkpt><trkpt lat="44.323005" lon="11.42505"><ele>522.0</ele><time>2026-04-18T14:29:06.043Z</time></trkpt><trkpt lat="44.3229683" lon="11.424955"><ele>522.6666666666666</ele><time>2026-04-18T14:29:07.042Z</time></trkpt><trkpt lat="44.3229233" lon="11.42488"><ele>523.3333333333333</ele><time>2026-04-18T14:29:08.041Z</time></trkpt><trkpt lat="44.3228667" lon="11.424825"><ele>524.0</ele><time>2026-04-18T14:29:09.042Z</time></trkpt><trkpt lat="44.3227617" lon="11.4247867"><ele>524.0</ele><time>2026-04-18T14:29:10.042Z</time></trkpt><trkpt lat="44.3226617" lon="11.4247367"><ele>524.0</ele><time>2026-04-18T14:29:11.042Z</time></trkpt><trkpt lat="44.3225867" lon="11.4246567"><ele>524.0</ele><time>2026-04-18T14:29:12.042Z</time></trkpt><trkpt lat="44.3225283" lon="11.4245317"><ele>524.0</ele><time>2026-04-18T14:29:13.042Z</time></trkpt><trkpt lat="44.322505" lon="11.4243883"><ele>524.0</ele><time>2026-04-18T14:29:14.042Z</time></trkpt><trkpt lat="44.32249" lon="11.4242417"><ele>523.0</ele><time>2026-04-18T14:29:15.042Z</time></trkpt><trkpt lat="44.3225033" lon="11.42409"><ele>522.0</ele><time>2026-04-18T14:29:16.042Z</time></trkpt><trkpt lat="44.32251" lon="11.4239633"><ele>521.0</ele><time>2026-04-18T14:29:17.042Z</time></trkpt><trkpt lat="44.3225217" lon="11.4238333"><ele>520.0</ele><time>2026-04-18T14:29:18.042Z</time></trkpt><trkpt lat="44.322565" lon="11.4237217"><ele>519.0</ele><time>2026-04-18T14:29:19.042Z</time></trkpt><trkpt lat="44.3226383" lon="11.42362"><ele>519.0</ele><time>2026-04-18T14:29:20.042Z</time></trkpt><trkpt lat="44.3227317" lon="11.423535"><ele>519.0</ele><time>2026-04-18T14:29:21.041Z</time></trkpt><trkpt lat="44.3228133" lon="11.423455"><ele>519.0</ele><time>2026-04-18T14:29:22.042Z</time></trkpt><trkpt lat="44.3228833" lon="11.423355"><ele>519.0</ele><time>2026-04-18T14:29:23.042Z</time></trkpt><trkpt lat="44.3229433" lon="11.4232467"><ele>519.0</ele><time>2026-04-18T14:29:24.042Z</time></trkpt><trkpt lat="44.3229633" lon="11.4230983"><ele>516.5</ele><time>2026-04-18T14:29:25.041Z</time></trkpt><trkpt lat="44.3229867" lon="11.4229517"><ele>514.0</ele><time>2026-04-18T14:29:26.042Z</time></trkpt><trkpt lat="44.3229983" lon="11.42282"><ele>511.5</ele><time>2026-04-18T14:29:27.042Z</time></trkpt><trkpt lat="44.32301" lon="11.422705"><ele>509.0</ele><time>2026-04-18T14:29:28.042Z</time></trkpt><trkpt lat="44.3230417" lon="11.4225933"><ele>506.5</ele><time>2026-04-18T14:29:29.042Z</time></trkpt><trkpt lat="44.3230417" lon="11.422495"><ele>504.0</ele><time>2026-04-18T14:29:30.042Z</time></trkpt><trkpt lat="44.3230283" lon="11.4223333"><ele>504.0</ele><time>2026-04-18T14:29:32.041Z</time></trkpt><trkpt lat="44.323025" lon="11.4222067"><ele>504.0</ele><time>2026-04-18T14:29:34.042Z</time></trkpt><trkpt lat="44.323115" lon="11.4221"><ele>504.0</ele><time>2026-04-18T14:29:36.042Z</time></trkpt><trkpt lat="44.3231833" lon="11.4220533"><ele>504.0</ele><time>2026-04-18T14:29:37.042Z</time></trkpt><trkpt lat="44.3232733" lon="11.4220217"><ele>504.0</ele><time>2026-04-18T14:29:38.042Z</time></trkpt><trkpt lat="44.3233617" lon="11.421985"><ele>501.79999999999995</ele><time>2026-04-18T14:29:39.042Z</time></trkpt><trkpt lat="44.3234583" lon="11.4219417"><ele>499.59999999999997</ele><time>2026-04-18T14:29:40.041Z</time></trkpt><trkpt lat="44.3235517" lon="11.4218817"><ele>497.4</ele><time>2026-04-18T14:29:41.041Z</time></trkpt><trkpt lat="44.3236383" lon="11.4218033"><ele>495.2</ele><time>2026-04-18T14:29:42.042Z</time></trkpt><trkpt lat="44.32372" lon="11.4217183"><ele>493.0</ele><time>2026-04-18T14:29:43.042Z</time></trkpt><trkpt lat="44.32381" lon="11.42162"><ele>493.0</ele><time>2026-04-18T14:29:44.041Z</time></trkpt><trkpt lat="44.3239" lon="11.4215083"><ele>492.99999999999994</ele><time>2026-04-18T14:29:45.041Z</time></trkpt><trkpt lat="44.3239867" lon="11.4214"><ele>492.99999999999994</ele><time>2026-04-18T14:29:46.041Z</time></trkpt><trkpt lat="44.32407" lon="11.421305"><ele>493.0</ele><time>2026-04-18T14:29:47.042Z</time></trkpt><trkpt lat="44.324155" lon="11.4212233"><ele>493.0</ele><time>2026-04-18T14:29:48.042Z</time></trkpt><trkpt lat="44.3242433" lon="11.421145"><ele>493.0</ele><time>2026-04-18T14:29:49.042Z</time></trkpt><trkpt lat="44.3243567" lon="11.421075"><ele>492.99999999999994</ele><time>2026-04-18T14:29:50.041Z</time></trkpt><trkpt lat="44.324455" lon="11.4210383"><ele>492.99999999999994</ele><time>2026-04-18T14:29:51.042Z</time></trkpt><trkpt lat="44.3245633" lon="11.4210083"><ele>493.0</ele><time>2026-04-18T14:29:52.042Z</time></trkpt><trkpt lat="44.32467" lon="11.4209833"><ele>493.0</ele><time>2026-04-18T14:29:53.042Z</time></trkpt><trkpt lat="44.3247783" lon="11.4209433"><ele>494.79999999999995</ele><time>2026-04-18T14:29:54.041Z</time></trkpt><trkpt lat="44.3248867" lon="11.42091"><ele>496.59999999999997</ele><time>2026-04-18T14:29:55.042Z</time></trkpt><trkpt lat="44.3249933" lon="11.4208783"><ele>498.40000000000003</ele><time>2026-04-18T14:29:56.042Z</time></trkpt><trkpt lat="44.3251067" lon="11.42088"><ele>500.20000000000005</ele><time>2026-04-18T14:29:57.042Z</time></trkpt><trkpt lat="44.3252167" lon="11.42089"><ele>502.0</ele><time>2026-04-18T14:29:58.041Z</time></trkpt><trkpt lat="44.3253317" lon="11.4209183"><ele>502.0</ele><time>2026-04-18T14:29:59.042Z</time></trkpt><trkpt lat="44.3254317" lon="11.4209267"><ele>502.00000000000006</ele><time>2026-04-18T14:30:00.042Z</time></trkpt><trkpt lat="44.3255333" lon="11.4209583"><ele>502.00000000000006</ele><time>2026-04-18T14:30:01.042Z</time></trkpt><trkpt lat="44.3256283" lon="11.420985"><ele>502.0</ele><time>2026-04-18T14:30:02.042Z</time></trkpt><trkpt lat="44.32573" lon="11.421005"><ele>502.0</ele><time>2026-04-18T14:30:03.041Z</time></trkpt><trkpt lat="44.325825" lon="11.4209583"><ele>501.40000000000003</ele><time>2026-04-18T14:30:04.042Z</time></trkpt><trkpt lat="44.32592" lon="11.4208933"><ele>500.80000000000007</ele><time>2026-04-18T14:30:05.042Z</time></trkpt><trkpt lat="44.3260083" lon="11.4208117"><ele>500.2</ele><time>2026-04-18T14:30:06.042Z</time></trkpt><trkpt lat="44.3260833" lon="11.4207133"><ele>499.6</ele><time>2026-04-18T14:30:07.041Z</time></trkpt><trkpt lat="44.3261567" lon="11.4206"><ele>499.0</ele><time>2026-04-18T14:30:08.042Z</time></trkpt><trkpt lat="44.3262233" lon="11.4204783"><ele>499.0</ele><time>2026-04-18T14:30:09.042Z</time></trkpt><trkpt lat="44.32629" lon="11.4203133"><ele>499.0</ele><time>2026-04-18T14:30:10.041Z</time></trkpt><trkpt lat="44.3263683" lon="11.4201867"><ele>499.0</ele><time>2026-04-18T14:30:11.042Z</time></trkpt><trkpt lat="44.326445" lon="11.4200217"><ele>499.0</ele><time>2026-04-18T14:30:12.041Z</time></trkpt><trkpt lat="44.32653" lon="11.4198367"><ele>502.0</ele><time>2026-04-18T14:30:13.042Z</time></trkpt><trkpt lat="44.3266133" lon="11.4197033"><ele>505.0</ele><time>2026-04-18T14:30:14.042Z</time></trkpt><trkpt lat="44.3267067" lon="11.4196167"><ele>508.0</ele><time>2026-04-18T14:30:15.042Z</time></trkpt><trkpt lat="44.326815" lon="11.419545"><ele>511.0</ele><time>2026-04-18T14:30:16.042Z</time></trkpt><trkpt lat="44.3268983" lon="11.4194667"><ele>512.0</ele><time>2026-04-18T14:30:17.042Z</time></trkpt><trkpt lat="44.3269933" lon="11.4193917"><ele>513.0</ele><time>2026-04-18T14:30:18.042Z</time></trkpt><trkpt lat="44.3271033" lon="11.4193183"><ele>514.0</ele><time>2026-04-18T14:30:19.042Z</time></trkpt><trkpt lat="44.3272133" lon="11.4192567"><ele>515.0</ele><time>2026-04-18T14:30:20.042Z</time></trkpt><trkpt lat="44.327335" lon="11.4192017"><ele>511.75</ele><time>2026-04-18T14:30:21.041Z</time></trkpt><trkpt lat="44.327465" lon="11.4191683"><ele>508.5</ele><time>2026-04-18T14:30:22.042Z</time></trkpt><trkpt lat="44.3275867" lon="11.4191467"><ele>505.25</ele><time>2026-04-18T14:30:23.042Z</time></trkpt><trkpt lat="44.3277017" lon="11.4191183"><ele>502.0</ele><time>2026-04-18T14:30:24.041Z</time></trkpt><trkpt lat="44.3278217" lon="11.4191233"><ele>502.0</ele><time>2026-04-18T14:30:25.042Z</time></trkpt><trkpt lat="44.327945" lon="11.4191417"><ele>502.0</ele><time>2026-04-18T14:30:26.042Z</time></trkpt><trkpt lat="44.328075" lon="11.4191683"><ele>502.0</ele><time>2026-04-18T14:30:27.042Z</time></trkpt><trkpt lat="44.3282233" lon="11.41918"><ele>502.0</ele><time>2026-04-18T14:30:28.042Z</time></trkpt><trkpt lat="44.328375" lon="11.4191883"><ele>498.75</ele><time>2026-04-18T14:30:29.042Z</time></trkpt><trkpt lat="44.3285167" lon="11.4191833"><ele>495.5</ele><time>2026-04-18T14:30:30.042Z</time></trkpt><trkpt lat="44.3286633" lon="11.41916"><ele>492.25</ele><time>2026-04-18T14:30:31.042Z</time></trkpt><trkpt lat="44.328785" lon="11.41913"><ele>489.0</ele><time>2026-04-18T14:30:32.042Z</time></trkpt><trkpt lat="44.3289033" lon="11.4191017"><ele>486.6</ele><time>2026-04-18T14:30:33.042Z</time></trkpt><trkpt lat="44.3290183" lon="11.4190783"><ele>484.2</ele><time>2026-04-18T14:30:34.042Z</time></trkpt><trkpt lat="44.3291167" lon="11.41908"><ele>481.80000000000007</ele><time>2026-04-18T14:30:35.042Z</time></trkpt><trkpt lat="44.3292" lon="11.4190933"><ele>479.40000000000003</ele><time>2026-04-18T14:30:36.042Z</time></trkpt><trkpt lat="44.3293" lon="11.4191167"><ele>477.0</ele><time>2026-04-18T14:30:37.042Z</time></trkpt><trkpt lat="44.3293867" lon="11.4191283"><ele>477.0</ele><time>2026-04-18T14:30:38.042Z</time></trkpt><trkpt lat="44.3294667" lon="11.4191"><ele>477.0</ele><time>2026-04-18T14:30:39.042Z</time></trkpt><trkpt lat="44.329525" lon="11.4190583"><ele>477.0</ele><time>2026-04-18T14:30:40.041Z</time></trkpt><trkpt lat="44.3295983" lon="11.4189883"><ele>477.0</ele><time>2026-04-18T14:30:41.042Z</time></trkpt><trkpt lat="44.3296533" lon="11.4188833"><ele>477.0</ele><time>2026-04-18T14:30:42.042Z</time></trkpt><trkpt lat="44.3296483" lon="11.41872"><ele>477.0</ele><time>2026-04-18T14:30:43.042Z</time></trkpt><trkpt lat="44.3296717" lon="11.41852"><ele>475.20000000000005</ele><time>2026-04-18T14:30:44.042Z</time></trkpt><trkpt lat="44.3296983" lon="11.418365"><ele>473.40000000000003</ele><time>2026-04-18T14:30:45.041Z</time></trkpt><trkpt lat="44.3297283" lon="11.4182417"><ele>471.59999999999997</ele><time>2026-04-18T14:30:46.042Z</time></trkpt><trkpt lat="44.3297667" lon="11.41813"><ele>469.79999999999995</ele><time>2026-04-18T14:30:47.042Z</time></trkpt><trkpt lat="44.3298217" lon="11.4180217"><ele>468.0</ele><time>2026-04-18T14:30:48.042Z</time></trkpt><trkpt lat="44.3298917" lon="11.417915"><ele>465.25</ele><time>2026-04-18T14:30:49.041Z</time></trkpt><trkpt lat="44.3299733" lon="11.417805"><ele>462.5</ele><time>2026-04-18T14:30:50.042Z</time></trkpt><trkpt lat="44.3300717" lon="11.417695"><ele>459.75</ele><time>2026-04-18T14:30:51.042Z</time></trkpt><trkpt lat="44.3301633" lon="11.41759"><ele>457.0</ele><time>2026-04-18T14:30:52.042Z</time></trkpt><trkpt lat="44.3302533" lon="11.4174917"><ele>457.0</ele><time>2026-04-18T14:30:53.042Z</time></trkpt><trkpt lat="44.3303417" lon="11.4174033"><ele>457.00000000000006</ele><time>2026-04-18T14:30:54.042Z</time></trkpt><trkpt lat="44.330435" lon="11.4173217"><ele>457.00000000000006</ele><time>2026-04-18T14:30:55.042Z</time></trkpt><trkpt lat="44.3305233" lon="11.4172483"><ele>457.0</ele><time>2026-04-18T14:30:56.042Z</time></trkpt><trkpt lat="44.3306083" lon="11.4171633"><ele>457.0</ele><time>2026-04-18T14:30:57.042Z</time></trkpt><trkpt lat="44.3306883" lon="11.4170667"><ele>453.5</ele><time>2026-04-18T14:30:58.042Z</time></trkpt><trkpt lat="44.330775" lon="11.41694"><ele>450.0</ele><time>2026-04-18T14:30:59.042Z</time></trkpt><trkpt lat="44.3308567" lon="11.4168183"><ele>446.5</ele><time>2026-04-18T14:31:00.042Z</time></trkpt><trkpt lat="44.330935" lon="11.416705"><ele>443.0</ele><time>2026-04-18T14:31:01.042Z</time></trkpt><trkpt lat="44.331005" lon="11.4166"><ele>442.99999999999994</ele><time>2026-04-18T14:31:02.042Z</time></trkpt><trkpt lat="44.331075" lon="11.4164967"><ele>443.0</ele><time>2026-04-18T14:31:03.042Z</time></trkpt><trkpt lat="44.331135" lon="11.4163883"><ele>443.0</ele><time>2026-04-18T14:31:04.042Z</time></trkpt><trkpt lat="44.33117" lon="11.41628"><ele>443.0</ele><time>2026-04-18T14:31:05.042Z</time></trkpt><trkpt lat="44.33121" lon="11.4161917"><ele>442.99999999999994</ele><time>2026-04-18T14:31:06.042Z</time></trkpt><trkpt lat="44.3312567" lon="11.41611"><ele>443.0</ele><time>2026-04-18T14:31:07.041Z</time></trkpt><trkpt lat="44.3313167" lon="11.4160333"><ele>441.16666666666663</ele><time>2026-04-18T14:31:08.042Z</time></trkpt><trkpt lat="44.331385" lon="11.415985"><ele>439.3333333333333</ele><time>2026-04-18T14:31:09.042Z</time></trkpt><trkpt lat="44.3314583" lon="11.4159483"><ele>437.5</ele><time>2026-04-18T14:31:10.042Z</time></trkpt><trkpt lat="44.3315433" lon="11.4159167"><ele>435.66666666666663</ele><time>2026-04-18T14:31:11.042Z</time></trkpt><trkpt lat="44.331625" lon="11.4158783"><ele>433.8333333333333</ele><time>2026-04-18T14:31:12.042Z</time></trkpt><trkpt lat="44.3317133" lon="11.4158683"><ele>432.0</ele><time>2026-04-18T14:31:13.042Z</time></trkpt><trkpt lat="44.3317883" lon="11.4157983"><ele>432.0</ele><time>2026-04-18T14:31:14.041Z</time></trkpt><trkpt lat="44.3318417" lon="11.4157083"><ele>432.00000000000006</ele><time>2026-04-18T14:31:15.042Z</time></trkpt><trkpt lat="44.331905" lon="11.4156117"><ele>432.00000000000006</ele><time>2026-04-18T14:31:16.042Z</time></trkpt><trkpt lat="44.3319667" lon="11.4155467"><ele>432.0</ele><time>2026-04-18T14:31:17.042Z</time></trkpt><trkpt lat="44.332055" lon="11.4155083"><ele>432.0</ele><time>2026-04-18T14:31:18.041Z</time></trkpt><trkpt lat="44.3321533" lon="11.4154517"><ele>423.75</ele><time>2026-04-18T14:31:19.042Z</time></trkpt><trkpt lat="44.3322667" lon="11.4154367"><ele>415.5</ele><time>2026-04-18T14:31:20.042Z</time></trkpt><trkpt lat="44.3323783" lon="11.4154267"><ele>407.25</ele><time>2026-04-18T14:31:21.042Z</time></trkpt><trkpt lat="44.33249" lon="11.4153917"><ele>399.0</ele><time>2026-04-18T14:31:22.042Z</time></trkpt><trkpt lat="44.3325983" lon="11.4153467"><ele>399.0</ele><time>2026-04-18T14:31:23.041Z</time></trkpt><trkpt lat="44.3326883" lon="11.4152933"><ele>399.0</ele><time>2026-04-18T14:31:24.042Z</time></trkpt><trkpt lat="44.3327533" lon="11.4152233"><ele>399.0</ele><time>2026-04-18T14:31:25.042Z</time></trkpt><trkpt lat="44.3327983" lon="11.415125"><ele>399.0</ele><time>2026-04-18T14:31:26.042Z</time></trkpt><trkpt lat="44.3328483" lon="11.4150267"><ele>399.0</ele><time>2026-04-18T14:31:27.042Z</time></trkpt><trkpt lat="44.3329083" lon="11.4149217"><ele>399.0</ele><time>2026-04-18T14:31:28.042Z</time></trkpt><trkpt lat="44.332975" lon="11.4148333"><ele>397.2</ele><time>2026-04-18T14:31:29.042Z</time></trkpt><trkpt lat="44.3330617" lon="11.4147517"><ele>395.4</ele><time>2026-04-18T14:31:30.042Z</time></trkpt><trkpt lat="44.3331533" lon="11.41468"><ele>393.6</ele><time>2026-04-18T14:31:31.042Z</time></trkpt><trkpt lat="44.3332417" lon="11.4146267"><ele>391.8</ele><time>2026-04-18T14:31:32.042Z</time></trkpt><trkpt lat="44.3333383" lon="11.4146067"><ele>390.0</ele><time>2026-04-18T14:31:33.042Z</time></trkpt><trkpt lat="44.333425" lon="11.4146217"><ele>388.5</ele><time>2026-04-18T14:31:34.042Z</time></trkpt><trkpt lat="44.3335167" lon="11.4146383"><ele>387.0</ele><time>2026-04-18T14:31:35.042Z</time></trkpt><trkpt lat="44.3336067" lon="11.4146383"><ele>385.5</ele><time>2026-04-18T14:31:36.042Z</time></trkpt><trkpt lat="44.3336867" lon="11.414615"><ele>384.0</ele><time>2026-04-18T14:31:37.041Z</time></trkpt><trkpt lat="44.3337483" lon="11.4145717"><ele>382.5</ele><time>2026-04-18T14:31:38.042Z</time></trkpt><trkpt lat="44.33381" lon="11.4145217"><ele>381.0</ele><time>2026-04-18T14:31:39.042Z</time></trkpt><trkpt lat="44.3338483" lon="11.4144333"><ele>381.0</ele><time>2026-04-18T14:31:40.041Z</time></trkpt><trkpt lat="44.33388" lon="11.41429"><ele>381.0</ele><time>2026-04-18T14:31:41.042Z</time></trkpt><trkpt lat="44.333895" lon="11.4141283"><ele>381.0</ele><time>2026-04-18T14:31:42.042Z</time></trkpt><trkpt lat="44.3339167" lon="11.4139717"><ele>381.0</ele><time>2026-04-18T14:31:43.041Z</time></trkpt><trkpt lat="44.3339467" lon="11.4138283"><ele>381.0</ele><time>2026-04-18T14:31:44.042Z</time></trkpt><trkpt lat="44.3339683" lon="11.4136783"><ele>379.6</ele><time>2026-04-18T14:31:45.042Z</time></trkpt><trkpt lat="44.33397" lon="11.4135333"><ele>378.20000000000005</ele><time>2026-04-18T14:31:46.042Z</time></trkpt><trkpt lat="44.33397" lon="11.413395"><ele>376.79999999999995</ele><time>2026-04-18T14:31:47.042Z</time></trkpt><trkpt lat="44.3339833" lon="11.4132717"><ele>375.4</ele><time>2026-04-18T14:31:48.042Z</time></trkpt><trkpt lat="44.3340083" lon="11.41316"><ele>374.0</ele><time>2026-04-18T14:31:49.042Z</time></trkpt><trkpt lat="44.3340367" lon="11.4130333"><ele>369.79999999999995</ele><time>2026-04-18T14:31:50.042Z</time></trkpt><trkpt lat="44.3341133" lon="11.4129367"><ele>365.59999999999997</ele><time>2026-04-18T14:31:51.042Z</time></trkpt><trkpt lat="44.33417" lon="11.4128167"><ele>361.4</ele><time>2026-04-18T14:31:52.042Z</time></trkpt><trkpt lat="44.3342283" lon="11.4126833"><ele>357.2</ele><time>2026-04-18T14:31:53.042Z</time></trkpt><trkpt lat="44.3342667" lon="11.4125367"><ele>353.0</ele><time>2026-04-18T14:31:54.042Z</time></trkpt><trkpt lat="44.334285" lon="11.4123933"><ele>353.0</ele><time>2026-04-18T14:31:55.042Z</time></trkpt><trkpt lat="44.3342967" lon="11.412265"><ele>353.0</ele><time>2026-04-18T14:31:56.042Z</time></trkpt><trkpt lat="44.334295" lon="11.4121283"><ele>353.0</ele><time>2026-04-18T14:31:57.041Z</time></trkpt><trkpt lat="44.3342617" lon="11.412"><ele>353.0</ele><time>2026-04-18T14:31:58.041Z</time></trkpt><trkpt lat="44.334255" lon="11.41189"><ele>353.0</ele><time>2026-04-18T14:31:59.042Z</time></trkpt><trkpt lat="44.3342983" lon="11.41177"><ele>352.0</ele><time>2026-04-18T14:32:01.04Z</time></trkpt><trkpt lat="44.334365" lon="11.4117683"><ele>351.0</ele><time>2026-04-18T14:32:02.041Z</time></trkpt><trkpt lat="44.33444" lon="11.4118067"><ele>350.0</ele><time>2026-04-18T14:32:03.04Z</time></trkpt><trkpt lat="44.3345133" lon="11.411815"><ele>349.0</ele><time>2026-04-18T14:32:04.041Z</time></trkpt><trkpt lat="44.3345967" lon="11.4118333"><ele>348.0</ele><time>2026-04-18T14:32:05.041Z</time></trkpt><trkpt lat="44.3346967" lon="11.411845"><ele>347.0</ele><time>2026-04-18T14:32:06.041Z</time></trkpt><trkpt lat="44.3348133" lon="11.4118517"><ele>347.0</ele><time>2026-04-18T14:32:07.041Z</time></trkpt><trkpt lat="44.3349233" lon="11.4118333"><ele>347.0</ele><time>2026-04-18T14:32:08.04Z</time></trkpt><trkpt lat="44.33504" lon="11.4118017"><ele>347.0</ele><time>2026-04-18T14:32:09.041Z</time></trkpt><trkpt lat="44.3351783" lon="11.4117733"><ele>347.0</ele><time>2026-04-18T14:32:10.041Z</time></trkpt><trkpt lat="44.3353217" lon="11.4117"><ele>347.0</ele><time>2026-04-18T14:32:11.041Z</time></trkpt><trkpt lat="44.335445" lon="11.4116017"><ele>347.0</ele><time>2026-04-18T14:32:12.04Z</time></trkpt><trkpt lat="44.3355433" lon="11.411495"><ele>347.0</ele><time>2026-04-18T14:32:13.041Z</time></trkpt><trkpt lat="44.3356133" lon="11.4113817"><ele>347.0</ele><time>2026-04-18T14:32:14.04Z</time></trkpt><trkpt lat="44.33568" lon="11.4113"><ele>344.0</ele><time>2026-04-18T14:32:15.041Z</time></trkpt><trkpt lat="44.3357383" lon="11.4112383"><ele>341.0</ele><time>2026-04-18T14:32:16.04Z</time></trkpt><trkpt lat="44.335835" lon="11.411205"><ele>338.0</ele><time>2026-04-18T14:32:18.041Z</time></trkpt><trkpt lat="44.3359217" lon="11.4113883"><ele>335.0</ele><time>2026-04-18T14:32:20.04Z</time></trkpt><trkpt lat="44.33606" lon="11.4114733"><ele>335.0</ele><time>2026-04-18T14:32:22.041Z</time></trkpt><trkpt lat="44.3361617" lon="11.4114967"><ele>335.0</ele><time>2026-04-18T14:32:23.041Z</time></trkpt><trkpt lat="44.336265" lon="11.4114933"><ele>335.0</ele><time>2026-04-18T14:32:24.04Z</time></trkpt><trkpt lat="44.3363517" lon="11.411415"><ele>335.0</ele><time>2026-04-18T14:32:25.041Z</time></trkpt><trkpt lat="44.336445" lon="11.4113083"><ele>335.0</ele><time>2026-04-18T14:32:26.04Z</time></trkpt><trkpt lat="44.3365283" lon="11.4111783"><ele>329.5</ele><time>2026-04-18T14:32:27.041Z</time></trkpt><trkpt lat="44.3365967" lon="11.4110183"><ele>324.0</ele><time>2026-04-18T14:32:28.041Z</time></trkpt><trkpt lat="44.3366617" lon="11.4108467"><ele>318.5</ele><time>2026-04-18T14:32:29.041Z</time></trkpt><trkpt lat="44.3367067" lon="11.41067"><ele>313.0</ele><time>2026-04-18T14:32:30.041Z</time></trkpt><trkpt lat="44.336765" lon="11.4105467"><ele>310.8333333333333</ele><time>2026-04-18T14:32:31.04Z</time></trkpt><trkpt lat="44.33682" lon="11.4104417"><ele>308.66666666666663</ele><time>2026-04-18T14:32:32.041Z</time></trkpt><trkpt lat="44.33689" lon="11.41038"><ele>306.5</ele><time>2026-04-18T14:32:33.04Z</time></trkpt><trkpt lat="44.336965" lon="11.4103417"><ele>304.3333333333333</ele><time>2026-04-18T14:32:34.041Z</time></trkpt><trkpt lat="44.33703" lon="11.4103617"><ele>302.1666666666667</ele><time>2026-04-18T14:32:35.041Z</time></trkpt><trkpt lat="44.3370867" lon="11.410405"><ele>300.0</ele><time>2026-04-18T14:32:36.04Z</time></trkpt><trkpt lat="44.3371533" lon="11.41046"><ele>301.0</ele><time>2026-04-18T14:32:37.041Z</time></trkpt><trkpt lat="44.3372317" lon="11.410495"><ele>302.0</ele><time>2026-04-18T14:32:38.041Z</time></trkpt><trkpt lat="44.3373183" lon="11.4105133"><ele>303.0</ele><time>2026-04-18T14:32:39.041Z</time></trkpt><trkpt lat="44.337435" lon="11.4105"><ele>304.0</ele><time>2026-04-18T14:32:40.041Z</time></trkpt><trkpt lat="44.3375367" lon="11.4104567"><ele>305.0</ele><time>2026-04-18T14:32:41.041Z</time></trkpt><trkpt lat="44.3376317" lon="11.4103917"><ele>299.25</ele><time>2026-04-18T14:32:42.041Z</time></trkpt><trkpt lat="44.337745" lon="11.41031"><ele>293.5</ele><time>2026-04-18T14:32:43.041Z</time></trkpt><trkpt lat="44.3378467" lon="11.4102"><ele>287.75</ele><time>2026-04-18T14:32:44.041Z</time></trkpt><trkpt lat="44.3379333" lon="11.4101083"><ele>282.0</ele><time>2026-04-18T14:32:45.041Z</time></trkpt><trkpt lat="44.3380083" lon="11.41"><ele>279.8</ele><time>2026-04-18T14:32:46.041Z</time></trkpt><trkpt lat="44.3380767" lon="11.4098683"><ele>277.6</ele><time>2026-04-18T14:32:47.041Z</time></trkpt><trkpt lat="44.3381417" lon="11.40974"><ele>275.40000000000003</ele><time>2026-04-18T14:32:48.041Z</time></trkpt><trkpt lat="44.3382183" lon="11.4096367"><ele>273.2</ele><time>2026-04-18T14:32:49.041Z</time></trkpt><trkpt lat="44.3383" lon="11.4095567"><ele>271.0</ele><time>2026-04-18T14:32:50.041Z</time></trkpt><trkpt lat="44.3383917" lon="11.4095033"><ele>267.40000000000003</ele><time>2026-04-18T14:32:51.041Z</time></trkpt><trkpt lat="44.3384833" lon="11.4094783"><ele>263.8</ele><time>2026-04-18T14:32:52.041Z</time></trkpt><trkpt lat="44.3385983" lon="11.4094767"><ele>260.20000000000005</ele><time>2026-04-18T14:32:53.041Z</time></trkpt><trkpt lat="44.3387017" lon="11.4094433"><ele>256.6</ele><time>2026-04-18T14:32:54.041Z</time></trkpt><trkpt lat="44.3388017" lon="11.4093833"><ele>253.0</ele><time>2026-04-18T14:32:55.041Z</time></trkpt><trkpt lat="44.3388633" lon="11.4093333"><ele>252.99999999999997</ele><time>2026-04-18T14:32:56.041Z</time></trkpt><trkpt lat="44.33891" lon="11.4092667"><ele>253.0</ele><time>2026-04-18T14:32:57.041Z</time></trkpt><trkpt lat="44.3388467" lon="11.4091533"><ele>253.0</ele><time>2026-04-18T14:32:59.041Z</time></trkpt><trkpt lat="44.338785" lon="11.4091267"><ele>253.0</ele><time>2026-04-18T14:33:00.04Z</time></trkpt><trkpt lat="44.33871" lon="11.409125"><ele>252.99999999999997</ele><time>2026-04-18T14:33:01.041Z</time></trkpt><trkpt lat="44.3385867" lon="11.40915"><ele>253.0</ele><time>2026-04-18T14:33:02.041Z</time></trkpt><trkpt lat="44.33846" lon="11.409165"><ele>253.0</ele><time>2026-04-18T14:33:03.041Z</time></trkpt><trkpt lat="44.338325" lon="11.40916"><ele>253.0</ele><time>2026-04-18T14:33:04.041Z</time></trkpt><trkpt lat="44.3381983" lon="11.409155"><ele>253.0</ele><time>2026-04-18T14:33:05.041Z</time></trkpt><trkpt lat="44.3380567" lon="11.4091533"><ele>253.0</ele><time>2026-04-18T14:33:06.04Z</time></trkpt><trkpt lat="44.3379367" lon="11.4091483"><ele>254.0</ele><time>2026-04-18T14:33:07.041Z</time></trkpt><trkpt lat="44.3378217" lon="11.4091483"><ele>255.0</ele><time>2026-04-18T14:33:08.041Z</time></trkpt><trkpt lat="44.337725" lon="11.4091167"><ele>256.0</ele><time>2026-04-18T14:33:09.041Z</time></trkpt><trkpt lat="44.3376433" lon="11.4090667"><ele>257.0</ele><time>2026-04-18T14:33:10.041Z</time></trkpt><trkpt lat="44.3375783" lon="11.4089917"><ele>258.0</ele><time>2026-04-18T14:33:11.041Z</time></trkpt><trkpt lat="44.3375183" lon="11.4088767"><ele>254.60000000000002</ele><time>2026-04-18T14:33:12.041Z</time></trkpt><trkpt lat="44.3374667" lon="11.4087667"><ele>251.20000000000002</ele><time>2026-04-18T14:33:13.041Z</time></trkpt><trkpt lat="44.3374083" lon="11.4086417"><ele>247.8</ele><time>2026-04-18T14:33:14.041Z</time></trkpt><trkpt lat="44.3373567" lon="11.4085217"><ele>244.4</ele><time>2026-04-18T14:33:15.041Z</time></trkpt><trkpt lat="44.337315" lon="11.4083933"><ele>241.0</ele><time>2026-04-18T14:33:16.04Z</time></trkpt><trkpt lat="44.33729" lon="11.4082533"><ele>241.0</ele><time>2026-04-18T14:33:17.041Z</time></trkpt><trkpt lat="44.33732" lon="11.4080433"><ele>241.0</ele><time>2026-04-18T14:33:18.041Z</time></trkpt><trkpt lat="44.3373817" lon="11.4078033"><ele>241.0</ele><time>2026-04-18T14:33:19.041Z</time></trkpt><trkpt lat="44.33737" lon="11.4076483"><ele>241.0</ele><time>2026-04-18T14:33:20.041Z</time></trkpt><trkpt lat="44.33734" lon="11.4075"><ele>241.66666666666666</ele><time>2026-04-18T14:33:21.041Z</time></trkpt><trkpt lat="44.3373" lon="11.40737"><ele>242.33333333333331</ele><time>2026-04-18T14:33:22.041Z</time></trkpt><trkpt lat="44.3372567" lon="11.40727"><ele>243.0</ele><time>2026-04-18T14:33:23.041Z</time></trkpt><trkpt lat="44.3372117" lon="11.407185"><ele>243.66666666666669</ele><time>2026-04-18T14:33:24.041Z</time></trkpt><trkpt lat="44.3371733" lon="11.4071133"><ele>244.33333333333334</ele><time>2026-04-18T14:33:25.041Z</time></trkpt><trkpt lat="44.3371283" lon="11.40698"><ele>245.0</ele><time>2026-04-18T14:33:27.041Z</time></trkpt><trkpt lat="44.3372017" lon="11.4069083"><ele>240.33333333333334</ele><time>2026-04-18T14:33:30.041Z</time></trkpt><trkpt lat="44.3372733" lon="11.4069433"><ele>235.66666666666669</ele><time>2026-04-18T14:33:31.041Z</time></trkpt><trkpt lat="44.3373567" lon="11.4069883"><ele>231.0</ele><time>2026-04-18T14:33:32.041Z</time></trkpt><trkpt lat="44.3374233" lon="11.4069767"><ele>226.33333333333331</ele><time>2026-04-18T14:33:33.041Z</time></trkpt><trkpt lat="44.3374833" lon="11.4069"><ele>221.66666666666666</ele><time>2026-04-18T14:33:34.041Z</time></trkpt><trkpt lat="44.337515" lon="11.40681"><ele>217.0</ele><time>2026-04-18T14:33:35.041Z</time></trkpt><trkpt lat="44.3375317" lon="11.406695"><ele>217.0</ele><time>2026-04-18T14:33:36.041Z</time></trkpt><trkpt lat="44.3374833" lon="11.4065633"><ele>217.0</ele><time>2026-04-18T14:33:37.041Z</time></trkpt><trkpt lat="44.337445" lon="11.4064267"><ele>217.0</ele><time>2026-04-18T14:33:38.041Z</time></trkpt><trkpt lat="44.337395" lon="11.40631"><ele>217.0</ele><time>2026-04-18T14:33:39.041Z</time></trkpt><trkpt lat="44.3373433" lon="11.4061917"><ele>217.0</ele><time>2026-04-18T14:33:40.041Z</time></trkpt><trkpt lat="44.3372933" lon="11.4060867"><ele>215.99999999999997</ele><time>2026-04-18T14:33:41.041Z</time></trkpt><trkpt lat="44.3372333" lon="11.4060017"><ele>215.0</ele><time>2026-04-18T14:33:42.041Z</time></trkpt><trkpt lat="44.3371633" lon="11.4059067"><ele>214.0</ele><time>2026-04-18T14:33:43.041Z</time></trkpt><trkpt lat="44.3371" lon="11.4058283"><ele>213.0</ele><time>2026-04-18T14:33:44.041Z</time></trkpt><trkpt lat="44.33705" lon="11.4057567"><ele>211.99999999999997</ele><time>2026-04-18T14:33:45.04Z</time></trkpt><trkpt lat="44.33701" lon="11.4056767"><ele>211.0</ele><time>2026-04-18T14:33:46.041Z</time></trkpt><trkpt lat="44.3369817" lon="11.4055833"><ele>208.83333333333331</ele><time>2026-04-18T14:33:47.041Z</time></trkpt><trkpt lat="44.336965" lon="11.4054917"><ele>206.66666666666666</ele><time>2026-04-18T14:33:48.041Z</time></trkpt><trkpt lat="44.3369683" lon="11.4053933"><ele>204.5</ele><time>2026-04-18T14:33:49.041Z</time></trkpt><trkpt lat="44.3370033" lon="11.40529"><ele>202.33333333333331</ele><time>2026-04-18T14:33:50.041Z</time></trkpt><trkpt lat="44.337025" lon="11.4051667"><ele>200.16666666666666</ele><time>2026-04-18T14:33:51.041Z</time></trkpt><trkpt lat="44.3371467" lon="11.4050733"><ele>198.0</ele><time>2026-04-18T14:33:52.04Z</time></trkpt><trkpt lat="44.337265" lon="11.4049983"><ele>197.5</ele><time>2026-04-18T14:33:53.041Z</time></trkpt><trkpt lat="44.3373517" lon="11.4049283"><ele>197.0</ele><time>2026-04-18T14:33:54.041Z</time></trkpt><trkpt lat="44.3374183" lon="11.4048583"><ele>196.5</ele><time>2026-04-18T14:33:55.04Z</time></trkpt><trkpt lat="44.3374767" lon="11.4047917"><ele>196.0</ele><time>2026-04-18T14:33:56.041Z</time></trkpt><trkpt lat="44.3375333" lon="11.4047517"><ele>195.5</ele><time>2026-04-18T14:33:57.041Z</time></trkpt><trkpt lat="44.33763" lon="11.4047117"><ele>195.0</ele><time>2026-04-18T14:33:59.041Z</time></trkpt><trkpt lat="44.337735" lon="11.404675"><ele>195.0</ele><time>2026-04-18T14:34:01.041Z</time></trkpt><trkpt lat="44.3378383" lon="11.40481"><ele>195.0</ele><time>2026-04-18T14:34:03.041Z</time></trkpt><trkpt lat="44.3379167" lon="11.40499"><ele>195.0</ele><time>2026-04-18T14:34:04.041Z</time></trkpt><trkpt lat="44.3380067" lon="11.40519"><ele>195.0</ele><time>2026-04-18T14:34:05.04Z</time></trkpt><trkpt lat="44.3381167" lon="11.4054817"><ele>195.0</ele><time>2026-04-18T14:34:06.041Z</time></trkpt><trkpt lat="44.3382383" lon="11.4057433"><ele>195.0</ele><time>2026-04-18T14:34:07.041Z</time></trkpt><trkpt lat="44.3383483" lon="11.40597"><ele>195.0</ele><time>2026-04-18T14:34:08.04Z</time></trkpt><trkpt lat="44.3384433" lon="11.4061783"><ele>195.0</ele><time>2026-04-18T14:34:09.04Z</time></trkpt><trkpt lat="44.3385567" lon="11.4063717"><ele>196.33333333333331</ele><time>2026-04-18T14:34:10.041Z</time></trkpt><trkpt lat="44.3386483" lon="11.40656"><ele>197.66666666666666</ele><time>2026-04-18T14:34:11.04Z</time></trkpt><trkpt lat="44.33874" lon="11.4067467"><ele>199.0</ele><time>2026-04-18T14:34:12.04Z</time></trkpt><trkpt lat="44.338855" lon="11.40689"><ele>196.66666666666666</ele><time>2026-04-18T14:34:13.041Z</time></trkpt><trkpt lat="44.3390017" lon="11.4069917"><ele>194.33333333333331</ele><time>2026-04-18T14:34:14.041Z</time></trkpt><trkpt lat="44.3391467" lon="11.407025"><ele>192.0</ele><time>2026-04-18T14:34:15.041Z</time></trkpt><trkpt lat="44.3392917" lon="11.4070233"><ele>192.0</ele><time>2026-04-18T14:34:16.041Z</time></trkpt><trkpt lat="44.3394433" lon="11.406985"><ele>192.0</ele><time>2026-04-18T14:34:17.041Z</time></trkpt><trkpt lat="44.3395883" lon="11.4069"><ele>192.0</ele><time>2026-04-18T14:34:18.041Z</time></trkpt><trkpt lat="44.33973" lon="11.4067933"><ele>193.66666666666669</ele><time>2026-04-18T14:34:19.041Z</time></trkpt><trkpt lat="44.3398717" lon="11.4066567"><ele>195.33333333333334</ele><time>2026-04-18T14:34:20.041Z</time></trkpt><trkpt lat="44.340015" lon="11.40652"><ele>197.0</ele><time>2026-04-18T14:34:21.041Z</time></trkpt><trkpt lat="44.34017" lon="11.40639"><ele>195.66666666666669</ele><time>2026-04-18T14:34:22.041Z</time></trkpt><trkpt lat="44.3403267" lon="11.4062683"><ele>194.33333333333331</ele><time>2026-04-18T14:34:23.041Z</time></trkpt><trkpt lat="44.3404867" lon="11.40615"><ele>193.0</ele><time>2026-04-18T14:34:24.041Z</time></trkpt><trkpt lat="44.340655" lon="11.4060483"><ele>193.0</ele><time>2026-04-18T14:34:25.041Z</time></trkpt><trkpt lat="44.3408217" lon="11.4059733"><ele>193.0</ele><time>2026-04-18T14:34:26.041Z</time></trkpt><trkpt lat="44.340985" lon="11.40592"><ele>193.0</ele><time>2026-04-18T14:34:27.04Z</time></trkpt><trkpt lat="44.3411467" lon="11.40589"><ele>193.0</ele><time>2026-04-18T14:34:28.04Z</time></trkpt><trkpt lat="44.3413117" lon="11.4058817"><ele>193.0</ele><time>2026-04-18T14:34:29.041Z</time></trkpt><trkpt lat="44.3414717" lon="11.4059583"><ele>193.0</ele><time>2026-04-18T14:34:30.041Z</time></trkpt><trkpt lat="44.3416283" lon="11.4060683"><ele>191.66666666666666</ele><time>2026-04-18T14:34:31.041Z</time></trkpt><trkpt lat="44.3417917" lon="11.4061333"><ele>190.33333333333331</ele><time>2026-04-18T14:34:32.041Z</time></trkpt><trkpt lat="44.34194" lon="11.4062717"><ele>189.0</ele><time>2026-04-18T14:34:33.041Z</time></trkpt><trkpt lat="44.3420717" lon="11.4064183"><ele>191.0</ele><time>2026-04-18T14:34:34.04Z</time></trkpt><trkpt lat="44.3422083" lon="11.4065767"><ele>193.0</ele><time>2026-04-18T14:34:35.041Z</time></trkpt><trkpt lat="44.3423617" lon="11.4067017"><ele>195.0</ele><time>2026-04-18T14:34:36.041Z</time></trkpt><trkpt lat="44.34251" lon="11.4068583"><ele>195.0</ele><time>2026-04-18T14:34:37.04Z</time></trkpt><trkpt lat="44.34266" lon="11.4069817"><ele>195.0</ele><time>2026-04-18T14:34:38.041Z</time></trkpt><trkpt lat="44.34285" lon="11.4070733"><ele>195.0</ele><time>2026-04-18T14:34:39.041Z</time></trkpt><trkpt lat="44.34306" lon="11.4071533"><ele>192.66666666666666</ele><time>2026-04-18T14:34:40.041Z</time></trkpt><trkpt lat="44.3432517" lon="11.4071417"><ele>190.33333333333331</ele><time>2026-04-18T14:34:41.041Z</time></trkpt><trkpt lat="44.3434417" lon="11.4070517"><ele>188.0</ele><time>2026-04-18T14:34:42.04Z</time></trkpt><trkpt lat="44.343625" lon="11.4069217"><ele>188.0</ele><time>2026-04-18T14:34:43.041Z</time></trkpt><trkpt lat="44.3437817" lon="11.4068133"><ele>188.0</ele><time>2026-04-18T14:34:44.041Z</time></trkpt><trkpt lat="44.3439283" lon="11.4067017"><ele>188.0</ele><time>2026-04-18T14:34:45.041Z</time></trkpt><trkpt lat="44.3441033" lon="11.4065917"><ele>188.66666666666666</ele><time>2026-04-18T14:34:46.041Z</time></trkpt><trkpt lat="44.3442767" lon="11.40647"><ele>189.33333333333334</ele><time>2026-04-18T14:34:47.041Z</time></trkpt><trkpt lat="44.3444517" lon="11.4063767"><ele>190.0</ele><time>2026-04-18T14:34:48.041Z</time></trkpt><trkpt lat="44.344615" lon="11.406285"><ele>188.0</ele><time>2026-04-18T14:34:49.041Z</time></trkpt><trkpt lat="44.3447567" lon="11.4062033"><ele>186.0</ele><time>2026-04-18T14:34:50.041Z</time></trkpt><trkpt lat="44.3448983" lon="11.4061467"><ele>184.0</ele><time>2026-04-18T14:34:51.041Z</time></trkpt><trkpt lat="44.345035" lon="11.406115"><ele>182.0</ele><time>2026-04-18T14:34:52.04Z</time></trkpt><trkpt lat="44.3451733" lon="11.4061183"><ele>182.0</ele><time>2026-04-18T14:34:53.041Z</time></trkpt><trkpt lat="44.3453183" lon="11.4061433"><ele>182.0</ele><time>2026-04-18T14:34:54.04Z</time></trkpt><trkpt lat="44.345475" lon="11.4061933"><ele>182.0</ele><time>2026-04-18T14:34:55.04Z</time></trkpt><trkpt lat="44.345625" lon="11.4062367"><ele>183.0</ele><time>2026-04-18T14:34:56.04Z</time></trkpt><trkpt lat="44.34576" lon="11.4062767"><ele>184.0</ele><time>2026-04-18T14:34:57.04Z</time></trkpt><trkpt lat="44.3459017" lon="11.4063167"><ele>185.0</ele><time>2026-04-18T14:34:58.04Z</time></trkpt><trkpt lat="44.3460417" lon="11.4063617"><ele>186.0</ele><time>2026-04-18T14:34:59.04Z</time></trkpt><trkpt lat="44.346185" lon="11.40641"><ele>186.0</ele><time>2026-04-18T14:35:00.04Z</time></trkpt><trkpt lat="44.3463333" lon="11.406465"><ele>186.0</ele><time>2026-04-18T14:35:01.04Z</time></trkpt><trkpt lat="44.3464783" lon="11.4065167"><ele>186.0</ele><time>2026-04-18T14:35:02.04Z</time></trkpt><trkpt lat="44.34662" lon="11.4065633"><ele>186.0</ele><time>2026-04-18T14:35:03.04Z</time></trkpt><trkpt lat="44.3467667" lon="11.4066"><ele>186.0</ele><time>2026-04-18T14:35:04.04Z</time></trkpt><trkpt lat="44.346905" lon="11.4066283"><ele>186.0</ele><time>2026-04-18T14:35:05.04Z</time></trkpt><trkpt lat="44.3470367" lon="11.4066367"><ele>186.0</ele><time>2026-04-18T14:35:06.039Z</time></trkpt><trkpt lat="44.3471583" lon="11.4066517"><ele>186.0</ele><time>2026-04-18T14:35:07.04Z</time></trkpt><trkpt lat="44.3472683" lon="11.4066733"><ele>186.0</ele><time>2026-04-18T14:35:08.04Z</time></trkpt><trkpt lat="44.3473817" lon="11.4066867"><ele>186.0</ele><time>2026-04-18T14:35:09.04Z</time></trkpt><trkpt lat="44.3474833" lon="11.4067117"><ele>186.0</ele><time>2026-04-18T14:35:10.04Z</time></trkpt><trkpt lat="44.3475717" lon="11.4067383"><ele>186.0</ele><time>2026-04-18T14:35:11.039Z</time></trkpt><trkpt lat="44.34765" lon="11.4067717"><ele>186.0</ele><time>2026-04-18T14:35:12.04Z</time></trkpt><trkpt lat="44.347725" lon="11.4068083"><ele>186.0</ele><time>2026-04-18T14:35:13.04Z</time></trkpt><trkpt lat="44.347805" lon="11.4068467"><ele>186.0</ele><time>2026-04-18T14:35:14.04Z</time></trkpt><trkpt lat="44.3478933" lon="11.40689"><ele>186.0</ele><time>2026-04-18T14:35:15.04Z</time></trkpt><trkpt lat="44.3479783" lon="11.406945"><ele>186.0</ele><time>2026-04-18T14:35:16.04Z</time></trkpt><trkpt lat="44.3480767" lon="11.4069917"><ele>186.0</ele><time>2026-04-18T14:35:17.04Z</time></trkpt><trkpt lat="44.34819" lon="11.407045"><ele>184.5</ele><time>2026-04-18T14:35:18.04Z</time></trkpt><trkpt lat="44.3483317" lon="11.4071133"><ele>183.0</ele><time>2026-04-18T14:35:19.04Z</time></trkpt><trkpt lat="44.3484767" lon="11.4071783"><ele>181.5</ele><time>2026-04-18T14:35:20.04Z</time></trkpt><trkpt lat="44.3486167" lon="11.4072417"><ele>180.0</ele><time>2026-04-18T14:35:21.04Z</time></trkpt><trkpt lat="44.3487517" lon="11.4073"><ele>181.25</ele><time>2026-04-18T14:35:22.039Z</time></trkpt><trkpt lat="44.3488833" lon="11.4073533"><ele>182.5</ele><time>2026-04-18T14:35:23.04Z</time></trkpt><trkpt lat="44.3490117" lon="11.4074083"><ele>183.75</ele><time>2026-04-18T14:35:24.04Z</time></trkpt><trkpt lat="44.3491367" lon="11.4074617"><ele>185.0</ele><time>2026-04-18T14:35:25.04Z</time></trkpt><trkpt lat="44.3492733" lon="11.4075383"><ele>185.0</ele><time>2026-04-18T14:35:26.04Z</time></trkpt><trkpt lat="44.3494167" lon="11.40765"><ele>185.0</ele><time>2026-04-18T14:35:27.04Z</time></trkpt><trkpt lat="44.3495717" lon="11.4077917"><ele>185.0</ele><time>2026-04-18T14:35:28.04Z</time></trkpt><trkpt lat="44.3496983" lon="11.4079367"><ele>185.33333333333331</ele><time>2026-04-18T14:35:29.04Z</time></trkpt><trkpt lat="44.3498117" lon="11.4081233"><ele>185.66666666666666</ele><time>2026-04-18T14:35:30.04Z</time></trkpt><trkpt lat="44.349905" lon="11.4082867"><ele>186.0</ele><time>2026-04-18T14:35:31.04Z</time></trkpt><trkpt lat="44.3499767" lon="11.4084517"><ele>186.0</ele><time>2026-04-18T14:35:32.04Z</time></trkpt><trkpt lat="44.3500333" lon="11.408615"><ele>186.0</ele><time>2026-04-18T14:35:33.039Z</time></trkpt><trkpt lat="44.3500717" lon="11.4087817"><ele>186.0</ele><time>2026-04-18T14:35:34.039Z</time></trkpt><trkpt lat="44.3501167" lon="11.40896"><ele>186.0</ele><time>2026-04-18T14:35:35.04Z</time></trkpt><trkpt lat="44.3501617" lon="11.4091283"><ele>184.33333333333334</ele><time>2026-04-18T14:35:36.039Z</time></trkpt><trkpt lat="44.3502233" lon="11.409325"><ele>182.66666666666669</ele><time>2026-04-18T14:35:37.04Z</time></trkpt><trkpt lat="44.3502917" lon="11.4095133"><ele>181.0</ele><time>2026-04-18T14:35:38.04Z</time></trkpt><trkpt lat="44.3503717" lon="11.4096983"><ele>181.0</ele><time>2026-04-18T14:35:39.039Z</time></trkpt><trkpt lat="44.350465" lon="11.4098783"><ele>181.0</ele><time>2026-04-18T14:35:40.04Z</time></trkpt><trkpt lat="44.3505633" lon="11.4100267"><ele>181.0</ele><time>2026-04-18T14:35:41.04Z</time></trkpt><trkpt lat="44.350655" lon="11.4101633"><ele>181.0</ele><time>2026-04-18T14:35:42.04Z</time></trkpt><trkpt lat="44.3507433" lon="11.410285"><ele>181.5</ele><time>2026-04-18T14:35:43.04Z</time></trkpt><trkpt lat="44.3508333" lon="11.4104317"><ele>182.0</ele><time>2026-04-18T14:35:44.04Z</time></trkpt><trkpt lat="44.3509333" lon="11.4105783"><ele>182.5</ele><time>2026-04-18T14:35:45.04Z</time></trkpt><trkpt lat="44.351035" lon="11.4107333"><ele>183.0</ele><time>2026-04-18T14:35:46.04Z</time></trkpt><trkpt lat="44.35111" lon="11.4108917"><ele>180.0</ele><time>2026-04-18T14:35:47.04Z</time></trkpt><trkpt lat="44.3511933" lon="11.4110617"><ele>177.0</ele><time>2026-04-18T14:35:48.04Z</time></trkpt><trkpt lat="44.351295" lon="11.4112267"><ele>174.0</ele><time>2026-04-18T14:35:49.04Z</time></trkpt><trkpt lat="44.3513933" lon="11.4113983"><ele>172.33333333333334</ele><time>2026-04-18T14:35:50.039Z</time></trkpt><trkpt lat="44.3514933" lon="11.4115733"><ele>170.66666666666669</ele><time>2026-04-18T14:35:51.04Z</time></trkpt><trkpt lat="44.3515983" lon="11.4117333"><ele>169.0</ele><time>2026-04-18T14:35:52.04Z</time></trkpt><trkpt lat="44.3516933" lon="11.411885"><ele>169.0</ele><time>2026-04-18T14:35:53.04Z</time></trkpt><trkpt lat="44.351785" lon="11.4120383"><ele>169.0</ele><time>2026-04-18T14:35:54.04Z</time></trkpt><trkpt lat="44.3518817" lon="11.4122"><ele>169.0</ele><time>2026-04-18T14:35:55.04Z</time></trkpt><trkpt lat="44.35198" lon="11.4123633"><ele>169.0</ele><time>2026-04-18T14:35:56.04Z</time></trkpt><trkpt lat="44.3520783" lon="11.412535"><ele>169.33333333333334</ele><time>2026-04-18T14:35:57.04Z</time></trkpt><trkpt lat="44.3521783" lon="11.4126983"><ele>169.66666666666666</ele><time>2026-04-18T14:35:58.04Z</time></trkpt><trkpt lat="44.3522717" lon="11.41286"><ele>170.0</ele><time>2026-04-18T14:35:59.04Z</time></trkpt><trkpt lat="44.3523633" lon="11.4130233"><ele>171.66666666666666</ele><time>2026-04-18T14:36:00.04Z</time></trkpt><trkpt lat="44.3524567" lon="11.4131933"><ele>173.33333333333334</ele><time>2026-04-18T14:36:01.04Z</time></trkpt><trkpt lat="44.3525683" lon="11.4133467"><ele>175.0</ele><time>2026-04-18T14:36:02.04Z</time></trkpt><trkpt lat="44.3527" lon="11.4134967"><ele>175.0</ele><time>2026-04-18T14:36:03.04Z</time></trkpt><trkpt lat="44.3528133" lon="11.4136383"><ele>175.0</ele><time>2026-04-18T14:36:04.04Z</time></trkpt><trkpt lat="44.35293" lon="11.4137717"><ele>175.0</ele><time>2026-04-18T14:36:05.04Z</time></trkpt><trkpt lat="44.3530467" lon="11.4139067"><ele>175.25</ele><time>2026-04-18T14:36:06.04Z</time></trkpt><trkpt lat="44.3531483" lon="11.4140333"><ele>175.5</ele><time>2026-04-18T14:36:07.04Z</time></trkpt><trkpt lat="44.3532667" lon="11.414155"><ele>175.75</ele><time>2026-04-18T14:36:08.04Z</time></trkpt><trkpt lat="44.3533883" lon="11.4142883"><ele>176.0</ele><time>2026-04-18T14:36:09.04Z</time></trkpt><trkpt lat="44.3535267" lon="11.4144117"><ele>176.0</ele><time>2026-04-18T14:36:10.04Z</time></trkpt><trkpt lat="44.3536867" lon="11.414505"><ele>176.0</ele><time>2026-04-18T14:36:11.04Z</time></trkpt><trkpt lat="44.353835" lon="11.4145717"><ele>176.0</ele><time>2026-04-18T14:36:12.04Z</time></trkpt><trkpt lat="44.3539983" lon="11.41461"><ele>174.5</ele><time>2026-04-18T14:36:13.04Z</time></trkpt><trkpt lat="44.35416" lon="11.4146217"><ele>173.0</ele><time>2026-04-18T14:36:14.04Z</time></trkpt><trkpt lat="44.3543033" lon="11.4146217"><ele>171.5</ele><time>2026-04-18T14:36:15.04Z</time></trkpt><trkpt lat="44.354445" lon="11.41461"><ele>170.0</ele><time>2026-04-18T14:36:16.04Z</time></trkpt><trkpt lat="44.354575" lon="11.414605"><ele>170.0</ele><time>2026-04-18T14:36:17.04Z</time></trkpt><trkpt lat="44.3546933" lon="11.4145933"><ele>170.0</ele><time>2026-04-18T14:36:18.04Z</time></trkpt><trkpt lat="44.3548217" lon="11.41457"><ele>170.0</ele><time>2026-04-18T14:36:19.04Z</time></trkpt><trkpt lat="44.354955" lon="11.41455"><ele>170.0</ele><time>2026-04-18T14:36:20.04Z</time></trkpt><trkpt lat="44.3550967" lon="11.414505"><ele>170.0</ele><time>2026-04-18T14:36:21.04Z</time></trkpt><trkpt lat="44.3552333" lon="11.414485"><ele>170.0</ele><time>2026-04-18T14:36:22.04Z</time></trkpt><trkpt lat="44.3553933" lon="11.4144517"><ele>170.0</ele><time>2026-04-18T14:36:23.04Z</time></trkpt><trkpt lat="44.355535" lon="11.41442"><ele>170.0</ele><time>2026-04-18T14:36:24.04Z</time></trkpt><trkpt lat="44.3556767" lon="11.4143733"><ele>171.33333333333331</ele><time>2026-04-18T14:36:25.04Z</time></trkpt><trkpt lat="44.355815" lon="11.414335"><ele>172.66666666666666</ele><time>2026-04-18T14:36:26.04Z</time></trkpt><trkpt lat="44.3559717" lon="11.414275"><ele>174.0</ele><time>2026-04-18T14:36:27.04Z</time></trkpt><trkpt lat="44.3561333" lon="11.414195"><ele>174.0</ele><time>2026-04-18T14:36:28.04Z</time></trkpt><trkpt lat="44.3562717" lon="11.4141017"><ele>174.0</ele><time>2026-04-18T14:36:29.04Z</time></trkpt><trkpt lat="44.3564083" lon="11.4140233"><ele>174.0</ele><time>2026-04-18T14:36:30.039Z</time></trkpt><trkpt lat="44.3565517" lon="11.41396"><ele>175.5</ele><time>2026-04-18T14:36:31.04Z</time></trkpt><trkpt lat="44.3566967" lon="11.4139067"><ele>177.0</ele><time>2026-04-18T14:36:32.04Z</time></trkpt><trkpt lat="44.3568383" lon="11.41387"><ele>178.5</ele><time>2026-04-18T14:36:33.04Z</time></trkpt><trkpt lat="44.3569867" lon="11.413855"><ele>180.0</ele><time>2026-04-18T14:36:34.039Z</time></trkpt><trkpt lat="44.3571317" lon="11.413865"><ele>178.0</ele><time>2026-04-18T14:36:35.04Z</time></trkpt><trkpt lat="44.3572633" lon="11.4139483"><ele>176.0</ele><time>2026-04-18T14:36:36.04Z</time></trkpt><trkpt lat="44.3573883" lon="11.414045"><ele>174.0</ele><time>2026-04-18T14:36:37.04Z</time></trkpt><trkpt lat="44.3575083" lon="11.4141517"><ele>172.0</ele><time>2026-04-18T14:36:38.04Z</time></trkpt><trkpt lat="44.3576267" lon="11.4142583"><ele>172.0</ele><time>2026-04-18T14:36:39.04Z</time></trkpt><trkpt lat="44.3577467" lon="11.414355"><ele>172.0</ele><time>2026-04-18T14:36:40.04Z</time></trkpt><trkpt lat="44.3578733" lon="11.414455"><ele>172.0</ele><time>2026-04-18T14:36:41.04Z</time></trkpt><trkpt lat="44.358" lon="11.4145517"><ele>172.0</ele><time>2026-04-18T14:36:42.039Z</time></trkpt><trkpt lat="44.3581317" lon="11.4146567"><ele>171.0</ele><time>2026-04-18T14:36:43.04Z</time></trkpt><trkpt lat="44.3582633" lon="11.4147667"><ele>170.0</ele><time>2026-04-18T14:36:44.04Z</time></trkpt><trkpt lat="44.358395" lon="11.414865"><ele>169.0</ele><time>2026-04-18T14:36:45.039Z</time></trkpt><trkpt lat="44.3585217" lon="11.4149767"><ele>169.0</ele><time>2026-04-18T14:36:46.039Z</time></trkpt><trkpt lat="44.358645" lon="11.4150883"><ele>169.0</ele><time>2026-04-18T14:36:47.04Z</time></trkpt><trkpt lat="44.3587617" lon="11.4152033"><ele>169.0</ele><time>2026-04-18T14:36:48.039Z</time></trkpt><trkpt lat="44.3588833" lon="11.41531"><ele>169.0</ele><time>2026-04-18T14:36:49.039Z</time></trkpt><trkpt lat="44.3590017" lon="11.4154117"><ele>167.75</ele><time>2026-04-18T14:36:50.04Z</time></trkpt><trkpt lat="44.3591033" lon="11.4155033"><ele>166.5</ele><time>2026-04-18T14:36:51.04Z</time></trkpt><trkpt lat="44.3592067" lon="11.41562"><ele>165.25</ele><time>2026-04-18T14:36:52.04Z</time></trkpt><trkpt lat="44.3592917" lon="11.41575"><ele>164.0</ele><time>2026-04-18T14:36:53.039Z</time></trkpt><trkpt lat="44.3593583" lon="11.4158967"><ele>164.0</ele><time>2026-04-18T14:36:54.04Z</time></trkpt><trkpt lat="44.359445" lon="11.4160683"><ele>164.0</ele><time>2026-04-18T14:36:55.04Z</time></trkpt><trkpt lat="44.3595267" lon="11.41626"><ele>164.0</ele><time>2026-04-18T14:36:56.04Z</time></trkpt><trkpt lat="44.3596083" lon="11.416445"><ele>162.0</ele><time>2026-04-18T14:36:57.04Z</time></trkpt><trkpt lat="44.3596933" lon="11.4166167"><ele>160.0</ele><time>2026-04-18T14:36:58.04Z</time></trkpt><trkpt lat="44.3597867" lon="11.4167933"><ele>158.0</ele><time>2026-04-18T14:36:59.039Z</time></trkpt><trkpt lat="44.3598867" lon="11.4169633"><ele>158.0</ele><time>2026-04-18T14:37:00.04Z</time></trkpt><trkpt lat="44.3600033" lon="11.4171217"><ele>158.0</ele><time>2026-04-18T14:37:01.04Z</time></trkpt><trkpt lat="44.3601333" lon="11.4172667"><ele>158.0</ele><time>2026-04-18T14:37:02.04Z</time></trkpt><trkpt lat="44.36028" lon="11.4173767"><ele>158.33333333333331</ele><time>2026-04-18T14:37:03.04Z</time></trkpt><trkpt lat="44.3604333" lon="11.4174567"><ele>158.66666666666666</ele><time>2026-04-18T14:37:04.039Z</time></trkpt><trkpt lat="44.3605767" lon="11.41755"><ele>159.0</ele><time>2026-04-18T14:37:05.04Z</time></trkpt><trkpt lat="44.3607133" lon="11.4176433"><ele>159.0</ele><time>2026-04-18T14:37:06.04Z</time></trkpt><trkpt lat="44.360845" lon="11.4177383"><ele>159.0</ele><time>2026-04-18T14:37:07.04Z</time></trkpt><trkpt lat="44.3609767" lon="11.4178283"><ele>159.0</ele><time>2026-04-18T14:37:08.04Z</time></trkpt><trkpt lat="44.3611133" lon="11.41792"><ele>159.0</ele><time>2026-04-18T14:37:09.04Z</time></trkpt><trkpt lat="44.3612517" lon="11.4180233"><ele>158.33333333333334</ele><time>2026-04-18T14:37:10.04Z</time></trkpt><trkpt lat="44.3613967" lon="11.41813"><ele>157.66666666666669</ele><time>2026-04-18T14:37:11.04Z</time></trkpt><trkpt lat="44.3615417" lon="11.4182317"><ele>157.0</ele><time>2026-04-18T14:37:12.04Z</time></trkpt><trkpt lat="44.3616817" lon="11.4183167"><ele>157.0</ele><time>2026-04-18T14:37:13.039Z</time></trkpt><trkpt lat="44.3618" lon="11.4184283"><ele>157.0</ele><time>2026-04-18T14:37:14.04Z</time></trkpt><trkpt lat="44.36197" lon="11.4184783"><ele>157.0</ele><time>2026-04-18T14:37:15.039Z</time></trkpt><trkpt lat="44.362165" lon="11.4184567"><ele>156.0</ele><time>2026-04-18T14:37:16.04Z</time></trkpt><trkpt lat="44.3623433" lon="11.418425"><ele>155.0</ele><time>2026-04-18T14:37:17.04Z</time></trkpt><trkpt lat="44.3625217" lon="11.4183717"><ele>154.0</ele><time>2026-04-18T14:37:18.04Z</time></trkpt><trkpt lat="44.36269" lon="11.4183333"><ele>154.0</ele><time>2026-04-18T14:37:19.04Z</time></trkpt><trkpt lat="44.3628633" lon="11.41829"><ele>154.0</ele><time>2026-04-18T14:37:20.04Z</time></trkpt><trkpt lat="44.3630267" lon="11.418255"><ele>154.0</ele><time>2026-04-18T14:37:21.04Z</time></trkpt><trkpt lat="44.3631733" lon="11.4182233"><ele>154.0</ele><time>2026-04-18T14:37:22.04Z</time></trkpt><trkpt lat="44.3633067" lon="11.418195"><ele>154.0</ele><time>2026-04-18T14:37:23.04Z</time></trkpt><trkpt lat="44.3634417" lon="11.4181583"><ele>154.0</ele><time>2026-04-18T14:37:24.04Z</time></trkpt><trkpt lat="44.3635667" lon="11.4181283"><ele>154.0</ele><time>2026-04-18T14:37:25.04Z</time></trkpt><trkpt lat="44.3636867" lon="11.4181133"><ele>154.0</ele><time>2026-04-18T14:37:26.04Z</time></trkpt><trkpt lat="44.3638167" lon="11.4180667"><ele>154.0</ele><time>2026-04-18T14:37:27.04Z</time></trkpt><trkpt lat="44.363935" lon="11.4180333"><ele>154.0</ele><time>2026-04-18T14:37:28.04Z</time></trkpt><trkpt lat="44.36407" lon="11.4180033"><ele>154.0</ele><time>2026-04-18T14:37:29.04Z</time></trkpt><trkpt lat="44.3642017" lon="11.4179717"><ele>154.25</ele><time>2026-04-18T14:37:30.04Z</time></trkpt><trkpt lat="44.3643383" lon="11.4179367"><ele>154.5</ele><time>2026-04-18T14:37:31.04Z</time></trkpt><trkpt lat="44.3644667" lon="11.41791"><ele>154.75</ele><time>2026-04-18T14:37:32.04Z</time></trkpt><trkpt lat="44.36459" lon="11.4178917"><ele>155.0</ele><time>2026-04-18T14:37:33.04Z</time></trkpt><trkpt lat="44.3647133" lon="11.417875"><ele>155.25</ele><time>2026-04-18T14:37:34.04Z</time></trkpt><trkpt lat="44.3648383" lon="11.4178517"><ele>155.5</ele><time>2026-04-18T14:37:35.039Z</time></trkpt><trkpt lat="44.3649733" lon="11.4178367"><ele>155.75</ele><time>2026-04-18T14:37:36.039Z</time></trkpt><trkpt lat="44.3651183" lon="11.41782"><ele>156.0</ele><time>2026-04-18T14:37:37.04Z</time></trkpt><trkpt lat="44.3652667" lon="11.4178033"><ele>156.0</ele><time>2026-04-18T14:37:38.04Z</time></trkpt><trkpt lat="44.3654117" lon="11.4177783"><ele>156.0</ele><time>2026-04-18T14:37:39.04Z</time></trkpt><trkpt lat="44.3655467" lon="11.4177633"><ele>156.0</ele><time>2026-04-18T14:37:40.039Z</time></trkpt><trkpt lat="44.3656667" lon="11.41775"><ele>156.0</ele><time>2026-04-18T14:37:41.04Z</time></trkpt><trkpt lat="44.3658017" lon="11.4177483"><ele>155.5</ele><time>2026-04-18T14:37:42.04Z</time></trkpt><trkpt lat="44.3659367" lon="11.41776"><ele>155.0</ele><time>2026-04-18T14:37:43.04Z</time></trkpt><trkpt lat="44.3660617" lon="11.4177933"><ele>154.5</ele><time>2026-04-18T14:37:44.04Z</time></trkpt><trkpt lat="44.3661833" lon="11.41783"><ele>154.0</ele><time>2026-04-18T14:37:45.039Z</time></trkpt><trkpt lat="44.3662967" lon="11.4178817"><ele>154.0</ele><time>2026-04-18T14:37:46.04Z</time></trkpt><trkpt lat="44.3664067" lon="11.4179717"><ele>154.0</ele><time>2026-04-18T14:37:47.04Z</time></trkpt><trkpt lat="44.3665067" lon="11.4180867"><ele>154.0</ele><time>2026-04-18T14:37:48.04Z</time></trkpt><trkpt lat="44.3666" lon="11.418225"><ele>154.0</ele><time>2026-04-18T14:37:49.04Z</time></trkpt><trkpt lat="44.3666817" lon="11.4183817"><ele>154.0</ele><time>2026-04-18T14:37:50.038Z</time></trkpt><trkpt lat="44.366755" lon="11.4185567"><ele>154.0</ele><time>2026-04-18T14:37:51.039Z</time></trkpt><trkpt lat="44.3668217" lon="11.4187433"><ele>154.0</ele><time>2026-04-18T14:37:52.039Z</time></trkpt><trkpt lat="44.3668883" lon="11.41894"><ele>154.66666666666669</ele><time>2026-04-18T14:37:53.038Z</time></trkpt><trkpt lat="44.366955" lon="11.419145"><ele>155.33333333333334</ele><time>2026-04-18T14:37:54.039Z</time></trkpt><trkpt lat="44.3670267" lon="11.41936"><ele>156.0</ele><time>2026-04-18T14:37:55.039Z</time></trkpt><trkpt lat="44.3670883" lon="11.4195767"><ele>157.5</ele><time>2026-04-18T14:37:56.039Z</time></trkpt><trkpt lat="44.3671483" lon="11.4197633"><ele>159.0</ele><time>2026-04-18T14:37:57.039Z</time></trkpt><trkpt lat="44.367225" lon="11.4199517"><ele>160.5</ele><time>2026-04-18T14:37:58.039Z</time></trkpt><trkpt lat="44.3672983" lon="11.420125"><ele>162.0</ele><time>2026-04-18T14:37:59.039Z</time></trkpt><trkpt lat="44.3673817" lon="11.420295"><ele>159.66666666666666</ele><time>2026-04-18T14:38:00.039Z</time></trkpt><trkpt lat="44.3674667" lon="11.4204583"><ele>157.33333333333331</ele><time>2026-04-18T14:38:01.039Z</time></trkpt><trkpt lat="44.3675717" lon="11.42063"><ele>155.0</ele><time>2026-04-18T14:38:02.039Z</time></trkpt><trkpt lat="44.3676667" lon="11.4207933"><ele>155.0</ele><time>2026-04-18T14:38:03.039Z</time></trkpt><trkpt lat="44.3677583" lon="11.42095"><ele>155.0</ele><time>2026-04-18T14:38:04.039Z</time></trkpt><trkpt lat="44.36784" lon="11.4211183"><ele>155.0</ele><time>2026-04-18T14:38:05.038Z</time></trkpt><trkpt lat="44.367905" lon="11.421315"><ele>155.0</ele><time>2026-04-18T14:38:06.039Z</time></trkpt><trkpt lat="44.3679633" lon="11.4215267"><ele>153.66666666666666</ele><time>2026-04-18T14:38:07.039Z</time></trkpt><trkpt lat="44.368005" lon="11.421755"><ele>152.33333333333334</ele><time>2026-04-18T14:38:08.039Z</time></trkpt><trkpt lat="44.36804" lon="11.4219883"><ele>151.0</ele><time>2026-04-18T14:38:09.039Z</time></trkpt><trkpt lat="44.3680583" lon="11.4222283"><ele>148.66666666666669</ele><time>2026-04-18T14:38:10.038Z</time></trkpt><trkpt lat="44.368075" lon="11.422465"><ele>146.33333333333334</ele><time>2026-04-18T14:38:11.039Z</time></trkpt><trkpt lat="44.36809" lon="11.4226967"><ele>144.0</ele><time>2026-04-18T14:38:12.038Z</time></trkpt><trkpt lat="44.368115" lon="11.4229067"><ele>145.25</ele><time>2026-04-18T14:38:13.039Z</time></trkpt><trkpt lat="44.36815" lon="11.423105"><ele>146.5</ele><time>2026-04-18T14:38:14.039Z</time></trkpt><trkpt lat="44.368215" lon="11.4232833"><ele>147.75</ele><time>2026-04-18T14:38:15.039Z</time></trkpt><trkpt lat="44.3683017" lon="11.423445"><ele>149.0</ele><time>2026-04-18T14:38:16.039Z</time></trkpt><trkpt lat="44.36839" lon="11.4236"><ele>149.0</ele><time>2026-04-18T14:38:17.039Z</time></trkpt><trkpt lat="44.36851" lon="11.4237583"><ele>149.0</ele><time>2026-04-18T14:38:18.038Z</time></trkpt><trkpt lat="44.3686383" lon="11.4239267"><ele>149.0</ele><time>2026-04-18T14:38:19.039Z</time></trkpt><trkpt lat="44.3687667" lon="11.4240933"><ele>146.66666666666666</ele><time>2026-04-18T14:38:20.039Z</time></trkpt><trkpt lat="44.36889" lon="11.4242683"><ele>144.33333333333334</ele><time>2026-04-18T14:38:21.039Z</time></trkpt><trkpt lat="44.3690083" lon="11.4244267"><ele>142.0</ele><time>2026-04-18T14:38:22.039Z</time></trkpt><trkpt lat="44.369135" lon="11.4245867"><ele>146.0</ele><time>2026-04-18T14:38:23.039Z</time></trkpt><trkpt lat="44.3692633" lon="11.4247533"><ele>150.0</ele><time>2026-04-18T14:38:24.039Z</time></trkpt><trkpt lat="44.3693967" lon="11.4249317"><ele>154.0</ele><time>2026-04-18T14:38:25.039Z</time></trkpt><trkpt lat="44.3695283" lon="11.4251183"><ele>154.0</ele><time>2026-04-18T14:38:26.039Z</time></trkpt><trkpt lat="44.3696733" lon="11.4253167"><ele>154.0</ele><time>2026-04-18T14:38:27.039Z</time></trkpt><trkpt lat="44.369805" lon="11.4255117"><ele>154.0</ele><time>2026-04-18T14:38:28.038Z</time></trkpt><trkpt lat="44.36994" lon="11.4257033"><ele>152.33333333333334</ele><time>2026-04-18T14:38:29.038Z</time></trkpt><trkpt lat="44.37007" lon="11.4258833"><ele>150.66666666666666</ele><time>2026-04-18T14:38:30.038Z</time></trkpt><trkpt lat="44.3702" lon="11.4260767"><ele>149.0</ele><time>2026-04-18T14:38:31.038Z</time></trkpt><trkpt lat="44.3703267" lon="11.4262517"><ele>150.0</ele><time>2026-04-18T14:38:32.039Z</time></trkpt><trkpt lat="44.370475" lon="11.4264183"><ele>151.0</ele><time>2026-04-18T14:38:33.039Z</time></trkpt><trkpt lat="44.3706233" lon="11.4265633"><ele>152.0</ele><time>2026-04-18T14:38:34.039Z</time></trkpt><trkpt lat="44.3707767" lon="11.4266933"><ele>152.0</ele><time>2026-04-18T14:38:35.039Z</time></trkpt><trkpt lat="44.370935" lon="11.426815"><ele>152.0</ele><time>2026-04-18T14:38:36.039Z</time></trkpt><trkpt lat="44.3711133" lon="11.4269233"><ele>152.0</ele><time>2026-04-18T14:38:37.039Z</time></trkpt><trkpt lat="44.371295" lon="11.4270217"><ele>152.0</ele><time>2026-04-18T14:38:38.039Z</time></trkpt><trkpt lat="44.3714633" lon="11.4271083"><ele>152.0</ele><time>2026-04-18T14:38:39.039Z</time></trkpt><trkpt lat="44.3716583" lon="11.4271817"><ele>152.0</ele><time>2026-04-18T14:38:40.039Z</time></trkpt><trkpt lat="44.37184" lon="11.4272583"><ele>152.0</ele><time>2026-04-18T14:38:41.039Z</time></trkpt><trkpt lat="44.3720283" lon="11.42734"><ele>152.0</ele><time>2026-04-18T14:38:42.039Z</time></trkpt><trkpt lat="44.3722233" lon="11.427425"><ele>152.0</ele><time>2026-04-18T14:38:43.038Z</time></trkpt><trkpt lat="44.3724217" lon="11.4275033"><ele>148.66666666666666</ele><time>2026-04-18T14:38:44.038Z</time></trkpt><trkpt lat="44.372635" lon="11.4275617"><ele>145.33333333333334</ele><time>2026-04-18T14:38:45.039Z</time></trkpt><trkpt lat="44.3728483" lon="11.4275983"><ele>142.0</ele><time>2026-04-18T14:38:46.039Z</time></trkpt><trkpt lat="44.3730433" lon="11.4276"><ele>141.0</ele><time>2026-04-18T14:38:47.039Z</time></trkpt><trkpt lat="44.373245" lon="11.4275517"><ele>140.0</ele><time>2026-04-18T14:38:48.038Z</time></trkpt><trkpt lat="44.373445" lon="11.4274733"><ele>139.0</ele><time>2026-04-18T14:38:49.039Z</time></trkpt><trkpt lat="44.3736367" lon="11.42738"><ele>139.0</ele><time>2026-04-18T14:38:50.039Z</time></trkpt><trkpt lat="44.3738283" lon="11.4272567"><ele>139.0</ele><time>2026-04-18T14:38:51.039Z</time></trkpt><trkpt lat="44.374025" lon="11.4271367"><ele>139.0</ele><time>2026-04-18T14:38:52.038Z</time></trkpt><trkpt lat="44.3742083" lon="11.4270317"><ele>138.0</ele><time>2026-04-18T14:38:53.039Z</time></trkpt><trkpt lat="44.3744017" lon="11.4269383"><ele>137.0</ele><time>2026-04-18T14:38:54.039Z</time></trkpt><trkpt lat="44.374595" lon="11.426875"><ele>136.0</ele><time>2026-04-18T14:38:55.039Z</time></trkpt><trkpt lat="44.374775" lon="11.4268183"><ele>136.0</ele><time>2026-04-18T14:38:56.039Z</time></trkpt><trkpt lat="44.3749417" lon="11.4267767"><ele>136.0</ele><time>2026-04-18T14:38:57.039Z</time></trkpt><trkpt lat="44.3750933" lon="11.42674"><ele>136.0</ele><time>2026-04-18T14:38:58.039Z</time></trkpt><trkpt lat="44.3752183" lon="11.4267033"><ele>136.0</ele><time>2026-04-18T14:38:59.038Z</time></trkpt><trkpt lat="44.3753267" lon="11.4266817"><ele>136.0</ele><time>2026-04-18T14:39:00.039Z</time></trkpt><trkpt lat="44.3754267" lon="11.4266567"><ele>136.0</ele><time>2026-04-18T14:39:01.038Z</time></trkpt><trkpt lat="44.3755267" lon="11.4266267"><ele>136.0</ele><time>2026-04-18T14:39:02.038Z</time></trkpt><trkpt lat="44.3756283" lon="11.4265983"><ele>136.0</ele><time>2026-04-18T14:39:03.039Z</time></trkpt><trkpt lat="44.3757333" lon="11.4265683"><ele>135.5</ele><time>2026-04-18T14:39:04.039Z</time></trkpt><trkpt lat="44.3758433" lon="11.4265417"><ele>135.0</ele><time>2026-04-18T14:39:05.039Z</time></trkpt><trkpt lat="44.3759567" lon="11.4265133"><ele>134.5</ele><time>2026-04-18T14:39:06.039Z</time></trkpt><trkpt lat="44.3760717" lon="11.4264883"><ele>134.0</ele><time>2026-04-18T14:39:07.039Z</time></trkpt><trkpt lat="44.376185" lon="11.4264633"><ele>134.0</ele><time>2026-04-18T14:39:08.038Z</time></trkpt><trkpt lat="44.3763017" lon="11.4264483"><ele>134.0</ele><time>2026-04-18T14:39:09.039Z</time></trkpt><trkpt lat="44.3764167" lon="11.426425"><ele>134.0</ele><time>2026-04-18T14:39:10.039Z</time></trkpt><trkpt lat="44.3765317" lon="11.4264067"><ele>134.0</ele><time>2026-04-18T14:39:11.039Z</time></trkpt><trkpt lat="44.3766533" lon="11.4264033"><ele>134.0</ele><time>2026-04-18T14:39:12.039Z</time></trkpt><trkpt lat="44.3767717" lon="11.4263933"><ele>134.0</ele><time>2026-04-18T14:39:13.039Z</time></trkpt><trkpt lat="44.3768883" lon="11.426375"><ele>134.0</ele><time>2026-04-18T14:39:14.039Z</time></trkpt><trkpt lat="44.377015" lon="11.4263533"><ele>134.0</ele><time>2026-04-18T14:39:15.038Z</time></trkpt><trkpt lat="44.3771433" lon="11.4263333"><ele>133.5</ele><time>2026-04-18T14:39:16.039Z</time></trkpt><trkpt lat="44.377265" lon="11.4263317"><ele>133.0</ele><time>2026-04-18T14:39:17.038Z</time></trkpt><trkpt lat="44.3773883" lon="11.42636"><ele>132.5</ele><time>2026-04-18T14:39:18.039Z</time></trkpt><trkpt lat="44.377515" lon="11.4263983"><ele>132.0</ele><time>2026-04-18T14:39:19.039Z</time></trkpt><trkpt lat="44.37763" lon="11.4264467"><ele>132.0</ele><time>2026-04-18T14:39:20.039Z</time></trkpt><trkpt lat="44.37775" lon="11.42649"><ele>132.0</ele><time>2026-04-18T14:39:21.039Z</time></trkpt><trkpt lat="44.3778917" lon="11.4265467"><ele>132.0</ele><time>2026-04-18T14:39:22.039Z</time></trkpt><trkpt lat="44.3780283" lon="11.4265967"><ele>132.0</ele><time>2026-04-18T14:39:23.039Z</time></trkpt><trkpt lat="44.3781633" lon="11.42664"><ele>131.5</ele><time>2026-04-18T14:39:24.039Z</time></trkpt><trkpt lat="44.3782983" lon="11.4266883"><ele>131.0</ele><time>2026-04-18T14:39:25.039Z</time></trkpt><trkpt lat="44.3784317" lon="11.4267417"><ele>130.5</ele><time>2026-04-18T14:39:26.039Z</time></trkpt><trkpt lat="44.3785567" lon="11.4267917"><ele>130.0</ele><time>2026-04-18T14:39:27.039Z</time></trkpt><trkpt lat="44.3786983" lon="11.426845"><ele>130.0</ele><time>2026-04-18T14:39:28.039Z</time></trkpt><trkpt lat="44.37883" lon="11.426895"><ele>130.0</ele><time>2026-04-18T14:39:29.039Z</time></trkpt><trkpt lat="44.378965" lon="11.42695"><ele>130.0</ele><time>2026-04-18T14:39:30.039Z</time></trkpt><trkpt lat="44.3791033" lon="11.4270067"><ele>130.0</ele><time>2026-04-18T14:39:31.039Z</time></trkpt><trkpt lat="44.379235" lon="11.42708"><ele>130.25</ele><time>2026-04-18T14:39:32.039Z</time></trkpt><trkpt lat="44.3793733" lon="11.427155"><ele>130.5</ele><time>2026-04-18T14:39:33.038Z</time></trkpt><trkpt lat="44.3795117" lon="11.42724"><ele>130.75</ele><time>2026-04-18T14:39:34.039Z</time></trkpt><trkpt lat="44.3796467" lon="11.4273267"><ele>131.0</ele><time>2026-04-18T14:39:35.038Z</time></trkpt><trkpt lat="44.3797767" lon="11.4274083"><ele>131.0</ele><time>2026-04-18T14:39:36.039Z</time></trkpt><trkpt lat="44.3799117" lon="11.4274883"><ele>131.0</ele><time>2026-04-18T14:39:37.039Z</time></trkpt><trkpt lat="44.38004" lon="11.427585"><ele>131.0</ele><time>2026-04-18T14:39:38.039Z</time></trkpt><trkpt lat="44.3801517" lon="11.4277017"><ele>131.0</ele><time>2026-04-18T14:39:39.039Z</time></trkpt><trkpt lat="44.3802417" lon="11.4278383"><ele>132.25</ele><time>2026-04-18T14:39:40.039Z</time></trkpt><trkpt lat="44.3803133" lon="11.4279917"><ele>133.5</ele><time>2026-04-18T14:39:41.039Z</time></trkpt><trkpt lat="44.38038" lon="11.4281733"><ele>134.75</ele><time>2026-04-18T14:39:42.039Z</time></trkpt><trkpt lat="44.380445" lon="11.4283567"><ele>136.0</ele><time>2026-04-18T14:39:43.038Z</time></trkpt><trkpt lat="44.3805067" lon="11.4285433"><ele>134.5</ele><time>2026-04-18T14:39:44.039Z</time></trkpt><trkpt lat="44.38057" lon="11.4287217"><ele>133.0</ele><time>2026-04-18T14:39:45.039Z</time></trkpt><trkpt lat="44.3806433" lon="11.4289"><ele>131.5</ele><time>2026-04-18T14:39:46.039Z</time></trkpt><trkpt lat="44.3807317" lon="11.4290767"><ele>130.0</ele><time>2026-04-18T14:39:47.039Z</time></trkpt><trkpt lat="44.380825" lon="11.4292433"><ele>130.0</ele><time>2026-04-18T14:39:48.039Z</time></trkpt><trkpt lat="44.3809367" lon="11.4293967"><ele>130.0</ele><time>2026-04-18T14:39:49.039Z</time></trkpt><trkpt lat="44.3810483" lon="11.429555"><ele>130.0</ele><time>2026-04-18T14:39:50.039Z</time></trkpt><trkpt lat="44.3811517" lon="11.4297183"><ele>129.75</ele><time>2026-04-18T14:39:51.039Z</time></trkpt><trkpt lat="44.38126" lon="11.4298833"><ele>129.5</ele><time>2026-04-18T14:39:52.039Z</time></trkpt><trkpt lat="44.3813717" lon="11.43002"><ele>129.25</ele><time>2026-04-18T14:39:53.038Z</time></trkpt><trkpt lat="44.3814817" lon="11.43014"><ele>129.0</ele><time>2026-04-18T14:39:54.039Z</time></trkpt><trkpt lat="44.38159" lon="11.43024"><ele>129.0</ele><time>2026-04-18T14:39:55.039Z</time></trkpt><trkpt lat="44.38169" lon="11.43034"><ele>129.0</ele><time>2026-04-18T14:39:56.039Z</time></trkpt><trkpt lat="44.38179" lon="11.43045"><ele>129.0</ele><time>2026-04-18T14:39:57.039Z</time></trkpt><trkpt lat="44.3818967" lon="11.4305717"><ele>129.0</ele><time>2026-04-18T14:39:58.038Z</time></trkpt><trkpt lat="44.38202" lon="11.4306933"><ele>129.33333333333334</ele><time>2026-04-18T14:39:59.039Z</time></trkpt><trkpt lat="44.3821467" lon="11.4308117"><ele>129.66666666666669</ele><time>2026-04-18T14:40:00.039Z</time></trkpt><trkpt lat="44.3822767" lon="11.4309283"><ele>130.0</ele><time>2026-04-18T14:40:01.039Z</time></trkpt><trkpt lat="44.3824083" lon="11.4310417"><ele>130.0</ele><time>2026-04-18T14:40:02.039Z</time></trkpt><trkpt lat="44.382545" lon="11.43115"><ele>130.0</ele><time>2026-04-18T14:40:03.039Z</time></trkpt><trkpt lat="44.3826867" lon="11.4312533"><ele>130.0</ele><time>2026-04-18T14:40:04.039Z</time></trkpt><trkpt lat="44.3828133" lon="11.4313533"><ele>129.75</ele><time>2026-04-18T14:40:05.038Z</time></trkpt><trkpt lat="44.38293" lon="11.4314483"><ele>129.5</ele><time>2026-04-18T14:40:06.039Z</time></trkpt><trkpt lat="44.38305" lon="11.4315367"><ele>129.25</ele><time>2026-04-18T14:40:07.039Z</time></trkpt><trkpt lat="44.3831617" lon="11.43163"><ele>129.0</ele><time>2026-04-18T14:40:08.038Z</time></trkpt><trkpt lat="44.383275" lon="11.4317183"><ele>129.0</ele><time>2026-04-18T14:40:09.039Z</time></trkpt><trkpt lat="44.383375" lon="11.4318083"><ele>129.0</ele><time>2026-04-18T14:40:10.038Z</time></trkpt><trkpt lat="44.3834867" lon="11.4319067"><ele>129.0</ele><time>2026-04-18T14:40:11.039Z</time></trkpt><trkpt lat="44.3836" lon="11.4319983"><ele>129.0</ele><time>2026-04-18T14:40:12.038Z</time></trkpt><trkpt lat="44.383715" lon="11.4321017"><ele>130.0</ele><time>2026-04-18T14:40:13.039Z</time></trkpt><trkpt lat="44.383845" lon="11.4322017"><ele>131.0</ele><time>2026-04-18T14:40:14.039Z</time></trkpt><trkpt lat="44.3839833" lon="11.4323067"><ele>132.0</ele><time>2026-04-18T14:40:15.039Z</time></trkpt><trkpt lat="44.3841417" lon="11.4324"><ele>128.33333333333334</ele><time>2026-04-18T14:40:16.039Z</time></trkpt><trkpt lat="44.38429" lon="11.4324733"><ele>124.66666666666667</ele><time>2026-04-18T14:40:17.039Z</time></trkpt><trkpt lat="44.3844283" lon="11.4325267"><ele>121.0</ele><time>2026-04-18T14:40:18.039Z</time></trkpt><trkpt lat="44.38459" lon="11.4325633"><ele>121.0</ele><time>2026-04-18T14:40:19.038Z</time></trkpt><trkpt lat="44.3847333" lon="11.432585"><ele>121.0</ele><time>2026-04-18T14:40:20.039Z</time></trkpt><trkpt lat="44.38488" lon="11.43259"><ele>121.0</ele><time>2026-04-18T14:40:21.038Z</time></trkpt><trkpt lat="44.3850217" lon="11.4325783"><ele>121.0</ele><time>2026-04-18T14:40:22.039Z</time></trkpt><trkpt lat="44.38517" lon="11.4325483"><ele>121.0</ele><time>2026-04-18T14:40:23.039Z</time></trkpt><trkpt lat="44.3853167" lon="11.4325283"><ele>121.0</ele><time>2026-04-18T14:40:24.039Z</time></trkpt><trkpt lat="44.38546" lon="11.4325067"><ele>121.0</ele><time>2026-04-18T14:40:25.039Z</time></trkpt><trkpt lat="44.3856083" lon="11.4324917"><ele>121.0</ele><time>2026-04-18T14:40:26.039Z</time></trkpt><trkpt lat="44.38576" lon="11.432495"><ele>121.5</ele><time>2026-04-18T14:40:27.039Z</time></trkpt><trkpt lat="44.3859" lon="11.4324867"><ele>122.0</ele><time>2026-04-18T14:40:28.039Z</time></trkpt><trkpt lat="44.3860383" lon="11.4324833"><ele>122.5</ele><time>2026-04-18T14:40:29.039Z</time></trkpt><trkpt lat="44.386175" lon="11.4324683"><ele>123.0</ele><time>2026-04-18T14:40:30.039Z</time></trkpt><trkpt lat="44.3863083" lon="11.4324533"><ele>123.25</ele><time>2026-04-18T14:40:31.039Z</time></trkpt><trkpt lat="44.3864567" lon="11.4324383"><ele>123.5</ele><time>2026-04-18T14:40:32.039Z</time></trkpt><trkpt lat="44.386605" lon="11.432405"><ele>123.75</ele><time>2026-04-18T14:40:33.039Z</time></trkpt><trkpt lat="44.3867433" lon="11.4323717"><ele>124.0</ele><time>2026-04-18T14:40:34.039Z</time></trkpt><trkpt lat="44.3868783" lon="11.4323333"><ele>124.0</ele><time>2026-04-18T14:40:35.039Z</time></trkpt><trkpt lat="44.3869783" lon="11.4322983"><ele>124.0</ele><time>2026-04-18T14:40:36.039Z</time></trkpt><trkpt lat="44.387105" lon="11.432285"><ele>124.0</ele><time>2026-04-18T14:40:37.039Z</time></trkpt><trkpt lat="44.387245" lon="11.4322867"><ele>124.0</ele><time>2026-04-18T14:40:38.039Z</time></trkpt><trkpt lat="44.3873667" lon="11.4323233"><ele>124.25</ele><time>2026-04-18T14:40:39.038Z</time></trkpt><trkpt lat="44.3874833" lon="11.4323733"><ele>124.5</ele><time>2026-04-18T14:40:40.039Z</time></trkpt><trkpt lat="44.38759" lon="11.43243"><ele>124.75</ele><time>2026-04-18T14:40:41.039Z</time></trkpt><trkpt lat="44.3876967" lon="11.432495"><ele>125.0</ele><time>2026-04-18T14:40:42.039Z</time></trkpt><trkpt lat="44.38781" lon="11.4325617"><ele>125.0</ele><time>2026-04-18T14:40:43.038Z</time></trkpt><trkpt lat="44.387915" lon="11.4326317"><ele>125.0</ele><time>2026-04-18T14:40:44.039Z</time></trkpt><trkpt lat="44.38802" lon="11.4326883"><ele>125.0</ele><time>2026-04-18T14:40:45.038Z</time></trkpt><trkpt lat="44.38812" lon="11.432725"><ele>125.0</ele><time>2026-04-18T14:40:46.037Z</time></trkpt><trkpt lat="44.3882133" lon="11.4327467"><ele>125.0</ele><time>2026-04-18T14:40:47.038Z</time></trkpt><trkpt lat="44.388305" lon="11.43275"><ele>124.83333333333333</ele><time>2026-04-18T14:40:48.038Z</time></trkpt><trkpt lat="44.388395" lon="11.4327367"><ele>124.66666666666666</ele><time>2026-04-18T14:40:49.038Z</time></trkpt><trkpt lat="44.388475" lon="11.432715"><ele>124.5</ele><time>2026-04-18T14:40:50.038Z</time></trkpt><trkpt lat="44.3885467" lon="11.432685"><ele>124.33333333333334</ele><time>2026-04-18T14:40:51.037Z</time></trkpt><trkpt lat="44.3886367" lon="11.4326167"><ele>124.16666666666667</ele><time>2026-04-18T14:40:53.038Z</time></trkpt><trkpt lat="44.3886783" lon="11.4325317"><ele>124.0</ele><time>2026-04-18T14:40:55.037Z</time></trkpt><trkpt lat="44.3886683" lon="11.4324083"><ele>124.0</ele><time>2026-04-18T14:40:58.038Z</time></trkpt><trkpt lat="44.38869" lon="11.4323133"><ele>124.0</ele><time>2026-04-18T14:41:01.038Z</time></trkpt></trkseg></trk></gpx>